<?xml version="1.0" encoding="UTF-8" standalone="no" ?>
<gpx xmlns="http://www.topografix.com/GPX/1/1" xmlns:xsi="http://www.w3.org/2001/XMLSchema-instance" xsi:schemaLocation="http://www.topografix.com/GPX/1/1 http://www.topografix.com/GPX/1/1/gpx.xsd" version="1.1" creator="VisuGPX - https://www.visugpx.com">
  <metadata>
    <name>[04/12/2016] Rando club Speedeure</name>
    <desc><![CDATA[Rando de 35 km au nord d'Evreux avec 2 montées physiques.]]></desc>
  </metadata>
  <trk>
    <name><![CDATA[[04/12/2016] Rando club Speedeure_1]]></name>
    <trkseg>
      <trkpt lat="49.02258" lon="1.14056">
        <ele>60.580616</ele>
        <time>2016-12-04T07:48:28Z</time>
      </trkpt>
      <trkpt lat="49.02258" lon="1.14056">
        <ele>60.580616</ele>
        <time>2016-12-04T07:48:29Z</time>
      </trkpt>
      <trkpt lat="49.02267" lon="1.14059">
        <ele>60.5</ele>
        <time>2016-12-04T07:49:39Z</time>
      </trkpt>
      <trkpt lat="49.02273" lon="1.14068">
        <ele>60.5</ele>
        <time>2016-12-04T07:50:14Z</time>
      </trkpt>
      <trkpt lat="49.02283" lon="1.14072">
        <ele>60.5</ele>
        <time>2016-12-04T07:50:18Z</time>
      </trkpt>
      <trkpt lat="49.02293" lon="1.1407">
        <ele>60.5</ele>
        <time>2016-12-04T07:50:21Z</time>
      </trkpt>
      <trkpt lat="49.02303" lon="1.1407">
        <ele>60.5</ele>
        <time>2016-12-04T07:50:24Z</time>
      </trkpt>
      <trkpt lat="49.0231" lon="1.14085">
        <ele>60.5</ele>
        <time>2016-12-04T07:50:27Z</time>
      </trkpt>
      <trkpt lat="49.02312" lon="1.14102">
        <ele>60.5</ele>
        <time>2016-12-04T07:50:30Z</time>
      </trkpt>
      <trkpt lat="49.02317" lon="1.14119">
        <ele>60.5</ele>
        <time>2016-12-04T07:50:33Z</time>
      </trkpt>
      <trkpt lat="49.02319" lon="1.14137">
        <ele>60.5</ele>
        <time>2016-12-04T07:50:36Z</time>
      </trkpt>
      <trkpt lat="49.02321" lon="1.14156">
        <ele>60.5</ele>
        <time>2016-12-04T07:50:39Z</time>
      </trkpt>
      <trkpt lat="49.02325" lon="1.14173">
        <ele>60.5</ele>
        <time>2016-12-04T07:50:42Z</time>
      </trkpt>
      <trkpt lat="49.02329" lon="1.14192">
        <ele>60.5</ele>
        <time>2016-12-04T07:50:45Z</time>
      </trkpt>
      <trkpt lat="49.02331" lon="1.14212">
        <ele>60.5</ele>
        <time>2016-12-04T07:50:48Z</time>
      </trkpt>
      <trkpt lat="49.02335" lon="1.14231">
        <ele>60.5</ele>
        <time>2016-12-04T07:50:51Z</time>
      </trkpt>
      <trkpt lat="49.0234" lon="1.14242">
        <ele>60.5</ele>
        <time>2016-12-04T07:50:53Z</time>
      </trkpt>
      <trkpt lat="49.02346" lon="1.14254">
        <ele>60.5</ele>
        <time>2016-12-04T07:50:55Z</time>
      </trkpt>
      <trkpt lat="49.02353" lon="1.1427">
        <ele>60.400002</ele>
        <time>2016-12-04T07:50:58Z</time>
      </trkpt>
      <trkpt lat="49.02357" lon="1.14288">
        <ele>60.400002</ele>
        <time>2016-12-04T07:51:01Z</time>
      </trkpt>
      <trkpt lat="49.02361" lon="1.14307">
        <ele>60.299999</ele>
        <time>2016-12-04T07:51:04Z</time>
      </trkpt>
      <trkpt lat="49.02365" lon="1.14323">
        <ele>60.200001</ele>
        <time>2016-12-04T07:51:07Z</time>
      </trkpt>
      <trkpt lat="49.02369" lon="1.14337">
        <ele>60.099998</ele>
        <time>2016-12-04T07:51:10Z</time>
      </trkpt>
      <trkpt lat="49.02374" lon="1.14351">
        <ele>60.099998</ele>
        <time>2016-12-04T07:51:13Z</time>
      </trkpt>
      <trkpt lat="49.02381" lon="1.14365">
        <ele>60</ele>
        <time>2016-12-04T07:51:16Z</time>
      </trkpt>
      <trkpt lat="49.02385" lon="1.1438">
        <ele>60</ele>
        <time>2016-12-04T07:51:19Z</time>
      </trkpt>
      <trkpt lat="49.02387" lon="1.14397">
        <ele>59.900002</ele>
        <time>2016-12-04T07:51:22Z</time>
      </trkpt>
      <trkpt lat="49.02389" lon="1.14414">
        <ele>59.900002</ele>
        <time>2016-12-04T07:51:25Z</time>
      </trkpt>
      <trkpt lat="49.0239" lon="1.14431">
        <ele>59.900002</ele>
        <time>2016-12-04T07:51:28Z</time>
      </trkpt>
      <trkpt lat="49.02391" lon="1.14448">
        <ele>59.799999</ele>
        <time>2016-12-04T07:51:31Z</time>
      </trkpt>
      <trkpt lat="49.02393" lon="1.14465">
        <ele>59.799999</ele>
        <time>2016-12-04T07:51:34Z</time>
      </trkpt>
      <trkpt lat="49.02393" lon="1.14482">
        <ele>59.799999</ele>
        <time>2016-12-04T07:51:37Z</time>
      </trkpt>
      <trkpt lat="49.02394" lon="1.14499">
        <ele>59.799999</ele>
        <time>2016-12-04T07:51:40Z</time>
      </trkpt>
      <trkpt lat="49.02394" lon="1.14515">
        <ele>59.799999</ele>
        <time>2016-12-04T07:51:43Z</time>
      </trkpt>
      <trkpt lat="49.02394" lon="1.14533">
        <ele>59.900002</ele>
        <time>2016-12-04T07:51:46Z</time>
      </trkpt>
      <trkpt lat="49.02391" lon="1.14551">
        <ele>59.900002</ele>
        <time>2016-12-04T07:51:49Z</time>
      </trkpt>
      <trkpt lat="49.02389" lon="1.14569">
        <ele>59.900002</ele>
        <time>2016-12-04T07:51:52Z</time>
      </trkpt>
      <trkpt lat="49.02387" lon="1.14587">
        <ele>59.900002</ele>
        <time>2016-12-04T07:51:55Z</time>
      </trkpt>
      <trkpt lat="49.02386" lon="1.14605">
        <ele>59.900002</ele>
        <time>2016-12-04T07:51:58Z</time>
      </trkpt>
      <trkpt lat="49.02386" lon="1.14625">
        <ele>59.900002</ele>
        <time>2016-12-04T07:52:01Z</time>
      </trkpt>
      <trkpt lat="49.02387" lon="1.14639">
        <ele>60</ele>
        <time>2016-12-04T07:52:03Z</time>
      </trkpt>
      <trkpt lat="49.02388" lon="1.14653">
        <ele>60</ele>
        <time>2016-12-04T07:52:05Z</time>
      </trkpt>
      <trkpt lat="49.02388" lon="1.14674">
        <ele>60</ele>
        <time>2016-12-04T07:52:08Z</time>
      </trkpt>
      <trkpt lat="49.02388" lon="1.14688">
        <ele>60</ele>
        <time>2016-12-04T07:52:10Z</time>
      </trkpt>
      <trkpt lat="49.02388" lon="1.14701">
        <ele>60</ele>
        <time>2016-12-04T07:52:12Z</time>
      </trkpt>
      <trkpt lat="49.02389" lon="1.14715">
        <ele>60</ele>
        <time>2016-12-04T07:52:14Z</time>
      </trkpt>
      <trkpt lat="49.02391" lon="1.1473">
        <ele>60</ele>
        <time>2016-12-04T07:52:16Z</time>
      </trkpt>
      <trkpt lat="49.02394" lon="1.14744">
        <ele>60</ele>
        <time>2016-12-04T07:52:18Z</time>
      </trkpt>
      <trkpt lat="49.02396" lon="1.14758">
        <ele>60</ele>
        <time>2016-12-04T07:52:20Z</time>
      </trkpt>
      <trkpt lat="49.02399" lon="1.1477">
        <ele>60</ele>
        <time>2016-12-04T07:52:22Z</time>
      </trkpt>
      <trkpt lat="49.02404" lon="1.14786">
        <ele>59.900002</ele>
        <time>2016-12-04T07:52:25Z</time>
      </trkpt>
      <trkpt lat="49.02405" lon="1.14804">
        <ele>59.900002</ele>
        <time>2016-12-04T07:52:28Z</time>
      </trkpt>
      <trkpt lat="49.02407" lon="1.14818">
        <ele>59.799999</ele>
        <time>2016-12-04T07:52:30Z</time>
      </trkpt>
      <trkpt lat="49.02409" lon="1.14832">
        <ele>59.799999</ele>
        <time>2016-12-04T07:52:32Z</time>
      </trkpt>
      <trkpt lat="49.02411" lon="1.14846">
        <ele>59.799999</ele>
        <time>2016-12-04T07:52:34Z</time>
      </trkpt>
      <trkpt lat="49.02414" lon="1.14861">
        <ele>59.799999</ele>
        <time>2016-12-04T07:52:36Z</time>
      </trkpt>
      <trkpt lat="49.02416" lon="1.14875">
        <ele>59.700001</ele>
        <time>2016-12-04T07:52:38Z</time>
      </trkpt>
      <trkpt lat="49.02418" lon="1.14894">
        <ele>59.700001</ele>
        <time>2016-12-04T07:52:41Z</time>
      </trkpt>
      <trkpt lat="49.0242" lon="1.14907">
        <ele>59.700001</ele>
        <time>2016-12-04T07:52:43Z</time>
      </trkpt>
      <trkpt lat="49.02423" lon="1.14926">
        <ele>59.700001</ele>
        <time>2016-12-04T07:52:46Z</time>
      </trkpt>
      <trkpt lat="49.02428" lon="1.1494">
        <ele>59.700001</ele>
        <time>2016-12-04T07:52:49Z</time>
      </trkpt>
      <trkpt lat="49.02438" lon="1.14942">
        <ele>59.599998</ele>
        <time>2016-12-04T07:52:54Z</time>
      </trkpt>
      <trkpt lat="49.02447" lon="1.14939">
        <ele>59.599998</ele>
        <time>2016-12-04T07:53:37Z</time>
      </trkpt>
      <trkpt lat="49.02456" lon="1.14932">
        <ele>59.599998</ele>
        <time>2016-12-04T07:53:41Z</time>
      </trkpt>
      <trkpt lat="49.02467" lon="1.14924">
        <ele>59.599998</ele>
        <time>2016-12-04T07:53:45Z</time>
      </trkpt>
      <trkpt lat="49.02476" lon="1.14921">
        <ele>59.599998</ele>
        <time>2016-12-04T07:53:48Z</time>
      </trkpt>
      <trkpt lat="49.02487" lon="1.14915">
        <ele>59.599998</ele>
        <time>2016-12-04T07:53:51Z</time>
      </trkpt>
      <trkpt lat="49.02498" lon="1.14908">
        <ele>59.599998</ele>
        <time>2016-12-04T07:53:54Z</time>
      </trkpt>
      <trkpt lat="49.02509" lon="1.14901">
        <ele>59.599998</ele>
        <time>2016-12-04T07:53:57Z</time>
      </trkpt>
      <trkpt lat="49.02519" lon="1.14894">
        <ele>59.5</ele>
        <time>2016-12-04T07:54:00Z</time>
      </trkpt>
      <trkpt lat="49.0253" lon="1.14886">
        <ele>59.400002</ele>
        <time>2016-12-04T07:54:03Z</time>
      </trkpt>
      <trkpt lat="49.0254" lon="1.14879">
        <ele>59.299999</ele>
        <time>2016-12-04T07:54:06Z</time>
      </trkpt>
      <trkpt lat="49.02551" lon="1.14871">
        <ele>59.200001</ele>
        <time>2016-12-04T07:54:09Z</time>
      </trkpt>
      <trkpt lat="49.02563" lon="1.14864">
        <ele>59.099998</ele>
        <time>2016-12-04T07:54:12Z</time>
      </trkpt>
      <trkpt lat="49.02575" lon="1.14858">
        <ele>59</ele>
        <time>2016-12-04T07:54:15Z</time>
      </trkpt>
      <trkpt lat="49.02588" lon="1.14853">
        <ele>58.900002</ele>
        <time>2016-12-04T07:54:18Z</time>
      </trkpt>
      <trkpt lat="49.02601" lon="1.14852">
        <ele>58.900002</ele>
        <time>2016-12-04T07:54:21Z</time>
      </trkpt>
      <trkpt lat="49.0261" lon="1.14852">
        <ele>58.900002</ele>
        <time>2016-12-04T07:54:24Z</time>
      </trkpt>
      <trkpt lat="49.02621" lon="1.14858">
        <ele>58.900002</ele>
        <time>2016-12-04T07:54:28Z</time>
      </trkpt>
      <trkpt lat="49.02633" lon="1.14864">
        <ele>58.900002</ele>
        <time>2016-12-04T07:54:31Z</time>
      </trkpt>
      <trkpt lat="49.02644" lon="1.14876">
        <ele>58.900002</ele>
        <time>2016-12-04T07:54:34Z</time>
      </trkpt>
      <trkpt lat="49.02649" lon="1.14888">
        <ele>59</ele>
        <time>2016-12-04T07:54:36Z</time>
      </trkpt>
      <trkpt lat="49.02655" lon="1.149">
        <ele>58.900002</ele>
        <time>2016-12-04T07:54:38Z</time>
      </trkpt>
      <trkpt lat="49.0266" lon="1.14912">
        <ele>58.900002</ele>
        <time>2016-12-04T07:54:40Z</time>
      </trkpt>
      <trkpt lat="49.02667" lon="1.14928">
        <ele>58.799999</ele>
        <time>2016-12-04T07:54:43Z</time>
      </trkpt>
      <trkpt lat="49.02674" lon="1.14944">
        <ele>58.799999</ele>
        <time>2016-12-04T07:54:46Z</time>
      </trkpt>
      <trkpt lat="49.02681" lon="1.1496">
        <ele>58.799999</ele>
        <time>2016-12-04T07:54:49Z</time>
      </trkpt>
      <trkpt lat="49.02687" lon="1.14976">
        <ele>58.700001</ele>
        <time>2016-12-04T07:54:52Z</time>
      </trkpt>
      <trkpt lat="49.02694" lon="1.14992">
        <ele>58.700001</ele>
        <time>2016-12-04T07:54:55Z</time>
      </trkpt>
      <trkpt lat="49.02702" lon="1.15007">
        <ele>58.700001</ele>
        <time>2016-12-04T07:54:58Z</time>
      </trkpt>
      <trkpt lat="49.02708" lon="1.1502">
        <ele>58.700001</ele>
        <time>2016-12-04T07:55:02Z</time>
      </trkpt>
      <trkpt lat="49.02713" lon="1.15032">
        <ele>58.599998</ele>
        <time>2016-12-04T07:55:05Z</time>
      </trkpt>
      <trkpt lat="49.02722" lon="1.15043">
        <ele>58.599998</ele>
        <time>2016-12-04T07:55:08Z</time>
      </trkpt>
      <trkpt lat="49.0273" lon="1.15057">
        <ele>58.599998</ele>
        <time>2016-12-04T07:55:11Z</time>
      </trkpt>
      <trkpt lat="49.02738" lon="1.15073">
        <ele>58.599998</ele>
        <time>2016-12-04T07:55:14Z</time>
      </trkpt>
      <trkpt lat="49.02746" lon="1.15089">
        <ele>58.599998</ele>
        <time>2016-12-04T07:55:17Z</time>
      </trkpt>
      <trkpt lat="49.02753" lon="1.15104">
        <ele>58.599998</ele>
        <time>2016-12-04T07:55:20Z</time>
      </trkpt>
      <trkpt lat="49.02757" lon="1.15118">
        <ele>58.5</ele>
        <time>2016-12-04T07:55:23Z</time>
      </trkpt>
      <trkpt lat="49.02748" lon="1.15126">
        <ele>58.5</ele>
        <time>2016-12-04T07:55:27Z</time>
      </trkpt>
      <trkpt lat="49.02742" lon="1.15139">
        <ele>58.5</ele>
        <time>2016-12-04T07:55:31Z</time>
      </trkpt>
      <trkpt lat="49.02745" lon="1.15155">
        <ele>58.5</ele>
        <time>2016-12-04T07:55:34Z</time>
      </trkpt>
      <trkpt lat="49.0275" lon="1.15167">
        <ele>58.5</ele>
        <time>2016-12-04T07:55:36Z</time>
      </trkpt>
      <trkpt lat="49.02755" lon="1.1518">
        <ele>58.5</ele>
        <time>2016-12-04T07:55:38Z</time>
      </trkpt>
      <trkpt lat="49.0276" lon="1.15194">
        <ele>58.5</ele>
        <time>2016-12-04T07:55:40Z</time>
      </trkpt>
      <trkpt lat="49.02766" lon="1.15208">
        <ele>58.5</ele>
        <time>2016-12-04T07:55:42Z</time>
      </trkpt>
      <trkpt lat="49.0277" lon="1.1522">
        <ele>58.5</ele>
        <time>2016-12-04T07:55:44Z</time>
      </trkpt>
      <trkpt lat="49.02774" lon="1.15233">
        <ele>58.400002</ele>
        <time>2016-12-04T07:55:46Z</time>
      </trkpt>
      <trkpt lat="49.02781" lon="1.15249">
        <ele>58.400002</ele>
        <time>2016-12-04T07:55:49Z</time>
      </trkpt>
      <trkpt lat="49.02787" lon="1.15267">
        <ele>58.299999</ele>
        <time>2016-12-04T07:55:52Z</time>
      </trkpt>
      <trkpt lat="49.02794" lon="1.15283">
        <ele>58.299999</ele>
        <time>2016-12-04T07:55:55Z</time>
      </trkpt>
      <trkpt lat="49.02801" lon="1.15294">
        <ele>58.200001</ele>
        <time>2016-12-04T07:55:57Z</time>
      </trkpt>
      <trkpt lat="49.02807" lon="1.15304">
        <ele>58.200001</ele>
        <time>2016-12-04T07:55:59Z</time>
      </trkpt>
      <trkpt lat="49.02816" lon="1.15314">
        <ele>58.099998</ele>
        <time>2016-12-04T07:56:01Z</time>
      </trkpt>
      <trkpt lat="49.02824" lon="1.15323">
        <ele>58.099998</ele>
        <time>2016-12-04T07:56:03Z</time>
      </trkpt>
      <trkpt lat="49.02835" lon="1.15335">
        <ele>58</ele>
        <time>2016-12-04T07:56:06Z</time>
      </trkpt>
      <trkpt lat="49.02843" lon="1.15327">
        <ele>57.799999</ele>
        <time>2016-12-04T07:56:13Z</time>
      </trkpt>
      <trkpt lat="49.02852" lon="1.15312">
        <ele>57.700001</ele>
        <time>2016-12-04T07:56:16Z</time>
      </trkpt>
      <trkpt lat="49.0286" lon="1.15296">
        <ele>57.599998</ele>
        <time>2016-12-04T07:56:19Z</time>
      </trkpt>
      <trkpt lat="49.02866" lon="1.15286">
        <ele>57.599998</ele>
        <time>2016-12-04T07:56:21Z</time>
      </trkpt>
      <trkpt lat="49.02872" lon="1.15276">
        <ele>57.5</ele>
        <time>2016-12-04T07:56:23Z</time>
      </trkpt>
      <trkpt lat="49.02878" lon="1.15265">
        <ele>57.5</ele>
        <time>2016-12-04T07:56:25Z</time>
      </trkpt>
      <trkpt lat="49.02884" lon="1.15255">
        <ele>57.5</ele>
        <time>2016-12-04T07:56:27Z</time>
      </trkpt>
      <trkpt lat="49.0289" lon="1.15243">
        <ele>57.5</ele>
        <time>2016-12-04T07:56:29Z</time>
      </trkpt>
      <trkpt lat="49.02897" lon="1.15232">
        <ele>57.400002</ele>
        <time>2016-12-04T07:56:31Z</time>
      </trkpt>
      <trkpt lat="49.02905" lon="1.15222">
        <ele>57.400002</ele>
        <time>2016-12-04T07:56:33Z</time>
      </trkpt>
      <trkpt lat="49.02911" lon="1.15211">
        <ele>57.400002</ele>
        <time>2016-12-04T07:56:35Z</time>
      </trkpt>
      <trkpt lat="49.02921" lon="1.152">
        <ele>57.299999</ele>
        <time>2016-12-04T07:56:38Z</time>
      </trkpt>
      <trkpt lat="49.02932" lon="1.15205">
        <ele>57.200001</ele>
        <time>2016-12-04T07:56:41Z</time>
      </trkpt>
      <trkpt lat="49.02943" lon="1.15217">
        <ele>57.200001</ele>
        <time>2016-12-04T07:56:44Z</time>
      </trkpt>
      <trkpt lat="49.0295" lon="1.15224">
        <ele>57.099998</ele>
        <time>2016-12-04T07:56:46Z</time>
      </trkpt>
      <trkpt lat="49.02958" lon="1.15231">
        <ele>57</ele>
        <time>2016-12-04T07:56:48Z</time>
      </trkpt>
      <trkpt lat="49.02966" lon="1.15239">
        <ele>57</ele>
        <time>2016-12-04T07:56:50Z</time>
      </trkpt>
      <trkpt lat="49.02974" lon="1.15247">
        <ele>56.900002</ele>
        <time>2016-12-04T07:56:52Z</time>
      </trkpt>
      <trkpt lat="49.02982" lon="1.15255">
        <ele>56.900002</ele>
        <time>2016-12-04T07:56:54Z</time>
      </trkpt>
      <trkpt lat="49.0299" lon="1.15262">
        <ele>56.799999</ele>
        <time>2016-12-04T07:56:56Z</time>
      </trkpt>
      <trkpt lat="49.02998" lon="1.1527">
        <ele>56.799999</ele>
        <time>2016-12-04T07:56:58Z</time>
      </trkpt>
      <trkpt lat="49.03006" lon="1.15279">
        <ele>56.700001</ele>
        <time>2016-12-04T07:57:00Z</time>
      </trkpt>
      <trkpt lat="49.03014" lon="1.15287">
        <ele>56.599998</ele>
        <time>2016-12-04T07:57:02Z</time>
      </trkpt>
      <trkpt lat="49.03022" lon="1.15295">
        <ele>56.599998</ele>
        <time>2016-12-04T07:57:04Z</time>
      </trkpt>
      <trkpt lat="49.0303" lon="1.15303">
        <ele>56.5</ele>
        <time>2016-12-04T07:57:06Z</time>
      </trkpt>
      <trkpt lat="49.03038" lon="1.15311">
        <ele>56.5</ele>
        <time>2016-12-04T07:57:08Z</time>
      </trkpt>
      <trkpt lat="49.03046" lon="1.15319">
        <ele>56.400002</ele>
        <time>2016-12-04T07:57:10Z</time>
      </trkpt>
      <trkpt lat="49.03054" lon="1.15328">
        <ele>56.400002</ele>
        <time>2016-12-04T07:57:12Z</time>
      </trkpt>
      <trkpt lat="49.03063" lon="1.15336">
        <ele>56.299999</ele>
        <time>2016-12-04T07:57:14Z</time>
      </trkpt>
      <trkpt lat="49.03071" lon="1.15345">
        <ele>56.299999</ele>
        <time>2016-12-04T07:57:16Z</time>
      </trkpt>
      <trkpt lat="49.0308" lon="1.15354">
        <ele>56.299999</ele>
        <time>2016-12-04T07:57:18Z</time>
      </trkpt>
      <trkpt lat="49.03088" lon="1.15362">
        <ele>56.299999</ele>
        <time>2016-12-04T07:57:20Z</time>
      </trkpt>
      <trkpt lat="49.03097" lon="1.15371">
        <ele>56.200001</ele>
        <time>2016-12-04T07:57:22Z</time>
      </trkpt>
      <trkpt lat="49.03105" lon="1.15379">
        <ele>56.200001</ele>
        <time>2016-12-04T07:57:24Z</time>
      </trkpt>
      <trkpt lat="49.03114" lon="1.15388">
        <ele>56.200001</ele>
        <time>2016-12-04T07:57:26Z</time>
      </trkpt>
      <trkpt lat="49.03122" lon="1.15396">
        <ele>56.200001</ele>
        <time>2016-12-04T07:57:28Z</time>
      </trkpt>
      <trkpt lat="49.0313" lon="1.15405">
        <ele>56.099998</ele>
        <time>2016-12-04T07:57:30Z</time>
      </trkpt>
      <trkpt lat="49.03138" lon="1.15413">
        <ele>56.099998</ele>
        <time>2016-12-04T07:57:32Z</time>
      </trkpt>
      <trkpt lat="49.03147" lon="1.15422">
        <ele>56.099998</ele>
        <time>2016-12-04T07:57:34Z</time>
      </trkpt>
      <trkpt lat="49.03155" lon="1.15431">
        <ele>56</ele>
        <time>2016-12-04T07:57:36Z</time>
      </trkpt>
      <trkpt lat="49.03163" lon="1.1544">
        <ele>56</ele>
        <time>2016-12-04T07:57:38Z</time>
      </trkpt>
      <trkpt lat="49.03171" lon="1.15448">
        <ele>56</ele>
        <time>2016-12-04T07:57:40Z</time>
      </trkpt>
      <trkpt lat="49.0318" lon="1.15457">
        <ele>55.900002</ele>
        <time>2016-12-04T07:57:42Z</time>
      </trkpt>
      <trkpt lat="49.03189" lon="1.15465">
        <ele>55.900002</ele>
        <time>2016-12-04T07:57:44Z</time>
      </trkpt>
      <trkpt lat="49.03197" lon="1.15474">
        <ele>55.900002</ele>
        <time>2016-12-04T07:57:46Z</time>
      </trkpt>
      <trkpt lat="49.03205" lon="1.15483">
        <ele>55.900002</ele>
        <time>2016-12-04T07:57:48Z</time>
      </trkpt>
      <trkpt lat="49.03213" lon="1.15491">
        <ele>55.799999</ele>
        <time>2016-12-04T07:57:50Z</time>
      </trkpt>
      <trkpt lat="49.03222" lon="1.15499">
        <ele>55.599998</ele>
        <time>2016-12-04T07:57:52Z</time>
      </trkpt>
      <trkpt lat="49.03231" lon="1.15508">
        <ele>55.5</ele>
        <time>2016-12-04T07:57:54Z</time>
      </trkpt>
      <trkpt lat="49.03239" lon="1.15517">
        <ele>55.400002</ele>
        <time>2016-12-04T07:57:56Z</time>
      </trkpt>
      <trkpt lat="49.03247" lon="1.15525">
        <ele>55.200001</ele>
        <time>2016-12-04T07:57:58Z</time>
      </trkpt>
      <trkpt lat="49.03254" lon="1.15534">
        <ele>55.099998</ele>
        <time>2016-12-04T07:58:00Z</time>
      </trkpt>
      <trkpt lat="49.03262" lon="1.15543">
        <ele>55.099998</ele>
        <time>2016-12-04T07:58:02Z</time>
      </trkpt>
      <trkpt lat="49.0327" lon="1.15552">
        <ele>55</ele>
        <time>2016-12-04T07:58:04Z</time>
      </trkpt>
      <trkpt lat="49.03277" lon="1.15561">
        <ele>55</ele>
        <time>2016-12-04T07:58:06Z</time>
      </trkpt>
      <trkpt lat="49.03289" lon="1.1557">
        <ele>55</ele>
        <time>2016-12-04T07:58:09Z</time>
      </trkpt>
      <trkpt lat="49.03302" lon="1.15566">
        <ele>54.900002</ele>
        <time>2016-12-04T07:58:12Z</time>
      </trkpt>
      <trkpt lat="49.03311" lon="1.15565">
        <ele>54.900002</ele>
        <time>2016-12-04T07:58:14Z</time>
      </trkpt>
      <trkpt lat="49.03321" lon="1.15566">
        <ele>54.900002</ele>
        <time>2016-12-04T07:58:16Z</time>
      </trkpt>
      <trkpt lat="49.03332" lon="1.15569">
        <ele>54.900002</ele>
        <time>2016-12-04T07:58:18Z</time>
      </trkpt>
      <trkpt lat="49.03343" lon="1.15571">
        <ele>54.900002</ele>
        <time>2016-12-04T07:58:20Z</time>
      </trkpt>
      <trkpt lat="49.03353" lon="1.15572">
        <ele>54.900002</ele>
        <time>2016-12-04T07:58:22Z</time>
      </trkpt>
      <trkpt lat="49.03363" lon="1.15572">
        <ele>54.900002</ele>
        <time>2016-12-04T07:58:24Z</time>
      </trkpt>
      <trkpt lat="49.03373" lon="1.15568">
        <ele>54.900002</ele>
        <time>2016-12-04T07:58:26Z</time>
      </trkpt>
      <trkpt lat="49.03382" lon="1.15566">
        <ele>54.900002</ele>
        <time>2016-12-04T07:58:28Z</time>
      </trkpt>
      <trkpt lat="49.03394" lon="1.15561">
        <ele>54.900002</ele>
        <time>2016-12-04T07:58:31Z</time>
      </trkpt>
      <trkpt lat="49.03407" lon="1.15558">
        <ele>54.900002</ele>
        <time>2016-12-04T07:58:34Z</time>
      </trkpt>
      <trkpt lat="49.0342" lon="1.15556">
        <ele>54.900002</ele>
        <time>2016-12-04T07:58:37Z</time>
      </trkpt>
      <trkpt lat="49.03432" lon="1.15553">
        <ele>54.900002</ele>
        <time>2016-12-04T07:58:40Z</time>
      </trkpt>
      <trkpt lat="49.03443" lon="1.15551">
        <ele>54.900002</ele>
        <time>2016-12-04T07:58:43Z</time>
      </trkpt>
      <trkpt lat="49.03453" lon="1.15549">
        <ele>54.900002</ele>
        <time>2016-12-04T07:58:47Z</time>
      </trkpt>
      <trkpt lat="49.03465" lon="1.15551">
        <ele>54.900002</ele>
        <time>2016-12-04T07:58:52Z</time>
      </trkpt>
      <trkpt lat="49.03476" lon="1.15553">
        <ele>55</ele>
        <time>2016-12-04T07:58:55Z</time>
      </trkpt>
      <trkpt lat="49.03486" lon="1.15556">
        <ele>55.200001</ele>
        <time>2016-12-04T07:58:58Z</time>
      </trkpt>
      <trkpt lat="49.03498" lon="1.1556">
        <ele>55.400002</ele>
        <time>2016-12-04T07:59:01Z</time>
      </trkpt>
      <trkpt lat="49.03508" lon="1.15563">
        <ele>55.599998</ele>
        <time>2016-12-04T07:59:04Z</time>
      </trkpt>
      <trkpt lat="49.03519" lon="1.15567">
        <ele>55.900002</ele>
        <time>2016-12-04T07:59:07Z</time>
      </trkpt>
      <trkpt lat="49.0353" lon="1.15571">
        <ele>56.200001</ele>
        <time>2016-12-04T07:59:10Z</time>
      </trkpt>
      <trkpt lat="49.03539" lon="1.15574">
        <ele>56.599998</ele>
        <time>2016-12-04T07:59:13Z</time>
      </trkpt>
      <trkpt lat="49.03549" lon="1.15579">
        <ele>57</ele>
        <time>2016-12-04T07:59:16Z</time>
      </trkpt>
      <trkpt lat="49.03558" lon="1.15586">
        <ele>57.5</ele>
        <time>2016-12-04T07:59:19Z</time>
      </trkpt>
      <trkpt lat="49.03568" lon="1.15593">
        <ele>57.900002</ele>
        <time>2016-12-04T07:59:22Z</time>
      </trkpt>
      <trkpt lat="49.03579" lon="1.15598">
        <ele>58.299999</ele>
        <time>2016-12-04T07:59:25Z</time>
      </trkpt>
      <trkpt lat="49.03589" lon="1.15602">
        <ele>58.799999</ele>
        <time>2016-12-04T07:59:28Z</time>
      </trkpt>
      <trkpt lat="49.036" lon="1.15604">
        <ele>59.200001</ele>
        <time>2016-12-04T07:59:31Z</time>
      </trkpt>
      <trkpt lat="49.0361" lon="1.15601">
        <ele>59.599998</ele>
        <time>2016-12-04T07:59:34Z</time>
      </trkpt>
      <trkpt lat="49.03612" lon="1.15587">
        <ele>60.099998</ele>
        <time>2016-12-04T07:59:37Z</time>
      </trkpt>
      <trkpt lat="49.03611" lon="1.1557">
        <ele>61</ele>
        <time>2016-12-04T07:59:41Z</time>
      </trkpt>
      <trkpt lat="49.03611" lon="1.15552">
        <ele>62</ele>
        <time>2016-12-04T07:59:45Z</time>
      </trkpt>
      <trkpt lat="49.03611" lon="1.15537">
        <ele>62.700001</ele>
        <time>2016-12-04T07:59:48Z</time>
      </trkpt>
      <trkpt lat="49.03611" lon="1.15523">
        <ele>63.5</ele>
        <time>2016-12-04T07:59:51Z</time>
      </trkpt>
      <trkpt lat="49.03611" lon="1.15508">
        <ele>64.300003</ele>
        <time>2016-12-04T07:59:54Z</time>
      </trkpt>
      <trkpt lat="49.03611" lon="1.15492">
        <ele>65.099998</ele>
        <time>2016-12-04T07:59:57Z</time>
      </trkpt>
      <trkpt lat="49.03614" lon="1.15479">
        <ele>65.900002</ele>
        <time>2016-12-04T08:00:00Z</time>
      </trkpt>
      <trkpt lat="49.03624" lon="1.15477">
        <ele>66.800003</ele>
        <time>2016-12-04T08:00:03Z</time>
      </trkpt>
      <trkpt lat="49.03636" lon="1.15476">
        <ele>67.5</ele>
        <time>2016-12-04T08:00:06Z</time>
      </trkpt>
      <trkpt lat="49.03646" lon="1.15474">
        <ele>68.300003</ele>
        <time>2016-12-04T08:00:10Z</time>
      </trkpt>
      <trkpt lat="49.03657" lon="1.1547">
        <ele>69</ele>
        <time>2016-12-04T08:00:15Z</time>
      </trkpt>
      <trkpt lat="49.03666" lon="1.15469">
        <ele>69.400002</ele>
        <time>2016-12-04T08:00:18Z</time>
      </trkpt>
      <trkpt lat="49.03677" lon="1.15469">
        <ele>69.699997</ele>
        <time>2016-12-04T08:00:21Z</time>
      </trkpt>
      <trkpt lat="49.03689" lon="1.15469">
        <ele>69.900002</ele>
        <time>2016-12-04T08:00:24Z</time>
      </trkpt>
      <trkpt lat="49.037" lon="1.15468">
        <ele>70</ele>
        <time>2016-12-04T08:00:27Z</time>
      </trkpt>
      <trkpt lat="49.03713" lon="1.15468">
        <ele>70.099998</ele>
        <time>2016-12-04T08:00:30Z</time>
      </trkpt>
      <trkpt lat="49.03722" lon="1.15469">
        <ele>70.099998</ele>
        <time>2016-12-04T08:00:32Z</time>
      </trkpt>
      <trkpt lat="49.03732" lon="1.15471">
        <ele>70.099998</ele>
        <time>2016-12-04T08:00:34Z</time>
      </trkpt>
      <trkpt lat="49.03741" lon="1.15472">
        <ele>70</ele>
        <time>2016-12-04T08:00:36Z</time>
      </trkpt>
      <trkpt lat="49.0375" lon="1.15467">
        <ele>70</ele>
        <time>2016-12-04T08:00:38Z</time>
      </trkpt>
      <trkpt lat="49.03758" lon="1.15461">
        <ele>70</ele>
        <time>2016-12-04T08:00:41Z</time>
      </trkpt>
      <trkpt lat="49.03769" lon="1.15455">
        <ele>69.900002</ele>
        <time>2016-12-04T08:00:45Z</time>
      </trkpt>
      <trkpt lat="49.0378" lon="1.15453">
        <ele>69.900002</ele>
        <time>2016-12-04T08:00:48Z</time>
      </trkpt>
      <trkpt lat="49.03792" lon="1.15456">
        <ele>69.800003</ele>
        <time>2016-12-04T08:00:51Z</time>
      </trkpt>
      <trkpt lat="49.03805" lon="1.15457">
        <ele>69.699997</ele>
        <time>2016-12-04T08:00:54Z</time>
      </trkpt>
      <trkpt lat="49.03814" lon="1.15459">
        <ele>69.699997</ele>
        <time>2016-12-04T08:00:56Z</time>
      </trkpt>
      <trkpt lat="49.03824" lon="1.1546">
        <ele>69.5</ele>
        <time>2016-12-04T08:00:58Z</time>
      </trkpt>
      <trkpt lat="49.03834" lon="1.15461">
        <ele>69.400002</ele>
        <time>2016-12-04T08:01:00Z</time>
      </trkpt>
      <trkpt lat="49.03844" lon="1.15461">
        <ele>69.199997</ele>
        <time>2016-12-04T08:01:02Z</time>
      </trkpt>
      <trkpt lat="49.03854" lon="1.15462">
        <ele>69.099998</ele>
        <time>2016-12-04T08:01:04Z</time>
      </trkpt>
      <trkpt lat="49.03864" lon="1.15463">
        <ele>68.900002</ele>
        <time>2016-12-04T08:01:06Z</time>
      </trkpt>
      <trkpt lat="49.03873" lon="1.15464">
        <ele>68.699997</ele>
        <time>2016-12-04T08:01:08Z</time>
      </trkpt>
      <trkpt lat="49.03883" lon="1.15466">
        <ele>68.400002</ele>
        <time>2016-12-04T08:01:10Z</time>
      </trkpt>
      <trkpt lat="49.03894" lon="1.15467">
        <ele>68.099998</ele>
        <time>2016-12-04T08:01:12Z</time>
      </trkpt>
      <trkpt lat="49.03904" lon="1.15468">
        <ele>67.900002</ele>
        <time>2016-12-04T08:01:14Z</time>
      </trkpt>
      <trkpt lat="49.03914" lon="1.15469">
        <ele>67.599998</ele>
        <time>2016-12-04T08:01:16Z</time>
      </trkpt>
      <trkpt lat="49.03924" lon="1.1547">
        <ele>67.300003</ele>
        <time>2016-12-04T08:01:18Z</time>
      </trkpt>
      <trkpt lat="49.03934" lon="1.15471">
        <ele>66.900002</ele>
        <time>2016-12-04T08:01:20Z</time>
      </trkpt>
      <trkpt lat="49.03943" lon="1.15472">
        <ele>66.599998</ele>
        <time>2016-12-04T08:01:22Z</time>
      </trkpt>
      <trkpt lat="49.03953" lon="1.15473">
        <ele>66.400002</ele>
        <time>2016-12-04T08:01:24Z</time>
      </trkpt>
      <trkpt lat="49.03963" lon="1.15474">
        <ele>66.099998</ele>
        <time>2016-12-04T08:01:26Z</time>
      </trkpt>
      <trkpt lat="49.03973" lon="1.15475">
        <ele>65.900002</ele>
        <time>2016-12-04T08:01:28Z</time>
      </trkpt>
      <trkpt lat="49.03982" lon="1.15476">
        <ele>65.699997</ele>
        <time>2016-12-04T08:01:30Z</time>
      </trkpt>
      <trkpt lat="49.03992" lon="1.15477">
        <ele>65.5</ele>
        <time>2016-12-04T08:01:32Z</time>
      </trkpt>
      <trkpt lat="49.04002" lon="1.15479">
        <ele>65.300003</ele>
        <time>2016-12-04T08:01:34Z</time>
      </trkpt>
      <trkpt lat="49.04011" lon="1.1548">
        <ele>65.199997</ele>
        <time>2016-12-04T08:01:36Z</time>
      </trkpt>
      <trkpt lat="49.04021" lon="1.15482">
        <ele>65</ele>
        <time>2016-12-04T08:01:38Z</time>
      </trkpt>
      <trkpt lat="49.0403" lon="1.15483">
        <ele>64.900002</ele>
        <time>2016-12-04T08:01:40Z</time>
      </trkpt>
      <trkpt lat="49.0404" lon="1.15485">
        <ele>64.800003</ele>
        <time>2016-12-04T08:01:42Z</time>
      </trkpt>
      <trkpt lat="49.0405" lon="1.15487">
        <ele>64.800003</ele>
        <time>2016-12-04T08:01:44Z</time>
      </trkpt>
      <trkpt lat="49.0406" lon="1.15489">
        <ele>64.699997</ele>
        <time>2016-12-04T08:01:46Z</time>
      </trkpt>
      <trkpt lat="49.04069" lon="1.15491">
        <ele>64.699997</ele>
        <time>2016-12-04T08:01:48Z</time>
      </trkpt>
      <trkpt lat="49.04078" lon="1.15492">
        <ele>64.699997</ele>
        <time>2016-12-04T08:01:50Z</time>
      </trkpt>
      <trkpt lat="49.04088" lon="1.15492">
        <ele>64.699997</ele>
        <time>2016-12-04T08:01:52Z</time>
      </trkpt>
      <trkpt lat="49.04097" lon="1.15491">
        <ele>64.699997</ele>
        <time>2016-12-04T08:01:54Z</time>
      </trkpt>
      <trkpt lat="49.04107" lon="1.15491">
        <ele>64.599998</ele>
        <time>2016-12-04T08:01:56Z</time>
      </trkpt>
      <trkpt lat="49.04117" lon="1.1549">
        <ele>64.599998</ele>
        <time>2016-12-04T08:01:58Z</time>
      </trkpt>
      <trkpt lat="49.04126" lon="1.15489">
        <ele>64.599998</ele>
        <time>2016-12-04T08:02:00Z</time>
      </trkpt>
      <trkpt lat="49.04136" lon="1.15489">
        <ele>64.599998</ele>
        <time>2016-12-04T08:02:02Z</time>
      </trkpt>
      <trkpt lat="49.04146" lon="1.15489">
        <ele>64.5</ele>
        <time>2016-12-04T08:02:04Z</time>
      </trkpt>
      <trkpt lat="49.04156" lon="1.15489">
        <ele>64.5</ele>
        <time>2016-12-04T08:02:06Z</time>
      </trkpt>
      <trkpt lat="49.04166" lon="1.15488">
        <ele>64.400002</ele>
        <time>2016-12-04T08:02:08Z</time>
      </trkpt>
      <trkpt lat="49.04176" lon="1.15487">
        <ele>64.300003</ele>
        <time>2016-12-04T08:02:10Z</time>
      </trkpt>
      <trkpt lat="49.04185" lon="1.15486">
        <ele>64.199997</ele>
        <time>2016-12-04T08:02:12Z</time>
      </trkpt>
      <trkpt lat="49.04195" lon="1.15485">
        <ele>64.099998</ele>
        <time>2016-12-04T08:02:14Z</time>
      </trkpt>
      <trkpt lat="49.04205" lon="1.15484">
        <ele>63.900002</ele>
        <time>2016-12-04T08:02:16Z</time>
      </trkpt>
      <trkpt lat="49.04216" lon="1.15483">
        <ele>63.799999</ele>
        <time>2016-12-04T08:02:18Z</time>
      </trkpt>
      <trkpt lat="49.04227" lon="1.15482">
        <ele>63.700001</ele>
        <time>2016-12-04T08:02:20Z</time>
      </trkpt>
      <trkpt lat="49.04237" lon="1.15481">
        <ele>63.5</ele>
        <time>2016-12-04T08:02:22Z</time>
      </trkpt>
      <trkpt lat="49.04248" lon="1.15481">
        <ele>63.299999</ele>
        <time>2016-12-04T08:02:24Z</time>
      </trkpt>
      <trkpt lat="49.04258" lon="1.1548">
        <ele>63.099998</ele>
        <time>2016-12-04T08:02:26Z</time>
      </trkpt>
      <trkpt lat="49.04268" lon="1.15479">
        <ele>62.900002</ele>
        <time>2016-12-04T08:02:28Z</time>
      </trkpt>
      <trkpt lat="49.04277" lon="1.15478">
        <ele>62.700001</ele>
        <time>2016-12-04T08:02:30Z</time>
      </trkpt>
      <trkpt lat="49.0429" lon="1.15477">
        <ele>62.299999</ele>
        <time>2016-12-04T08:02:33Z</time>
      </trkpt>
      <trkpt lat="49.04299" lon="1.15477">
        <ele>62.099998</ele>
        <time>2016-12-04T08:02:35Z</time>
      </trkpt>
      <trkpt lat="49.04308" lon="1.15476">
        <ele>61.900002</ele>
        <time>2016-12-04T08:02:37Z</time>
      </trkpt>
      <trkpt lat="49.04318" lon="1.15476">
        <ele>61.700001</ele>
        <time>2016-12-04T08:02:39Z</time>
      </trkpt>
      <trkpt lat="49.04328" lon="1.15476">
        <ele>61.599998</ele>
        <time>2016-12-04T08:02:41Z</time>
      </trkpt>
      <trkpt lat="49.04338" lon="1.15475">
        <ele>61.400002</ele>
        <time>2016-12-04T08:02:43Z</time>
      </trkpt>
      <trkpt lat="49.04348" lon="1.15474">
        <ele>61.299999</ele>
        <time>2016-12-04T08:02:45Z</time>
      </trkpt>
      <trkpt lat="49.04358" lon="1.15474">
        <ele>61.200001</ele>
        <time>2016-12-04T08:02:47Z</time>
      </trkpt>
      <trkpt lat="49.04368" lon="1.15474">
        <ele>61</ele>
        <time>2016-12-04T08:02:49Z</time>
      </trkpt>
      <trkpt lat="49.04378" lon="1.15473">
        <ele>60.900002</ele>
        <time>2016-12-04T08:02:51Z</time>
      </trkpt>
      <trkpt lat="49.04388" lon="1.15472">
        <ele>60.799999</ele>
        <time>2016-12-04T08:02:53Z</time>
      </trkpt>
      <trkpt lat="49.04398" lon="1.15472">
        <ele>60.700001</ele>
        <time>2016-12-04T08:02:55Z</time>
      </trkpt>
      <trkpt lat="49.04408" lon="1.15471">
        <ele>60.700001</ele>
        <time>2016-12-04T08:02:57Z</time>
      </trkpt>
      <trkpt lat="49.04418" lon="1.15471">
        <ele>60.599998</ele>
        <time>2016-12-04T08:02:59Z</time>
      </trkpt>
      <trkpt lat="49.04429" lon="1.1547">
        <ele>60.5</ele>
        <time>2016-12-04T08:03:01Z</time>
      </trkpt>
      <trkpt lat="49.04439" lon="1.1547">
        <ele>60.5</ele>
        <time>2016-12-04T08:03:03Z</time>
      </trkpt>
      <trkpt lat="49.04449" lon="1.15475">
        <ele>60.400002</ele>
        <time>2016-12-04T08:03:06Z</time>
      </trkpt>
      <trkpt lat="49.04451" lon="1.1549">
        <ele>60.400002</ele>
        <time>2016-12-04T08:03:08Z</time>
      </trkpt>
      <trkpt lat="49.04451" lon="1.15509">
        <ele>60.299999</ele>
        <time>2016-12-04T08:03:10Z</time>
      </trkpt>
      <trkpt lat="49.04451" lon="1.15523">
        <ele>60.200001</ele>
        <time>2016-12-04T08:03:12Z</time>
      </trkpt>
      <trkpt lat="49.04451" lon="1.15541">
        <ele>60</ele>
        <time>2016-12-04T08:03:14Z</time>
      </trkpt>
      <trkpt lat="49.04451" lon="1.15559">
        <ele>59.700001</ele>
        <time>2016-12-04T08:03:16Z</time>
      </trkpt>
      <trkpt lat="49.04452" lon="1.15577">
        <ele>59.299999</ele>
        <time>2016-12-04T08:03:18Z</time>
      </trkpt>
      <trkpt lat="49.04453" lon="1.15592">
        <ele>59</ele>
        <time>2016-12-04T08:03:20Z</time>
      </trkpt>
      <trkpt lat="49.04456" lon="1.15611">
        <ele>58.5</ele>
        <time>2016-12-04T08:03:22Z</time>
      </trkpt>
      <trkpt lat="49.04455" lon="1.15632">
        <ele>58</ele>
        <time>2016-12-04T08:03:24Z</time>
      </trkpt>
      <trkpt lat="49.04455" lon="1.15651">
        <ele>57.299999</ele>
        <time>2016-12-04T08:03:27Z</time>
      </trkpt>
      <trkpt lat="49.04456" lon="1.15668">
        <ele>56.799999</ele>
        <time>2016-12-04T08:03:29Z</time>
      </trkpt>
      <trkpt lat="49.04457" lon="1.15684">
        <ele>56.299999</ele>
        <time>2016-12-04T08:03:32Z</time>
      </trkpt>
      <trkpt lat="49.04465" lon="1.15693">
        <ele>55.799999</ele>
        <time>2016-12-04T08:03:35Z</time>
      </trkpt>
      <trkpt lat="49.04474" lon="1.15698">
        <ele>55.5</ele>
        <time>2016-12-04T08:03:38Z</time>
      </trkpt>
      <trkpt lat="49.04483" lon="1.15704">
        <ele>54.099998</ele>
        <time>2016-12-04T08:04:05Z</time>
      </trkpt>
      <trkpt lat="49.04492" lon="1.15694">
        <ele>53.700001</ele>
        <time>2016-12-04T08:04:49Z</time>
      </trkpt>
      <trkpt lat="49.04503" lon="1.15694">
        <ele>53.700001</ele>
        <time>2016-12-04T08:04:52Z</time>
      </trkpt>
      <trkpt lat="49.04515" lon="1.15695">
        <ele>53.700001</ele>
        <time>2016-12-04T08:04:55Z</time>
      </trkpt>
      <trkpt lat="49.04524" lon="1.15693">
        <ele>53.700001</ele>
        <time>2016-12-04T08:04:57Z</time>
      </trkpt>
      <trkpt lat="49.04537" lon="1.15691">
        <ele>53.700001</ele>
        <time>2016-12-04T08:05:00Z</time>
      </trkpt>
      <trkpt lat="49.04547" lon="1.1569">
        <ele>53.700001</ele>
        <time>2016-12-04T08:05:03Z</time>
      </trkpt>
      <trkpt lat="49.04559" lon="1.15685">
        <ele>53.700001</ele>
        <time>2016-12-04T08:05:06Z</time>
      </trkpt>
      <trkpt lat="49.04571" lon="1.15679">
        <ele>53.700001</ele>
        <time>2016-12-04T08:05:09Z</time>
      </trkpt>
      <trkpt lat="49.04584" lon="1.15675">
        <ele>53.700001</ele>
        <time>2016-12-04T08:05:12Z</time>
      </trkpt>
      <trkpt lat="49.04596" lon="1.15672">
        <ele>53.700001</ele>
        <time>2016-12-04T08:05:15Z</time>
      </trkpt>
      <trkpt lat="49.04607" lon="1.15672">
        <ele>53.700001</ele>
        <time>2016-12-04T08:05:18Z</time>
      </trkpt>
      <trkpt lat="49.04618" lon="1.15672">
        <ele>53.700001</ele>
        <time>2016-12-04T08:05:21Z</time>
      </trkpt>
      <trkpt lat="49.0463" lon="1.15672">
        <ele>53.700001</ele>
        <time>2016-12-04T08:05:24Z</time>
      </trkpt>
      <trkpt lat="49.04642" lon="1.15673">
        <ele>53.599998</ele>
        <time>2016-12-04T08:05:27Z</time>
      </trkpt>
      <trkpt lat="49.04653" lon="1.15673">
        <ele>53.599998</ele>
        <time>2016-12-04T08:05:30Z</time>
      </trkpt>
      <trkpt lat="49.04664" lon="1.15673">
        <ele>53.599998</ele>
        <time>2016-12-04T08:05:33Z</time>
      </trkpt>
      <trkpt lat="49.04675" lon="1.15674">
        <ele>53.599998</ele>
        <time>2016-12-04T08:05:36Z</time>
      </trkpt>
      <trkpt lat="49.04687" lon="1.15675">
        <ele>53.599998</ele>
        <time>2016-12-04T08:05:39Z</time>
      </trkpt>
      <trkpt lat="49.04698" lon="1.15676">
        <ele>53.599998</ele>
        <time>2016-12-04T08:05:42Z</time>
      </trkpt>
      <trkpt lat="49.04709" lon="1.15676">
        <ele>53.599998</ele>
        <time>2016-12-04T08:05:45Z</time>
      </trkpt>
      <trkpt lat="49.0472" lon="1.15678">
        <ele>53.599998</ele>
        <time>2016-12-04T08:05:48Z</time>
      </trkpt>
      <trkpt lat="49.0473" lon="1.15677">
        <ele>53.599998</ele>
        <time>2016-12-04T08:05:51Z</time>
      </trkpt>
      <trkpt lat="49.04741" lon="1.15677">
        <ele>53.5</ele>
        <time>2016-12-04T08:05:54Z</time>
      </trkpt>
      <trkpt lat="49.04753" lon="1.15678">
        <ele>53.5</ele>
        <time>2016-12-04T08:05:57Z</time>
      </trkpt>
      <trkpt lat="49.04764" lon="1.15679">
        <ele>53.5</ele>
        <time>2016-12-04T08:06:00Z</time>
      </trkpt>
      <trkpt lat="49.04775" lon="1.1568">
        <ele>53.5</ele>
        <time>2016-12-04T08:06:03Z</time>
      </trkpt>
      <trkpt lat="49.04784" lon="1.15683">
        <ele>53.5</ele>
        <time>2016-12-04T08:06:06Z</time>
      </trkpt>
      <trkpt lat="49.04794" lon="1.15687">
        <ele>53.5</ele>
        <time>2016-12-04T08:06:12Z</time>
      </trkpt>
      <trkpt lat="49.04804" lon="1.15688">
        <ele>53.5</ele>
        <time>2016-12-04T08:06:18Z</time>
      </trkpt>
      <trkpt lat="49.04808" lon="1.15701">
        <ele>53.5</ele>
        <time>2016-12-04T08:06:22Z</time>
      </trkpt>
      <trkpt lat="49.04815" lon="1.15713">
        <ele>53.5</ele>
        <time>2016-12-04T08:06:25Z</time>
      </trkpt>
      <trkpt lat="49.04837" lon="1.15713">
        <ele>52.400002</ele>
        <time>2016-12-04T08:07:42Z</time>
      </trkpt>
      <trkpt lat="49.04849" lon="1.15713">
        <ele>52.400002</ele>
        <time>2016-12-04T08:07:45Z</time>
      </trkpt>
      <trkpt lat="49.04859" lon="1.15712">
        <ele>52.5</ele>
        <time>2016-12-04T08:07:48Z</time>
      </trkpt>
      <trkpt lat="49.0487" lon="1.15711">
        <ele>52.5</ele>
        <time>2016-12-04T08:07:51Z</time>
      </trkpt>
      <trkpt lat="49.04879" lon="1.1571">
        <ele>52.5</ele>
        <time>2016-12-04T08:07:54Z</time>
      </trkpt>
      <trkpt lat="49.04888" lon="1.15711">
        <ele>52.5</ele>
        <time>2016-12-04T08:07:57Z</time>
      </trkpt>
      <trkpt lat="49.04899" lon="1.15711">
        <ele>52.5</ele>
        <time>2016-12-04T08:08:00Z</time>
      </trkpt>
      <trkpt lat="49.04908" lon="1.15709">
        <ele>52.400002</ele>
        <time>2016-12-04T08:08:03Z</time>
      </trkpt>
      <trkpt lat="49.04926" lon="1.15706">
        <ele>57.769188</ele>
        <time>2016-12-04T08:08:19Z</time>
      </trkpt>
      <trkpt lat="49.04926" lon="1.15705">
        <ele>51.900002</ele>
        <time>2016-12-04T08:23:30Z</time>
      </trkpt>
      <trkpt lat="49.04938" lon="1.1571">
        <ele>51.900002</ele>
        <time>2016-12-04T08:23:35Z</time>
      </trkpt>
      <trkpt lat="49.04949" lon="1.1571">
        <ele>51.900002</ele>
        <time>2016-12-04T08:23:39Z</time>
      </trkpt>
      <trkpt lat="49.0496" lon="1.15709">
        <ele>51.900002</ele>
        <time>2016-12-04T08:23:43Z</time>
      </trkpt>
      <trkpt lat="49.04969" lon="1.15709">
        <ele>51.900002</ele>
        <time>2016-12-04T08:23:46Z</time>
      </trkpt>
      <trkpt lat="49.04981" lon="1.15709">
        <ele>51.900002</ele>
        <time>2016-12-04T08:23:50Z</time>
      </trkpt>
      <trkpt lat="49.0499" lon="1.15708">
        <ele>51.900002</ele>
        <time>2016-12-04T08:23:53Z</time>
      </trkpt>
      <trkpt lat="49.04999" lon="1.15707">
        <ele>51.900002</ele>
        <time>2016-12-04T08:23:56Z</time>
      </trkpt>
      <trkpt lat="49.05008" lon="1.15706">
        <ele>51.900002</ele>
        <time>2016-12-04T08:23:59Z</time>
      </trkpt>
      <trkpt lat="49.05018" lon="1.15708">
        <ele>51.799999</ele>
        <time>2016-12-04T08:24:02Z</time>
      </trkpt>
      <trkpt lat="49.05028" lon="1.1571">
        <ele>51.799999</ele>
        <time>2016-12-04T08:24:05Z</time>
      </trkpt>
      <trkpt lat="49.05038" lon="1.15708">
        <ele>51.700001</ele>
        <time>2016-12-04T08:24:08Z</time>
      </trkpt>
      <trkpt lat="49.05049" lon="1.15707">
        <ele>51.700001</ele>
        <time>2016-12-04T08:24:11Z</time>
      </trkpt>
      <trkpt lat="49.05059" lon="1.15706">
        <ele>51.599998</ele>
        <time>2016-12-04T08:24:14Z</time>
      </trkpt>
      <trkpt lat="49.0507" lon="1.15705">
        <ele>51.599998</ele>
        <time>2016-12-04T08:24:17Z</time>
      </trkpt>
      <trkpt lat="49.0508" lon="1.15704">
        <ele>51.599998</ele>
        <time>2016-12-04T08:24:20Z</time>
      </trkpt>
      <trkpt lat="49.0509" lon="1.15704">
        <ele>51.599998</ele>
        <time>2016-12-04T08:24:23Z</time>
      </trkpt>
      <trkpt lat="49.05101" lon="1.15704">
        <ele>51.5</ele>
        <time>2016-12-04T08:24:26Z</time>
      </trkpt>
      <trkpt lat="49.05112" lon="1.15704">
        <ele>51.5</ele>
        <time>2016-12-04T08:24:29Z</time>
      </trkpt>
      <trkpt lat="49.05123" lon="1.15704">
        <ele>51.5</ele>
        <time>2016-12-04T08:24:32Z</time>
      </trkpt>
      <trkpt lat="49.05134" lon="1.15703">
        <ele>51.400002</ele>
        <time>2016-12-04T08:24:35Z</time>
      </trkpt>
      <trkpt lat="49.05145" lon="1.15703">
        <ele>51.400002</ele>
        <time>2016-12-04T08:24:38Z</time>
      </trkpt>
      <trkpt lat="49.05157" lon="1.15703">
        <ele>51.400002</ele>
        <time>2016-12-04T08:24:41Z</time>
      </trkpt>
      <trkpt lat="49.05169" lon="1.15704">
        <ele>51.400002</ele>
        <time>2016-12-04T08:24:44Z</time>
      </trkpt>
      <trkpt lat="49.0518" lon="1.15704">
        <ele>51.299999</ele>
        <time>2016-12-04T08:24:47Z</time>
      </trkpt>
      <trkpt lat="49.05192" lon="1.15705">
        <ele>51.299999</ele>
        <time>2016-12-04T08:24:50Z</time>
      </trkpt>
      <trkpt lat="49.05205" lon="1.15705">
        <ele>51.299999</ele>
        <time>2016-12-04T08:24:53Z</time>
      </trkpt>
      <trkpt lat="49.05217" lon="1.15706">
        <ele>51.400002</ele>
        <time>2016-12-04T08:24:56Z</time>
      </trkpt>
      <trkpt lat="49.0523" lon="1.15708">
        <ele>51.5</ele>
        <time>2016-12-04T08:24:59Z</time>
      </trkpt>
      <trkpt lat="49.05242" lon="1.1571">
        <ele>51.5</ele>
        <time>2016-12-04T08:25:02Z</time>
      </trkpt>
      <trkpt lat="49.05255" lon="1.15712">
        <ele>51.599998</ele>
        <time>2016-12-04T08:25:05Z</time>
      </trkpt>
      <trkpt lat="49.05268" lon="1.15715">
        <ele>51.599998</ele>
        <time>2016-12-04T08:25:08Z</time>
      </trkpt>
      <trkpt lat="49.0528" lon="1.15718">
        <ele>51.599998</ele>
        <time>2016-12-04T08:25:11Z</time>
      </trkpt>
      <trkpt lat="49.05293" lon="1.15721">
        <ele>51.700001</ele>
        <time>2016-12-04T08:25:14Z</time>
      </trkpt>
      <trkpt lat="49.05302" lon="1.15723">
        <ele>51.700001</ele>
        <time>2016-12-04T08:25:16Z</time>
      </trkpt>
      <trkpt lat="49.05311" lon="1.15725">
        <ele>51.799999</ele>
        <time>2016-12-04T08:25:18Z</time>
      </trkpt>
      <trkpt lat="49.0532" lon="1.15727">
        <ele>51.799999</ele>
        <time>2016-12-04T08:25:20Z</time>
      </trkpt>
      <trkpt lat="49.0533" lon="1.1573">
        <ele>51.799999</ele>
        <time>2016-12-04T08:25:22Z</time>
      </trkpt>
      <trkpt lat="49.05339" lon="1.15733">
        <ele>51.799999</ele>
        <time>2016-12-04T08:25:24Z</time>
      </trkpt>
      <trkpt lat="49.05348" lon="1.15736">
        <ele>51.799999</ele>
        <time>2016-12-04T08:25:26Z</time>
      </trkpt>
      <trkpt lat="49.05358" lon="1.15739">
        <ele>51.700001</ele>
        <time>2016-12-04T08:25:28Z</time>
      </trkpt>
      <trkpt lat="49.05367" lon="1.15742">
        <ele>51.700001</ele>
        <time>2016-12-04T08:25:30Z</time>
      </trkpt>
      <trkpt lat="49.05377" lon="1.15746">
        <ele>51.700001</ele>
        <time>2016-12-04T08:25:32Z</time>
      </trkpt>
      <trkpt lat="49.05386" lon="1.15751">
        <ele>51.700001</ele>
        <time>2016-12-04T08:25:34Z</time>
      </trkpt>
      <trkpt lat="49.05394" lon="1.15755">
        <ele>51.599998</ele>
        <time>2016-12-04T08:25:36Z</time>
      </trkpt>
      <trkpt lat="49.05403" lon="1.1576">
        <ele>51.599998</ele>
        <time>2016-12-04T08:25:38Z</time>
      </trkpt>
      <trkpt lat="49.05411" lon="1.15766">
        <ele>51.599998</ele>
        <time>2016-12-04T08:25:40Z</time>
      </trkpt>
      <trkpt lat="49.05419" lon="1.15772">
        <ele>51.599998</ele>
        <time>2016-12-04T08:25:42Z</time>
      </trkpt>
      <trkpt lat="49.05428" lon="1.15779">
        <ele>51.599998</ele>
        <time>2016-12-04T08:25:44Z</time>
      </trkpt>
      <trkpt lat="49.05436" lon="1.15786">
        <ele>51.5</ele>
        <time>2016-12-04T08:25:46Z</time>
      </trkpt>
      <trkpt lat="49.05444" lon="1.15793">
        <ele>51.5</ele>
        <time>2016-12-04T08:25:48Z</time>
      </trkpt>
      <trkpt lat="49.05452" lon="1.15801">
        <ele>51.5</ele>
        <time>2016-12-04T08:25:50Z</time>
      </trkpt>
      <trkpt lat="49.0546" lon="1.15808">
        <ele>51.5</ele>
        <time>2016-12-04T08:25:52Z</time>
      </trkpt>
      <trkpt lat="49.05469" lon="1.15817">
        <ele>51.5</ele>
        <time>2016-12-04T08:25:54Z</time>
      </trkpt>
      <trkpt lat="49.05478" lon="1.15825">
        <ele>51.5</ele>
        <time>2016-12-04T08:25:56Z</time>
      </trkpt>
      <trkpt lat="49.05486" lon="1.15834">
        <ele>51.5</ele>
        <time>2016-12-04T08:25:58Z</time>
      </trkpt>
      <trkpt lat="49.05496" lon="1.15842">
        <ele>51.400002</ele>
        <time>2016-12-04T08:26:00Z</time>
      </trkpt>
      <trkpt lat="49.05505" lon="1.15851">
        <ele>51.400002</ele>
        <time>2016-12-04T08:26:02Z</time>
      </trkpt>
      <trkpt lat="49.05514" lon="1.15859">
        <ele>51.200001</ele>
        <time>2016-12-04T08:26:04Z</time>
      </trkpt>
      <trkpt lat="49.05522" lon="1.15866">
        <ele>51.099998</ele>
        <time>2016-12-04T08:26:06Z</time>
      </trkpt>
      <trkpt lat="49.05531" lon="1.15874">
        <ele>50.900002</ele>
        <time>2016-12-04T08:26:08Z</time>
      </trkpt>
      <trkpt lat="49.05539" lon="1.15882">
        <ele>50.799999</ele>
        <time>2016-12-04T08:26:10Z</time>
      </trkpt>
      <trkpt lat="49.05547" lon="1.1589">
        <ele>50.700001</ele>
        <time>2016-12-04T08:26:12Z</time>
      </trkpt>
      <trkpt lat="49.05555" lon="1.15898">
        <ele>50.599998</ele>
        <time>2016-12-04T08:26:14Z</time>
      </trkpt>
      <trkpt lat="49.05562" lon="1.15907">
        <ele>50.5</ele>
        <time>2016-12-04T08:26:16Z</time>
      </trkpt>
      <trkpt lat="49.0557" lon="1.15915">
        <ele>50.400002</ele>
        <time>2016-12-04T08:26:18Z</time>
      </trkpt>
      <trkpt lat="49.05577" lon="1.15924">
        <ele>50.400002</ele>
        <time>2016-12-04T08:26:20Z</time>
      </trkpt>
      <trkpt lat="49.05585" lon="1.15933">
        <ele>50.299999</ele>
        <time>2016-12-04T08:26:22Z</time>
      </trkpt>
      <trkpt lat="49.05592" lon="1.15942">
        <ele>50.299999</ele>
        <time>2016-12-04T08:26:24Z</time>
      </trkpt>
      <trkpt lat="49.056" lon="1.15951">
        <ele>50.200001</ele>
        <time>2016-12-04T08:26:26Z</time>
      </trkpt>
      <trkpt lat="49.05608" lon="1.15961">
        <ele>50.200001</ele>
        <time>2016-12-04T08:26:28Z</time>
      </trkpt>
      <trkpt lat="49.05615" lon="1.1597">
        <ele>50.099998</ele>
        <time>2016-12-04T08:26:30Z</time>
      </trkpt>
      <trkpt lat="49.05623" lon="1.15979">
        <ele>50.099998</ele>
        <time>2016-12-04T08:26:32Z</time>
      </trkpt>
      <trkpt lat="49.0563" lon="1.15988">
        <ele>50.099998</ele>
        <time>2016-12-04T08:26:34Z</time>
      </trkpt>
      <trkpt lat="49.05638" lon="1.15997">
        <ele>50.099998</ele>
        <time>2016-12-04T08:26:36Z</time>
      </trkpt>
      <trkpt lat="49.05645" lon="1.16006">
        <ele>50</ele>
        <time>2016-12-04T08:26:38Z</time>
      </trkpt>
      <trkpt lat="49.05653" lon="1.16016">
        <ele>50</ele>
        <time>2016-12-04T08:26:40Z</time>
      </trkpt>
      <trkpt lat="49.0566" lon="1.16026">
        <ele>50</ele>
        <time>2016-12-04T08:26:42Z</time>
      </trkpt>
      <trkpt lat="49.05668" lon="1.16036">
        <ele>50</ele>
        <time>2016-12-04T08:26:44Z</time>
      </trkpt>
      <trkpt lat="49.05675" lon="1.16046">
        <ele>49.900002</ele>
        <time>2016-12-04T08:26:46Z</time>
      </trkpt>
      <trkpt lat="49.05683" lon="1.16057">
        <ele>49.799999</ele>
        <time>2016-12-04T08:26:48Z</time>
      </trkpt>
      <trkpt lat="49.05691" lon="1.16067">
        <ele>49.700001</ele>
        <time>2016-12-04T08:26:50Z</time>
      </trkpt>
      <trkpt lat="49.05698" lon="1.16078">
        <ele>49.700001</ele>
        <time>2016-12-04T08:26:52Z</time>
      </trkpt>
      <trkpt lat="49.05706" lon="1.16088">
        <ele>49.599998</ele>
        <time>2016-12-04T08:26:54Z</time>
      </trkpt>
      <trkpt lat="49.05713" lon="1.16098">
        <ele>49.599998</ele>
        <time>2016-12-04T08:26:56Z</time>
      </trkpt>
      <trkpt lat="49.0572" lon="1.16108">
        <ele>49.5</ele>
        <time>2016-12-04T08:26:58Z</time>
      </trkpt>
      <trkpt lat="49.05727" lon="1.16118">
        <ele>49.5</ele>
        <time>2016-12-04T08:27:00Z</time>
      </trkpt>
      <trkpt lat="49.05734" lon="1.16128">
        <ele>49.5</ele>
        <time>2016-12-04T08:27:02Z</time>
      </trkpt>
      <trkpt lat="49.05741" lon="1.16139">
        <ele>49.400002</ele>
        <time>2016-12-04T08:27:04Z</time>
      </trkpt>
      <trkpt lat="49.05747" lon="1.16149">
        <ele>49.400002</ele>
        <time>2016-12-04T08:27:06Z</time>
      </trkpt>
      <trkpt lat="49.05754" lon="1.1616">
        <ele>49.400002</ele>
        <time>2016-12-04T08:27:08Z</time>
      </trkpt>
      <trkpt lat="49.05762" lon="1.16171">
        <ele>49.400002</ele>
        <time>2016-12-04T08:27:10Z</time>
      </trkpt>
      <trkpt lat="49.05769" lon="1.16181">
        <ele>49.299999</ele>
        <time>2016-12-04T08:27:12Z</time>
      </trkpt>
      <trkpt lat="49.05778" lon="1.16191">
        <ele>49.299999</ele>
        <time>2016-12-04T08:27:14Z</time>
      </trkpt>
      <trkpt lat="49.05786" lon="1.16201">
        <ele>49.200001</ele>
        <time>2016-12-04T08:27:16Z</time>
      </trkpt>
      <trkpt lat="49.05795" lon="1.1621">
        <ele>49.099998</ele>
        <time>2016-12-04T08:27:18Z</time>
      </trkpt>
      <trkpt lat="49.05803" lon="1.16217">
        <ele>49</ele>
        <time>2016-12-04T08:27:20Z</time>
      </trkpt>
      <trkpt lat="49.05812" lon="1.16223">
        <ele>48.900002</ele>
        <time>2016-12-04T08:27:22Z</time>
      </trkpt>
      <trkpt lat="49.0582" lon="1.16228">
        <ele>48.799999</ele>
        <time>2016-12-04T08:27:24Z</time>
      </trkpt>
      <trkpt lat="49.05832" lon="1.16234">
        <ele>48.700001</ele>
        <time>2016-12-04T08:27:27Z</time>
      </trkpt>
      <trkpt lat="49.05841" lon="1.16238">
        <ele>48.700001</ele>
        <time>2016-12-04T08:27:29Z</time>
      </trkpt>
      <trkpt lat="49.05854" lon="1.16241">
        <ele>48.599998</ele>
        <time>2016-12-04T08:27:32Z</time>
      </trkpt>
      <trkpt lat="49.05867" lon="1.16245">
        <ele>48.599998</ele>
        <time>2016-12-04T08:27:35Z</time>
      </trkpt>
      <trkpt lat="49.0588" lon="1.16248">
        <ele>48.5</ele>
        <time>2016-12-04T08:27:38Z</time>
      </trkpt>
      <trkpt lat="49.05889" lon="1.1625">
        <ele>48.599998</ele>
        <time>2016-12-04T08:27:40Z</time>
      </trkpt>
      <trkpt lat="49.05902" lon="1.16254">
        <ele>48.599998</ele>
        <time>2016-12-04T08:27:43Z</time>
      </trkpt>
      <trkpt lat="49.05915" lon="1.16258">
        <ele>48.700001</ele>
        <time>2016-12-04T08:27:46Z</time>
      </trkpt>
      <trkpt lat="49.05927" lon="1.16262">
        <ele>48.900002</ele>
        <time>2016-12-04T08:27:49Z</time>
      </trkpt>
      <trkpt lat="49.0594" lon="1.16267">
        <ele>49</ele>
        <time>2016-12-04T08:27:52Z</time>
      </trkpt>
      <trkpt lat="49.05954" lon="1.16272">
        <ele>49.099998</ele>
        <time>2016-12-04T08:27:55Z</time>
      </trkpt>
      <trkpt lat="49.05963" lon="1.16275">
        <ele>49.299999</ele>
        <time>2016-12-04T08:27:57Z</time>
      </trkpt>
      <trkpt lat="49.05976" lon="1.1628">
        <ele>49.400002</ele>
        <time>2016-12-04T08:28:00Z</time>
      </trkpt>
      <trkpt lat="49.05988" lon="1.16284">
        <ele>49.599998</ele>
        <time>2016-12-04T08:28:03Z</time>
      </trkpt>
      <trkpt lat="49.06" lon="1.16288">
        <ele>49.900002</ele>
        <time>2016-12-04T08:28:06Z</time>
      </trkpt>
      <trkpt lat="49.06012" lon="1.16293">
        <ele>50.200001</ele>
        <time>2016-12-04T08:28:09Z</time>
      </trkpt>
      <trkpt lat="49.06021" lon="1.16295">
        <ele>50.400002</ele>
        <time>2016-12-04T08:28:11Z</time>
      </trkpt>
      <trkpt lat="49.06034" lon="1.16299">
        <ele>50.700001</ele>
        <time>2016-12-04T08:28:14Z</time>
      </trkpt>
      <trkpt lat="49.06047" lon="1.16304">
        <ele>51</ele>
        <time>2016-12-04T08:28:17Z</time>
      </trkpt>
      <trkpt lat="49.06059" lon="1.16308">
        <ele>51.400002</ele>
        <time>2016-12-04T08:28:20Z</time>
      </trkpt>
      <trkpt lat="49.06071" lon="1.16311">
        <ele>51.700001</ele>
        <time>2016-12-04T08:28:23Z</time>
      </trkpt>
      <trkpt lat="49.06084" lon="1.16313">
        <ele>52</ele>
        <time>2016-12-04T08:28:26Z</time>
      </trkpt>
      <trkpt lat="49.06097" lon="1.16315">
        <ele>52.400002</ele>
        <time>2016-12-04T08:28:29Z</time>
      </trkpt>
      <trkpt lat="49.0611" lon="1.16314">
        <ele>52.700001</ele>
        <time>2016-12-04T08:28:32Z</time>
      </trkpt>
      <trkpt lat="49.06123" lon="1.16312">
        <ele>53</ele>
        <time>2016-12-04T08:28:35Z</time>
      </trkpt>
      <trkpt lat="49.06132" lon="1.16309">
        <ele>53.200001</ele>
        <time>2016-12-04T08:28:37Z</time>
      </trkpt>
      <trkpt lat="49.06142" lon="1.16308">
        <ele>53.299999</ele>
        <time>2016-12-04T08:28:39Z</time>
      </trkpt>
      <trkpt lat="49.06151" lon="1.16307">
        <ele>53.5</ele>
        <time>2016-12-04T08:28:41Z</time>
      </trkpt>
      <trkpt lat="49.06161" lon="1.16306">
        <ele>53.599998</ele>
        <time>2016-12-04T08:28:43Z</time>
      </trkpt>
      <trkpt lat="49.0617" lon="1.16305">
        <ele>53.700001</ele>
        <time>2016-12-04T08:28:45Z</time>
      </trkpt>
      <trkpt lat="49.06179" lon="1.16304">
        <ele>53.799999</ele>
        <time>2016-12-04T08:28:47Z</time>
      </trkpt>
      <trkpt lat="49.06189" lon="1.16303">
        <ele>53.900002</ele>
        <time>2016-12-04T08:28:49Z</time>
      </trkpt>
      <trkpt lat="49.06198" lon="1.16302">
        <ele>54</ele>
        <time>2016-12-04T08:28:51Z</time>
      </trkpt>
      <trkpt lat="49.06207" lon="1.163">
        <ele>54.200001</ele>
        <time>2016-12-04T08:28:53Z</time>
      </trkpt>
      <trkpt lat="49.06216" lon="1.16299">
        <ele>54.299999</ele>
        <time>2016-12-04T08:28:55Z</time>
      </trkpt>
      <trkpt lat="49.06226" lon="1.16299">
        <ele>54.400002</ele>
        <time>2016-12-04T08:28:57Z</time>
      </trkpt>
      <trkpt lat="49.06235" lon="1.16298">
        <ele>54.5</ele>
        <time>2016-12-04T08:28:59Z</time>
      </trkpt>
      <trkpt lat="49.06245" lon="1.16296">
        <ele>54.599998</ele>
        <time>2016-12-04T08:29:01Z</time>
      </trkpt>
      <trkpt lat="49.06256" lon="1.16295">
        <ele>54.700001</ele>
        <time>2016-12-04T08:29:03Z</time>
      </trkpt>
      <trkpt lat="49.06266" lon="1.16293">
        <ele>54.700001</ele>
        <time>2016-12-04T08:29:05Z</time>
      </trkpt>
      <trkpt lat="49.06277" lon="1.16291">
        <ele>54.799999</ele>
        <time>2016-12-04T08:29:07Z</time>
      </trkpt>
      <trkpt lat="49.06288" lon="1.16289">
        <ele>54.700001</ele>
        <time>2016-12-04T08:29:09Z</time>
      </trkpt>
      <trkpt lat="49.063" lon="1.16286">
        <ele>54.599998</ele>
        <time>2016-12-04T08:29:11Z</time>
      </trkpt>
      <trkpt lat="49.06312" lon="1.16284">
        <ele>54.5</ele>
        <time>2016-12-04T08:29:13Z</time>
      </trkpt>
      <trkpt lat="49.06325" lon="1.16282">
        <ele>54.400002</ele>
        <time>2016-12-04T08:29:15Z</time>
      </trkpt>
      <trkpt lat="49.06337" lon="1.16281">
        <ele>54.200001</ele>
        <time>2016-12-04T08:29:17Z</time>
      </trkpt>
      <trkpt lat="49.0635" lon="1.1628">
        <ele>54</ele>
        <time>2016-12-04T08:29:19Z</time>
      </trkpt>
      <trkpt lat="49.06362" lon="1.16282">
        <ele>53.900002</ele>
        <time>2016-12-04T08:29:21Z</time>
      </trkpt>
      <trkpt lat="49.06374" lon="1.16284">
        <ele>53.599998</ele>
        <time>2016-12-04T08:29:23Z</time>
      </trkpt>
      <trkpt lat="49.06386" lon="1.16287">
        <ele>53.400002</ele>
        <time>2016-12-04T08:29:25Z</time>
      </trkpt>
      <trkpt lat="49.06398" lon="1.16292">
        <ele>53.099998</ele>
        <time>2016-12-04T08:29:27Z</time>
      </trkpt>
      <trkpt lat="49.06409" lon="1.16299">
        <ele>52.799999</ele>
        <time>2016-12-04T08:29:29Z</time>
      </trkpt>
      <trkpt lat="49.06419" lon="1.16311">
        <ele>52.5</ele>
        <time>2016-12-04T08:29:31Z</time>
      </trkpt>
      <trkpt lat="49.06427" lon="1.16326">
        <ele>52.200001</ele>
        <time>2016-12-04T08:29:33Z</time>
      </trkpt>
      <trkpt lat="49.06434" lon="1.16343">
        <ele>51.900002</ele>
        <time>2016-12-04T08:29:35Z</time>
      </trkpt>
      <trkpt lat="49.06442" lon="1.1636">
        <ele>51.599998</ele>
        <time>2016-12-04T08:29:37Z</time>
      </trkpt>
      <trkpt lat="49.0645" lon="1.16377">
        <ele>51.299999</ele>
        <time>2016-12-04T08:29:39Z</time>
      </trkpt>
      <trkpt lat="49.06456" lon="1.16394">
        <ele>51</ele>
        <time>2016-12-04T08:29:41Z</time>
      </trkpt>
      <trkpt lat="49.06463" lon="1.1641">
        <ele>50.700001</ele>
        <time>2016-12-04T08:29:43Z</time>
      </trkpt>
      <trkpt lat="49.0647" lon="1.16426">
        <ele>50.299999</ele>
        <time>2016-12-04T08:29:45Z</time>
      </trkpt>
      <trkpt lat="49.06477" lon="1.16442">
        <ele>50</ele>
        <time>2016-12-04T08:29:47Z</time>
      </trkpt>
      <trkpt lat="49.06484" lon="1.16458">
        <ele>49.700001</ele>
        <time>2016-12-04T08:29:49Z</time>
      </trkpt>
      <trkpt lat="49.06491" lon="1.16474">
        <ele>49.400002</ele>
        <time>2016-12-04T08:29:51Z</time>
      </trkpt>
      <trkpt lat="49.06497" lon="1.1649">
        <ele>49.099998</ele>
        <time>2016-12-04T08:29:53Z</time>
      </trkpt>
      <trkpt lat="49.06504" lon="1.16506">
        <ele>48.799999</ele>
        <time>2016-12-04T08:29:55Z</time>
      </trkpt>
      <trkpt lat="49.0651" lon="1.16521">
        <ele>48.5</ele>
        <time>2016-12-04T08:29:57Z</time>
      </trkpt>
      <trkpt lat="49.06517" lon="1.16537">
        <ele>48.299999</ele>
        <time>2016-12-04T08:29:59Z</time>
      </trkpt>
      <trkpt lat="49.06523" lon="1.16552">
        <ele>48.200001</ele>
        <time>2016-12-04T08:30:01Z</time>
      </trkpt>
      <trkpt lat="49.06529" lon="1.16567">
        <ele>48</ele>
        <time>2016-12-04T08:30:03Z</time>
      </trkpt>
      <trkpt lat="49.06536" lon="1.16582">
        <ele>47.799999</ele>
        <time>2016-12-04T08:30:05Z</time>
      </trkpt>
      <trkpt lat="49.06542" lon="1.16597">
        <ele>47.700001</ele>
        <time>2016-12-04T08:30:07Z</time>
      </trkpt>
      <trkpt lat="49.06548" lon="1.16612">
        <ele>47.599998</ele>
        <time>2016-12-04T08:30:09Z</time>
      </trkpt>
      <trkpt lat="49.06555" lon="1.16627">
        <ele>47.5</ele>
        <time>2016-12-04T08:30:11Z</time>
      </trkpt>
      <trkpt lat="49.06561" lon="1.16642">
        <ele>47.400002</ele>
        <time>2016-12-04T08:30:13Z</time>
      </trkpt>
      <trkpt lat="49.06567" lon="1.16657">
        <ele>47.299999</ele>
        <time>2016-12-04T08:30:15Z</time>
      </trkpt>
      <trkpt lat="49.06574" lon="1.16672">
        <ele>47.200001</ele>
        <time>2016-12-04T08:30:17Z</time>
      </trkpt>
      <trkpt lat="49.0658" lon="1.16687">
        <ele>47</ele>
        <time>2016-12-04T08:30:19Z</time>
      </trkpt>
      <trkpt lat="49.06586" lon="1.16702">
        <ele>46.900002</ele>
        <time>2016-12-04T08:30:21Z</time>
      </trkpt>
      <trkpt lat="49.06592" lon="1.16717">
        <ele>46.799999</ele>
        <time>2016-12-04T08:30:23Z</time>
      </trkpt>
      <trkpt lat="49.06599" lon="1.16732">
        <ele>46.700001</ele>
        <time>2016-12-04T08:30:25Z</time>
      </trkpt>
      <trkpt lat="49.06605" lon="1.16746">
        <ele>46.599998</ele>
        <time>2016-12-04T08:30:27Z</time>
      </trkpt>
      <trkpt lat="49.06611" lon="1.16761">
        <ele>46.5</ele>
        <time>2016-12-04T08:30:29Z</time>
      </trkpt>
      <trkpt lat="49.06618" lon="1.16777">
        <ele>46.400002</ele>
        <time>2016-12-04T08:30:31Z</time>
      </trkpt>
      <trkpt lat="49.06624" lon="1.16793">
        <ele>46.299999</ele>
        <time>2016-12-04T08:30:33Z</time>
      </trkpt>
      <trkpt lat="49.0663" lon="1.16808">
        <ele>46.200001</ele>
        <time>2016-12-04T08:30:35Z</time>
      </trkpt>
      <trkpt lat="49.06636" lon="1.16823">
        <ele>46.200001</ele>
        <time>2016-12-04T08:30:37Z</time>
      </trkpt>
      <trkpt lat="49.06642" lon="1.16838">
        <ele>46.099998</ele>
        <time>2016-12-04T08:30:39Z</time>
      </trkpt>
      <trkpt lat="49.06647" lon="1.16852">
        <ele>46</ele>
        <time>2016-12-04T08:30:41Z</time>
      </trkpt>
      <trkpt lat="49.06653" lon="1.16865">
        <ele>46</ele>
        <time>2016-12-04T08:30:43Z</time>
      </trkpt>
      <trkpt lat="49.06659" lon="1.16878">
        <ele>46</ele>
        <time>2016-12-04T08:30:45Z</time>
      </trkpt>
      <trkpt lat="49.06664" lon="1.1689">
        <ele>45.900002</ele>
        <time>2016-12-04T08:30:47Z</time>
      </trkpt>
      <trkpt lat="49.06669" lon="1.16902">
        <ele>45.900002</ele>
        <time>2016-12-04T08:30:49Z</time>
      </trkpt>
      <trkpt lat="49.06677" lon="1.1691">
        <ele>45.900002</ele>
        <time>2016-12-04T08:30:52Z</time>
      </trkpt>
      <trkpt lat="49.06686" lon="1.16901">
        <ele>45.799999</ele>
        <time>2016-12-04T08:30:56Z</time>
      </trkpt>
      <trkpt lat="49.06694" lon="1.16892">
        <ele>45.799999</ele>
        <time>2016-12-04T08:30:59Z</time>
      </trkpt>
      <trkpt lat="49.06704" lon="1.1688">
        <ele>45.799999</ele>
        <time>2016-12-04T08:31:02Z</time>
      </trkpt>
      <trkpt lat="49.06711" lon="1.16871">
        <ele>45.799999</ele>
        <time>2016-12-04T08:31:04Z</time>
      </trkpt>
      <trkpt lat="49.06719" lon="1.16861">
        <ele>45.799999</ele>
        <time>2016-12-04T08:31:06Z</time>
      </trkpt>
      <trkpt lat="49.06726" lon="1.1685">
        <ele>45.700001</ele>
        <time>2016-12-04T08:31:08Z</time>
      </trkpt>
      <trkpt lat="49.06734" lon="1.1684">
        <ele>45.700001</ele>
        <time>2016-12-04T08:31:10Z</time>
      </trkpt>
      <trkpt lat="49.06742" lon="1.1683">
        <ele>45.599998</ele>
        <time>2016-12-04T08:31:12Z</time>
      </trkpt>
      <trkpt lat="49.0675" lon="1.16819">
        <ele>45.599998</ele>
        <time>2016-12-04T08:31:14Z</time>
      </trkpt>
      <trkpt lat="49.06758" lon="1.16808">
        <ele>45.5</ele>
        <time>2016-12-04T08:31:16Z</time>
      </trkpt>
      <trkpt lat="49.06766" lon="1.16798">
        <ele>45.400002</ele>
        <time>2016-12-04T08:31:18Z</time>
      </trkpt>
      <trkpt lat="49.06774" lon="1.16788">
        <ele>45.400002</ele>
        <time>2016-12-04T08:31:20Z</time>
      </trkpt>
      <trkpt lat="49.06782" lon="1.16778">
        <ele>45.299999</ele>
        <time>2016-12-04T08:31:22Z</time>
      </trkpt>
      <trkpt lat="49.0679" lon="1.16768">
        <ele>45.200001</ele>
        <time>2016-12-04T08:31:24Z</time>
      </trkpt>
      <trkpt lat="49.06798" lon="1.16757">
        <ele>45.200001</ele>
        <time>2016-12-04T08:31:26Z</time>
      </trkpt>
      <trkpt lat="49.06806" lon="1.16747">
        <ele>45.099998</ele>
        <time>2016-12-04T08:31:28Z</time>
      </trkpt>
      <trkpt lat="49.06814" lon="1.16736">
        <ele>45.099998</ele>
        <time>2016-12-04T08:31:30Z</time>
      </trkpt>
      <trkpt lat="49.06821" lon="1.16726">
        <ele>45</ele>
        <time>2016-12-04T08:31:32Z</time>
      </trkpt>
      <trkpt lat="49.06829" lon="1.16715">
        <ele>44.900002</ele>
        <time>2016-12-04T08:31:34Z</time>
      </trkpt>
      <trkpt lat="49.06837" lon="1.16706">
        <ele>44.900002</ele>
        <time>2016-12-04T08:31:36Z</time>
      </trkpt>
      <trkpt lat="49.06845" lon="1.16696">
        <ele>44.799999</ele>
        <time>2016-12-04T08:31:38Z</time>
      </trkpt>
      <trkpt lat="49.06853" lon="1.16686">
        <ele>44.799999</ele>
        <time>2016-12-04T08:31:40Z</time>
      </trkpt>
      <trkpt lat="49.0686" lon="1.16675">
        <ele>44.700001</ele>
        <time>2016-12-04T08:31:42Z</time>
      </trkpt>
      <trkpt lat="49.06868" lon="1.16665">
        <ele>44.599998</ele>
        <time>2016-12-04T08:31:44Z</time>
      </trkpt>
      <trkpt lat="49.06875" lon="1.16655">
        <ele>44.599998</ele>
        <time>2016-12-04T08:31:46Z</time>
      </trkpt>
      <trkpt lat="49.06883" lon="1.16645">
        <ele>44.5</ele>
        <time>2016-12-04T08:31:48Z</time>
      </trkpt>
      <trkpt lat="49.0689" lon="1.16635">
        <ele>44.400002</ele>
        <time>2016-12-04T08:31:50Z</time>
      </trkpt>
      <trkpt lat="49.06898" lon="1.16625">
        <ele>44.400002</ele>
        <time>2016-12-04T08:31:52Z</time>
      </trkpt>
      <trkpt lat="49.06906" lon="1.16614">
        <ele>44.299999</ele>
        <time>2016-12-04T08:31:54Z</time>
      </trkpt>
      <trkpt lat="49.06913" lon="1.16604">
        <ele>44.299999</ele>
        <time>2016-12-04T08:31:56Z</time>
      </trkpt>
      <trkpt lat="49.06921" lon="1.16595">
        <ele>44.200001</ele>
        <time>2016-12-04T08:31:58Z</time>
      </trkpt>
      <trkpt lat="49.06929" lon="1.16585">
        <ele>44.200001</ele>
        <time>2016-12-04T08:32:00Z</time>
      </trkpt>
      <trkpt lat="49.06936" lon="1.16574">
        <ele>44.200001</ele>
        <time>2016-12-04T08:32:02Z</time>
      </trkpt>
      <trkpt lat="49.06944" lon="1.16564">
        <ele>44.200001</ele>
        <time>2016-12-04T08:32:04Z</time>
      </trkpt>
      <trkpt lat="49.06951" lon="1.16554">
        <ele>44.099998</ele>
        <time>2016-12-04T08:32:06Z</time>
      </trkpt>
      <trkpt lat="49.06958" lon="1.16544">
        <ele>44.099998</ele>
        <time>2016-12-04T08:32:08Z</time>
      </trkpt>
      <trkpt lat="49.06966" lon="1.16534">
        <ele>44.099998</ele>
        <time>2016-12-04T08:32:10Z</time>
      </trkpt>
      <trkpt lat="49.06973" lon="1.16524">
        <ele>44.099998</ele>
        <time>2016-12-04T08:32:12Z</time>
      </trkpt>
      <trkpt lat="49.06981" lon="1.16515">
        <ele>44.099998</ele>
        <time>2016-12-04T08:32:14Z</time>
      </trkpt>
      <trkpt lat="49.06989" lon="1.16506">
        <ele>44.099998</ele>
        <time>2016-12-04T08:32:16Z</time>
      </trkpt>
      <trkpt lat="49.06998" lon="1.16498">
        <ele>44.099998</ele>
        <time>2016-12-04T08:32:18Z</time>
      </trkpt>
      <trkpt lat="49.07007" lon="1.16491">
        <ele>44</ele>
        <time>2016-12-04T08:32:20Z</time>
      </trkpt>
      <trkpt lat="49.07016" lon="1.16483">
        <ele>44</ele>
        <time>2016-12-04T08:32:22Z</time>
      </trkpt>
      <trkpt lat="49.07023" lon="1.16475">
        <ele>44</ele>
        <time>2016-12-04T08:32:24Z</time>
      </trkpt>
      <trkpt lat="49.07031" lon="1.16466">
        <ele>44</ele>
        <time>2016-12-04T08:32:26Z</time>
      </trkpt>
      <trkpt lat="49.07039" lon="1.16457">
        <ele>44</ele>
        <time>2016-12-04T08:32:28Z</time>
      </trkpt>
      <trkpt lat="49.07046" lon="1.16447">
        <ele>44</ele>
        <time>2016-12-04T08:32:30Z</time>
      </trkpt>
      <trkpt lat="49.07054" lon="1.16437">
        <ele>43.900002</ele>
        <time>2016-12-04T08:32:32Z</time>
      </trkpt>
      <trkpt lat="49.0706" lon="1.16426">
        <ele>43.900002</ele>
        <time>2016-12-04T08:32:34Z</time>
      </trkpt>
      <trkpt lat="49.07066" lon="1.16416">
        <ele>43.900002</ele>
        <time>2016-12-04T08:32:36Z</time>
      </trkpt>
      <trkpt lat="49.07074" lon="1.16407">
        <ele>43.799999</ele>
        <time>2016-12-04T08:32:38Z</time>
      </trkpt>
      <trkpt lat="49.07081" lon="1.16398">
        <ele>43.799999</ele>
        <time>2016-12-04T08:32:40Z</time>
      </trkpt>
      <trkpt lat="49.07088" lon="1.16389">
        <ele>43.799999</ele>
        <time>2016-12-04T08:32:42Z</time>
      </trkpt>
      <trkpt lat="49.07096" lon="1.1638">
        <ele>43.700001</ele>
        <time>2016-12-04T08:32:44Z</time>
      </trkpt>
      <trkpt lat="49.07103" lon="1.16372">
        <ele>43.700001</ele>
        <time>2016-12-04T08:32:46Z</time>
      </trkpt>
      <trkpt lat="49.07111" lon="1.16364">
        <ele>43.700001</ele>
        <time>2016-12-04T08:32:48Z</time>
      </trkpt>
      <trkpt lat="49.07124" lon="1.16357">
        <ele>43.700001</ele>
        <time>2016-12-04T08:32:51Z</time>
      </trkpt>
      <trkpt lat="49.07133" lon="1.16353">
        <ele>43.700001</ele>
        <time>2016-12-04T08:32:53Z</time>
      </trkpt>
      <trkpt lat="49.07142" lon="1.16349">
        <ele>43.700001</ele>
        <time>2016-12-04T08:32:55Z</time>
      </trkpt>
      <trkpt lat="49.0715" lon="1.16341">
        <ele>43.599998</ele>
        <time>2016-12-04T08:32:57Z</time>
      </trkpt>
      <trkpt lat="49.07157" lon="1.1633">
        <ele>43.700001</ele>
        <time>2016-12-04T08:32:59Z</time>
      </trkpt>
      <trkpt lat="49.07164" lon="1.16319">
        <ele>43.700001</ele>
        <time>2016-12-04T08:33:01Z</time>
      </trkpt>
      <trkpt lat="49.0717" lon="1.16306">
        <ele>43.700001</ele>
        <time>2016-12-04T08:33:03Z</time>
      </trkpt>
      <trkpt lat="49.07176" lon="1.16293">
        <ele>43.700001</ele>
        <time>2016-12-04T08:33:05Z</time>
      </trkpt>
      <trkpt lat="49.07182" lon="1.1628">
        <ele>43.799999</ele>
        <time>2016-12-04T08:33:07Z</time>
      </trkpt>
      <trkpt lat="49.07189" lon="1.16267">
        <ele>43.799999</ele>
        <time>2016-12-04T08:33:09Z</time>
      </trkpt>
      <trkpt lat="49.07195" lon="1.16255">
        <ele>43.799999</ele>
        <time>2016-12-04T08:33:11Z</time>
      </trkpt>
      <trkpt lat="49.07203" lon="1.16244">
        <ele>43.799999</ele>
        <time>2016-12-04T08:33:13Z</time>
      </trkpt>
      <trkpt lat="49.07211" lon="1.16234">
        <ele>43.799999</ele>
        <time>2016-12-04T08:33:15Z</time>
      </trkpt>
      <trkpt lat="49.07219" lon="1.16223">
        <ele>43.799999</ele>
        <time>2016-12-04T08:33:17Z</time>
      </trkpt>
      <trkpt lat="49.07226" lon="1.16211">
        <ele>43.799999</ele>
        <time>2016-12-04T08:33:19Z</time>
      </trkpt>
      <trkpt lat="49.07232" lon="1.16198">
        <ele>43.799999</ele>
        <time>2016-12-04T08:33:21Z</time>
      </trkpt>
      <trkpt lat="49.07238" lon="1.16185">
        <ele>43.700001</ele>
        <time>2016-12-04T08:33:23Z</time>
      </trkpt>
      <trkpt lat="49.07245" lon="1.16173">
        <ele>43.700001</ele>
        <time>2016-12-04T08:33:25Z</time>
      </trkpt>
      <trkpt lat="49.07252" lon="1.16161">
        <ele>43.700001</ele>
        <time>2016-12-04T08:33:27Z</time>
      </trkpt>
      <trkpt lat="49.07259" lon="1.1615">
        <ele>43.700001</ele>
        <time>2016-12-04T08:33:29Z</time>
      </trkpt>
      <trkpt lat="49.07267" lon="1.16139">
        <ele>43.700001</ele>
        <time>2016-12-04T08:33:31Z</time>
      </trkpt>
      <trkpt lat="49.07275" lon="1.16128">
        <ele>43.700001</ele>
        <time>2016-12-04T08:33:33Z</time>
      </trkpt>
      <trkpt lat="49.07282" lon="1.16117">
        <ele>43.799999</ele>
        <time>2016-12-04T08:33:35Z</time>
      </trkpt>
      <trkpt lat="49.07289" lon="1.16107">
        <ele>43.799999</ele>
        <time>2016-12-04T08:33:37Z</time>
      </trkpt>
      <trkpt lat="49.07297" lon="1.16096">
        <ele>43.799999</ele>
        <time>2016-12-04T08:33:39Z</time>
      </trkpt>
      <trkpt lat="49.07305" lon="1.16086">
        <ele>43.799999</ele>
        <time>2016-12-04T08:33:41Z</time>
      </trkpt>
      <trkpt lat="49.07313" lon="1.16076">
        <ele>43.900002</ele>
        <time>2016-12-04T08:33:43Z</time>
      </trkpt>
      <trkpt lat="49.07321" lon="1.16066">
        <ele>43.900002</ele>
        <time>2016-12-04T08:33:45Z</time>
      </trkpt>
      <trkpt lat="49.07328" lon="1.16055">
        <ele>43.900002</ele>
        <time>2016-12-04T08:33:47Z</time>
      </trkpt>
      <trkpt lat="49.07336" lon="1.16043">
        <ele>43.900002</ele>
        <time>2016-12-04T08:33:49Z</time>
      </trkpt>
      <trkpt lat="49.07344" lon="1.16031">
        <ele>43.900002</ele>
        <time>2016-12-04T08:33:51Z</time>
      </trkpt>
      <trkpt lat="49.07351" lon="1.16018">
        <ele>43.799999</ele>
        <time>2016-12-04T08:33:53Z</time>
      </trkpt>
      <trkpt lat="49.07358" lon="1.16006">
        <ele>43.700001</ele>
        <time>2016-12-04T08:33:55Z</time>
      </trkpt>
      <trkpt lat="49.07365" lon="1.15994">
        <ele>43.599998</ele>
        <time>2016-12-04T08:33:57Z</time>
      </trkpt>
      <trkpt lat="49.07372" lon="1.15982">
        <ele>43.599998</ele>
        <time>2016-12-04T08:33:59Z</time>
      </trkpt>
      <trkpt lat="49.07379" lon="1.15971">
        <ele>43.5</ele>
        <time>2016-12-04T08:34:01Z</time>
      </trkpt>
      <trkpt lat="49.07386" lon="1.1596">
        <ele>43.400002</ele>
        <time>2016-12-04T08:34:03Z</time>
      </trkpt>
      <trkpt lat="49.07393" lon="1.15948">
        <ele>43.299999</ele>
        <time>2016-12-04T08:34:05Z</time>
      </trkpt>
      <trkpt lat="49.074" lon="1.15936">
        <ele>43.200001</ele>
        <time>2016-12-04T08:34:07Z</time>
      </trkpt>
      <trkpt lat="49.07404" lon="1.15922">
        <ele>43.200001</ele>
        <time>2016-12-04T08:34:09Z</time>
      </trkpt>
      <trkpt lat="49.07409" lon="1.15909">
        <ele>43.099998</ele>
        <time>2016-12-04T08:34:11Z</time>
      </trkpt>
      <trkpt lat="49.07416" lon="1.15897">
        <ele>43</ele>
        <time>2016-12-04T08:34:13Z</time>
      </trkpt>
      <trkpt lat="49.07423" lon="1.15888">
        <ele>43</ele>
        <time>2016-12-04T08:34:15Z</time>
      </trkpt>
      <trkpt lat="49.07431" lon="1.15881">
        <ele>42.900002</ele>
        <time>2016-12-04T08:34:17Z</time>
      </trkpt>
      <trkpt lat="49.07439" lon="1.15872">
        <ele>42.900002</ele>
        <time>2016-12-04T08:34:19Z</time>
      </trkpt>
      <trkpt lat="49.07445" lon="1.15862">
        <ele>42.900002</ele>
        <time>2016-12-04T08:34:21Z</time>
      </trkpt>
      <trkpt lat="49.07452" lon="1.15851">
        <ele>43</ele>
        <time>2016-12-04T08:34:23Z</time>
      </trkpt>
      <trkpt lat="49.07457" lon="1.15838">
        <ele>43</ele>
        <time>2016-12-04T08:34:25Z</time>
      </trkpt>
      <trkpt lat="49.07462" lon="1.15824">
        <ele>43</ele>
        <time>2016-12-04T08:34:27Z</time>
      </trkpt>
      <trkpt lat="49.07467" lon="1.15811">
        <ele>43</ele>
        <time>2016-12-04T08:34:29Z</time>
      </trkpt>
      <trkpt lat="49.07472" lon="1.15799">
        <ele>43</ele>
        <time>2016-12-04T08:34:31Z</time>
      </trkpt>
      <trkpt lat="49.07477" lon="1.15786">
        <ele>43.099998</ele>
        <time>2016-12-04T08:34:33Z</time>
      </trkpt>
      <trkpt lat="49.07483" lon="1.15768">
        <ele>43.099998</ele>
        <time>2016-12-04T08:34:36Z</time>
      </trkpt>
      <trkpt lat="49.07487" lon="1.15753">
        <ele>43</ele>
        <time>2016-12-04T08:34:39Z</time>
      </trkpt>
      <trkpt lat="49.07495" lon="1.15746">
        <ele>42.700001</ele>
        <time>2016-12-04T08:34:45Z</time>
      </trkpt>
      <trkpt lat="49.07503" lon="1.15753">
        <ele>42.5</ele>
        <time>2016-12-04T08:34:51Z</time>
      </trkpt>
      <trkpt lat="49.0751" lon="1.15765">
        <ele>42.400002</ele>
        <time>2016-12-04T08:34:56Z</time>
      </trkpt>
      <trkpt lat="49.07516" lon="1.15775">
        <ele>42.299999</ele>
        <time>2016-12-04T08:34:59Z</time>
      </trkpt>
      <trkpt lat="49.07523" lon="1.15787">
        <ele>42.299999</ele>
        <time>2016-12-04T08:35:02Z</time>
      </trkpt>
      <trkpt lat="49.07531" lon="1.15798">
        <ele>42.200001</ele>
        <time>2016-12-04T08:35:05Z</time>
      </trkpt>
      <trkpt lat="49.07537" lon="1.15811">
        <ele>42.200001</ele>
        <time>2016-12-04T08:35:08Z</time>
      </trkpt>
      <trkpt lat="49.07545" lon="1.15824">
        <ele>42.099998</ele>
        <time>2016-12-04T08:35:11Z</time>
      </trkpt>
      <trkpt lat="49.07553" lon="1.15838">
        <ele>42.099998</ele>
        <time>2016-12-04T08:35:14Z</time>
      </trkpt>
      <trkpt lat="49.07559" lon="1.1585">
        <ele>42.099998</ele>
        <time>2016-12-04T08:35:17Z</time>
      </trkpt>
      <trkpt lat="49.07567" lon="1.15865">
        <ele>42.099998</ele>
        <time>2016-12-04T08:35:20Z</time>
      </trkpt>
      <trkpt lat="49.07574" lon="1.15879">
        <ele>42.099998</ele>
        <time>2016-12-04T08:35:23Z</time>
      </trkpt>
      <trkpt lat="49.07583" lon="1.1588">
        <ele>42</ele>
        <time>2016-12-04T08:35:26Z</time>
      </trkpt>
      <trkpt lat="49.07591" lon="1.15868">
        <ele>42</ele>
        <time>2016-12-04T08:35:29Z</time>
      </trkpt>
      <trkpt lat="49.07601" lon="1.15856">
        <ele>42</ele>
        <time>2016-12-04T08:35:32Z</time>
      </trkpt>
      <trkpt lat="49.07611" lon="1.15844">
        <ele>41.900002</ele>
        <time>2016-12-04T08:35:35Z</time>
      </trkpt>
      <trkpt lat="49.07621" lon="1.15831">
        <ele>41.799999</ele>
        <time>2016-12-04T08:35:38Z</time>
      </trkpt>
      <trkpt lat="49.07632" lon="1.15819">
        <ele>41.700001</ele>
        <time>2016-12-04T08:35:41Z</time>
      </trkpt>
      <trkpt lat="49.07642" lon="1.15806">
        <ele>41.700001</ele>
        <time>2016-12-04T08:35:44Z</time>
      </trkpt>
      <trkpt lat="49.07652" lon="1.15793">
        <ele>41.599998</ele>
        <time>2016-12-04T08:35:47Z</time>
      </trkpt>
      <trkpt lat="49.0766" lon="1.15785">
        <ele>41.599998</ele>
        <time>2016-12-04T08:35:49Z</time>
      </trkpt>
      <trkpt lat="49.07669" lon="1.15772">
        <ele>41.599998</ele>
        <time>2016-12-04T08:35:52Z</time>
      </trkpt>
      <trkpt lat="49.07679" lon="1.15759">
        <ele>41.5</ele>
        <time>2016-12-04T08:35:55Z</time>
      </trkpt>
      <trkpt lat="49.07687" lon="1.15751">
        <ele>41.5</ele>
        <time>2016-12-04T08:35:57Z</time>
      </trkpt>
      <trkpt lat="49.07695" lon="1.15743">
        <ele>41.5</ele>
        <time>2016-12-04T08:35:59Z</time>
      </trkpt>
      <trkpt lat="49.07703" lon="1.15735">
        <ele>41.5</ele>
        <time>2016-12-04T08:36:01Z</time>
      </trkpt>
      <trkpt lat="49.07711" lon="1.15725">
        <ele>41.5</ele>
        <time>2016-12-04T08:36:03Z</time>
      </trkpt>
      <trkpt lat="49.07719" lon="1.15715">
        <ele>41.5</ele>
        <time>2016-12-04T08:36:05Z</time>
      </trkpt>
      <trkpt lat="49.07727" lon="1.15705">
        <ele>41.5</ele>
        <time>2016-12-04T08:36:07Z</time>
      </trkpt>
      <trkpt lat="49.07736" lon="1.15696">
        <ele>41.5</ele>
        <time>2016-12-04T08:36:09Z</time>
      </trkpt>
      <trkpt lat="49.07744" lon="1.15686">
        <ele>41.5</ele>
        <time>2016-12-04T08:36:11Z</time>
      </trkpt>
      <trkpt lat="49.07752" lon="1.15677">
        <ele>41.5</ele>
        <time>2016-12-04T08:36:13Z</time>
      </trkpt>
      <trkpt lat="49.07759" lon="1.15666">
        <ele>41.400002</ele>
        <time>2016-12-04T08:36:15Z</time>
      </trkpt>
      <trkpt lat="49.07767" lon="1.15655">
        <ele>41.400002</ele>
        <time>2016-12-04T08:36:17Z</time>
      </trkpt>
      <trkpt lat="49.07774" lon="1.15644">
        <ele>41.400002</ele>
        <time>2016-12-04T08:36:19Z</time>
      </trkpt>
      <trkpt lat="49.07781" lon="1.15632">
        <ele>41.400002</ele>
        <time>2016-12-04T08:36:21Z</time>
      </trkpt>
      <trkpt lat="49.07788" lon="1.15622">
        <ele>41.400002</ele>
        <time>2016-12-04T08:36:23Z</time>
      </trkpt>
      <trkpt lat="49.07796" lon="1.15613">
        <ele>41.400002</ele>
        <time>2016-12-04T08:36:25Z</time>
      </trkpt>
      <trkpt lat="49.07805" lon="1.15605">
        <ele>41.400002</ele>
        <time>2016-12-04T08:36:27Z</time>
      </trkpt>
      <trkpt lat="49.07813" lon="1.15596">
        <ele>41.400002</ele>
        <time>2016-12-04T08:36:29Z</time>
      </trkpt>
      <trkpt lat="49.07821" lon="1.15586">
        <ele>41.400002</ele>
        <time>2016-12-04T08:36:31Z</time>
      </trkpt>
      <trkpt lat="49.07828" lon="1.15575">
        <ele>41.400002</ele>
        <time>2016-12-04T08:36:33Z</time>
      </trkpt>
      <trkpt lat="49.07835" lon="1.15565">
        <ele>41.400002</ele>
        <time>2016-12-04T08:36:35Z</time>
      </trkpt>
      <trkpt lat="49.07842" lon="1.15553">
        <ele>41.400002</ele>
        <time>2016-12-04T08:36:39Z</time>
      </trkpt>
      <trkpt lat="49.07851" lon="1.15547">
        <ele>41.400002</ele>
        <time>2016-12-04T08:36:43Z</time>
      </trkpt>
      <trkpt lat="49.07859" lon="1.15539">
        <ele>41.400002</ele>
        <time>2016-12-04T08:36:46Z</time>
      </trkpt>
      <trkpt lat="49.07868" lon="1.15528">
        <ele>41.299999</ele>
        <time>2016-12-04T08:36:49Z</time>
      </trkpt>
      <trkpt lat="49.07877" lon="1.15517">
        <ele>41.299999</ele>
        <time>2016-12-04T08:36:52Z</time>
      </trkpt>
      <trkpt lat="49.07886" lon="1.15505">
        <ele>41.299999</ele>
        <time>2016-12-04T08:36:55Z</time>
      </trkpt>
      <trkpt lat="49.07896" lon="1.15496">
        <ele>41.299999</ele>
        <time>2016-12-04T08:36:58Z</time>
      </trkpt>
      <trkpt lat="49.07905" lon="1.15504">
        <ele>41.099998</ele>
        <time>2016-12-04T08:37:01Z</time>
      </trkpt>
      <trkpt lat="49.07913" lon="1.15518">
        <ele>41</ele>
        <time>2016-12-04T08:37:04Z</time>
      </trkpt>
      <trkpt lat="49.07922" lon="1.15533">
        <ele>40.900002</ele>
        <time>2016-12-04T08:37:07Z</time>
      </trkpt>
      <trkpt lat="49.07928" lon="1.15543">
        <ele>40.799999</ele>
        <time>2016-12-04T08:37:09Z</time>
      </trkpt>
      <trkpt lat="49.07937" lon="1.15559">
        <ele>40.700001</ele>
        <time>2016-12-04T08:37:12Z</time>
      </trkpt>
      <trkpt lat="49.07945" lon="1.15573">
        <ele>40.599998</ele>
        <time>2016-12-04T08:37:15Z</time>
      </trkpt>
      <trkpt lat="49.07953" lon="1.15588">
        <ele>40.599998</ele>
        <time>2016-12-04T08:37:18Z</time>
      </trkpt>
      <trkpt lat="49.07962" lon="1.15602">
        <ele>40.5</ele>
        <time>2016-12-04T08:37:21Z</time>
      </trkpt>
      <trkpt lat="49.07971" lon="1.15616">
        <ele>40.400002</ele>
        <time>2016-12-04T08:37:24Z</time>
      </trkpt>
      <trkpt lat="49.0798" lon="1.15628">
        <ele>40.400002</ele>
        <time>2016-12-04T08:37:27Z</time>
      </trkpt>
      <trkpt lat="49.0799" lon="1.15637">
        <ele>40.400002</ele>
        <time>2016-12-04T08:37:30Z</time>
      </trkpt>
      <trkpt lat="49.08002" lon="1.15641">
        <ele>40.299999</ele>
        <time>2016-12-04T08:37:33Z</time>
      </trkpt>
      <trkpt lat="49.08014" lon="1.15641">
        <ele>40.299999</ele>
        <time>2016-12-04T08:37:36Z</time>
      </trkpt>
      <trkpt lat="49.08026" lon="1.15635">
        <ele>40.299999</ele>
        <time>2016-12-04T08:37:39Z</time>
      </trkpt>
      <trkpt lat="49.08033" lon="1.15625">
        <ele>40.400002</ele>
        <time>2016-12-04T08:37:42Z</time>
      </trkpt>
      <trkpt lat="49.08038" lon="1.15608">
        <ele>40.5</ele>
        <time>2016-12-04T08:37:45Z</time>
      </trkpt>
      <trkpt lat="49.08042" lon="1.1559">
        <ele>40.700001</ele>
        <time>2016-12-04T08:37:48Z</time>
      </trkpt>
      <trkpt lat="49.08046" lon="1.15572">
        <ele>40.799999</ele>
        <time>2016-12-04T08:37:51Z</time>
      </trkpt>
      <trkpt lat="49.08052" lon="1.1556">
        <ele>40.900002</ele>
        <time>2016-12-04T08:37:55Z</time>
      </trkpt>
      <trkpt lat="49.08054" lon="1.15574">
        <ele>41.400002</ele>
        <time>2016-12-04T08:38:07Z</time>
      </trkpt>
      <trkpt lat="49.0805" lon="1.1559">
        <ele>41.599998</ele>
        <time>2016-12-04T08:38:11Z</time>
      </trkpt>
      <trkpt lat="49.08046" lon="1.15607">
        <ele>41.799999</ele>
        <time>2016-12-04T08:38:15Z</time>
      </trkpt>
      <trkpt lat="49.08042" lon="1.15621">
        <ele>42.099998</ele>
        <time>2016-12-04T08:38:18Z</time>
      </trkpt>
      <trkpt lat="49.08038" lon="1.15636">
        <ele>42.299999</ele>
        <time>2016-12-04T08:38:21Z</time>
      </trkpt>
      <trkpt lat="49.08035" lon="1.1565">
        <ele>42.5</ele>
        <time>2016-12-04T08:38:24Z</time>
      </trkpt>
      <trkpt lat="49.08031" lon="1.15665">
        <ele>42.799999</ele>
        <time>2016-12-04T08:38:27Z</time>
      </trkpt>
      <trkpt lat="49.08026" lon="1.15681">
        <ele>43</ele>
        <time>2016-12-04T08:38:30Z</time>
      </trkpt>
      <trkpt lat="49.08022" lon="1.15696">
        <ele>43.200001</ele>
        <time>2016-12-04T08:38:33Z</time>
      </trkpt>
      <trkpt lat="49.08018" lon="1.15713">
        <ele>43.5</ele>
        <time>2016-12-04T08:38:36Z</time>
      </trkpt>
      <trkpt lat="49.08013" lon="1.15729">
        <ele>43.700001</ele>
        <time>2016-12-04T08:38:39Z</time>
      </trkpt>
      <trkpt lat="49.08008" lon="1.15746">
        <ele>44.099998</ele>
        <time>2016-12-04T08:38:42Z</time>
      </trkpt>
      <trkpt lat="49.08004" lon="1.15762">
        <ele>44.400002</ele>
        <time>2016-12-04T08:38:45Z</time>
      </trkpt>
      <trkpt lat="49.08" lon="1.15778">
        <ele>44.799999</ele>
        <time>2016-12-04T08:38:48Z</time>
      </trkpt>
      <trkpt lat="49.07996" lon="1.15795">
        <ele>45.200001</ele>
        <time>2016-12-04T08:38:51Z</time>
      </trkpt>
      <trkpt lat="49.07994" lon="1.15812">
        <ele>45.5</ele>
        <time>2016-12-04T08:38:54Z</time>
      </trkpt>
      <trkpt lat="49.08001" lon="1.15825">
        <ele>45.900002</ele>
        <time>2016-12-04T08:38:57Z</time>
      </trkpt>
      <trkpt lat="49.0801" lon="1.15831">
        <ele>46.299999</ele>
        <time>2016-12-04T08:39:00Z</time>
      </trkpt>
      <trkpt lat="49.08019" lon="1.15836">
        <ele>46.799999</ele>
        <time>2016-12-04T08:39:03Z</time>
      </trkpt>
      <trkpt lat="49.08027" lon="1.15842">
        <ele>47.200001</ele>
        <time>2016-12-04T08:39:06Z</time>
      </trkpt>
      <trkpt lat="49.08036" lon="1.15848">
        <ele>47.799999</ele>
        <time>2016-12-04T08:39:09Z</time>
      </trkpt>
      <trkpt lat="49.08045" lon="1.15854">
        <ele>48.400002</ele>
        <time>2016-12-04T08:39:12Z</time>
      </trkpt>
      <trkpt lat="49.08054" lon="1.1586">
        <ele>49</ele>
        <time>2016-12-04T08:39:15Z</time>
      </trkpt>
      <trkpt lat="49.08062" lon="1.15867">
        <ele>49.599998</ele>
        <time>2016-12-04T08:39:18Z</time>
      </trkpt>
      <trkpt lat="49.08071" lon="1.15876">
        <ele>50.299999</ele>
        <time>2016-12-04T08:39:21Z</time>
      </trkpt>
      <trkpt lat="49.08079" lon="1.15885">
        <ele>51</ele>
        <time>2016-12-04T08:39:24Z</time>
      </trkpt>
      <trkpt lat="49.08088" lon="1.15893">
        <ele>51.599998</ele>
        <time>2016-12-04T08:39:27Z</time>
      </trkpt>
      <trkpt lat="49.08097" lon="1.159">
        <ele>52.200001</ele>
        <time>2016-12-04T08:39:30Z</time>
      </trkpt>
      <trkpt lat="49.08106" lon="1.15903">
        <ele>52.799999</ele>
        <time>2016-12-04T08:39:33Z</time>
      </trkpt>
      <trkpt lat="49.08116" lon="1.15904">
        <ele>53.400002</ele>
        <time>2016-12-04T08:39:36Z</time>
      </trkpt>
      <trkpt lat="49.08126" lon="1.15906">
        <ele>54</ele>
        <time>2016-12-04T08:39:39Z</time>
      </trkpt>
      <trkpt lat="49.08136" lon="1.15913">
        <ele>54.5</ele>
        <time>2016-12-04T08:39:42Z</time>
      </trkpt>
      <trkpt lat="49.08143" lon="1.15924">
        <ele>54.900002</ele>
        <time>2016-12-04T08:39:45Z</time>
      </trkpt>
      <trkpt lat="49.08149" lon="1.15935">
        <ele>55.5</ele>
        <time>2016-12-04T08:39:48Z</time>
      </trkpt>
      <trkpt lat="49.08155" lon="1.15946">
        <ele>56.099998</ele>
        <time>2016-12-04T08:39:51Z</time>
      </trkpt>
      <trkpt lat="49.08162" lon="1.15956">
        <ele>56.900002</ele>
        <time>2016-12-04T08:39:54Z</time>
      </trkpt>
      <trkpt lat="49.08168" lon="1.15966">
        <ele>57.5</ele>
        <time>2016-12-04T08:39:57Z</time>
      </trkpt>
      <trkpt lat="49.08175" lon="1.15978">
        <ele>58</ele>
        <time>2016-12-04T08:40:00Z</time>
      </trkpt>
      <trkpt lat="49.08182" lon="1.15989">
        <ele>58.5</ele>
        <time>2016-12-04T08:40:03Z</time>
      </trkpt>
      <trkpt lat="49.08189" lon="1.16001">
        <ele>59</ele>
        <time>2016-12-04T08:40:06Z</time>
      </trkpt>
      <trkpt lat="49.08196" lon="1.16012">
        <ele>59.400002</ele>
        <time>2016-12-04T08:40:09Z</time>
      </trkpt>
      <trkpt lat="49.08202" lon="1.16024">
        <ele>60.099998</ele>
        <time>2016-12-04T08:40:13Z</time>
      </trkpt>
      <trkpt lat="49.08209" lon="1.16034">
        <ele>61</ele>
        <time>2016-12-04T08:40:17Z</time>
      </trkpt>
      <trkpt lat="49.08217" lon="1.16044">
        <ele>62</ele>
        <time>2016-12-04T08:40:21Z</time>
      </trkpt>
      <trkpt lat="49.08226" lon="1.1605">
        <ele>62.900002</ele>
        <time>2016-12-04T08:40:25Z</time>
      </trkpt>
      <trkpt lat="49.08236" lon="1.16055">
        <ele>63.799999</ele>
        <time>2016-12-04T08:40:29Z</time>
      </trkpt>
      <trkpt lat="49.08245" lon="1.16059">
        <ele>64.400002</ele>
        <time>2016-12-04T08:40:32Z</time>
      </trkpt>
      <trkpt lat="49.08255" lon="1.16062">
        <ele>65.099998</ele>
        <time>2016-12-04T08:40:36Z</time>
      </trkpt>
      <trkpt lat="49.08266" lon="1.16067">
        <ele>65.800003</ele>
        <time>2016-12-04T08:40:40Z</time>
      </trkpt>
      <trkpt lat="49.08275" lon="1.16072">
        <ele>66.199997</ele>
        <time>2016-12-04T08:40:43Z</time>
      </trkpt>
      <trkpt lat="49.08285" lon="1.1608">
        <ele>66.699997</ele>
        <time>2016-12-04T08:40:47Z</time>
      </trkpt>
      <trkpt lat="49.08294" lon="1.16085">
        <ele>67.199997</ele>
        <time>2016-12-04T08:40:51Z</time>
      </trkpt>
      <trkpt lat="49.08304" lon="1.16091">
        <ele>67.699997</ele>
        <time>2016-12-04T08:40:55Z</time>
      </trkpt>
      <trkpt lat="49.08314" lon="1.16098">
        <ele>68.099998</ele>
        <time>2016-12-04T08:40:59Z</time>
      </trkpt>
      <trkpt lat="49.08324" lon="1.16107">
        <ele>68.800003</ele>
        <time>2016-12-04T08:41:04Z</time>
      </trkpt>
      <trkpt lat="49.08332" lon="1.16113">
        <ele>69.099998</ele>
        <time>2016-12-04T08:41:07Z</time>
      </trkpt>
      <trkpt lat="49.0834" lon="1.16123">
        <ele>69.5</ele>
        <time>2016-12-04T08:41:10Z</time>
      </trkpt>
      <trkpt lat="49.08348" lon="1.16131">
        <ele>70</ele>
        <time>2016-12-04T08:41:14Z</time>
      </trkpt>
      <trkpt lat="49.08358" lon="1.16139">
        <ele>70.699997</ele>
        <time>2016-12-04T08:41:18Z</time>
      </trkpt>
      <trkpt lat="49.08367" lon="1.16145">
        <ele>71.199997</ele>
        <time>2016-12-04T08:41:21Z</time>
      </trkpt>
      <trkpt lat="49.08375" lon="1.1614">
        <ele>72.099998</ele>
        <time>2016-12-04T08:41:25Z</time>
      </trkpt>
      <trkpt lat="49.08383" lon="1.16131">
        <ele>73.599998</ele>
        <time>2016-12-04T08:41:31Z</time>
      </trkpt>
      <trkpt lat="49.0839" lon="1.16121">
        <ele>75.800003</ele>
        <time>2016-12-04T08:41:39Z</time>
      </trkpt>
      <trkpt lat="49.08398" lon="1.16109">
        <ele>77.800003</ele>
        <time>2016-12-04T08:41:46Z</time>
      </trkpt>
      <trkpt lat="49.08404" lon="1.16099">
        <ele>80</ele>
        <time>2016-12-04T08:41:53Z</time>
      </trkpt>
      <trkpt lat="49.08412" lon="1.1609">
        <ele>82.099998</ele>
        <time>2016-12-04T08:42:00Z</time>
      </trkpt>
      <trkpt lat="49.08418" lon="1.16078">
        <ele>84.5</ele>
        <time>2016-12-04T08:42:08Z</time>
      </trkpt>
      <trkpt lat="49.08424" lon="1.16064">
        <ele>87</ele>
        <time>2016-12-04T08:42:16Z</time>
      </trkpt>
      <trkpt lat="49.08429" lon="1.16053">
        <ele>89.300003</ele>
        <time>2016-12-04T08:42:24Z</time>
      </trkpt>
      <trkpt lat="49.08436" lon="1.16042">
        <ele>91.599998</ele>
        <time>2016-12-04T08:42:32Z</time>
      </trkpt>
      <trkpt lat="49.08443" lon="1.16031">
        <ele>93.800003</ele>
        <time>2016-12-04T08:42:40Z</time>
      </trkpt>
      <trkpt lat="49.08449" lon="1.1602">
        <ele>96</ele>
        <time>2016-12-04T08:42:48Z</time>
      </trkpt>
      <trkpt lat="49.08453" lon="1.16006">
        <ele>98.199997</ele>
        <time>2016-12-04T08:42:56Z</time>
      </trkpt>
      <trkpt lat="49.08458" lon="1.15995">
        <ele>100.199997</ele>
        <time>2016-12-04T08:43:03Z</time>
      </trkpt>
      <trkpt lat="49.08464" lon="1.15983">
        <ele>102.5</ele>
        <time>2016-12-04T08:43:11Z</time>
      </trkpt>
      <trkpt lat="49.08467" lon="1.15969">
        <ele>104.900002</ele>
        <time>2016-12-04T08:43:19Z</time>
      </trkpt>
      <trkpt lat="49.08474" lon="1.15957">
        <ele>107.199997</ele>
        <time>2016-12-04T08:43:27Z</time>
      </trkpt>
      <trkpt lat="49.08478" lon="1.15943">
        <ele>109.199997</ele>
        <time>2016-12-04T08:43:34Z</time>
      </trkpt>
      <trkpt lat="49.08482" lon="1.1593">
        <ele>111.199997</ele>
        <time>2016-12-04T08:43:41Z</time>
      </trkpt>
      <trkpt lat="49.08488" lon="1.15918">
        <ele>113.5</ele>
        <time>2016-12-04T08:43:49Z</time>
      </trkpt>
      <trkpt lat="49.08494" lon="1.15907">
        <ele>115.599998</ele>
        <time>2016-12-04T08:43:57Z</time>
      </trkpt>
      <trkpt lat="49.08501" lon="1.15898">
        <ele>117.400002</ele>
        <time>2016-12-04T08:44:04Z</time>
      </trkpt>
      <trkpt lat="49.08514" lon="1.15889">
        <ele>127</ele>
        <time>2016-12-04T08:45:59Z</time>
      </trkpt>
      <trkpt lat="49.08514" lon="1.15895">
        <ele>121.5</ele>
        <time>2016-12-04T08:47:52Z</time>
      </trkpt>
      <trkpt lat="49.08523" lon="1.15888">
        <ele>121.699997</ele>
        <time>2016-12-04T08:48:00Z</time>
      </trkpt>
      <trkpt lat="49.0853" lon="1.15877">
        <ele>122.300003</ele>
        <time>2016-12-04T08:48:07Z</time>
      </trkpt>
      <trkpt lat="49.08537" lon="1.15867">
        <ele>123.300003</ele>
        <time>2016-12-04T08:48:14Z</time>
      </trkpt>
      <trkpt lat="49.08543" lon="1.15855">
        <ele>124.099998</ele>
        <time>2016-12-04T08:48:20Z</time>
      </trkpt>
      <trkpt lat="49.08549" lon="1.15844">
        <ele>124.699997</ele>
        <time>2016-12-04T08:48:25Z</time>
      </trkpt>
      <trkpt lat="49.08557" lon="1.15833">
        <ele>125.199997</ele>
        <time>2016-12-04T08:48:30Z</time>
      </trkpt>
      <trkpt lat="49.08563" lon="1.15821">
        <ele>125.699997</ele>
        <time>2016-12-04T08:48:35Z</time>
      </trkpt>
      <trkpt lat="49.0857" lon="1.15811">
        <ele>126.099998</ele>
        <time>2016-12-04T08:48:39Z</time>
      </trkpt>
      <trkpt lat="49.08576" lon="1.15799">
        <ele>126.400002</ele>
        <time>2016-12-04T08:48:43Z</time>
      </trkpt>
      <trkpt lat="49.08582" lon="1.15789">
        <ele>126.599998</ele>
        <time>2016-12-04T08:48:47Z</time>
      </trkpt>
      <trkpt lat="49.08589" lon="1.15775">
        <ele>127</ele>
        <time>2016-12-04T08:48:52Z</time>
      </trkpt>
      <trkpt lat="49.08596" lon="1.15761">
        <ele>127.5</ele>
        <time>2016-12-04T08:48:57Z</time>
      </trkpt>
      <trkpt lat="49.086" lon="1.15749">
        <ele>127.800003</ele>
        <time>2016-12-04T08:49:04Z</time>
      </trkpt>
      <trkpt lat="49.0861" lon="1.1574">
        <ele>128.5</ele>
        <time>2016-12-04T08:49:32Z</time>
      </trkpt>
      <trkpt lat="49.08619" lon="1.15736">
        <ele>128.5</ele>
        <time>2016-12-04T08:49:35Z</time>
      </trkpt>
      <trkpt lat="49.0863" lon="1.15732">
        <ele>128.699997</ele>
        <time>2016-12-04T08:49:39Z</time>
      </trkpt>
      <trkpt lat="49.0864" lon="1.15728">
        <ele>128.800003</ele>
        <time>2016-12-04T08:49:42Z</time>
      </trkpt>
      <trkpt lat="49.0865" lon="1.15725">
        <ele>129</ele>
        <time>2016-12-04T08:49:45Z</time>
      </trkpt>
      <trkpt lat="49.0866" lon="1.15721">
        <ele>129.199997</ele>
        <time>2016-12-04T08:49:48Z</time>
      </trkpt>
      <trkpt lat="49.0867" lon="1.15718">
        <ele>129.399994</ele>
        <time>2016-12-04T08:49:51Z</time>
      </trkpt>
      <trkpt lat="49.08681" lon="1.15714">
        <ele>129.800003</ele>
        <time>2016-12-04T08:49:54Z</time>
      </trkpt>
      <trkpt lat="49.08691" lon="1.15709">
        <ele>130.100006</ele>
        <time>2016-12-04T08:49:57Z</time>
      </trkpt>
      <trkpt lat="49.08701" lon="1.15706">
        <ele>130.300003</ele>
        <time>2016-12-04T08:50:00Z</time>
      </trkpt>
      <trkpt lat="49.08711" lon="1.15702">
        <ele>130.600006</ele>
        <time>2016-12-04T08:50:03Z</time>
      </trkpt>
      <trkpt lat="49.08723" lon="1.157">
        <ele>130.800003</ele>
        <time>2016-12-04T08:50:06Z</time>
      </trkpt>
      <trkpt lat="49.08734" lon="1.15697">
        <ele>130.899994</ele>
        <time>2016-12-04T08:50:09Z</time>
      </trkpt>
      <trkpt lat="49.08744" lon="1.15691">
        <ele>131</ele>
        <time>2016-12-04T08:50:12Z</time>
      </trkpt>
      <trkpt lat="49.08755" lon="1.1569">
        <ele>131.199997</ele>
        <time>2016-12-04T08:50:15Z</time>
      </trkpt>
      <trkpt lat="49.08759" lon="1.15704">
        <ele>131.300003</ele>
        <time>2016-12-04T08:50:19Z</time>
      </trkpt>
      <trkpt lat="49.08766" lon="1.15719">
        <ele>131.399994</ele>
        <time>2016-12-04T08:50:23Z</time>
      </trkpt>
      <trkpt lat="49.08775" lon="1.15731">
        <ele>131.5</ele>
        <time>2016-12-04T08:50:26Z</time>
      </trkpt>
      <trkpt lat="49.08782" lon="1.15745">
        <ele>131.600006</ele>
        <time>2016-12-04T08:50:29Z</time>
      </trkpt>
      <trkpt lat="49.08791" lon="1.15758">
        <ele>131.699997</ele>
        <time>2016-12-04T08:50:32Z</time>
      </trkpt>
      <trkpt lat="49.08799" lon="1.15771">
        <ele>131.800003</ele>
        <time>2016-12-04T08:50:35Z</time>
      </trkpt>
      <trkpt lat="49.08807" lon="1.15783">
        <ele>131.899994</ele>
        <time>2016-12-04T08:50:38Z</time>
      </trkpt>
      <trkpt lat="49.08813" lon="1.15795">
        <ele>132</ele>
        <time>2016-12-04T08:50:41Z</time>
      </trkpt>
      <trkpt lat="49.08821" lon="1.15809">
        <ele>132.100006</ele>
        <time>2016-12-04T08:50:44Z</time>
      </trkpt>
      <trkpt lat="49.08829" lon="1.15823">
        <ele>132.300003</ele>
        <time>2016-12-04T08:50:47Z</time>
      </trkpt>
      <trkpt lat="49.08837" lon="1.15836">
        <ele>132.5</ele>
        <time>2016-12-04T08:50:50Z</time>
      </trkpt>
      <trkpt lat="49.08848" lon="1.15848">
        <ele>132.600006</ele>
        <time>2016-12-04T08:50:53Z</time>
      </trkpt>
      <trkpt lat="49.08859" lon="1.15858">
        <ele>132.800003</ele>
        <time>2016-12-04T08:50:56Z</time>
      </trkpt>
      <trkpt lat="49.08866" lon="1.15868">
        <ele>133</ele>
        <time>2016-12-04T08:50:59Z</time>
      </trkpt>
      <trkpt lat="49.08873" lon="1.15878">
        <ele>133.300003</ele>
        <time>2016-12-04T08:51:02Z</time>
      </trkpt>
      <trkpt lat="49.08879" lon="1.15887">
        <ele>133.600006</ele>
        <time>2016-12-04T08:51:05Z</time>
      </trkpt>
      <trkpt lat="49.0889" lon="1.15896">
        <ele>133.899994</ele>
        <time>2016-12-04T08:51:08Z</time>
      </trkpt>
      <trkpt lat="49.08901" lon="1.15901">
        <ele>134.100006</ele>
        <time>2016-12-04T08:51:11Z</time>
      </trkpt>
      <trkpt lat="49.08911" lon="1.15907">
        <ele>134.300003</ele>
        <time>2016-12-04T08:51:14Z</time>
      </trkpt>
      <trkpt lat="49.0892" lon="1.15914">
        <ele>134.399994</ele>
        <time>2016-12-04T08:51:16Z</time>
      </trkpt>
      <trkpt lat="49.08928" lon="1.15921">
        <ele>134.5</ele>
        <time>2016-12-04T08:51:18Z</time>
      </trkpt>
      <trkpt lat="49.08939" lon="1.15929">
        <ele>134.600006</ele>
        <time>2016-12-04T08:51:21Z</time>
      </trkpt>
      <trkpt lat="49.08952" lon="1.15931">
        <ele>134.800003</ele>
        <time>2016-12-04T08:51:24Z</time>
      </trkpt>
      <trkpt lat="49.08963" lon="1.15938">
        <ele>134.899994</ele>
        <time>2016-12-04T08:51:27Z</time>
      </trkpt>
      <trkpt lat="49.08973" lon="1.15947">
        <ele>135</ele>
        <time>2016-12-04T08:51:30Z</time>
      </trkpt>
      <trkpt lat="49.08984" lon="1.15954">
        <ele>135</ele>
        <time>2016-12-04T08:51:33Z</time>
      </trkpt>
      <trkpt lat="49.08994" lon="1.15961">
        <ele>135.100006</ele>
        <time>2016-12-04T08:51:35Z</time>
      </trkpt>
      <trkpt lat="49.09001" lon="1.1597">
        <ele>135.100006</ele>
        <time>2016-12-04T08:51:38Z</time>
      </trkpt>
      <trkpt lat="49.0901" lon="1.15972">
        <ele>135.199997</ele>
        <time>2016-12-04T08:51:42Z</time>
      </trkpt>
      <trkpt lat="49.09019" lon="1.15969">
        <ele>135.199997</ele>
        <time>2016-12-04T08:51:45Z</time>
      </trkpt>
      <trkpt lat="49.09027" lon="1.1596">
        <ele>135.199997</ele>
        <time>2016-12-04T08:51:48Z</time>
      </trkpt>
      <trkpt lat="49.09034" lon="1.15949">
        <ele>135.300003</ele>
        <time>2016-12-04T08:51:51Z</time>
      </trkpt>
      <trkpt lat="49.09041" lon="1.15937">
        <ele>135.199997</ele>
        <time>2016-12-04T08:51:54Z</time>
      </trkpt>
      <trkpt lat="49.09048" lon="1.15924">
        <ele>135.100006</ele>
        <time>2016-12-04T08:51:57Z</time>
      </trkpt>
      <trkpt lat="49.09056" lon="1.15911">
        <ele>135</ele>
        <time>2016-12-04T08:52:00Z</time>
      </trkpt>
      <trkpt lat="49.09063" lon="1.15894">
        <ele>134.899994</ele>
        <time>2016-12-04T08:52:03Z</time>
      </trkpt>
      <trkpt lat="49.09071" lon="1.15881">
        <ele>134.800003</ele>
        <time>2016-12-04T08:52:06Z</time>
      </trkpt>
      <trkpt lat="49.09078" lon="1.15867">
        <ele>134.699997</ele>
        <time>2016-12-04T08:52:09Z</time>
      </trkpt>
      <trkpt lat="49.09085" lon="1.15853">
        <ele>134.600006</ele>
        <time>2016-12-04T08:52:12Z</time>
      </trkpt>
      <trkpt lat="49.09093" lon="1.15838">
        <ele>134.5</ele>
        <time>2016-12-04T08:52:15Z</time>
      </trkpt>
      <trkpt lat="49.09101" lon="1.15824">
        <ele>134.5</ele>
        <time>2016-12-04T08:52:18Z</time>
      </trkpt>
      <trkpt lat="49.09107" lon="1.15811">
        <ele>134.5</ele>
        <time>2016-12-04T08:52:21Z</time>
      </trkpt>
      <trkpt lat="49.09114" lon="1.15797">
        <ele>134.399994</ele>
        <time>2016-12-04T08:52:25Z</time>
      </trkpt>
      <trkpt lat="49.09123" lon="1.15781">
        <ele>134.399994</ele>
        <time>2016-12-04T08:52:28Z</time>
      </trkpt>
      <trkpt lat="49.09131" lon="1.15766">
        <ele>134.399994</ele>
        <time>2016-12-04T08:52:31Z</time>
      </trkpt>
      <trkpt lat="49.09137" lon="1.15755">
        <ele>134.399994</ele>
        <time>2016-12-04T08:52:33Z</time>
      </trkpt>
      <trkpt lat="49.09145" lon="1.1574">
        <ele>134.399994</ele>
        <time>2016-12-04T08:52:36Z</time>
      </trkpt>
      <trkpt lat="49.09153" lon="1.15724">
        <ele>134.300003</ele>
        <time>2016-12-04T08:52:39Z</time>
      </trkpt>
      <trkpt lat="49.09161" lon="1.15708">
        <ele>134.300003</ele>
        <time>2016-12-04T08:52:42Z</time>
      </trkpt>
      <trkpt lat="49.09167" lon="1.15696">
        <ele>134.300003</ele>
        <time>2016-12-04T08:52:44Z</time>
      </trkpt>
      <trkpt lat="49.09175" lon="1.1568">
        <ele>134.300003</ele>
        <time>2016-12-04T08:52:47Z</time>
      </trkpt>
      <trkpt lat="49.09181" lon="1.15668">
        <ele>134.300003</ele>
        <time>2016-12-04T08:52:49Z</time>
      </trkpt>
      <trkpt lat="49.0919" lon="1.15652">
        <ele>134.300003</ele>
        <time>2016-12-04T08:52:52Z</time>
      </trkpt>
      <trkpt lat="49.09195" lon="1.15641">
        <ele>134.300003</ele>
        <time>2016-12-04T08:52:54Z</time>
      </trkpt>
      <trkpt lat="49.09201" lon="1.1563">
        <ele>134.300003</ele>
        <time>2016-12-04T08:52:56Z</time>
      </trkpt>
      <trkpt lat="49.09208" lon="1.15617">
        <ele>134.199997</ele>
        <time>2016-12-04T08:52:58Z</time>
      </trkpt>
      <trkpt lat="49.09213" lon="1.15604">
        <ele>134.100006</ele>
        <time>2016-12-04T08:53:00Z</time>
      </trkpt>
      <trkpt lat="49.09219" lon="1.15593">
        <ele>134</ele>
        <time>2016-12-04T08:53:02Z</time>
      </trkpt>
      <trkpt lat="49.09225" lon="1.15583">
        <ele>133.800003</ele>
        <time>2016-12-04T08:53:04Z</time>
      </trkpt>
      <trkpt lat="49.09234" lon="1.15567">
        <ele>133.5</ele>
        <time>2016-12-04T08:53:07Z</time>
      </trkpt>
      <trkpt lat="49.0924" lon="1.15554">
        <ele>133.300003</ele>
        <time>2016-12-04T08:53:10Z</time>
      </trkpt>
      <trkpt lat="49.09246" lon="1.15542">
        <ele>133.100006</ele>
        <time>2016-12-04T08:53:13Z</time>
      </trkpt>
      <trkpt lat="49.09253" lon="1.1553">
        <ele>132.800003</ele>
        <time>2016-12-04T08:53:16Z</time>
      </trkpt>
      <trkpt lat="49.0926" lon="1.15517">
        <ele>132.600006</ele>
        <time>2016-12-04T08:53:19Z</time>
      </trkpt>
      <trkpt lat="49.09268" lon="1.15503">
        <ele>132.399994</ele>
        <time>2016-12-04T08:53:22Z</time>
      </trkpt>
      <trkpt lat="49.09277" lon="1.15489">
        <ele>132.199997</ele>
        <time>2016-12-04T08:53:25Z</time>
      </trkpt>
      <trkpt lat="49.09285" lon="1.15475">
        <ele>132.100006</ele>
        <time>2016-12-04T08:53:28Z</time>
      </trkpt>
      <trkpt lat="49.09294" lon="1.15461">
        <ele>132</ele>
        <time>2016-12-04T08:53:31Z</time>
      </trkpt>
      <trkpt lat="49.09301" lon="1.15446">
        <ele>131.899994</ele>
        <time>2016-12-04T08:53:34Z</time>
      </trkpt>
      <trkpt lat="49.09307" lon="1.15429">
        <ele>131.800003</ele>
        <time>2016-12-04T08:53:37Z</time>
      </trkpt>
      <trkpt lat="49.09313" lon="1.15416">
        <ele>131.699997</ele>
        <time>2016-12-04T08:53:40Z</time>
      </trkpt>
      <trkpt lat="49.09324" lon="1.15405">
        <ele>131.699997</ele>
        <time>2016-12-04T08:53:43Z</time>
      </trkpt>
      <trkpt lat="49.09334" lon="1.15394">
        <ele>131.899994</ele>
        <time>2016-12-04T08:53:46Z</time>
      </trkpt>
      <trkpt lat="49.09342" lon="1.15386">
        <ele>132</ele>
        <time>2016-12-04T08:53:48Z</time>
      </trkpt>
      <trkpt lat="49.09353" lon="1.15378">
        <ele>132.199997</ele>
        <time>2016-12-04T08:53:51Z</time>
      </trkpt>
      <trkpt lat="49.09363" lon="1.15367">
        <ele>132.5</ele>
        <time>2016-12-04T08:53:54Z</time>
      </trkpt>
      <trkpt lat="49.09374" lon="1.15358">
        <ele>132.800003</ele>
        <time>2016-12-04T08:53:57Z</time>
      </trkpt>
      <trkpt lat="49.09381" lon="1.15351">
        <ele>133</ele>
        <time>2016-12-04T08:53:59Z</time>
      </trkpt>
      <trkpt lat="49.09391" lon="1.15341">
        <ele>133.300003</ele>
        <time>2016-12-04T08:54:02Z</time>
      </trkpt>
      <trkpt lat="49.09403" lon="1.15332">
        <ele>133.600006</ele>
        <time>2016-12-04T08:54:05Z</time>
      </trkpt>
      <trkpt lat="49.09411" lon="1.15319">
        <ele>133.800003</ele>
        <time>2016-12-04T08:54:08Z</time>
      </trkpt>
      <trkpt lat="49.09417" lon="1.15308">
        <ele>134</ele>
        <time>2016-12-04T08:54:10Z</time>
      </trkpt>
      <trkpt lat="49.09422" lon="1.15295">
        <ele>134.100006</ele>
        <time>2016-12-04T08:54:12Z</time>
      </trkpt>
      <trkpt lat="49.09427" lon="1.15277">
        <ele>134.300003</ele>
        <time>2016-12-04T08:54:15Z</time>
      </trkpt>
      <trkpt lat="49.09429" lon="1.15258">
        <ele>134.399994</ele>
        <time>2016-12-04T08:54:18Z</time>
      </trkpt>
      <trkpt lat="49.09432" lon="1.15237">
        <ele>134.600006</ele>
        <time>2016-12-04T08:54:21Z</time>
      </trkpt>
      <trkpt lat="49.09434" lon="1.15216">
        <ele>134.699997</ele>
        <time>2016-12-04T08:54:24Z</time>
      </trkpt>
      <trkpt lat="49.09436" lon="1.15202">
        <ele>134.800003</ele>
        <time>2016-12-04T08:54:26Z</time>
      </trkpt>
      <trkpt lat="49.09441" lon="1.15184">
        <ele>134.899994</ele>
        <time>2016-12-04T08:54:29Z</time>
      </trkpt>
      <trkpt lat="49.09445" lon="1.15165">
        <ele>135</ele>
        <time>2016-12-04T08:54:32Z</time>
      </trkpt>
      <trkpt lat="49.09448" lon="1.15151">
        <ele>135</ele>
        <time>2016-12-04T08:54:34Z</time>
      </trkpt>
      <trkpt lat="49.09451" lon="1.15135">
        <ele>135</ele>
        <time>2016-12-04T08:54:36Z</time>
      </trkpt>
      <trkpt lat="49.09454" lon="1.15121">
        <ele>134.899994</ele>
        <time>2016-12-04T08:54:38Z</time>
      </trkpt>
      <trkpt lat="49.09457" lon="1.15105">
        <ele>134.800003</ele>
        <time>2016-12-04T08:54:40Z</time>
      </trkpt>
      <trkpt lat="49.09461" lon="1.15091">
        <ele>134.699997</ele>
        <time>2016-12-04T08:54:42Z</time>
      </trkpt>
      <trkpt lat="49.09463" lon="1.15075">
        <ele>134.600006</ele>
        <time>2016-12-04T08:54:44Z</time>
      </trkpt>
      <trkpt lat="49.09468" lon="1.15062">
        <ele>134.5</ele>
        <time>2016-12-04T08:54:46Z</time>
      </trkpt>
      <trkpt lat="49.09474" lon="1.15042">
        <ele>134.399994</ele>
        <time>2016-12-04T08:54:49Z</time>
      </trkpt>
      <trkpt lat="49.09481" lon="1.15026">
        <ele>134.300003</ele>
        <time>2016-12-04T08:54:52Z</time>
      </trkpt>
      <trkpt lat="49.09492" lon="1.15013">
        <ele>134.199997</ele>
        <time>2016-12-04T08:54:55Z</time>
      </trkpt>
      <trkpt lat="49.09501" lon="1.15">
        <ele>134.100006</ele>
        <time>2016-12-04T08:54:58Z</time>
      </trkpt>
      <trkpt lat="49.0951" lon="1.14985">
        <ele>134.100006</ele>
        <time>2016-12-04T08:55:01Z</time>
      </trkpt>
      <trkpt lat="49.09519" lon="1.14973">
        <ele>134.199997</ele>
        <time>2016-12-04T08:55:04Z</time>
      </trkpt>
      <trkpt lat="49.09529" lon="1.14959">
        <ele>134.399994</ele>
        <time>2016-12-04T08:55:07Z</time>
      </trkpt>
      <trkpt lat="49.09537" lon="1.14947">
        <ele>134.5</ele>
        <time>2016-12-04T08:55:10Z</time>
      </trkpt>
      <trkpt lat="49.09543" lon="1.14936">
        <ele>134.600006</ele>
        <time>2016-12-04T08:55:13Z</time>
      </trkpt>
      <trkpt lat="49.09548" lon="1.14923">
        <ele>134.699997</ele>
        <time>2016-12-04T08:55:17Z</time>
      </trkpt>
      <trkpt lat="49.09542" lon="1.14912">
        <ele>135</ele>
        <time>2016-12-04T08:55:24Z</time>
      </trkpt>
      <trkpt lat="49.09532" lon="1.14915">
        <ele>135.300003</ele>
        <time>2016-12-04T08:55:31Z</time>
      </trkpt>
      <trkpt lat="49.09523" lon="1.14913">
        <ele>135.399994</ele>
        <time>2016-12-04T08:55:36Z</time>
      </trkpt>
      <trkpt lat="49.09512" lon="1.14914">
        <ele>135.5</ele>
        <time>2016-12-04T08:55:41Z</time>
      </trkpt>
      <trkpt lat="49.09503" lon="1.14912">
        <ele>135.5</ele>
        <time>2016-12-04T08:55:44Z</time>
      </trkpt>
      <trkpt lat="49.09493" lon="1.14913">
        <ele>135.600006</ele>
        <time>2016-12-04T08:55:47Z</time>
      </trkpt>
      <trkpt lat="49.09482" lon="1.14912">
        <ele>135.300003</ele>
        <time>2016-12-04T08:55:51Z</time>
      </trkpt>
      <trkpt lat="49.09471" lon="1.14918">
        <ele>135</ele>
        <time>2016-12-04T08:55:54Z</time>
      </trkpt>
      <trkpt lat="49.09461" lon="1.14919">
        <ele>134.800003</ele>
        <time>2016-12-04T08:55:57Z</time>
      </trkpt>
      <trkpt lat="49.09448" lon="1.14918">
        <ele>134.399994</ele>
        <time>2016-12-04T08:56:00Z</time>
      </trkpt>
      <trkpt lat="49.09435" lon="1.14919">
        <ele>133.899994</ele>
        <time>2016-12-04T08:56:03Z</time>
      </trkpt>
      <trkpt lat="49.09423" lon="1.14919">
        <ele>133.300003</ele>
        <time>2016-12-04T08:56:06Z</time>
      </trkpt>
      <trkpt lat="49.09413" lon="1.14917">
        <ele>132.800003</ele>
        <time>2016-12-04T08:56:08Z</time>
      </trkpt>
      <trkpt lat="49.09403" lon="1.14912">
        <ele>132.199997</ele>
        <time>2016-12-04T08:56:10Z</time>
      </trkpt>
      <trkpt lat="49.09392" lon="1.14906">
        <ele>131.699997</ele>
        <time>2016-12-04T08:56:12Z</time>
      </trkpt>
      <trkpt lat="49.09383" lon="1.14901">
        <ele>131</ele>
        <time>2016-12-04T08:56:14Z</time>
      </trkpt>
      <trkpt lat="49.09374" lon="1.14898">
        <ele>130.300003</ele>
        <time>2016-12-04T08:56:16Z</time>
      </trkpt>
      <trkpt lat="49.09362" lon="1.14887">
        <ele>129.100006</ele>
        <time>2016-12-04T08:56:19Z</time>
      </trkpt>
      <trkpt lat="49.09362" lon="1.14871">
        <ele>126.800003</ele>
        <time>2016-12-04T08:56:24Z</time>
      </trkpt>
      <trkpt lat="49.09372" lon="1.1486">
        <ele>125.199997</ele>
        <time>2016-12-04T08:56:28Z</time>
      </trkpt>
      <trkpt lat="49.09381" lon="1.14847">
        <ele>124.199997</ele>
        <time>2016-12-04T08:56:31Z</time>
      </trkpt>
      <trkpt lat="49.0939" lon="1.14837">
        <ele>123.300003</ele>
        <time>2016-12-04T08:56:34Z</time>
      </trkpt>
      <trkpt lat="49.09399" lon="1.14825">
        <ele>122.599998</ele>
        <time>2016-12-04T08:56:37Z</time>
      </trkpt>
      <trkpt lat="49.09405" lon="1.14813">
        <ele>122.099998</ele>
        <time>2016-12-04T08:56:40Z</time>
      </trkpt>
      <trkpt lat="49.09412" lon="1.14802">
        <ele>121.800003</ele>
        <time>2016-12-04T08:56:43Z</time>
      </trkpt>
      <trkpt lat="49.09421" lon="1.1479">
        <ele>121.599998</ele>
        <time>2016-12-04T08:56:46Z</time>
      </trkpt>
      <trkpt lat="49.0943" lon="1.14778">
        <ele>121.5</ele>
        <time>2016-12-04T08:56:49Z</time>
      </trkpt>
      <trkpt lat="49.09439" lon="1.1477">
        <ele>121.599998</ele>
        <time>2016-12-04T08:56:52Z</time>
      </trkpt>
      <trkpt lat="49.09449" lon="1.14764">
        <ele>121.900002</ele>
        <time>2016-12-04T08:56:55Z</time>
      </trkpt>
      <trkpt lat="49.09458" lon="1.14758">
        <ele>122.199997</ele>
        <time>2016-12-04T08:56:58Z</time>
      </trkpt>
      <trkpt lat="49.09467" lon="1.14754">
        <ele>122.800003</ele>
        <time>2016-12-04T08:57:02Z</time>
      </trkpt>
      <trkpt lat="49.09476" lon="1.14751">
        <ele>123.300003</ele>
        <time>2016-12-04T08:57:06Z</time>
      </trkpt>
      <trkpt lat="49.09488" lon="1.14748">
        <ele>123.699997</ele>
        <time>2016-12-04T08:57:10Z</time>
      </trkpt>
      <trkpt lat="49.095" lon="1.14746">
        <ele>124</ele>
        <time>2016-12-04T08:57:14Z</time>
      </trkpt>
      <trkpt lat="49.09509" lon="1.14744">
        <ele>124.099998</ele>
        <time>2016-12-04T08:57:17Z</time>
      </trkpt>
      <trkpt lat="49.09519" lon="1.14737">
        <ele>123.900002</ele>
        <time>2016-12-04T08:57:20Z</time>
      </trkpt>
      <trkpt lat="49.09527" lon="1.14728">
        <ele>123.800003</ele>
        <time>2016-12-04T08:57:23Z</time>
      </trkpt>
      <trkpt lat="49.09536" lon="1.14723">
        <ele>123.800003</ele>
        <time>2016-12-04T08:57:26Z</time>
      </trkpt>
      <trkpt lat="49.09547" lon="1.14716">
        <ele>123.699997</ele>
        <time>2016-12-04T08:57:29Z</time>
      </trkpt>
      <trkpt lat="49.09559" lon="1.14712">
        <ele>123.699997</ele>
        <time>2016-12-04T08:57:32Z</time>
      </trkpt>
      <trkpt lat="49.09571" lon="1.14711">
        <ele>123.800003</ele>
        <time>2016-12-04T08:57:35Z</time>
      </trkpt>
      <trkpt lat="49.09581" lon="1.14709">
        <ele>123.900002</ele>
        <time>2016-12-04T08:57:38Z</time>
      </trkpt>
      <trkpt lat="49.0959" lon="1.14705">
        <ele>124.099998</ele>
        <time>2016-12-04T08:57:41Z</time>
      </trkpt>
      <trkpt lat="49.096" lon="1.147">
        <ele>124.300003</ele>
        <time>2016-12-04T08:57:44Z</time>
      </trkpt>
      <trkpt lat="49.09611" lon="1.14694">
        <ele>124.599998</ele>
        <time>2016-12-04T08:57:47Z</time>
      </trkpt>
      <trkpt lat="49.09623" lon="1.14688">
        <ele>124.800003</ele>
        <time>2016-12-04T08:57:50Z</time>
      </trkpt>
      <trkpt lat="49.09634" lon="1.14681">
        <ele>125</ele>
        <time>2016-12-04T08:57:53Z</time>
      </trkpt>
      <trkpt lat="49.09645" lon="1.14672">
        <ele>125.199997</ele>
        <time>2016-12-04T08:57:56Z</time>
      </trkpt>
      <trkpt lat="49.09656" lon="1.14664">
        <ele>125.300003</ele>
        <time>2016-12-04T08:57:59Z</time>
      </trkpt>
      <trkpt lat="49.09668" lon="1.14659">
        <ele>125.5</ele>
        <time>2016-12-04T08:58:02Z</time>
      </trkpt>
      <trkpt lat="49.09678" lon="1.14655">
        <ele>126</ele>
        <time>2016-12-04T08:58:05Z</time>
      </trkpt>
      <trkpt lat="49.09688" lon="1.14649">
        <ele>126.300003</ele>
        <time>2016-12-04T08:58:08Z</time>
      </trkpt>
      <trkpt lat="49.09699" lon="1.14645">
        <ele>126.699997</ele>
        <time>2016-12-04T08:58:11Z</time>
      </trkpt>
      <trkpt lat="49.0971" lon="1.14643">
        <ele>127.099998</ele>
        <time>2016-12-04T08:58:14Z</time>
      </trkpt>
      <trkpt lat="49.0972" lon="1.1464">
        <ele>127.699997</ele>
        <time>2016-12-04T08:58:17Z</time>
      </trkpt>
      <trkpt lat="49.09731" lon="1.14639">
        <ele>128.300003</ele>
        <time>2016-12-04T08:58:20Z</time>
      </trkpt>
      <trkpt lat="49.09742" lon="1.14637">
        <ele>128.899994</ele>
        <time>2016-12-04T08:58:23Z</time>
      </trkpt>
      <trkpt lat="49.09752" lon="1.14634">
        <ele>129.5</ele>
        <time>2016-12-04T08:58:26Z</time>
      </trkpt>
      <trkpt lat="49.09762" lon="1.14629">
        <ele>130</ele>
        <time>2016-12-04T08:58:29Z</time>
      </trkpt>
      <trkpt lat="49.09772" lon="1.14622">
        <ele>130.5</ele>
        <time>2016-12-04T08:58:32Z</time>
      </trkpt>
      <trkpt lat="49.09782" lon="1.14614">
        <ele>131</ele>
        <time>2016-12-04T08:58:35Z</time>
      </trkpt>
      <trkpt lat="49.09792" lon="1.14608">
        <ele>131.5</ele>
        <time>2016-12-04T08:58:38Z</time>
      </trkpt>
      <trkpt lat="49.09802" lon="1.14598">
        <ele>132</ele>
        <time>2016-12-04T08:58:41Z</time>
      </trkpt>
      <trkpt lat="49.09812" lon="1.14588">
        <ele>132.399994</ele>
        <time>2016-12-04T08:58:44Z</time>
      </trkpt>
      <trkpt lat="49.09821" lon="1.14579">
        <ele>132.800003</ele>
        <time>2016-12-04T08:58:47Z</time>
      </trkpt>
      <trkpt lat="49.09831" lon="1.14579">
        <ele>133.199997</ele>
        <time>2016-12-04T08:58:51Z</time>
      </trkpt>
      <trkpt lat="49.09838" lon="1.1459">
        <ele>140.881058</ele>
        <time>2016-12-04T08:58:56Z</time>
      </trkpt>
      <trkpt lat="49.09842" lon="1.14599">
        <ele>135.5</ele>
        <time>2016-12-04T08:59:27Z</time>
      </trkpt>
      <trkpt lat="49.09838" lon="1.14614">
        <ele>135.600006</ele>
        <time>2016-12-04T08:59:32Z</time>
      </trkpt>
      <trkpt lat="49.09833" lon="1.14628">
        <ele>135.699997</ele>
        <time>2016-12-04T08:59:36Z</time>
      </trkpt>
      <trkpt lat="49.09828" lon="1.14641">
        <ele>135.699997</ele>
        <time>2016-12-04T08:59:39Z</time>
      </trkpt>
      <trkpt lat="49.09823" lon="1.14654">
        <ele>135.800003</ele>
        <time>2016-12-04T08:59:42Z</time>
      </trkpt>
      <trkpt lat="49.09818" lon="1.1467">
        <ele>135.800003</ele>
        <time>2016-12-04T08:59:45Z</time>
      </trkpt>
      <trkpt lat="49.09813" lon="1.14686">
        <ele>135.800003</ele>
        <time>2016-12-04T08:59:48Z</time>
      </trkpt>
      <trkpt lat="49.09806" lon="1.14703">
        <ele>135.800003</ele>
        <time>2016-12-04T08:59:51Z</time>
      </trkpt>
      <trkpt lat="49.098" lon="1.1472">
        <ele>135.899994</ele>
        <time>2016-12-04T08:59:54Z</time>
      </trkpt>
      <trkpt lat="49.09794" lon="1.14739">
        <ele>135.899994</ele>
        <time>2016-12-04T08:59:57Z</time>
      </trkpt>
      <trkpt lat="49.0979" lon="1.14751">
        <ele>135.899994</ele>
        <time>2016-12-04T08:59:59Z</time>
      </trkpt>
      <trkpt lat="49.09786" lon="1.14764">
        <ele>135.899994</ele>
        <time>2016-12-04T09:00:01Z</time>
      </trkpt>
      <trkpt lat="49.09783" lon="1.14776">
        <ele>135.899994</ele>
        <time>2016-12-04T09:00:03Z</time>
      </trkpt>
      <trkpt lat="49.09779" lon="1.14789">
        <ele>135.899994</ele>
        <time>2016-12-04T09:00:05Z</time>
      </trkpt>
      <trkpt lat="49.09776" lon="1.14802">
        <ele>135.899994</ele>
        <time>2016-12-04T09:00:07Z</time>
      </trkpt>
      <trkpt lat="49.09772" lon="1.14815">
        <ele>135.899994</ele>
        <time>2016-12-04T09:00:09Z</time>
      </trkpt>
      <trkpt lat="49.09769" lon="1.14828">
        <ele>135.899994</ele>
        <time>2016-12-04T09:00:11Z</time>
      </trkpt>
      <trkpt lat="49.09765" lon="1.14841">
        <ele>135.899994</ele>
        <time>2016-12-04T09:00:13Z</time>
      </trkpt>
      <trkpt lat="49.09761" lon="1.14855">
        <ele>135.800003</ele>
        <time>2016-12-04T09:00:15Z</time>
      </trkpt>
      <trkpt lat="49.09756" lon="1.14867">
        <ele>135.800003</ele>
        <time>2016-12-04T09:00:17Z</time>
      </trkpt>
      <trkpt lat="49.09751" lon="1.1488">
        <ele>135.800003</ele>
        <time>2016-12-04T09:00:19Z</time>
      </trkpt>
      <trkpt lat="49.09747" lon="1.14893">
        <ele>135.800003</ele>
        <time>2016-12-04T09:00:21Z</time>
      </trkpt>
      <trkpt lat="49.09743" lon="1.14907">
        <ele>135.800003</ele>
        <time>2016-12-04T09:00:23Z</time>
      </trkpt>
      <trkpt lat="49.09739" lon="1.1492">
        <ele>135.800003</ele>
        <time>2016-12-04T09:00:25Z</time>
      </trkpt>
      <trkpt lat="49.09735" lon="1.14934">
        <ele>135.800003</ele>
        <time>2016-12-04T09:00:27Z</time>
      </trkpt>
      <trkpt lat="49.09731" lon="1.14948">
        <ele>135.800003</ele>
        <time>2016-12-04T09:00:29Z</time>
      </trkpt>
      <trkpt lat="49.09727" lon="1.14961">
        <ele>135.800003</ele>
        <time>2016-12-04T09:00:31Z</time>
      </trkpt>
      <trkpt lat="49.09723" lon="1.14976">
        <ele>135.800003</ele>
        <time>2016-12-04T09:00:33Z</time>
      </trkpt>
      <trkpt lat="49.09719" lon="1.14991">
        <ele>135.800003</ele>
        <time>2016-12-04T09:00:35Z</time>
      </trkpt>
      <trkpt lat="49.09716" lon="1.15007">
        <ele>135.699997</ele>
        <time>2016-12-04T09:00:37Z</time>
      </trkpt>
      <trkpt lat="49.09718" lon="1.15022">
        <ele>135.600006</ele>
        <time>2016-12-04T09:00:39Z</time>
      </trkpt>
      <trkpt lat="49.09723" lon="1.15035">
        <ele>135.5</ele>
        <time>2016-12-04T09:00:41Z</time>
      </trkpt>
      <trkpt lat="49.09727" lon="1.15049">
        <ele>135.5</ele>
        <time>2016-12-04T09:00:43Z</time>
      </trkpt>
      <trkpt lat="49.0973" lon="1.15065">
        <ele>135.399994</ele>
        <time>2016-12-04T09:00:45Z</time>
      </trkpt>
      <trkpt lat="49.09727" lon="1.1508">
        <ele>135.300003</ele>
        <time>2016-12-04T09:00:47Z</time>
      </trkpt>
      <trkpt lat="49.09723" lon="1.15093">
        <ele>135.300003</ele>
        <time>2016-12-04T09:00:49Z</time>
      </trkpt>
      <trkpt lat="49.09722" lon="1.15111">
        <ele>135.199997</ele>
        <time>2016-12-04T09:00:52Z</time>
      </trkpt>
      <trkpt lat="49.09733" lon="1.15123">
        <ele>135.100006</ele>
        <time>2016-12-04T09:00:55Z</time>
      </trkpt>
      <trkpt lat="49.09742" lon="1.1513">
        <ele>135</ele>
        <time>2016-12-04T09:00:57Z</time>
      </trkpt>
      <trkpt lat="49.0975" lon="1.15138">
        <ele>134.899994</ele>
        <time>2016-12-04T09:00:59Z</time>
      </trkpt>
      <trkpt lat="49.0976" lon="1.15146">
        <ele>134.699997</ele>
        <time>2016-12-04T09:01:01Z</time>
      </trkpt>
      <trkpt lat="49.0977" lon="1.15154">
        <ele>134.5</ele>
        <time>2016-12-04T09:01:03Z</time>
      </trkpt>
      <trkpt lat="49.09778" lon="1.15164">
        <ele>134.300003</ele>
        <time>2016-12-04T09:01:05Z</time>
      </trkpt>
      <trkpt lat="49.09785" lon="1.15175">
        <ele>134</ele>
        <time>2016-12-04T09:01:07Z</time>
      </trkpt>
      <trkpt lat="49.09794" lon="1.15182">
        <ele>133.800003</ele>
        <time>2016-12-04T09:01:09Z</time>
      </trkpt>
      <trkpt lat="49.09803" lon="1.15189">
        <ele>133.699997</ele>
        <time>2016-12-04T09:01:11Z</time>
      </trkpt>
      <trkpt lat="49.09812" lon="1.15195">
        <ele>133.5</ele>
        <time>2016-12-04T09:01:13Z</time>
      </trkpt>
      <trkpt lat="49.0982" lon="1.15203">
        <ele>133.399994</ele>
        <time>2016-12-04T09:01:15Z</time>
      </trkpt>
      <trkpt lat="49.09828" lon="1.15211">
        <ele>133.300003</ele>
        <time>2016-12-04T09:01:17Z</time>
      </trkpt>
      <trkpt lat="49.09836" lon="1.1522">
        <ele>133.100006</ele>
        <time>2016-12-04T09:01:19Z</time>
      </trkpt>
      <trkpt lat="49.09844" lon="1.15229">
        <ele>133.100006</ele>
        <time>2016-12-04T09:01:21Z</time>
      </trkpt>
      <trkpt lat="49.09853" lon="1.15238">
        <ele>133</ele>
        <time>2016-12-04T09:01:23Z</time>
      </trkpt>
      <trkpt lat="49.09861" lon="1.15246">
        <ele>132.899994</ele>
        <time>2016-12-04T09:01:25Z</time>
      </trkpt>
      <trkpt lat="49.09869" lon="1.15254">
        <ele>132.800003</ele>
        <time>2016-12-04T09:01:27Z</time>
      </trkpt>
      <trkpt lat="49.09878" lon="1.15261">
        <ele>132.800003</ele>
        <time>2016-12-04T09:01:29Z</time>
      </trkpt>
      <trkpt lat="49.09886" lon="1.15266">
        <ele>132.699997</ele>
        <time>2016-12-04T09:01:31Z</time>
      </trkpt>
      <trkpt lat="49.09897" lon="1.15269">
        <ele>132.699997</ele>
        <time>2016-12-04T09:01:34Z</time>
      </trkpt>
      <trkpt lat="49.09903" lon="1.15257">
        <ele>132.600006</ele>
        <time>2016-12-04T09:01:37Z</time>
      </trkpt>
      <trkpt lat="49.09906" lon="1.15241">
        <ele>132.600006</ele>
        <time>2016-12-04T09:01:40Z</time>
      </trkpt>
      <trkpt lat="49.0991" lon="1.15222">
        <ele>132.5</ele>
        <time>2016-12-04T09:01:43Z</time>
      </trkpt>
      <trkpt lat="49.09912" lon="1.15209">
        <ele>132.5</ele>
        <time>2016-12-04T09:01:45Z</time>
      </trkpt>
      <trkpt lat="49.09914" lon="1.15195">
        <ele>132.5</ele>
        <time>2016-12-04T09:01:47Z</time>
      </trkpt>
      <trkpt lat="49.09918" lon="1.15182">
        <ele>132.5</ele>
        <time>2016-12-04T09:01:49Z</time>
      </trkpt>
      <trkpt lat="49.09929" lon="1.15171">
        <ele>132.5</ele>
        <time>2016-12-04T09:01:52Z</time>
      </trkpt>
      <trkpt lat="49.09942" lon="1.15175">
        <ele>132.600006</ele>
        <time>2016-12-04T09:01:55Z</time>
      </trkpt>
      <trkpt lat="49.09951" lon="1.15181">
        <ele>132.699997</ele>
        <time>2016-12-04T09:01:57Z</time>
      </trkpt>
      <trkpt lat="49.0996" lon="1.15187">
        <ele>132.800003</ele>
        <time>2016-12-04T09:01:59Z</time>
      </trkpt>
      <trkpt lat="49.09969" lon="1.15192">
        <ele>132.899994</ele>
        <time>2016-12-04T09:02:01Z</time>
      </trkpt>
      <trkpt lat="49.09978" lon="1.15197">
        <ele>132.899994</ele>
        <time>2016-12-04T09:02:03Z</time>
      </trkpt>
      <trkpt lat="49.09988" lon="1.15202">
        <ele>133.100006</ele>
        <time>2016-12-04T09:02:05Z</time>
      </trkpt>
      <trkpt lat="49.09997" lon="1.15208">
        <ele>133.199997</ele>
        <time>2016-12-04T09:02:07Z</time>
      </trkpt>
      <trkpt lat="49.10007" lon="1.15213">
        <ele>133.300003</ele>
        <time>2016-12-04T09:02:09Z</time>
      </trkpt>
      <trkpt lat="49.10017" lon="1.15218">
        <ele>133.399994</ele>
        <time>2016-12-04T09:02:11Z</time>
      </trkpt>
      <trkpt lat="49.10026" lon="1.15223">
        <ele>133.5</ele>
        <time>2016-12-04T09:02:13Z</time>
      </trkpt>
      <trkpt lat="49.10035" lon="1.15229">
        <ele>133.600006</ele>
        <time>2016-12-04T09:02:15Z</time>
      </trkpt>
      <trkpt lat="49.10044" lon="1.15235">
        <ele>133.699997</ele>
        <time>2016-12-04T09:02:17Z</time>
      </trkpt>
      <trkpt lat="49.10054" lon="1.15241">
        <ele>133.899994</ele>
        <time>2016-12-04T09:02:19Z</time>
      </trkpt>
      <trkpt lat="49.10063" lon="1.15247">
        <ele>134</ele>
        <time>2016-12-04T09:02:21Z</time>
      </trkpt>
      <trkpt lat="49.10073" lon="1.15253">
        <ele>134.100006</ele>
        <time>2016-12-04T09:02:23Z</time>
      </trkpt>
      <trkpt lat="49.10082" lon="1.15258">
        <ele>134.199997</ele>
        <time>2016-12-04T09:02:25Z</time>
      </trkpt>
      <trkpt lat="49.10092" lon="1.15264">
        <ele>134.300003</ele>
        <time>2016-12-04T09:02:27Z</time>
      </trkpt>
      <trkpt lat="49.10101" lon="1.1527">
        <ele>134.300003</ele>
        <time>2016-12-04T09:02:29Z</time>
      </trkpt>
      <trkpt lat="49.10111" lon="1.15275">
        <ele>134.399994</ele>
        <time>2016-12-04T09:02:31Z</time>
      </trkpt>
      <trkpt lat="49.1012" lon="1.15281">
        <ele>134.5</ele>
        <time>2016-12-04T09:02:33Z</time>
      </trkpt>
      <trkpt lat="49.1013" lon="1.15287">
        <ele>134.5</ele>
        <time>2016-12-04T09:02:35Z</time>
      </trkpt>
      <trkpt lat="49.1014" lon="1.15293">
        <ele>134.5</ele>
        <time>2016-12-04T09:02:37Z</time>
      </trkpt>
      <trkpt lat="49.1015" lon="1.15299">
        <ele>134.600006</ele>
        <time>2016-12-04T09:02:39Z</time>
      </trkpt>
      <trkpt lat="49.1016" lon="1.15304">
        <ele>134.600006</ele>
        <time>2016-12-04T09:02:41Z</time>
      </trkpt>
      <trkpt lat="49.1017" lon="1.15311">
        <ele>134.699997</ele>
        <time>2016-12-04T09:02:43Z</time>
      </trkpt>
      <trkpt lat="49.1018" lon="1.15318">
        <ele>134.699997</ele>
        <time>2016-12-04T09:02:45Z</time>
      </trkpt>
      <trkpt lat="49.1019" lon="1.15323">
        <ele>134.699997</ele>
        <time>2016-12-04T09:02:47Z</time>
      </trkpt>
      <trkpt lat="49.102" lon="1.1533">
        <ele>134.699997</ele>
        <time>2016-12-04T09:02:49Z</time>
      </trkpt>
      <trkpt lat="49.1021" lon="1.15336">
        <ele>134.699997</ele>
        <time>2016-12-04T09:02:51Z</time>
      </trkpt>
      <trkpt lat="49.1022" lon="1.15342">
        <ele>134.699997</ele>
        <time>2016-12-04T09:02:53Z</time>
      </trkpt>
      <trkpt lat="49.1023" lon="1.15348">
        <ele>134.699997</ele>
        <time>2016-12-04T09:02:55Z</time>
      </trkpt>
      <trkpt lat="49.10241" lon="1.15353">
        <ele>134.699997</ele>
        <time>2016-12-04T09:02:57Z</time>
      </trkpt>
      <trkpt lat="49.10251" lon="1.15358">
        <ele>134.699997</ele>
        <time>2016-12-04T09:02:59Z</time>
      </trkpt>
      <trkpt lat="49.10261" lon="1.15362">
        <ele>134.699997</ele>
        <time>2016-12-04T09:03:01Z</time>
      </trkpt>
      <trkpt lat="49.10269" lon="1.15369">
        <ele>134.699997</ele>
        <time>2016-12-04T09:03:03Z</time>
      </trkpt>
      <trkpt lat="49.10265" lon="1.15381">
        <ele>134.699997</ele>
        <time>2016-12-04T09:03:07Z</time>
      </trkpt>
      <trkpt lat="49.10254" lon="1.15385">
        <ele>134.5</ele>
        <time>2016-12-04T09:03:10Z</time>
      </trkpt>
      <trkpt lat="49.10244" lon="1.15388">
        <ele>134.399994</ele>
        <time>2016-12-04T09:03:13Z</time>
      </trkpt>
      <trkpt lat="49.10234" lon="1.15392">
        <ele>134.199997</ele>
        <time>2016-12-04T09:03:16Z</time>
      </trkpt>
      <trkpt lat="49.10224" lon="1.15397">
        <ele>134.100006</ele>
        <time>2016-12-04T09:03:19Z</time>
      </trkpt>
      <trkpt lat="49.10212" lon="1.15403">
        <ele>134</ele>
        <time>2016-12-04T09:03:22Z</time>
      </trkpt>
      <trkpt lat="49.102" lon="1.15409">
        <ele>134</ele>
        <time>2016-12-04T09:03:25Z</time>
      </trkpt>
      <trkpt lat="49.10188" lon="1.15415">
        <ele>133.899994</ele>
        <time>2016-12-04T09:03:28Z</time>
      </trkpt>
      <trkpt lat="49.10176" lon="1.15422">
        <ele>133.899994</ele>
        <time>2016-12-04T09:03:31Z</time>
      </trkpt>
      <trkpt lat="49.10163" lon="1.1543">
        <ele>133.800003</ele>
        <time>2016-12-04T09:03:34Z</time>
      </trkpt>
      <trkpt lat="49.10155" lon="1.15434">
        <ele>133.800003</ele>
        <time>2016-12-04T09:03:36Z</time>
      </trkpt>
      <trkpt lat="49.10142" lon="1.15441">
        <ele>133.800003</ele>
        <time>2016-12-04T09:03:39Z</time>
      </trkpt>
      <trkpt lat="49.10134" lon="1.15447">
        <ele>133.699997</ele>
        <time>2016-12-04T09:03:41Z</time>
      </trkpt>
      <trkpt lat="49.10126" lon="1.15453">
        <ele>133.699997</ele>
        <time>2016-12-04T09:03:43Z</time>
      </trkpt>
      <trkpt lat="49.10114" lon="1.15463">
        <ele>133.699997</ele>
        <time>2016-12-04T09:03:46Z</time>
      </trkpt>
      <trkpt lat="49.10107" lon="1.15472">
        <ele>133.699997</ele>
        <time>2016-12-04T09:03:48Z</time>
      </trkpt>
      <trkpt lat="49.101" lon="1.15481">
        <ele>133.699997</ele>
        <time>2016-12-04T09:03:50Z</time>
      </trkpt>
      <trkpt lat="49.10093" lon="1.15491">
        <ele>133.699997</ele>
        <time>2016-12-04T09:03:52Z</time>
      </trkpt>
      <trkpt lat="49.10087" lon="1.15502">
        <ele>133.600006</ele>
        <time>2016-12-04T09:03:54Z</time>
      </trkpt>
      <trkpt lat="49.10082" lon="1.15513">
        <ele>133.600006</ele>
        <time>2016-12-04T09:03:56Z</time>
      </trkpt>
      <trkpt lat="49.10076" lon="1.15525">
        <ele>133.5</ele>
        <time>2016-12-04T09:03:58Z</time>
      </trkpt>
      <trkpt lat="49.10072" lon="1.15537">
        <ele>133.5</ele>
        <time>2016-12-04T09:04:00Z</time>
      </trkpt>
      <trkpt lat="49.10067" lon="1.1555">
        <ele>133.399994</ele>
        <time>2016-12-04T09:04:02Z</time>
      </trkpt>
      <trkpt lat="49.10063" lon="1.15563">
        <ele>133.300003</ele>
        <time>2016-12-04T09:04:04Z</time>
      </trkpt>
      <trkpt lat="49.10059" lon="1.15577">
        <ele>133.199997</ele>
        <time>2016-12-04T09:04:06Z</time>
      </trkpt>
      <trkpt lat="49.10055" lon="1.15591">
        <ele>133.100006</ele>
        <time>2016-12-04T09:04:08Z</time>
      </trkpt>
      <trkpt lat="49.1005" lon="1.15604">
        <ele>133.100006</ele>
        <time>2016-12-04T09:04:10Z</time>
      </trkpt>
      <trkpt lat="49.10045" lon="1.15617">
        <ele>133</ele>
        <time>2016-12-04T09:04:12Z</time>
      </trkpt>
      <trkpt lat="49.10041" lon="1.1563">
        <ele>133</ele>
        <time>2016-12-04T09:04:14Z</time>
      </trkpt>
      <trkpt lat="49.10035" lon="1.15643">
        <ele>132.899994</ele>
        <time>2016-12-04T09:04:16Z</time>
      </trkpt>
      <trkpt lat="49.10029" lon="1.15655">
        <ele>132.899994</ele>
        <time>2016-12-04T09:04:18Z</time>
      </trkpt>
      <trkpt lat="49.10024" lon="1.15667">
        <ele>132.800003</ele>
        <time>2016-12-04T09:04:20Z</time>
      </trkpt>
      <trkpt lat="49.10018" lon="1.15679">
        <ele>132.699997</ele>
        <time>2016-12-04T09:04:22Z</time>
      </trkpt>
      <trkpt lat="49.10013" lon="1.1569">
        <ele>132.699997</ele>
        <time>2016-12-04T09:04:24Z</time>
      </trkpt>
      <trkpt lat="49.10007" lon="1.15702">
        <ele>132.600006</ele>
        <time>2016-12-04T09:04:26Z</time>
      </trkpt>
      <trkpt lat="49.10002" lon="1.15713">
        <ele>132.600006</ele>
        <time>2016-12-04T09:04:28Z</time>
      </trkpt>
      <trkpt lat="49.09996" lon="1.15725">
        <ele>132.399994</ele>
        <time>2016-12-04T09:04:30Z</time>
      </trkpt>
      <trkpt lat="49.09989" lon="1.15737">
        <ele>132.300003</ele>
        <time>2016-12-04T09:04:32Z</time>
      </trkpt>
      <trkpt lat="49.09983" lon="1.15749">
        <ele>132.199997</ele>
        <time>2016-12-04T09:04:34Z</time>
      </trkpt>
      <trkpt lat="49.09977" lon="1.15761">
        <ele>132.100006</ele>
        <time>2016-12-04T09:04:36Z</time>
      </trkpt>
      <trkpt lat="49.09971" lon="1.15772">
        <ele>132.100006</ele>
        <time>2016-12-04T09:04:38Z</time>
      </trkpt>
      <trkpt lat="49.09964" lon="1.15784">
        <ele>132</ele>
        <time>2016-12-04T09:04:40Z</time>
      </trkpt>
      <trkpt lat="49.09957" lon="1.15795">
        <ele>131.899994</ele>
        <time>2016-12-04T09:04:42Z</time>
      </trkpt>
      <trkpt lat="49.0995" lon="1.15807">
        <ele>131.800003</ele>
        <time>2016-12-04T09:04:44Z</time>
      </trkpt>
      <trkpt lat="49.09943" lon="1.15818">
        <ele>131.699997</ele>
        <time>2016-12-04T09:04:46Z</time>
      </trkpt>
      <trkpt lat="49.09936" lon="1.15829">
        <ele>131.699997</ele>
        <time>2016-12-04T09:04:48Z</time>
      </trkpt>
      <trkpt lat="49.09929" lon="1.15841">
        <ele>131.600006</ele>
        <time>2016-12-04T09:04:50Z</time>
      </trkpt>
      <trkpt lat="49.09921" lon="1.15852">
        <ele>131.600006</ele>
        <time>2016-12-04T09:04:52Z</time>
      </trkpt>
      <trkpt lat="49.09914" lon="1.15863">
        <ele>131.600006</ele>
        <time>2016-12-04T09:04:54Z</time>
      </trkpt>
      <trkpt lat="49.09907" lon="1.15874">
        <ele>131.5</ele>
        <time>2016-12-04T09:04:56Z</time>
      </trkpt>
      <trkpt lat="49.099" lon="1.15884">
        <ele>131.5</ele>
        <time>2016-12-04T09:04:58Z</time>
      </trkpt>
      <trkpt lat="49.09892" lon="1.15895">
        <ele>131.5</ele>
        <time>2016-12-04T09:05:00Z</time>
      </trkpt>
      <trkpt lat="49.09885" lon="1.15906">
        <ele>131.5</ele>
        <time>2016-12-04T09:05:02Z</time>
      </trkpt>
      <trkpt lat="49.09878" lon="1.15916">
        <ele>131.5</ele>
        <time>2016-12-04T09:05:04Z</time>
      </trkpt>
      <trkpt lat="49.0987" lon="1.15926">
        <ele>131.399994</ele>
        <time>2016-12-04T09:05:06Z</time>
      </trkpt>
      <trkpt lat="49.09864" lon="1.15936">
        <ele>131.399994</ele>
        <time>2016-12-04T09:05:08Z</time>
      </trkpt>
      <trkpt lat="49.09856" lon="1.15946">
        <ele>131.399994</ele>
        <time>2016-12-04T09:05:11Z</time>
      </trkpt>
      <trkpt lat="49.09848" lon="1.15955">
        <ele>131.399994</ele>
        <time>2016-12-04T09:05:15Z</time>
      </trkpt>
      <trkpt lat="49.09842" lon="1.15971">
        <ele>131.399994</ele>
        <time>2016-12-04T09:05:18Z</time>
      </trkpt>
      <trkpt lat="49.09839" lon="1.15984">
        <ele>131.5</ele>
        <time>2016-12-04T09:05:20Z</time>
      </trkpt>
      <trkpt lat="49.09836" lon="1.15997">
        <ele>131.5</ele>
        <time>2016-12-04T09:05:22Z</time>
      </trkpt>
      <trkpt lat="49.09833" lon="1.16011">
        <ele>131.5</ele>
        <time>2016-12-04T09:05:24Z</time>
      </trkpt>
      <trkpt lat="49.0983" lon="1.16025">
        <ele>131.600006</ele>
        <time>2016-12-04T09:05:26Z</time>
      </trkpt>
      <trkpt lat="49.09825" lon="1.16043">
        <ele>131.600006</ele>
        <time>2016-12-04T09:05:29Z</time>
      </trkpt>
      <trkpt lat="49.09822" lon="1.16061">
        <ele>131.600006</ele>
        <time>2016-12-04T09:05:32Z</time>
      </trkpt>
      <trkpt lat="49.09818" lon="1.16077">
        <ele>131.699997</ele>
        <time>2016-12-04T09:05:35Z</time>
      </trkpt>
      <trkpt lat="49.09814" lon="1.16095">
        <ele>131.699997</ele>
        <time>2016-12-04T09:05:38Z</time>
      </trkpt>
      <trkpt lat="49.0981" lon="1.1611">
        <ele>131.699997</ele>
        <time>2016-12-04T09:05:41Z</time>
      </trkpt>
      <trkpt lat="49.09804" lon="1.16126">
        <ele>131.699997</ele>
        <time>2016-12-04T09:05:44Z</time>
      </trkpt>
      <trkpt lat="49.09798" lon="1.16141">
        <ele>131.800003</ele>
        <time>2016-12-04T09:05:47Z</time>
      </trkpt>
      <trkpt lat="49.09791" lon="1.16154">
        <ele>131.800003</ele>
        <time>2016-12-04T09:05:50Z</time>
      </trkpt>
      <trkpt lat="49.09785" lon="1.16167">
        <ele>131.899994</ele>
        <time>2016-12-04T09:05:53Z</time>
      </trkpt>
      <trkpt lat="49.09778" lon="1.16179">
        <ele>132</ele>
        <time>2016-12-04T09:05:56Z</time>
      </trkpt>
      <trkpt lat="49.0977" lon="1.16192">
        <ele>132.100006</ele>
        <time>2016-12-04T09:05:59Z</time>
      </trkpt>
      <trkpt lat="49.09763" lon="1.16205">
        <ele>132.199997</ele>
        <time>2016-12-04T09:06:02Z</time>
      </trkpt>
      <trkpt lat="49.09754" lon="1.16216">
        <ele>132.199997</ele>
        <time>2016-12-04T09:06:05Z</time>
      </trkpt>
      <trkpt lat="49.09745" lon="1.16224">
        <ele>132.300003</ele>
        <time>2016-12-04T09:06:08Z</time>
      </trkpt>
      <trkpt lat="49.09735" lon="1.16233">
        <ele>132.399994</ele>
        <time>2016-12-04T09:06:11Z</time>
      </trkpt>
      <trkpt lat="49.09727" lon="1.16243">
        <ele>132.399994</ele>
        <time>2016-12-04T09:06:14Z</time>
      </trkpt>
      <trkpt lat="49.09718" lon="1.16253">
        <ele>132.600006</ele>
        <time>2016-12-04T09:06:17Z</time>
      </trkpt>
      <trkpt lat="49.09708" lon="1.16261">
        <ele>132.699997</ele>
        <time>2016-12-04T09:06:20Z</time>
      </trkpt>
      <trkpt lat="49.09698" lon="1.16268">
        <ele>132.899994</ele>
        <time>2016-12-04T09:06:23Z</time>
      </trkpt>
      <trkpt lat="49.09688" lon="1.16276">
        <ele>133</ele>
        <time>2016-12-04T09:06:26Z</time>
      </trkpt>
      <trkpt lat="49.09678" lon="1.16284">
        <ele>133.100006</ele>
        <time>2016-12-04T09:06:29Z</time>
      </trkpt>
      <trkpt lat="49.09669" lon="1.16293">
        <ele>133.300003</ele>
        <time>2016-12-04T09:06:32Z</time>
      </trkpt>
      <trkpt lat="49.09659" lon="1.16301">
        <ele>133.399994</ele>
        <time>2016-12-04T09:06:35Z</time>
      </trkpt>
      <trkpt lat="49.09649" lon="1.16309">
        <ele>133.600006</ele>
        <time>2016-12-04T09:06:38Z</time>
      </trkpt>
      <trkpt lat="49.09639" lon="1.16318">
        <ele>133.699997</ele>
        <time>2016-12-04T09:06:41Z</time>
      </trkpt>
      <trkpt lat="49.09629" lon="1.16326">
        <ele>133.800003</ele>
        <time>2016-12-04T09:06:44Z</time>
      </trkpt>
      <trkpt lat="49.09618" lon="1.16335">
        <ele>133.899994</ele>
        <time>2016-12-04T09:06:47Z</time>
      </trkpt>
      <trkpt lat="49.09607" lon="1.16343">
        <ele>134.100006</ele>
        <time>2016-12-04T09:06:50Z</time>
      </trkpt>
      <trkpt lat="49.09597" lon="1.16352">
        <ele>134.300003</ele>
        <time>2016-12-04T09:06:53Z</time>
      </trkpt>
      <trkpt lat="49.09586" lon="1.1636">
        <ele>134.5</ele>
        <time>2016-12-04T09:06:56Z</time>
      </trkpt>
      <trkpt lat="49.09575" lon="1.16369">
        <ele>134.600006</ele>
        <time>2016-12-04T09:06:59Z</time>
      </trkpt>
      <trkpt lat="49.09564" lon="1.16378">
        <ele>134.800003</ele>
        <time>2016-12-04T09:07:02Z</time>
      </trkpt>
      <trkpt lat="49.09553" lon="1.16387">
        <ele>135</ele>
        <time>2016-12-04T09:07:05Z</time>
      </trkpt>
      <trkpt lat="49.09543" lon="1.16397">
        <ele>135.199997</ele>
        <time>2016-12-04T09:07:08Z</time>
      </trkpt>
      <trkpt lat="49.09533" lon="1.16409">
        <ele>135.300003</ele>
        <time>2016-12-04T09:07:11Z</time>
      </trkpt>
      <trkpt lat="49.09523" lon="1.16422">
        <ele>135.5</ele>
        <time>2016-12-04T09:07:14Z</time>
      </trkpt>
      <trkpt lat="49.09513" lon="1.16436">
        <ele>135.699997</ele>
        <time>2016-12-04T09:07:17Z</time>
      </trkpt>
      <trkpt lat="49.09504" lon="1.16449">
        <ele>136</ele>
        <time>2016-12-04T09:07:20Z</time>
      </trkpt>
      <trkpt lat="49.09496" lon="1.16462">
        <ele>136.199997</ele>
        <time>2016-12-04T09:07:23Z</time>
      </trkpt>
      <trkpt lat="49.09488" lon="1.16474">
        <ele>136.399994</ele>
        <time>2016-12-04T09:07:26Z</time>
      </trkpt>
      <trkpt lat="49.09481" lon="1.16485">
        <ele>136.5</ele>
        <time>2016-12-04T09:07:29Z</time>
      </trkpt>
      <trkpt lat="49.09473" lon="1.16496">
        <ele>136.600006</ele>
        <time>2016-12-04T09:07:32Z</time>
      </trkpt>
      <trkpt lat="49.09463" lon="1.16508">
        <ele>136.699997</ele>
        <time>2016-12-04T09:07:35Z</time>
      </trkpt>
      <trkpt lat="49.09455" lon="1.16519">
        <ele>136.800003</ele>
        <time>2016-12-04T09:07:38Z</time>
      </trkpt>
      <trkpt lat="49.09447" lon="1.16531">
        <ele>136.800003</ele>
        <time>2016-12-04T09:07:41Z</time>
      </trkpt>
      <trkpt lat="49.0944" lon="1.16544">
        <ele>136.899994</ele>
        <time>2016-12-04T09:07:44Z</time>
      </trkpt>
      <trkpt lat="49.09432" lon="1.16559">
        <ele>136.899994</ele>
        <time>2016-12-04T09:07:47Z</time>
      </trkpt>
      <trkpt lat="49.09425" lon="1.16574">
        <ele>137</ele>
        <time>2016-12-04T09:07:50Z</time>
      </trkpt>
      <trkpt lat="49.09417" lon="1.16588">
        <ele>137</ele>
        <time>2016-12-04T09:07:53Z</time>
      </trkpt>
      <trkpt lat="49.09408" lon="1.16601">
        <ele>137</ele>
        <time>2016-12-04T09:07:56Z</time>
      </trkpt>
      <trkpt lat="49.09402" lon="1.16615">
        <ele>137</ele>
        <time>2016-12-04T09:07:59Z</time>
      </trkpt>
      <trkpt lat="49.094" lon="1.1663">
        <ele>137</ele>
        <time>2016-12-04T09:08:02Z</time>
      </trkpt>
      <trkpt lat="49.09402" lon="1.16644">
        <ele>136.899994</ele>
        <time>2016-12-04T09:08:05Z</time>
      </trkpt>
      <trkpt lat="49.0941" lon="1.16654">
        <ele>136.699997</ele>
        <time>2016-12-04T09:08:09Z</time>
      </trkpt>
      <trkpt lat="49.09419" lon="1.16666">
        <ele>136.600006</ele>
        <time>2016-12-04T09:08:13Z</time>
      </trkpt>
      <trkpt lat="49.09427" lon="1.16677">
        <ele>136.5</ele>
        <time>2016-12-04T09:08:16Z</time>
      </trkpt>
      <trkpt lat="49.09435" lon="1.16688">
        <ele>136.399994</ele>
        <time>2016-12-04T09:08:19Z</time>
      </trkpt>
      <trkpt lat="49.09444" lon="1.16699">
        <ele>136.199997</ele>
        <time>2016-12-04T09:08:22Z</time>
      </trkpt>
      <trkpt lat="49.09452" lon="1.1671">
        <ele>136.100006</ele>
        <time>2016-12-04T09:08:25Z</time>
      </trkpt>
      <trkpt lat="49.09461" lon="1.16723">
        <ele>136.100006</ele>
        <time>2016-12-04T09:08:28Z</time>
      </trkpt>
      <trkpt lat="49.0947" lon="1.16735">
        <ele>136</ele>
        <time>2016-12-04T09:08:31Z</time>
      </trkpt>
      <trkpt lat="49.09478" lon="1.16748">
        <ele>135.899994</ele>
        <time>2016-12-04T09:08:34Z</time>
      </trkpt>
      <trkpt lat="49.09486" lon="1.16762">
        <ele>135.800003</ele>
        <time>2016-12-04T09:08:37Z</time>
      </trkpt>
      <trkpt lat="49.09495" lon="1.16775">
        <ele>135.600006</ele>
        <time>2016-12-04T09:08:40Z</time>
      </trkpt>
      <trkpt lat="49.09503" lon="1.1679">
        <ele>135.5</ele>
        <time>2016-12-04T09:08:43Z</time>
      </trkpt>
      <trkpt lat="49.09512" lon="1.16803">
        <ele>135.300003</ele>
        <time>2016-12-04T09:08:46Z</time>
      </trkpt>
      <trkpt lat="49.09521" lon="1.16818">
        <ele>135.199997</ele>
        <time>2016-12-04T09:08:49Z</time>
      </trkpt>
      <trkpt lat="49.0953" lon="1.16832">
        <ele>135</ele>
        <time>2016-12-04T09:08:52Z</time>
      </trkpt>
      <trkpt lat="49.0954" lon="1.16847">
        <ele>134.600006</ele>
        <time>2016-12-04T09:08:55Z</time>
      </trkpt>
      <trkpt lat="49.09546" lon="1.16857">
        <ele>134.199997</ele>
        <time>2016-12-04T09:08:57Z</time>
      </trkpt>
      <trkpt lat="49.09552" lon="1.16867">
        <ele>133.899994</ele>
        <time>2016-12-04T09:08:59Z</time>
      </trkpt>
      <trkpt lat="49.09559" lon="1.16878">
        <ele>133.600006</ele>
        <time>2016-12-04T09:09:01Z</time>
      </trkpt>
      <trkpt lat="49.09565" lon="1.16888">
        <ele>133.300003</ele>
        <time>2016-12-04T09:09:03Z</time>
      </trkpt>
      <trkpt lat="49.09572" lon="1.16898">
        <ele>133.100006</ele>
        <time>2016-12-04T09:09:05Z</time>
      </trkpt>
      <trkpt lat="49.09578" lon="1.16908">
        <ele>132.899994</ele>
        <time>2016-12-04T09:09:07Z</time>
      </trkpt>
      <trkpt lat="49.09584" lon="1.16919">
        <ele>132.600006</ele>
        <time>2016-12-04T09:09:09Z</time>
      </trkpt>
      <trkpt lat="49.09591" lon="1.16929">
        <ele>132.399994</ele>
        <time>2016-12-04T09:09:11Z</time>
      </trkpt>
      <trkpt lat="49.09597" lon="1.16939">
        <ele>132.199997</ele>
        <time>2016-12-04T09:09:13Z</time>
      </trkpt>
      <trkpt lat="49.09603" lon="1.16949">
        <ele>132</ele>
        <time>2016-12-04T09:09:15Z</time>
      </trkpt>
      <trkpt lat="49.0961" lon="1.16959">
        <ele>131.800003</ele>
        <time>2016-12-04T09:09:17Z</time>
      </trkpt>
      <trkpt lat="49.09616" lon="1.16969">
        <ele>131.5</ele>
        <time>2016-12-04T09:09:19Z</time>
      </trkpt>
      <trkpt lat="49.09623" lon="1.16979">
        <ele>131.300003</ele>
        <time>2016-12-04T09:09:21Z</time>
      </trkpt>
      <trkpt lat="49.09629" lon="1.16989">
        <ele>131.100006</ele>
        <time>2016-12-04T09:09:23Z</time>
      </trkpt>
      <trkpt lat="49.09636" lon="1.17">
        <ele>130.899994</ele>
        <time>2016-12-04T09:09:25Z</time>
      </trkpt>
      <trkpt lat="49.09642" lon="1.1701">
        <ele>130.699997</ele>
        <time>2016-12-04T09:09:27Z</time>
      </trkpt>
      <trkpt lat="49.09649" lon="1.1702">
        <ele>130.399994</ele>
        <time>2016-12-04T09:09:29Z</time>
      </trkpt>
      <trkpt lat="49.09655" lon="1.17031">
        <ele>130.199997</ele>
        <time>2016-12-04T09:09:31Z</time>
      </trkpt>
      <trkpt lat="49.09661" lon="1.17041">
        <ele>130</ele>
        <time>2016-12-04T09:09:33Z</time>
      </trkpt>
      <trkpt lat="49.09667" lon="1.17051">
        <ele>129.800003</ele>
        <time>2016-12-04T09:09:35Z</time>
      </trkpt>
      <trkpt lat="49.09674" lon="1.17061">
        <ele>129.600006</ele>
        <time>2016-12-04T09:09:37Z</time>
      </trkpt>
      <trkpt lat="49.0968" lon="1.17072">
        <ele>129.399994</ele>
        <time>2016-12-04T09:09:39Z</time>
      </trkpt>
      <trkpt lat="49.09687" lon="1.17082">
        <ele>129.300003</ele>
        <time>2016-12-04T09:09:41Z</time>
      </trkpt>
      <trkpt lat="49.09693" lon="1.17092">
        <ele>129.100006</ele>
        <time>2016-12-04T09:09:43Z</time>
      </trkpt>
      <trkpt lat="49.097" lon="1.17103">
        <ele>128.899994</ele>
        <time>2016-12-04T09:09:45Z</time>
      </trkpt>
      <trkpt lat="49.09707" lon="1.17113">
        <ele>128.699997</ele>
        <time>2016-12-04T09:09:47Z</time>
      </trkpt>
      <trkpt lat="49.09713" lon="1.17124">
        <ele>128.5</ele>
        <time>2016-12-04T09:09:49Z</time>
      </trkpt>
      <trkpt lat="49.0972" lon="1.17135">
        <ele>128.300003</ele>
        <time>2016-12-04T09:09:51Z</time>
      </trkpt>
      <trkpt lat="49.09726" lon="1.17145">
        <ele>128.100006</ele>
        <time>2016-12-04T09:09:53Z</time>
      </trkpt>
      <trkpt lat="49.09733" lon="1.17156">
        <ele>128</ele>
        <time>2016-12-04T09:09:55Z</time>
      </trkpt>
      <trkpt lat="49.09739" lon="1.17166">
        <ele>127.800003</ele>
        <time>2016-12-04T09:09:57Z</time>
      </trkpt>
      <trkpt lat="49.09745" lon="1.17177">
        <ele>127.699997</ele>
        <time>2016-12-04T09:09:59Z</time>
      </trkpt>
      <trkpt lat="49.09751" lon="1.17195">
        <ele>127.5</ele>
        <time>2016-12-04T09:10:02Z</time>
      </trkpt>
      <trkpt lat="49.0975" lon="1.17209">
        <ele>127.400002</ele>
        <time>2016-12-04T09:10:04Z</time>
      </trkpt>
      <trkpt lat="49.09747" lon="1.17228">
        <ele>127.300003</ele>
        <time>2016-12-04T09:10:07Z</time>
      </trkpt>
      <trkpt lat="49.09745" lon="1.17243">
        <ele>127.300003</ele>
        <time>2016-12-04T09:10:09Z</time>
      </trkpt>
      <trkpt lat="49.09743" lon="1.17258">
        <ele>127.199997</ele>
        <time>2016-12-04T09:10:11Z</time>
      </trkpt>
      <trkpt lat="49.09741" lon="1.17272">
        <ele>127.099998</ele>
        <time>2016-12-04T09:10:13Z</time>
      </trkpt>
      <trkpt lat="49.09739" lon="1.17286">
        <ele>127</ele>
        <time>2016-12-04T09:10:15Z</time>
      </trkpt>
      <trkpt lat="49.09738" lon="1.17301">
        <ele>126.900002</ele>
        <time>2016-12-04T09:10:17Z</time>
      </trkpt>
      <trkpt lat="49.09736" lon="1.17315">
        <ele>126.800003</ele>
        <time>2016-12-04T09:10:19Z</time>
      </trkpt>
      <trkpt lat="49.09738" lon="1.17334">
        <ele>126.699997</ele>
        <time>2016-12-04T09:10:22Z</time>
      </trkpt>
      <trkpt lat="49.09741" lon="1.17353">
        <ele>126.5</ele>
        <time>2016-12-04T09:10:25Z</time>
      </trkpt>
      <trkpt lat="49.09744" lon="1.17372">
        <ele>126.400002</ele>
        <time>2016-12-04T09:10:28Z</time>
      </trkpt>
      <trkpt lat="49.09746" lon="1.1739">
        <ele>126.300003</ele>
        <time>2016-12-04T09:10:31Z</time>
      </trkpt>
      <trkpt lat="49.09747" lon="1.17407">
        <ele>126.199997</ele>
        <time>2016-12-04T09:10:34Z</time>
      </trkpt>
      <trkpt lat="49.09747" lon="1.17422">
        <ele>126.199997</ele>
        <time>2016-12-04T09:10:37Z</time>
      </trkpt>
      <trkpt lat="49.09743" lon="1.17436">
        <ele>125.900002</ele>
        <time>2016-12-04T09:10:42Z</time>
      </trkpt>
      <trkpt lat="49.09741" lon="1.17451">
        <ele>125.599998</ele>
        <time>2016-12-04T09:10:47Z</time>
      </trkpt>
      <trkpt lat="49.09742" lon="1.17467">
        <ele>125.300003</ele>
        <time>2016-12-04T09:10:52Z</time>
      </trkpt>
      <trkpt lat="49.09745" lon="1.17484">
        <ele>124.699997</ele>
        <time>2016-12-04T09:12:15Z</time>
      </trkpt>
      <trkpt lat="49.09747" lon="1.17497">
        <ele>124.699997</ele>
        <time>2016-12-04T09:12:18Z</time>
      </trkpt>
      <trkpt lat="49.09749" lon="1.17512">
        <ele>124.699997</ele>
        <time>2016-12-04T09:12:21Z</time>
      </trkpt>
      <trkpt lat="49.09751" lon="1.1753">
        <ele>124.699997</ele>
        <time>2016-12-04T09:12:24Z</time>
      </trkpt>
      <trkpt lat="49.09754" lon="1.17548">
        <ele>124.699997</ele>
        <time>2016-12-04T09:12:27Z</time>
      </trkpt>
      <trkpt lat="49.09756" lon="1.17566">
        <ele>124.699997</ele>
        <time>2016-12-04T09:12:30Z</time>
      </trkpt>
      <trkpt lat="49.0976" lon="1.17584">
        <ele>124.800003</ele>
        <time>2016-12-04T09:12:33Z</time>
      </trkpt>
      <trkpt lat="49.09763" lon="1.17604">
        <ele>124.800003</ele>
        <time>2016-12-04T09:12:36Z</time>
      </trkpt>
      <trkpt lat="49.09766" lon="1.17623">
        <ele>124.900002</ele>
        <time>2016-12-04T09:12:39Z</time>
      </trkpt>
      <trkpt lat="49.09769" lon="1.17637">
        <ele>124.900002</ele>
        <time>2016-12-04T09:12:41Z</time>
      </trkpt>
      <trkpt lat="49.09772" lon="1.17651">
        <ele>124.900002</ele>
        <time>2016-12-04T09:12:43Z</time>
      </trkpt>
      <trkpt lat="49.09774" lon="1.17665">
        <ele>124.900002</ele>
        <time>2016-12-04T09:12:45Z</time>
      </trkpt>
      <trkpt lat="49.09777" lon="1.17679">
        <ele>124.900002</ele>
        <time>2016-12-04T09:12:47Z</time>
      </trkpt>
      <trkpt lat="49.09781" lon="1.17693">
        <ele>124.900002</ele>
        <time>2016-12-04T09:12:49Z</time>
      </trkpt>
      <trkpt lat="49.09784" lon="1.17707">
        <ele>124.900002</ele>
        <time>2016-12-04T09:12:51Z</time>
      </trkpt>
      <trkpt lat="49.09782" lon="1.1772">
        <ele>124.900002</ele>
        <time>2016-12-04T09:12:53Z</time>
      </trkpt>
      <trkpt lat="49.09774" lon="1.17728">
        <ele>124.800003</ele>
        <time>2016-12-04T09:12:55Z</time>
      </trkpt>
      <trkpt lat="49.09763" lon="1.17731">
        <ele>124.699997</ele>
        <time>2016-12-04T09:12:57Z</time>
      </trkpt>
      <trkpt lat="49.09752" lon="1.17733">
        <ele>124.599998</ele>
        <time>2016-12-04T09:12:59Z</time>
      </trkpt>
      <trkpt lat="49.09741" lon="1.17736">
        <ele>124.300003</ele>
        <time>2016-12-04T09:13:01Z</time>
      </trkpt>
      <trkpt lat="49.09731" lon="1.17743">
        <ele>124.099998</ele>
        <time>2016-12-04T09:13:03Z</time>
      </trkpt>
      <trkpt lat="49.09723" lon="1.17753">
        <ele>123.900002</ele>
        <time>2016-12-04T09:13:05Z</time>
      </trkpt>
      <trkpt lat="49.09717" lon="1.17766">
        <ele>123.699997</ele>
        <time>2016-12-04T09:13:07Z</time>
      </trkpt>
      <trkpt lat="49.09714" lon="1.1778">
        <ele>123.5</ele>
        <time>2016-12-04T09:13:09Z</time>
      </trkpt>
      <trkpt lat="49.09712" lon="1.178">
        <ele>123.300003</ele>
        <time>2016-12-04T09:13:12Z</time>
      </trkpt>
      <trkpt lat="49.09712" lon="1.17818">
        <ele>123.300003</ele>
        <time>2016-12-04T09:13:15Z</time>
      </trkpt>
      <trkpt lat="49.09712" lon="1.17834">
        <ele>123.300003</ele>
        <time>2016-12-04T09:13:18Z</time>
      </trkpt>
      <trkpt lat="49.09712" lon="1.17851">
        <ele>123.400002</ele>
        <time>2016-12-04T09:13:21Z</time>
      </trkpt>
      <trkpt lat="49.09711" lon="1.1787">
        <ele>123.5</ele>
        <time>2016-12-04T09:13:24Z</time>
      </trkpt>
      <trkpt lat="49.09709" lon="1.17889">
        <ele>123.699997</ele>
        <time>2016-12-04T09:13:27Z</time>
      </trkpt>
      <trkpt lat="49.09707" lon="1.17908">
        <ele>123.900002</ele>
        <time>2016-12-04T09:13:30Z</time>
      </trkpt>
      <trkpt lat="49.09705" lon="1.17928">
        <ele>124.199997</ele>
        <time>2016-12-04T09:13:33Z</time>
      </trkpt>
      <trkpt lat="49.09702" lon="1.17947">
        <ele>124.400002</ele>
        <time>2016-12-04T09:13:36Z</time>
      </trkpt>
      <trkpt lat="49.097" lon="1.17961">
        <ele>124.599998</ele>
        <time>2016-12-04T09:13:38Z</time>
      </trkpt>
      <trkpt lat="49.09698" lon="1.17981">
        <ele>124.900002</ele>
        <time>2016-12-04T09:13:41Z</time>
      </trkpt>
      <trkpt lat="49.09696" lon="1.18001">
        <ele>125.300003</ele>
        <time>2016-12-04T09:13:44Z</time>
      </trkpt>
      <trkpt lat="49.09696" lon="1.1802">
        <ele>125.699997</ele>
        <time>2016-12-04T09:13:47Z</time>
      </trkpt>
      <trkpt lat="49.09696" lon="1.1804">
        <ele>126.099998</ele>
        <time>2016-12-04T09:13:50Z</time>
      </trkpt>
      <trkpt lat="49.09697" lon="1.1806">
        <ele>126.5</ele>
        <time>2016-12-04T09:13:53Z</time>
      </trkpt>
      <trkpt lat="49.09699" lon="1.18079">
        <ele>126.800003</ele>
        <time>2016-12-04T09:13:56Z</time>
      </trkpt>
      <trkpt lat="49.09702" lon="1.18097">
        <ele>127.099998</ele>
        <time>2016-12-04T09:13:59Z</time>
      </trkpt>
      <trkpt lat="49.09708" lon="1.18116">
        <ele>127.300003</ele>
        <time>2016-12-04T09:14:02Z</time>
      </trkpt>
      <trkpt lat="49.09713" lon="1.18131">
        <ele>127.5</ele>
        <time>2016-12-04T09:14:04Z</time>
      </trkpt>
      <trkpt lat="49.09718" lon="1.18143">
        <ele>127.599998</ele>
        <time>2016-12-04T09:14:06Z</time>
      </trkpt>
      <trkpt lat="49.09725" lon="1.18155">
        <ele>127.800003</ele>
        <time>2016-12-04T09:14:08Z</time>
      </trkpt>
      <trkpt lat="49.09732" lon="1.18167">
        <ele>127.900002</ele>
        <time>2016-12-04T09:14:10Z</time>
      </trkpt>
      <trkpt lat="49.0974" lon="1.18179">
        <ele>128</ele>
        <time>2016-12-04T09:14:12Z</time>
      </trkpt>
      <trkpt lat="49.09747" lon="1.18192">
        <ele>128.100006</ele>
        <time>2016-12-04T09:14:14Z</time>
      </trkpt>
      <trkpt lat="49.09753" lon="1.18206">
        <ele>128.100006</ele>
        <time>2016-12-04T09:14:16Z</time>
      </trkpt>
      <trkpt lat="49.09759" lon="1.18221">
        <ele>128.100006</ele>
        <time>2016-12-04T09:14:18Z</time>
      </trkpt>
      <trkpt lat="49.09764" lon="1.18236">
        <ele>128.100006</ele>
        <time>2016-12-04T09:14:20Z</time>
      </trkpt>
      <trkpt lat="49.0977" lon="1.1825">
        <ele>128.100006</ele>
        <time>2016-12-04T09:14:22Z</time>
      </trkpt>
      <trkpt lat="49.09776" lon="1.18264">
        <ele>128</ele>
        <time>2016-12-04T09:14:24Z</time>
      </trkpt>
      <trkpt lat="49.09784" lon="1.18277">
        <ele>127.900002</ele>
        <time>2016-12-04T09:14:26Z</time>
      </trkpt>
      <trkpt lat="49.09791" lon="1.18289">
        <ele>127.800003</ele>
        <time>2016-12-04T09:14:28Z</time>
      </trkpt>
      <trkpt lat="49.09799" lon="1.18301">
        <ele>127.599998</ele>
        <time>2016-12-04T09:14:30Z</time>
      </trkpt>
      <trkpt lat="49.09807" lon="1.18313">
        <ele>127.400002</ele>
        <time>2016-12-04T09:14:32Z</time>
      </trkpt>
      <trkpt lat="49.09814" lon="1.18326">
        <ele>127.199997</ele>
        <time>2016-12-04T09:14:34Z</time>
      </trkpt>
      <trkpt lat="49.09822" lon="1.18338">
        <ele>126.900002</ele>
        <time>2016-12-04T09:14:36Z</time>
      </trkpt>
      <trkpt lat="49.0983" lon="1.18351">
        <ele>126.699997</ele>
        <time>2016-12-04T09:14:38Z</time>
      </trkpt>
      <trkpt lat="49.09837" lon="1.18364">
        <ele>126.400002</ele>
        <time>2016-12-04T09:14:40Z</time>
      </trkpt>
      <trkpt lat="49.09844" lon="1.18377">
        <ele>126.199997</ele>
        <time>2016-12-04T09:14:42Z</time>
      </trkpt>
      <trkpt lat="49.0985" lon="1.1839">
        <ele>126</ele>
        <time>2016-12-04T09:14:44Z</time>
      </trkpt>
      <trkpt lat="49.09854" lon="1.18405">
        <ele>125.800003</ele>
        <time>2016-12-04T09:14:46Z</time>
      </trkpt>
      <trkpt lat="49.09858" lon="1.1842">
        <ele>125.599998</ele>
        <time>2016-12-04T09:14:48Z</time>
      </trkpt>
      <trkpt lat="49.09859" lon="1.18436">
        <ele>125.5</ele>
        <time>2016-12-04T09:14:50Z</time>
      </trkpt>
      <trkpt lat="49.09861" lon="1.18451">
        <ele>125.400002</ele>
        <time>2016-12-04T09:14:52Z</time>
      </trkpt>
      <trkpt lat="49.09861" lon="1.18465">
        <ele>125.300003</ele>
        <time>2016-12-04T09:14:54Z</time>
      </trkpt>
      <trkpt lat="49.09861" lon="1.1848">
        <ele>125.199997</ele>
        <time>2016-12-04T09:14:56Z</time>
      </trkpt>
      <trkpt lat="49.09862" lon="1.18494">
        <ele>125.199997</ele>
        <time>2016-12-04T09:14:58Z</time>
      </trkpt>
      <trkpt lat="49.09862" lon="1.18508">
        <ele>125.199997</ele>
        <time>2016-12-04T09:15:00Z</time>
      </trkpt>
      <trkpt lat="49.09862" lon="1.18522">
        <ele>125.199997</ele>
        <time>2016-12-04T09:15:02Z</time>
      </trkpt>
      <trkpt lat="49.09861" lon="1.18536">
        <ele>125.199997</ele>
        <time>2016-12-04T09:15:04Z</time>
      </trkpt>
      <trkpt lat="49.0986" lon="1.1855">
        <ele>125.099998</ele>
        <time>2016-12-04T09:15:06Z</time>
      </trkpt>
      <trkpt lat="49.09858" lon="1.18564">
        <ele>125.099998</ele>
        <time>2016-12-04T09:15:08Z</time>
      </trkpt>
      <trkpt lat="49.09857" lon="1.18578">
        <ele>125.199997</ele>
        <time>2016-12-04T09:15:10Z</time>
      </trkpt>
      <trkpt lat="49.09854" lon="1.18591">
        <ele>125.300003</ele>
        <time>2016-12-04T09:15:12Z</time>
      </trkpt>
      <trkpt lat="49.09851" lon="1.18605">
        <ele>125.400002</ele>
        <time>2016-12-04T09:15:14Z</time>
      </trkpt>
      <trkpt lat="49.09847" lon="1.18618">
        <ele>125.599998</ele>
        <time>2016-12-04T09:15:16Z</time>
      </trkpt>
      <trkpt lat="49.09844" lon="1.18631">
        <ele>125.699997</ele>
        <time>2016-12-04T09:15:18Z</time>
      </trkpt>
      <trkpt lat="49.09839" lon="1.18643">
        <ele>125.800003</ele>
        <time>2016-12-04T09:15:20Z</time>
      </trkpt>
      <trkpt lat="49.09834" lon="1.18656">
        <ele>125.900002</ele>
        <time>2016-12-04T09:15:22Z</time>
      </trkpt>
      <trkpt lat="49.09829" lon="1.18667">
        <ele>126.099998</ele>
        <time>2016-12-04T09:15:24Z</time>
      </trkpt>
      <trkpt lat="49.09825" lon="1.18679">
        <ele>126.300003</ele>
        <time>2016-12-04T09:15:26Z</time>
      </trkpt>
      <trkpt lat="49.09819" lon="1.18691">
        <ele>126.400002</ele>
        <time>2016-12-04T09:15:28Z</time>
      </trkpt>
      <trkpt lat="49.09814" lon="1.18703">
        <ele>126.599998</ele>
        <time>2016-12-04T09:15:30Z</time>
      </trkpt>
      <trkpt lat="49.0981" lon="1.18715">
        <ele>126.699997</ele>
        <time>2016-12-04T09:15:32Z</time>
      </trkpt>
      <trkpt lat="49.09803" lon="1.18733">
        <ele>127</ele>
        <time>2016-12-04T09:15:35Z</time>
      </trkpt>
      <trkpt lat="49.09798" lon="1.1875">
        <ele>127.300003</ele>
        <time>2016-12-04T09:15:38Z</time>
      </trkpt>
      <trkpt lat="49.09794" lon="1.18769">
        <ele>127.699997</ele>
        <time>2016-12-04T09:15:41Z</time>
      </trkpt>
      <trkpt lat="49.09791" lon="1.18788">
        <ele>128.100006</ele>
        <time>2016-12-04T09:15:44Z</time>
      </trkpt>
      <trkpt lat="49.0979" lon="1.18802">
        <ele>128.399994</ele>
        <time>2016-12-04T09:15:46Z</time>
      </trkpt>
      <trkpt lat="49.09789" lon="1.18816">
        <ele>128.699997</ele>
        <time>2016-12-04T09:15:48Z</time>
      </trkpt>
      <trkpt lat="49.09788" lon="1.18831">
        <ele>129</ele>
        <time>2016-12-04T09:15:50Z</time>
      </trkpt>
      <trkpt lat="49.09788" lon="1.18845">
        <ele>129.300003</ele>
        <time>2016-12-04T09:15:52Z</time>
      </trkpt>
      <trkpt lat="49.09788" lon="1.1886">
        <ele>129.600006</ele>
        <time>2016-12-04T09:15:54Z</time>
      </trkpt>
      <trkpt lat="49.09787" lon="1.18874">
        <ele>129.800003</ele>
        <time>2016-12-04T09:15:56Z</time>
      </trkpt>
      <trkpt lat="49.09787" lon="1.18889">
        <ele>130.100006</ele>
        <time>2016-12-04T09:15:58Z</time>
      </trkpt>
      <trkpt lat="49.09787" lon="1.18904">
        <ele>130.300003</ele>
        <time>2016-12-04T09:16:00Z</time>
      </trkpt>
      <trkpt lat="49.09787" lon="1.1892">
        <ele>130.5</ele>
        <time>2016-12-04T09:16:02Z</time>
      </trkpt>
      <trkpt lat="49.09787" lon="1.18935">
        <ele>130.600006</ele>
        <time>2016-12-04T09:16:04Z</time>
      </trkpt>
      <trkpt lat="49.09787" lon="1.18952">
        <ele>130.800003</ele>
        <time>2016-12-04T09:16:06Z</time>
      </trkpt>
      <trkpt lat="49.09787" lon="1.18969">
        <ele>130.899994</ele>
        <time>2016-12-04T09:16:08Z</time>
      </trkpt>
      <trkpt lat="49.09787" lon="1.18987">
        <ele>131</ele>
        <time>2016-12-04T09:16:10Z</time>
      </trkpt>
      <trkpt lat="49.09787" lon="1.19006">
        <ele>131</ele>
        <time>2016-12-04T09:16:12Z</time>
      </trkpt>
      <trkpt lat="49.09787" lon="1.19025">
        <ele>131</ele>
        <time>2016-12-04T09:16:14Z</time>
      </trkpt>
      <trkpt lat="49.09787" lon="1.19045">
        <ele>130.800003</ele>
        <time>2016-12-04T09:16:16Z</time>
      </trkpt>
      <trkpt lat="49.09787" lon="1.19066">
        <ele>130.5</ele>
        <time>2016-12-04T09:16:18Z</time>
      </trkpt>
      <trkpt lat="49.09787" lon="1.19086">
        <ele>130.300003</ele>
        <time>2016-12-04T09:16:20Z</time>
      </trkpt>
      <trkpt lat="49.09787" lon="1.19105">
        <ele>130</ele>
        <time>2016-12-04T09:16:22Z</time>
      </trkpt>
      <trkpt lat="49.09787" lon="1.19125">
        <ele>129.699997</ele>
        <time>2016-12-04T09:16:24Z</time>
      </trkpt>
      <trkpt lat="49.09788" lon="1.19144">
        <ele>129.399994</ele>
        <time>2016-12-04T09:16:26Z</time>
      </trkpt>
      <trkpt lat="49.09788" lon="1.19162">
        <ele>129.199997</ele>
        <time>2016-12-04T09:16:28Z</time>
      </trkpt>
      <trkpt lat="49.09788" lon="1.19179">
        <ele>129</ele>
        <time>2016-12-04T09:16:30Z</time>
      </trkpt>
      <trkpt lat="49.09788" lon="1.19196">
        <ele>128.800003</ele>
        <time>2016-12-04T09:16:32Z</time>
      </trkpt>
      <trkpt lat="49.09788" lon="1.19213">
        <ele>128.699997</ele>
        <time>2016-12-04T09:16:34Z</time>
      </trkpt>
      <trkpt lat="49.09788" lon="1.19229">
        <ele>128.5</ele>
        <time>2016-12-04T09:16:36Z</time>
      </trkpt>
      <trkpt lat="49.09788" lon="1.19245">
        <ele>128.399994</ele>
        <time>2016-12-04T09:16:38Z</time>
      </trkpt>
      <trkpt lat="49.09789" lon="1.19261">
        <ele>128.300003</ele>
        <time>2016-12-04T09:16:40Z</time>
      </trkpt>
      <trkpt lat="49.09789" lon="1.19276">
        <ele>128.199997</ele>
        <time>2016-12-04T09:16:42Z</time>
      </trkpt>
      <trkpt lat="49.09789" lon="1.19292">
        <ele>128.100006</ele>
        <time>2016-12-04T09:16:44Z</time>
      </trkpt>
      <trkpt lat="49.09789" lon="1.19307">
        <ele>128</ele>
        <time>2016-12-04T09:16:46Z</time>
      </trkpt>
      <trkpt lat="49.09788" lon="1.19322">
        <ele>128</ele>
        <time>2016-12-04T09:16:48Z</time>
      </trkpt>
      <trkpt lat="49.09788" lon="1.19337">
        <ele>127.900002</ele>
        <time>2016-12-04T09:16:50Z</time>
      </trkpt>
      <trkpt lat="49.09785" lon="1.19352">
        <ele>127.900002</ele>
        <time>2016-12-04T09:16:52Z</time>
      </trkpt>
      <trkpt lat="49.09782" lon="1.19366">
        <ele>127.800003</ele>
        <time>2016-12-04T09:16:54Z</time>
      </trkpt>
      <trkpt lat="49.09777" lon="1.1938">
        <ele>127.800003</ele>
        <time>2016-12-04T09:16:56Z</time>
      </trkpt>
      <trkpt lat="49.09771" lon="1.19393">
        <ele>127.800003</ele>
        <time>2016-12-04T09:16:58Z</time>
      </trkpt>
      <trkpt lat="49.09765" lon="1.19405">
        <ele>127.900002</ele>
        <time>2016-12-04T09:17:00Z</time>
      </trkpt>
      <trkpt lat="49.09759" lon="1.19416">
        <ele>127.900002</ele>
        <time>2016-12-04T09:17:02Z</time>
      </trkpt>
      <trkpt lat="49.09752" lon="1.19427">
        <ele>128</ele>
        <time>2016-12-04T09:17:04Z</time>
      </trkpt>
      <trkpt lat="49.09746" lon="1.1944">
        <ele>128.100006</ele>
        <time>2016-12-04T09:17:06Z</time>
      </trkpt>
      <trkpt lat="49.09741" lon="1.19452">
        <ele>128.199997</ele>
        <time>2016-12-04T09:17:08Z</time>
      </trkpt>
      <trkpt lat="49.09738" lon="1.19466">
        <ele>128.399994</ele>
        <time>2016-12-04T09:17:10Z</time>
      </trkpt>
      <trkpt lat="49.09735" lon="1.1948">
        <ele>128.5</ele>
        <time>2016-12-04T09:17:12Z</time>
      </trkpt>
      <trkpt lat="49.09733" lon="1.19494">
        <ele>128.699997</ele>
        <time>2016-12-04T09:17:14Z</time>
      </trkpt>
      <trkpt lat="49.09731" lon="1.19509">
        <ele>128.899994</ele>
        <time>2016-12-04T09:17:16Z</time>
      </trkpt>
      <trkpt lat="49.09729" lon="1.19525">
        <ele>129</ele>
        <time>2016-12-04T09:17:18Z</time>
      </trkpt>
      <trkpt lat="49.09726" lon="1.1954">
        <ele>129.199997</ele>
        <time>2016-12-04T09:17:20Z</time>
      </trkpt>
      <trkpt lat="49.09724" lon="1.19555">
        <ele>129.399994</ele>
        <time>2016-12-04T09:17:22Z</time>
      </trkpt>
      <trkpt lat="49.0972" lon="1.19568">
        <ele>129.5</ele>
        <time>2016-12-04T09:17:24Z</time>
      </trkpt>
      <trkpt lat="49.09716" lon="1.19585">
        <ele>129.800003</ele>
        <time>2016-12-04T09:17:27Z</time>
      </trkpt>
      <trkpt lat="49.09711" lon="1.19598">
        <ele>130.199997</ele>
        <time>2016-12-04T09:17:30Z</time>
      </trkpt>
      <trkpt lat="49.09705" lon="1.19612">
        <ele>130.699997</ele>
        <time>2016-12-04T09:17:34Z</time>
      </trkpt>
      <trkpt lat="49.09699" lon="1.19628">
        <ele>131.199997</ele>
        <time>2016-12-04T09:17:38Z</time>
      </trkpt>
      <trkpt lat="49.09694" lon="1.1964">
        <ele>131.5</ele>
        <time>2016-12-04T09:17:41Z</time>
      </trkpt>
      <trkpt lat="49.09689" lon="1.19653">
        <ele>132</ele>
        <time>2016-12-04T09:17:44Z</time>
      </trkpt>
      <trkpt lat="49.09684" lon="1.19666">
        <ele>132.399994</ele>
        <time>2016-12-04T09:17:47Z</time>
      </trkpt>
      <trkpt lat="49.09678" lon="1.1968">
        <ele>132.800003</ele>
        <time>2016-12-04T09:17:50Z</time>
      </trkpt>
      <trkpt lat="49.09672" lon="1.19694">
        <ele>133.100006</ele>
        <time>2016-12-04T09:17:53Z</time>
      </trkpt>
      <trkpt lat="49.09666" lon="1.1971">
        <ele>133.300003</ele>
        <time>2016-12-04T09:17:56Z</time>
      </trkpt>
      <trkpt lat="49.09661" lon="1.19726">
        <ele>133.5</ele>
        <time>2016-12-04T09:17:59Z</time>
      </trkpt>
      <trkpt lat="49.09657" lon="1.19741">
        <ele>133.699997</ele>
        <time>2016-12-04T09:18:02Z</time>
      </trkpt>
      <trkpt lat="49.09653" lon="1.19756">
        <ele>133.800003</ele>
        <time>2016-12-04T09:18:05Z</time>
      </trkpt>
      <trkpt lat="49.09651" lon="1.19773">
        <ele>133.800003</ele>
        <time>2016-12-04T09:18:08Z</time>
      </trkpt>
      <trkpt lat="49.09661" lon="1.1978">
        <ele>133.699997</ele>
        <time>2016-12-04T09:18:12Z</time>
      </trkpt>
      <trkpt lat="49.0967" lon="1.19776">
        <ele>133.600006</ele>
        <time>2016-12-04T09:18:16Z</time>
      </trkpt>
      <trkpt lat="49.09679" lon="1.19771">
        <ele>133.399994</ele>
        <time>2016-12-04T09:18:23Z</time>
      </trkpt>
      <trkpt lat="49.09689" lon="1.19766">
        <ele>133.300003</ele>
        <time>2016-12-04T09:18:28Z</time>
      </trkpt>
      <trkpt lat="49.09698" lon="1.19761">
        <ele>133.300003</ele>
        <time>2016-12-04T09:18:32Z</time>
      </trkpt>
      <trkpt lat="49.09707" lon="1.19756">
        <ele>133.300003</ele>
        <time>2016-12-04T09:18:36Z</time>
      </trkpt>
      <trkpt lat="49.09717" lon="1.19749">
        <ele>133.399994</ele>
        <time>2016-12-04T09:18:40Z</time>
      </trkpt>
      <trkpt lat="49.09725" lon="1.19743">
        <ele>133.399994</ele>
        <time>2016-12-04T09:18:43Z</time>
      </trkpt>
      <trkpt lat="49.09733" lon="1.19737">
        <ele>133.5</ele>
        <time>2016-12-04T09:18:46Z</time>
      </trkpt>
      <trkpt lat="49.09742" lon="1.1973">
        <ele>133.5</ele>
        <time>2016-12-04T09:18:49Z</time>
      </trkpt>
      <trkpt lat="49.09751" lon="1.19724">
        <ele>133.5</ele>
        <time>2016-12-04T09:18:52Z</time>
      </trkpt>
      <trkpt lat="49.09762" lon="1.19716">
        <ele>133.5</ele>
        <time>2016-12-04T09:18:55Z</time>
      </trkpt>
      <trkpt lat="49.09773" lon="1.19709">
        <ele>133.5</ele>
        <time>2016-12-04T09:18:58Z</time>
      </trkpt>
      <trkpt lat="49.09781" lon="1.19702">
        <ele>133.399994</ele>
        <time>2016-12-04T09:19:01Z</time>
      </trkpt>
      <trkpt lat="49.0979" lon="1.19697">
        <ele>133.199997</ele>
        <time>2016-12-04T09:19:07Z</time>
      </trkpt>
      <trkpt lat="49.098" lon="1.1969">
        <ele>133</ele>
        <time>2016-12-04T09:19:10Z</time>
      </trkpt>
      <trkpt lat="49.09807" lon="1.19681">
        <ele>132.699997</ele>
        <time>2016-12-04T09:19:12Z</time>
      </trkpt>
      <trkpt lat="49.09815" lon="1.19671">
        <ele>132.5</ele>
        <time>2016-12-04T09:19:14Z</time>
      </trkpt>
      <trkpt lat="49.09823" lon="1.19661">
        <ele>132.300003</ele>
        <time>2016-12-04T09:19:16Z</time>
      </trkpt>
      <trkpt lat="49.09831" lon="1.19651">
        <ele>132</ele>
        <time>2016-12-04T09:19:18Z</time>
      </trkpt>
      <trkpt lat="49.09839" lon="1.1964">
        <ele>131.800003</ele>
        <time>2016-12-04T09:19:20Z</time>
      </trkpt>
      <trkpt lat="49.09847" lon="1.1963">
        <ele>131.5</ele>
        <time>2016-12-04T09:19:22Z</time>
      </trkpt>
      <trkpt lat="49.09856" lon="1.1962">
        <ele>131</ele>
        <time>2016-12-04T09:19:24Z</time>
      </trkpt>
      <trkpt lat="49.09866" lon="1.19613">
        <ele>130.600006</ele>
        <time>2016-12-04T09:19:26Z</time>
      </trkpt>
      <trkpt lat="49.09877" lon="1.19602">
        <ele>130.100006</ele>
        <time>2016-12-04T09:19:29Z</time>
      </trkpt>
      <trkpt lat="49.09885" lon="1.19588">
        <ele>129.600006</ele>
        <time>2016-12-04T09:19:32Z</time>
      </trkpt>
      <trkpt lat="49.09893" lon="1.19579">
        <ele>129.300003</ele>
        <time>2016-12-04T09:19:34Z</time>
      </trkpt>
      <trkpt lat="49.09901" lon="1.1957">
        <ele>129</ele>
        <time>2016-12-04T09:19:36Z</time>
      </trkpt>
      <trkpt lat="49.09908" lon="1.1956">
        <ele>128.800003</ele>
        <time>2016-12-04T09:19:38Z</time>
      </trkpt>
      <trkpt lat="49.09915" lon="1.19549">
        <ele>128.600006</ele>
        <time>2016-12-04T09:19:40Z</time>
      </trkpt>
      <trkpt lat="49.09923" lon="1.19538">
        <ele>128.399994</ele>
        <time>2016-12-04T09:19:42Z</time>
      </trkpt>
      <trkpt lat="49.0993" lon="1.19527">
        <ele>128.199997</ele>
        <time>2016-12-04T09:19:44Z</time>
      </trkpt>
      <trkpt lat="49.09938" lon="1.19516">
        <ele>128</ele>
        <time>2016-12-04T09:19:46Z</time>
      </trkpt>
      <trkpt lat="49.09946" lon="1.19505">
        <ele>127.800003</ele>
        <time>2016-12-04T09:19:48Z</time>
      </trkpt>
      <trkpt lat="49.09954" lon="1.19495">
        <ele>127.599998</ele>
        <time>2016-12-04T09:19:50Z</time>
      </trkpt>
      <trkpt lat="49.09962" lon="1.19484">
        <ele>127.400002</ele>
        <time>2016-12-04T09:19:52Z</time>
      </trkpt>
      <trkpt lat="49.0997" lon="1.19473">
        <ele>127.300003</ele>
        <time>2016-12-04T09:19:54Z</time>
      </trkpt>
      <trkpt lat="49.09978" lon="1.19462">
        <ele>127.099998</ele>
        <time>2016-12-04T09:19:56Z</time>
      </trkpt>
      <trkpt lat="49.09986" lon="1.1945">
        <ele>127</ele>
        <time>2016-12-04T09:19:58Z</time>
      </trkpt>
      <trkpt lat="49.09994" lon="1.19439">
        <ele>126.800003</ele>
        <time>2016-12-04T09:20:00Z</time>
      </trkpt>
      <trkpt lat="49.10002" lon="1.19427">
        <ele>126.699997</ele>
        <time>2016-12-04T09:20:02Z</time>
      </trkpt>
      <trkpt lat="49.10011" lon="1.19416">
        <ele>126.5</ele>
        <time>2016-12-04T09:20:04Z</time>
      </trkpt>
      <trkpt lat="49.1002" lon="1.19405">
        <ele>126.300003</ele>
        <time>2016-12-04T09:20:06Z</time>
      </trkpt>
      <trkpt lat="49.10029" lon="1.19395">
        <ele>126.199997</ele>
        <time>2016-12-04T09:20:08Z</time>
      </trkpt>
      <trkpt lat="49.10039" lon="1.19386">
        <ele>126</ele>
        <time>2016-12-04T09:20:10Z</time>
      </trkpt>
      <trkpt lat="49.10048" lon="1.19377">
        <ele>125.900002</ele>
        <time>2016-12-04T09:20:12Z</time>
      </trkpt>
      <trkpt lat="49.10058" lon="1.19368">
        <ele>125.699997</ele>
        <time>2016-12-04T09:20:14Z</time>
      </trkpt>
      <trkpt lat="49.10069" lon="1.19361">
        <ele>125.5</ele>
        <time>2016-12-04T09:20:16Z</time>
      </trkpt>
      <trkpt lat="49.10079" lon="1.19353">
        <ele>125.400002</ele>
        <time>2016-12-04T09:20:18Z</time>
      </trkpt>
      <trkpt lat="49.1009" lon="1.19347">
        <ele>125.199997</ele>
        <time>2016-12-04T09:20:20Z</time>
      </trkpt>
      <trkpt lat="49.10101" lon="1.19341">
        <ele>125</ele>
        <time>2016-12-04T09:20:22Z</time>
      </trkpt>
      <trkpt lat="49.10112" lon="1.19335">
        <ele>124.800003</ele>
        <time>2016-12-04T09:20:24Z</time>
      </trkpt>
      <trkpt lat="49.10123" lon="1.1933">
        <ele>124.599998</ele>
        <time>2016-12-04T09:20:26Z</time>
      </trkpt>
      <trkpt lat="49.10134" lon="1.19324">
        <ele>124.400002</ele>
        <time>2016-12-04T09:20:28Z</time>
      </trkpt>
      <trkpt lat="49.10145" lon="1.19318">
        <ele>124.199997</ele>
        <time>2016-12-04T09:20:30Z</time>
      </trkpt>
      <trkpt lat="49.10155" lon="1.19312">
        <ele>124.099998</ele>
        <time>2016-12-04T09:20:32Z</time>
      </trkpt>
      <trkpt lat="49.10165" lon="1.19304">
        <ele>123.900002</ele>
        <time>2016-12-04T09:20:34Z</time>
      </trkpt>
      <trkpt lat="49.10176" lon="1.19296">
        <ele>123.800003</ele>
        <time>2016-12-04T09:20:36Z</time>
      </trkpt>
      <trkpt lat="49.10186" lon="1.19288">
        <ele>123.699997</ele>
        <time>2016-12-04T09:20:38Z</time>
      </trkpt>
      <trkpt lat="49.10196" lon="1.19279">
        <ele>123.599998</ele>
        <time>2016-12-04T09:20:40Z</time>
      </trkpt>
      <trkpt lat="49.10205" lon="1.19269">
        <ele>123.5</ele>
        <time>2016-12-04T09:20:42Z</time>
      </trkpt>
      <trkpt lat="49.10215" lon="1.19259">
        <ele>123.400002</ele>
        <time>2016-12-04T09:20:44Z</time>
      </trkpt>
      <trkpt lat="49.10224" lon="1.19248">
        <ele>123.300003</ele>
        <time>2016-12-04T09:20:46Z</time>
      </trkpt>
      <trkpt lat="49.10232" lon="1.19236">
        <ele>123.099998</ele>
        <time>2016-12-04T09:20:48Z</time>
      </trkpt>
      <trkpt lat="49.10241" lon="1.19224">
        <ele>122.699997</ele>
        <time>2016-12-04T09:20:50Z</time>
      </trkpt>
      <trkpt lat="49.10249" lon="1.19212">
        <ele>122.5</ele>
        <time>2016-12-04T09:20:52Z</time>
      </trkpt>
      <trkpt lat="49.10259" lon="1.19203">
        <ele>122.300003</ele>
        <time>2016-12-04T09:20:54Z</time>
      </trkpt>
      <trkpt lat="49.1027" lon="1.19197">
        <ele>122.099998</ele>
        <time>2016-12-04T09:20:56Z</time>
      </trkpt>
      <trkpt lat="49.10282" lon="1.19193">
        <ele>121.900002</ele>
        <time>2016-12-04T09:20:58Z</time>
      </trkpt>
      <trkpt lat="49.10294" lon="1.19189">
        <ele>121.699997</ele>
        <time>2016-12-04T09:21:00Z</time>
      </trkpt>
      <trkpt lat="49.10305" lon="1.19183">
        <ele>121.5</ele>
        <time>2016-12-04T09:21:02Z</time>
      </trkpt>
      <trkpt lat="49.10316" lon="1.19176">
        <ele>121.300003</ele>
        <time>2016-12-04T09:21:04Z</time>
      </trkpt>
      <trkpt lat="49.10326" lon="1.19166">
        <ele>121.099998</ele>
        <time>2016-12-04T09:21:06Z</time>
      </trkpt>
      <trkpt lat="49.10337" lon="1.19156">
        <ele>120.900002</ele>
        <time>2016-12-04T09:21:08Z</time>
      </trkpt>
      <trkpt lat="49.10346" lon="1.19145">
        <ele>120.699997</ele>
        <time>2016-12-04T09:21:10Z</time>
      </trkpt>
      <trkpt lat="49.10356" lon="1.19133">
        <ele>120.5</ele>
        <time>2016-12-04T09:21:12Z</time>
      </trkpt>
      <trkpt lat="49.10366" lon="1.19121">
        <ele>120.300003</ele>
        <time>2016-12-04T09:21:14Z</time>
      </trkpt>
      <trkpt lat="49.10374" lon="1.19109">
        <ele>120.099998</ele>
        <time>2016-12-04T09:21:16Z</time>
      </trkpt>
      <trkpt lat="49.10383" lon="1.19099">
        <ele>119.900002</ele>
        <time>2016-12-04T09:21:18Z</time>
      </trkpt>
      <trkpt lat="49.10391" lon="1.19086">
        <ele>119.800003</ele>
        <time>2016-12-04T09:21:20Z</time>
      </trkpt>
      <trkpt lat="49.104" lon="1.19071">
        <ele>119.599998</ele>
        <time>2016-12-04T09:21:22Z</time>
      </trkpt>
      <trkpt lat="49.10409" lon="1.19057">
        <ele>119.300003</ele>
        <time>2016-12-04T09:21:24Z</time>
      </trkpt>
      <trkpt lat="49.10416" lon="1.19045">
        <ele>119.099998</ele>
        <time>2016-12-04T09:21:26Z</time>
      </trkpt>
      <trkpt lat="49.10424" lon="1.19032">
        <ele>118.800003</ele>
        <time>2016-12-04T09:21:28Z</time>
      </trkpt>
      <trkpt lat="49.10431" lon="1.19018">
        <ele>118.599998</ele>
        <time>2016-12-04T09:21:30Z</time>
      </trkpt>
      <trkpt lat="49.10437" lon="1.19003">
        <ele>118.400002</ele>
        <time>2016-12-04T09:21:32Z</time>
      </trkpt>
      <trkpt lat="49.10443" lon="1.18988">
        <ele>118.300003</ele>
        <time>2016-12-04T09:21:34Z</time>
      </trkpt>
      <trkpt lat="49.10449" lon="1.18975">
        <ele>118.099998</ele>
        <time>2016-12-04T09:21:36Z</time>
      </trkpt>
      <trkpt lat="49.10454" lon="1.1896">
        <ele>118</ele>
        <time>2016-12-04T09:21:38Z</time>
      </trkpt>
      <trkpt lat="49.10461" lon="1.18945">
        <ele>117.900002</ele>
        <time>2016-12-04T09:21:40Z</time>
      </trkpt>
      <trkpt lat="49.10466" lon="1.18933">
        <ele>117.800003</ele>
        <time>2016-12-04T09:21:42Z</time>
      </trkpt>
      <trkpt lat="49.10474" lon="1.18925">
        <ele>117.699997</ele>
        <time>2016-12-04T09:21:44Z</time>
      </trkpt>
      <trkpt lat="49.10486" lon="1.1893">
        <ele>117.5</ele>
        <time>2016-12-04T09:21:47Z</time>
      </trkpt>
      <trkpt lat="49.10496" lon="1.18942">
        <ele>117.300003</ele>
        <time>2016-12-04T09:21:50Z</time>
      </trkpt>
      <trkpt lat="49.10505" lon="1.18954">
        <ele>117.199997</ele>
        <time>2016-12-04T09:21:53Z</time>
      </trkpt>
      <trkpt lat="49.10516" lon="1.18966">
        <ele>117.199997</ele>
        <time>2016-12-04T09:21:56Z</time>
      </trkpt>
      <trkpt lat="49.10525" lon="1.18976">
        <ele>117.099998</ele>
        <time>2016-12-04T09:21:58Z</time>
      </trkpt>
      <trkpt lat="49.10535" lon="1.18989">
        <ele>117.199997</ele>
        <time>2016-12-04T09:22:01Z</time>
      </trkpt>
      <trkpt lat="49.10543" lon="1.18999">
        <ele>117.199997</ele>
        <time>2016-12-04T09:22:03Z</time>
      </trkpt>
      <trkpt lat="49.1055" lon="1.19007">
        <ele>117.300003</ele>
        <time>2016-12-04T09:22:05Z</time>
      </trkpt>
      <trkpt lat="49.10557" lon="1.19017">
        <ele>117.400002</ele>
        <time>2016-12-04T09:22:07Z</time>
      </trkpt>
      <trkpt lat="49.10565" lon="1.19026">
        <ele>117.5</ele>
        <time>2016-12-04T09:22:09Z</time>
      </trkpt>
      <trkpt lat="49.10572" lon="1.19035">
        <ele>117.699997</ele>
        <time>2016-12-04T09:22:11Z</time>
      </trkpt>
      <trkpt lat="49.1058" lon="1.19045">
        <ele>117.800003</ele>
        <time>2016-12-04T09:22:13Z</time>
      </trkpt>
      <trkpt lat="49.10587" lon="1.19054">
        <ele>117.900002</ele>
        <time>2016-12-04T09:22:15Z</time>
      </trkpt>
      <trkpt lat="49.10594" lon="1.19064">
        <ele>118</ele>
        <time>2016-12-04T09:22:17Z</time>
      </trkpt>
      <trkpt lat="49.10601" lon="1.19073">
        <ele>118.099998</ele>
        <time>2016-12-04T09:22:19Z</time>
      </trkpt>
      <trkpt lat="49.10608" lon="1.19083">
        <ele>118.199997</ele>
        <time>2016-12-04T09:22:21Z</time>
      </trkpt>
      <trkpt lat="49.10615" lon="1.19094">
        <ele>118.400002</ele>
        <time>2016-12-04T09:22:23Z</time>
      </trkpt>
      <trkpt lat="49.10622" lon="1.19104">
        <ele>118.400002</ele>
        <time>2016-12-04T09:22:25Z</time>
      </trkpt>
      <trkpt lat="49.1063" lon="1.19115">
        <ele>118.5</ele>
        <time>2016-12-04T09:22:27Z</time>
      </trkpt>
      <trkpt lat="49.10637" lon="1.19125">
        <ele>118.599998</ele>
        <time>2016-12-04T09:22:29Z</time>
      </trkpt>
      <trkpt lat="49.10645" lon="1.19134">
        <ele>118.699997</ele>
        <time>2016-12-04T09:22:31Z</time>
      </trkpt>
      <trkpt lat="49.10652" lon="1.19145">
        <ele>118.699997</ele>
        <time>2016-12-04T09:22:33Z</time>
      </trkpt>
      <trkpt lat="49.10659" lon="1.19156">
        <ele>118.800003</ele>
        <time>2016-12-04T09:22:35Z</time>
      </trkpt>
      <trkpt lat="49.10667" lon="1.19167">
        <ele>118.900002</ele>
        <time>2016-12-04T09:22:37Z</time>
      </trkpt>
      <trkpt lat="49.10675" lon="1.19178">
        <ele>118.900002</ele>
        <time>2016-12-04T09:22:39Z</time>
      </trkpt>
      <trkpt lat="49.10684" lon="1.19189">
        <ele>119</ele>
        <time>2016-12-04T09:22:41Z</time>
      </trkpt>
      <trkpt lat="49.10693" lon="1.192">
        <ele>119</ele>
        <time>2016-12-04T09:22:43Z</time>
      </trkpt>
      <trkpt lat="49.10702" lon="1.19211">
        <ele>119</ele>
        <time>2016-12-04T09:22:45Z</time>
      </trkpt>
      <trkpt lat="49.10711" lon="1.19221">
        <ele>118.900002</ele>
        <time>2016-12-04T09:22:47Z</time>
      </trkpt>
      <trkpt lat="49.1072" lon="1.19233">
        <ele>118.800003</ele>
        <time>2016-12-04T09:22:49Z</time>
      </trkpt>
      <trkpt lat="49.10729" lon="1.19244">
        <ele>118.699997</ele>
        <time>2016-12-04T09:22:51Z</time>
      </trkpt>
      <trkpt lat="49.10737" lon="1.19256">
        <ele>118.699997</ele>
        <time>2016-12-04T09:22:53Z</time>
      </trkpt>
      <trkpt lat="49.10745" lon="1.19267">
        <ele>118.599998</ele>
        <time>2016-12-04T09:22:55Z</time>
      </trkpt>
      <trkpt lat="49.10753" lon="1.19278">
        <ele>118.5</ele>
        <time>2016-12-04T09:22:57Z</time>
      </trkpt>
      <trkpt lat="49.10757" lon="1.19291">
        <ele>118.300003</ele>
        <time>2016-12-04T09:22:59Z</time>
      </trkpt>
      <trkpt lat="49.10753" lon="1.1931">
        <ele>118.099998</ele>
        <time>2016-12-04T09:23:02Z</time>
      </trkpt>
      <trkpt lat="49.10751" lon="1.19327">
        <ele>117.900002</ele>
        <time>2016-12-04T09:23:05Z</time>
      </trkpt>
      <trkpt lat="49.10747" lon="1.19341">
        <ele>117.599998</ele>
        <time>2016-12-04T09:23:08Z</time>
      </trkpt>
      <trkpt lat="49.10744" lon="1.19355">
        <ele>117.199997</ele>
        <time>2016-12-04T09:23:11Z</time>
      </trkpt>
      <trkpt lat="49.10738" lon="1.19365">
        <ele>114.699997</ele>
        <time>2016-12-04T09:24:40Z</time>
      </trkpt>
      <trkpt lat="49.10732" lon="1.19377">
        <ele>114.099998</ele>
        <time>2016-12-04T09:31:18Z</time>
      </trkpt>
      <trkpt lat="49.10728" lon="1.19391">
        <ele>114.099998</ele>
        <time>2016-12-04T09:31:21Z</time>
      </trkpt>
      <trkpt lat="49.10723" lon="1.19406">
        <ele>114</ele>
        <time>2016-12-04T09:31:24Z</time>
      </trkpt>
      <trkpt lat="49.10719" lon="1.19422">
        <ele>114</ele>
        <time>2016-12-04T09:31:27Z</time>
      </trkpt>
      <trkpt lat="49.10714" lon="1.19437">
        <ele>114</ele>
        <time>2016-12-04T09:31:30Z</time>
      </trkpt>
      <trkpt lat="49.10708" lon="1.19453">
        <ele>114</ele>
        <time>2016-12-04T09:31:33Z</time>
      </trkpt>
      <trkpt lat="49.10704" lon="1.1947">
        <ele>114</ele>
        <time>2016-12-04T09:31:36Z</time>
      </trkpt>
      <trkpt lat="49.10699" lon="1.19487">
        <ele>114</ele>
        <time>2016-12-04T09:31:39Z</time>
      </trkpt>
      <trkpt lat="49.10694" lon="1.19504">
        <ele>114</ele>
        <time>2016-12-04T09:31:42Z</time>
      </trkpt>
      <trkpt lat="49.1069" lon="1.19522">
        <ele>114</ele>
        <time>2016-12-04T09:31:45Z</time>
      </trkpt>
      <trkpt lat="49.10686" lon="1.19541">
        <ele>114</ele>
        <time>2016-12-04T09:31:48Z</time>
      </trkpt>
      <trkpt lat="49.10681" lon="1.1956">
        <ele>114.099998</ele>
        <time>2016-12-04T09:31:51Z</time>
      </trkpt>
      <trkpt lat="49.10677" lon="1.19578">
        <ele>114.199997</ele>
        <time>2016-12-04T09:31:54Z</time>
      </trkpt>
      <trkpt lat="49.10674" lon="1.19591">
        <ele>114.300003</ele>
        <time>2016-12-04T09:31:56Z</time>
      </trkpt>
      <trkpt lat="49.10669" lon="1.19608">
        <ele>114.300003</ele>
        <time>2016-12-04T09:31:59Z</time>
      </trkpt>
      <trkpt lat="49.10666" lon="1.19624">
        <ele>114.300003</ele>
        <time>2016-12-04T09:32:02Z</time>
      </trkpt>
      <trkpt lat="49.10664" lon="1.19642">
        <ele>114.400002</ele>
        <time>2016-12-04T09:32:05Z</time>
      </trkpt>
      <trkpt lat="49.10663" lon="1.1966">
        <ele>114.599998</ele>
        <time>2016-12-04T09:32:08Z</time>
      </trkpt>
      <trkpt lat="49.10663" lon="1.1968">
        <ele>114.599998</ele>
        <time>2016-12-04T09:32:11Z</time>
      </trkpt>
      <trkpt lat="49.10663" lon="1.19694">
        <ele>114.599998</ele>
        <time>2016-12-04T09:32:13Z</time>
      </trkpt>
      <trkpt lat="49.10664" lon="1.19712">
        <ele>114.699997</ele>
        <time>2016-12-04T09:32:16Z</time>
      </trkpt>
      <trkpt lat="49.10664" lon="1.19726">
        <ele>114.800003</ele>
        <time>2016-12-04T09:32:18Z</time>
      </trkpt>
      <trkpt lat="49.10666" lon="1.1974">
        <ele>114.900002</ele>
        <time>2016-12-04T09:32:20Z</time>
      </trkpt>
      <trkpt lat="49.10668" lon="1.19754">
        <ele>114.900002</ele>
        <time>2016-12-04T09:32:22Z</time>
      </trkpt>
      <trkpt lat="49.10671" lon="1.19768">
        <ele>114.900002</ele>
        <time>2016-12-04T09:32:24Z</time>
      </trkpt>
      <trkpt lat="49.10672" lon="1.19784">
        <ele>115</ele>
        <time>2016-12-04T09:32:26Z</time>
      </trkpt>
      <trkpt lat="49.10673" lon="1.19798">
        <ele>115</ele>
        <time>2016-12-04T09:32:28Z</time>
      </trkpt>
      <trkpt lat="49.1067" lon="1.19816">
        <ele>114.900002</ele>
        <time>2016-12-04T09:32:31Z</time>
      </trkpt>
      <trkpt lat="49.10666" lon="1.19833">
        <ele>114.800003</ele>
        <time>2016-12-04T09:32:34Z</time>
      </trkpt>
      <trkpt lat="49.10663" lon="1.19847">
        <ele>114.800003</ele>
        <time>2016-12-04T09:32:36Z</time>
      </trkpt>
      <trkpt lat="49.1066" lon="1.1986">
        <ele>114.699997</ele>
        <time>2016-12-04T09:32:38Z</time>
      </trkpt>
      <trkpt lat="49.10657" lon="1.19873">
        <ele>114.699997</ele>
        <time>2016-12-04T09:32:40Z</time>
      </trkpt>
      <trkpt lat="49.10654" lon="1.19886">
        <ele>114.599998</ele>
        <time>2016-12-04T09:32:42Z</time>
      </trkpt>
      <trkpt lat="49.10649" lon="1.19898">
        <ele>114.5</ele>
        <time>2016-12-04T09:32:44Z</time>
      </trkpt>
      <trkpt lat="49.10644" lon="1.19911">
        <ele>114.400002</ele>
        <time>2016-12-04T09:32:46Z</time>
      </trkpt>
      <trkpt lat="49.10637" lon="1.19924">
        <ele>114.400002</ele>
        <time>2016-12-04T09:32:48Z</time>
      </trkpt>
      <trkpt lat="49.10631" lon="1.19936">
        <ele>114.199997</ele>
        <time>2016-12-04T09:32:50Z</time>
      </trkpt>
      <trkpt lat="49.10624" lon="1.19949">
        <ele>114</ele>
        <time>2016-12-04T09:32:52Z</time>
      </trkpt>
      <trkpt lat="49.10617" lon="1.19961">
        <ele>113.800003</ele>
        <time>2016-12-04T09:32:54Z</time>
      </trkpt>
      <trkpt lat="49.1061" lon="1.19972">
        <ele>113.699997</ele>
        <time>2016-12-04T09:32:56Z</time>
      </trkpt>
      <trkpt lat="49.10604" lon="1.19982">
        <ele>113.5</ele>
        <time>2016-12-04T09:32:58Z</time>
      </trkpt>
      <trkpt lat="49.10597" lon="1.19992">
        <ele>113.5</ele>
        <time>2016-12-04T09:33:00Z</time>
      </trkpt>
      <trkpt lat="49.10587" lon="1.20006">
        <ele>113.400002</ele>
        <time>2016-12-04T09:33:03Z</time>
      </trkpt>
      <trkpt lat="49.1058" lon="1.20015">
        <ele>113.5</ele>
        <time>2016-12-04T09:33:05Z</time>
      </trkpt>
      <trkpt lat="49.10573" lon="1.20024">
        <ele>113.5</ele>
        <time>2016-12-04T09:33:07Z</time>
      </trkpt>
      <trkpt lat="49.10566" lon="1.20033">
        <ele>113.5</ele>
        <time>2016-12-04T09:33:09Z</time>
      </trkpt>
      <trkpt lat="49.10558" lon="1.20042">
        <ele>113.5</ele>
        <time>2016-12-04T09:33:11Z</time>
      </trkpt>
      <trkpt lat="49.10551" lon="1.20051">
        <ele>113.599998</ele>
        <time>2016-12-04T09:33:13Z</time>
      </trkpt>
      <trkpt lat="49.10543" lon="1.20059">
        <ele>113.699997</ele>
        <time>2016-12-04T09:33:15Z</time>
      </trkpt>
      <trkpt lat="49.10534" lon="1.20068">
        <ele>113.800003</ele>
        <time>2016-12-04T09:33:17Z</time>
      </trkpt>
      <trkpt lat="49.10527" lon="1.20077">
        <ele>113.900002</ele>
        <time>2016-12-04T09:33:19Z</time>
      </trkpt>
      <trkpt lat="49.10519" lon="1.20085">
        <ele>113.900002</ele>
        <time>2016-12-04T09:33:21Z</time>
      </trkpt>
      <trkpt lat="49.1051" lon="1.20092">
        <ele>114.099998</ele>
        <time>2016-12-04T09:33:23Z</time>
      </trkpt>
      <trkpt lat="49.10502" lon="1.20099">
        <ele>114.199997</ele>
        <time>2016-12-04T09:33:25Z</time>
      </trkpt>
      <trkpt lat="49.10492" lon="1.20104">
        <ele>114.300003</ele>
        <time>2016-12-04T09:33:27Z</time>
      </trkpt>
      <trkpt lat="49.10483" lon="1.20109">
        <ele>114.400002</ele>
        <time>2016-12-04T09:33:29Z</time>
      </trkpt>
      <trkpt lat="49.10474" lon="1.20113">
        <ele>114.699997</ele>
        <time>2016-12-04T09:33:31Z</time>
      </trkpt>
      <trkpt lat="49.10464" lon="1.20116">
        <ele>114.900002</ele>
        <time>2016-12-04T09:33:33Z</time>
      </trkpt>
      <trkpt lat="49.10455" lon="1.20118">
        <ele>115.099998</ele>
        <time>2016-12-04T09:33:35Z</time>
      </trkpt>
      <trkpt lat="49.10446" lon="1.2012">
        <ele>115.199997</ele>
        <time>2016-12-04T09:33:37Z</time>
      </trkpt>
      <trkpt lat="49.10437" lon="1.20123">
        <ele>115.400002</ele>
        <time>2016-12-04T09:33:39Z</time>
      </trkpt>
      <trkpt lat="49.10428" lon="1.20125">
        <ele>115.5</ele>
        <time>2016-12-04T09:33:41Z</time>
      </trkpt>
      <trkpt lat="49.10419" lon="1.20128">
        <ele>115.599998</ele>
        <time>2016-12-04T09:33:43Z</time>
      </trkpt>
      <trkpt lat="49.1041" lon="1.2013">
        <ele>115.699997</ele>
        <time>2016-12-04T09:33:45Z</time>
      </trkpt>
      <trkpt lat="49.10401" lon="1.20132">
        <ele>115.800003</ele>
        <time>2016-12-04T09:33:47Z</time>
      </trkpt>
      <trkpt lat="49.10392" lon="1.20133">
        <ele>115.900002</ele>
        <time>2016-12-04T09:33:49Z</time>
      </trkpt>
      <trkpt lat="49.10382" lon="1.20135">
        <ele>116</ele>
        <time>2016-12-04T09:33:51Z</time>
      </trkpt>
      <trkpt lat="49.10372" lon="1.20138">
        <ele>116</ele>
        <time>2016-12-04T09:33:53Z</time>
      </trkpt>
      <trkpt lat="49.10362" lon="1.20141">
        <ele>116.099998</ele>
        <time>2016-12-04T09:33:55Z</time>
      </trkpt>
      <trkpt lat="49.10352" lon="1.20143">
        <ele>116.099998</ele>
        <time>2016-12-04T09:33:57Z</time>
      </trkpt>
      <trkpt lat="49.10342" lon="1.20147">
        <ele>116.199997</ele>
        <time>2016-12-04T09:33:59Z</time>
      </trkpt>
      <trkpt lat="49.10332" lon="1.2015">
        <ele>116.300003</ele>
        <time>2016-12-04T09:34:01Z</time>
      </trkpt>
      <trkpt lat="49.10322" lon="1.20153">
        <ele>116.300003</ele>
        <time>2016-12-04T09:34:03Z</time>
      </trkpt>
      <trkpt lat="49.10313" lon="1.20157">
        <ele>116.300003</ele>
        <time>2016-12-04T09:34:05Z</time>
      </trkpt>
      <trkpt lat="49.10303" lon="1.2016">
        <ele>116.400002</ele>
        <time>2016-12-04T09:34:07Z</time>
      </trkpt>
      <trkpt lat="49.10294" lon="1.20162">
        <ele>116.400002</ele>
        <time>2016-12-04T09:34:09Z</time>
      </trkpt>
      <trkpt lat="49.10285" lon="1.20166">
        <ele>116.400002</ele>
        <time>2016-12-04T09:34:11Z</time>
      </trkpt>
      <trkpt lat="49.10275" lon="1.2017">
        <ele>116.5</ele>
        <time>2016-12-04T09:34:13Z</time>
      </trkpt>
      <trkpt lat="49.10265" lon="1.20173">
        <ele>116.5</ele>
        <time>2016-12-04T09:34:15Z</time>
      </trkpt>
      <trkpt lat="49.10256" lon="1.20177">
        <ele>116.599998</ele>
        <time>2016-12-04T09:34:17Z</time>
      </trkpt>
      <trkpt lat="49.10246" lon="1.2018">
        <ele>116.599998</ele>
        <time>2016-12-04T09:34:19Z</time>
      </trkpt>
      <trkpt lat="49.10237" lon="1.20184">
        <ele>116.699997</ele>
        <time>2016-12-04T09:34:21Z</time>
      </trkpt>
      <trkpt lat="49.10227" lon="1.20188">
        <ele>116.699997</ele>
        <time>2016-12-04T09:34:23Z</time>
      </trkpt>
      <trkpt lat="49.10218" lon="1.20193">
        <ele>116.699997</ele>
        <time>2016-12-04T09:34:25Z</time>
      </trkpt>
      <trkpt lat="49.10208" lon="1.20196">
        <ele>116.800003</ele>
        <time>2016-12-04T09:34:27Z</time>
      </trkpt>
      <trkpt lat="49.10199" lon="1.20202">
        <ele>116.800003</ele>
        <time>2016-12-04T09:34:29Z</time>
      </trkpt>
      <trkpt lat="49.1019" lon="1.20207">
        <ele>116.800003</ele>
        <time>2016-12-04T09:34:31Z</time>
      </trkpt>
      <trkpt lat="49.10181" lon="1.20212">
        <ele>116.900002</ele>
        <time>2016-12-04T09:34:33Z</time>
      </trkpt>
      <trkpt lat="49.10172" lon="1.20219">
        <ele>116.900002</ele>
        <time>2016-12-04T09:34:35Z</time>
      </trkpt>
      <trkpt lat="49.10163" lon="1.20225">
        <ele>117</ele>
        <time>2016-12-04T09:34:37Z</time>
      </trkpt>
      <trkpt lat="49.10155" lon="1.20232">
        <ele>117</ele>
        <time>2016-12-04T09:34:39Z</time>
      </trkpt>
      <trkpt lat="49.10146" lon="1.20239">
        <ele>117</ele>
        <time>2016-12-04T09:34:41Z</time>
      </trkpt>
      <trkpt lat="49.10137" lon="1.20246">
        <ele>117</ele>
        <time>2016-12-04T09:34:43Z</time>
      </trkpt>
      <trkpt lat="49.10129" lon="1.20253">
        <ele>117</ele>
        <time>2016-12-04T09:34:45Z</time>
      </trkpt>
      <trkpt lat="49.1012" lon="1.2026">
        <ele>117</ele>
        <time>2016-12-04T09:34:47Z</time>
      </trkpt>
      <trkpt lat="49.10111" lon="1.20268">
        <ele>117</ele>
        <time>2016-12-04T09:34:49Z</time>
      </trkpt>
      <trkpt lat="49.10103" lon="1.20276">
        <ele>117</ele>
        <time>2016-12-04T09:34:51Z</time>
      </trkpt>
      <trkpt lat="49.10095" lon="1.20283">
        <ele>117</ele>
        <time>2016-12-04T09:34:53Z</time>
      </trkpt>
      <trkpt lat="49.10087" lon="1.20291">
        <ele>117</ele>
        <time>2016-12-04T09:34:55Z</time>
      </trkpt>
      <trkpt lat="49.10079" lon="1.20298">
        <ele>117</ele>
        <time>2016-12-04T09:34:57Z</time>
      </trkpt>
      <trkpt lat="49.10071" lon="1.20305">
        <ele>117.099998</ele>
        <time>2016-12-04T09:34:59Z</time>
      </trkpt>
      <trkpt lat="49.10059" lon="1.20316">
        <ele>117.099998</ele>
        <time>2016-12-04T09:35:02Z</time>
      </trkpt>
      <trkpt lat="49.10048" lon="1.20327">
        <ele>117.199997</ele>
        <time>2016-12-04T09:35:05Z</time>
      </trkpt>
      <trkpt lat="49.10036" lon="1.20327">
        <ele>117.300003</ele>
        <time>2016-12-04T09:35:08Z</time>
      </trkpt>
      <trkpt lat="49.10026" lon="1.2032">
        <ele>117.400002</ele>
        <time>2016-12-04T09:35:11Z</time>
      </trkpt>
      <trkpt lat="49.10015" lon="1.20312">
        <ele>117.5</ele>
        <time>2016-12-04T09:35:14Z</time>
      </trkpt>
      <trkpt lat="49.10004" lon="1.20302">
        <ele>117.599998</ele>
        <time>2016-12-04T09:35:17Z</time>
      </trkpt>
      <trkpt lat="49.09994" lon="1.20293">
        <ele>117.800003</ele>
        <time>2016-12-04T09:35:20Z</time>
      </trkpt>
      <trkpt lat="49.09983" lon="1.20283">
        <ele>118</ele>
        <time>2016-12-04T09:35:23Z</time>
      </trkpt>
      <trkpt lat="49.09973" lon="1.20273">
        <ele>118.300003</ele>
        <time>2016-12-04T09:35:26Z</time>
      </trkpt>
      <trkpt lat="49.09962" lon="1.20262">
        <ele>118.599998</ele>
        <time>2016-12-04T09:35:29Z</time>
      </trkpt>
      <trkpt lat="49.09951" lon="1.20251">
        <ele>118.800003</ele>
        <time>2016-12-04T09:35:32Z</time>
      </trkpt>
      <trkpt lat="49.09941" lon="1.20239">
        <ele>119</ele>
        <time>2016-12-04T09:35:35Z</time>
      </trkpt>
      <trkpt lat="49.09931" lon="1.20227">
        <ele>119.300003</ele>
        <time>2016-12-04T09:35:38Z</time>
      </trkpt>
      <trkpt lat="49.09921" lon="1.20214">
        <ele>119.699997</ele>
        <time>2016-12-04T09:35:41Z</time>
      </trkpt>
      <trkpt lat="49.09911" lon="1.20201">
        <ele>120</ele>
        <time>2016-12-04T09:35:44Z</time>
      </trkpt>
      <trkpt lat="49.09901" lon="1.20188">
        <ele>120.400002</ele>
        <time>2016-12-04T09:35:47Z</time>
      </trkpt>
      <trkpt lat="49.09891" lon="1.20175">
        <ele>120.699997</ele>
        <time>2016-12-04T09:35:50Z</time>
      </trkpt>
      <trkpt lat="49.09881" lon="1.20162">
        <ele>121</ele>
        <time>2016-12-04T09:35:53Z</time>
      </trkpt>
      <trkpt lat="49.09875" lon="1.20152">
        <ele>121.199997</ele>
        <time>2016-12-04T09:35:55Z</time>
      </trkpt>
      <trkpt lat="49.09865" lon="1.20138">
        <ele>121.599998</ele>
        <time>2016-12-04T09:35:58Z</time>
      </trkpt>
      <trkpt lat="49.09859" lon="1.20128">
        <ele>121.800003</ele>
        <time>2016-12-04T09:36:00Z</time>
      </trkpt>
      <trkpt lat="49.09849" lon="1.20114">
        <ele>122.199997</ele>
        <time>2016-12-04T09:36:03Z</time>
      </trkpt>
      <trkpt lat="49.09843" lon="1.20104">
        <ele>122.5</ele>
        <time>2016-12-04T09:36:05Z</time>
      </trkpt>
      <trkpt lat="49.09836" lon="1.20094">
        <ele>122.699997</ele>
        <time>2016-12-04T09:36:07Z</time>
      </trkpt>
      <trkpt lat="49.09827" lon="1.20079">
        <ele>123.099998</ele>
        <time>2016-12-04T09:36:10Z</time>
      </trkpt>
      <trkpt lat="49.09818" lon="1.20064">
        <ele>123.5</ele>
        <time>2016-12-04T09:36:13Z</time>
      </trkpt>
      <trkpt lat="49.0981" lon="1.20049">
        <ele>123.800003</ele>
        <time>2016-12-04T09:36:16Z</time>
      </trkpt>
      <trkpt lat="49.09801" lon="1.20033">
        <ele>124.300003</ele>
        <time>2016-12-04T09:36:19Z</time>
      </trkpt>
      <trkpt lat="49.09792" lon="1.20018">
        <ele>124.699997</ele>
        <time>2016-12-04T09:36:22Z</time>
      </trkpt>
      <trkpt lat="49.09786" lon="1.20007">
        <ele>125.099998</ele>
        <time>2016-12-04T09:36:24Z</time>
      </trkpt>
      <trkpt lat="49.0978" lon="1.19997">
        <ele>125.5</ele>
        <time>2016-12-04T09:36:26Z</time>
      </trkpt>
      <trkpt lat="49.09773" lon="1.19985">
        <ele>125.900002</ele>
        <time>2016-12-04T09:36:28Z</time>
      </trkpt>
      <trkpt lat="49.09765" lon="1.1997">
        <ele>126.5</ele>
        <time>2016-12-04T09:36:31Z</time>
      </trkpt>
      <trkpt lat="49.09756" lon="1.19955">
        <ele>127</ele>
        <time>2016-12-04T09:36:34Z</time>
      </trkpt>
      <trkpt lat="49.0975" lon="1.19945">
        <ele>127.300003</ele>
        <time>2016-12-04T09:36:36Z</time>
      </trkpt>
      <trkpt lat="49.09744" lon="1.19934">
        <ele>127.599998</ele>
        <time>2016-12-04T09:36:38Z</time>
      </trkpt>
      <trkpt lat="49.09738" lon="1.19924">
        <ele>127.800003</ele>
        <time>2016-12-04T09:36:40Z</time>
      </trkpt>
      <trkpt lat="49.09731" lon="1.19914">
        <ele>128.199997</ele>
        <time>2016-12-04T09:36:42Z</time>
      </trkpt>
      <trkpt lat="49.09722" lon="1.19899">
        <ele>128.699997</ele>
        <time>2016-12-04T09:36:45Z</time>
      </trkpt>
      <trkpt lat="49.09716" lon="1.19889">
        <ele>129</ele>
        <time>2016-12-04T09:36:47Z</time>
      </trkpt>
      <trkpt lat="49.09706" lon="1.19875">
        <ele>129.399994</ele>
        <time>2016-12-04T09:36:50Z</time>
      </trkpt>
      <trkpt lat="49.09699" lon="1.19866">
        <ele>129.699997</ele>
        <time>2016-12-04T09:36:52Z</time>
      </trkpt>
      <trkpt lat="49.09691" lon="1.19856">
        <ele>130</ele>
        <time>2016-12-04T09:36:54Z</time>
      </trkpt>
      <trkpt lat="49.09682" lon="1.19846">
        <ele>130.199997</ele>
        <time>2016-12-04T09:36:56Z</time>
      </trkpt>
      <trkpt lat="49.0967" lon="1.19835">
        <ele>130.5</ele>
        <time>2016-12-04T09:36:59Z</time>
      </trkpt>
      <trkpt lat="49.0966" lon="1.19824">
        <ele>130.699997</ele>
        <time>2016-12-04T09:37:02Z</time>
      </trkpt>
      <trkpt lat="49.0965" lon="1.19814">
        <ele>130.899994</ele>
        <time>2016-12-04T09:37:05Z</time>
      </trkpt>
      <trkpt lat="49.09639" lon="1.19807">
        <ele>131.100006</ele>
        <time>2016-12-04T09:37:08Z</time>
      </trkpt>
      <trkpt lat="49.09629" lon="1.19799">
        <ele>131.199997</ele>
        <time>2016-12-04T09:37:11Z</time>
      </trkpt>
      <trkpt lat="49.09617" lon="1.19792">
        <ele>131.300003</ele>
        <time>2016-12-04T09:37:14Z</time>
      </trkpt>
      <trkpt lat="49.09605" lon="1.19785">
        <ele>131.399994</ele>
        <time>2016-12-04T09:37:17Z</time>
      </trkpt>
      <trkpt lat="49.09593" lon="1.19777">
        <ele>131.5</ele>
        <time>2016-12-04T09:37:20Z</time>
      </trkpt>
      <trkpt lat="49.09585" lon="1.19769">
        <ele>131.600006</ele>
        <time>2016-12-04T09:37:22Z</time>
      </trkpt>
      <trkpt lat="49.09576" lon="1.19761">
        <ele>131.600006</ele>
        <time>2016-12-04T09:37:24Z</time>
      </trkpt>
      <trkpt lat="49.09568" lon="1.19752">
        <ele>131.600006</ele>
        <time>2016-12-04T09:37:26Z</time>
      </trkpt>
      <trkpt lat="49.0956" lon="1.19742">
        <ele>131.600006</ele>
        <time>2016-12-04T09:37:28Z</time>
      </trkpt>
      <trkpt lat="49.09549" lon="1.1973">
        <ele>131.5</ele>
        <time>2016-12-04T09:37:31Z</time>
      </trkpt>
      <trkpt lat="49.09539" lon="1.19719">
        <ele>131.300003</ele>
        <time>2016-12-04T09:37:34Z</time>
      </trkpt>
      <trkpt lat="49.09531" lon="1.19711">
        <ele>131.100006</ele>
        <time>2016-12-04T09:37:36Z</time>
      </trkpt>
      <trkpt lat="49.09518" lon="1.19703">
        <ele>130.800003</ele>
        <time>2016-12-04T09:37:39Z</time>
      </trkpt>
      <trkpt lat="49.09507" lon="1.19697">
        <ele>130.5</ele>
        <time>2016-12-04T09:37:42Z</time>
      </trkpt>
      <trkpt lat="49.095" lon="1.19686">
        <ele>129.5</ele>
        <time>2016-12-04T09:37:51Z</time>
      </trkpt>
      <trkpt lat="49.09493" lon="1.19675">
        <ele>128.899994</ele>
        <time>2016-12-04T09:37:58Z</time>
      </trkpt>
      <trkpt lat="49.09487" lon="1.19661">
        <ele>128.5</ele>
        <time>2016-12-04T09:38:04Z</time>
      </trkpt>
      <trkpt lat="49.09487" lon="1.19646">
        <ele>128.399994</ele>
        <time>2016-12-04T09:38:08Z</time>
      </trkpt>
      <trkpt lat="49.09494" lon="1.19636">
        <ele>128.300003</ele>
        <time>2016-12-04T09:38:11Z</time>
      </trkpt>
      <trkpt lat="49.09498" lon="1.19624">
        <ele>128.199997</ele>
        <time>2016-12-04T09:38:14Z</time>
      </trkpt>
      <trkpt lat="49.09501" lon="1.19609">
        <ele>128.199997</ele>
        <time>2016-12-04T09:38:17Z</time>
      </trkpt>
      <trkpt lat="49.09504" lon="1.19593">
        <ele>128.100006</ele>
        <time>2016-12-04T09:38:20Z</time>
      </trkpt>
      <trkpt lat="49.09509" lon="1.19578">
        <ele>128.100006</ele>
        <time>2016-12-04T09:38:23Z</time>
      </trkpt>
      <trkpt lat="49.09513" lon="1.19564">
        <ele>128</ele>
        <time>2016-12-04T09:38:26Z</time>
      </trkpt>
      <trkpt lat="49.09515" lon="1.1955">
        <ele>128</ele>
        <time>2016-12-04T09:38:29Z</time>
      </trkpt>
      <trkpt lat="49.09518" lon="1.19535">
        <ele>128</ele>
        <time>2016-12-04T09:38:32Z</time>
      </trkpt>
      <trkpt lat="49.09526" lon="1.19522">
        <ele>127.900002</ele>
        <time>2016-12-04T09:38:35Z</time>
      </trkpt>
      <trkpt lat="49.09533" lon="1.19509">
        <ele>128</ele>
        <time>2016-12-04T09:38:38Z</time>
      </trkpt>
      <trkpt lat="49.09541" lon="1.19496">
        <ele>128</ele>
        <time>2016-12-04T09:38:41Z</time>
      </trkpt>
      <trkpt lat="49.0955" lon="1.19484">
        <ele>128.100006</ele>
        <time>2016-12-04T09:38:44Z</time>
      </trkpt>
      <trkpt lat="49.09558" lon="1.19472">
        <ele>128.100006</ele>
        <time>2016-12-04T09:38:47Z</time>
      </trkpt>
      <trkpt lat="49.09567" lon="1.19462">
        <ele>128.199997</ele>
        <time>2016-12-04T09:38:50Z</time>
      </trkpt>
      <trkpt lat="49.09576" lon="1.1945">
        <ele>128.300003</ele>
        <time>2016-12-04T09:38:53Z</time>
      </trkpt>
      <trkpt lat="49.09585" lon="1.19442">
        <ele>128.399994</ele>
        <time>2016-12-04T09:38:56Z</time>
      </trkpt>
      <trkpt lat="49.09595" lon="1.19437">
        <ele>128.600006</ele>
        <time>2016-12-04T09:38:59Z</time>
      </trkpt>
      <trkpt lat="49.09605" lon="1.19435">
        <ele>128.800003</ele>
        <time>2016-12-04T09:39:02Z</time>
      </trkpt>
      <trkpt lat="49.09615" lon="1.19434">
        <ele>129</ele>
        <time>2016-12-04T09:39:05Z</time>
      </trkpt>
      <trkpt lat="49.09624" lon="1.1944">
        <ele>129.100006</ele>
        <time>2016-12-04T09:39:08Z</time>
      </trkpt>
      <trkpt lat="49.09636" lon="1.19442">
        <ele>129.300003</ele>
        <time>2016-12-04T09:39:12Z</time>
      </trkpt>
      <trkpt lat="49.09645" lon="1.1943">
        <ele>129.5</ele>
        <time>2016-12-04T09:39:16Z</time>
      </trkpt>
      <trkpt lat="49.09651" lon="1.19416">
        <ele>129.600006</ele>
        <time>2016-12-04T09:39:19Z</time>
      </trkpt>
      <trkpt lat="49.09657" lon="1.194">
        <ele>129.800003</ele>
        <time>2016-12-04T09:39:22Z</time>
      </trkpt>
      <trkpt lat="49.09664" lon="1.19385">
        <ele>129.899994</ele>
        <time>2016-12-04T09:39:25Z</time>
      </trkpt>
      <trkpt lat="49.09671" lon="1.19369">
        <ele>130</ele>
        <time>2016-12-04T09:39:28Z</time>
      </trkpt>
      <trkpt lat="49.09676" lon="1.19355">
        <ele>130</ele>
        <time>2016-12-04T09:39:32Z</time>
      </trkpt>
      <trkpt lat="49.09675" lon="1.19341">
        <ele>130</ele>
        <time>2016-12-04T09:39:39Z</time>
      </trkpt>
      <trkpt lat="49.09666" lon="1.1934">
        <ele>129.899994</ele>
        <time>2016-12-04T09:39:44Z</time>
      </trkpt>
      <trkpt lat="49.09654" lon="1.19339">
        <ele>129.899994</ele>
        <time>2016-12-04T09:39:48Z</time>
      </trkpt>
      <trkpt lat="49.09644" lon="1.19338">
        <ele>129.800003</ele>
        <time>2016-12-04T09:39:51Z</time>
      </trkpt>
      <trkpt lat="49.09633" lon="1.19338">
        <ele>129.800003</ele>
        <time>2016-12-04T09:39:54Z</time>
      </trkpt>
      <trkpt lat="49.09622" lon="1.19338">
        <ele>129.800003</ele>
        <time>2016-12-04T09:39:57Z</time>
      </trkpt>
      <trkpt lat="49.09611" lon="1.19337">
        <ele>129.800003</ele>
        <time>2016-12-04T09:40:00Z</time>
      </trkpt>
      <trkpt lat="49.09601" lon="1.19335">
        <ele>129.800003</ele>
        <time>2016-12-04T09:40:03Z</time>
      </trkpt>
      <trkpt lat="49.0959" lon="1.19334">
        <ele>129.899994</ele>
        <time>2016-12-04T09:40:06Z</time>
      </trkpt>
      <trkpt lat="49.09579" lon="1.19333">
        <ele>129.899994</ele>
        <time>2016-12-04T09:40:09Z</time>
      </trkpt>
      <trkpt lat="49.09568" lon="1.19333">
        <ele>130</ele>
        <time>2016-12-04T09:40:12Z</time>
      </trkpt>
      <trkpt lat="49.09557" lon="1.19339">
        <ele>130</ele>
        <time>2016-12-04T09:40:15Z</time>
      </trkpt>
      <trkpt lat="49.09547" lon="1.19349">
        <ele>130</ele>
        <time>2016-12-04T09:40:18Z</time>
      </trkpt>
      <trkpt lat="49.09539" lon="1.19362">
        <ele>130.100006</ele>
        <time>2016-12-04T09:40:21Z</time>
      </trkpt>
      <trkpt lat="49.0953" lon="1.19374">
        <ele>130.100006</ele>
        <time>2016-12-04T09:40:24Z</time>
      </trkpt>
      <trkpt lat="49.09521" lon="1.19387">
        <ele>130.100006</ele>
        <time>2016-12-04T09:40:27Z</time>
      </trkpt>
      <trkpt lat="49.09511" lon="1.19401">
        <ele>130.100006</ele>
        <time>2016-12-04T09:40:30Z</time>
      </trkpt>
      <trkpt lat="49.09501" lon="1.19414">
        <ele>130.100006</ele>
        <time>2016-12-04T09:40:33Z</time>
      </trkpt>
      <trkpt lat="49.09494" lon="1.19424">
        <ele>130</ele>
        <time>2016-12-04T09:40:35Z</time>
      </trkpt>
      <trkpt lat="49.09486" lon="1.19434">
        <ele>129.800003</ele>
        <time>2016-12-04T09:40:37Z</time>
      </trkpt>
      <trkpt lat="49.09479" lon="1.19444">
        <ele>129.600006</ele>
        <time>2016-12-04T09:40:39Z</time>
      </trkpt>
      <trkpt lat="49.09472" lon="1.19454">
        <ele>129.399994</ele>
        <time>2016-12-04T09:40:41Z</time>
      </trkpt>
      <trkpt lat="49.09465" lon="1.19464">
        <ele>129.199997</ele>
        <time>2016-12-04T09:40:43Z</time>
      </trkpt>
      <trkpt lat="49.09457" lon="1.19474">
        <ele>129</ele>
        <time>2016-12-04T09:40:45Z</time>
      </trkpt>
      <trkpt lat="49.09449" lon="1.19485">
        <ele>128.699997</ele>
        <time>2016-12-04T09:40:47Z</time>
      </trkpt>
      <trkpt lat="49.09442" lon="1.19495">
        <ele>128.5</ele>
        <time>2016-12-04T09:40:49Z</time>
      </trkpt>
      <trkpt lat="49.09434" lon="1.19505">
        <ele>128.199997</ele>
        <time>2016-12-04T09:40:51Z</time>
      </trkpt>
      <trkpt lat="49.09426" lon="1.19515">
        <ele>128</ele>
        <time>2016-12-04T09:40:53Z</time>
      </trkpt>
      <trkpt lat="49.09419" lon="1.19526">
        <ele>127.800003</ele>
        <time>2016-12-04T09:40:55Z</time>
      </trkpt>
      <trkpt lat="49.09411" lon="1.19536">
        <ele>127.5</ele>
        <time>2016-12-04T09:40:57Z</time>
      </trkpt>
      <trkpt lat="49.09404" lon="1.19546">
        <ele>127.199997</ele>
        <time>2016-12-04T09:40:59Z</time>
      </trkpt>
      <trkpt lat="49.09396" lon="1.19556">
        <ele>126.900002</ele>
        <time>2016-12-04T09:41:01Z</time>
      </trkpt>
      <trkpt lat="49.09389" lon="1.19566">
        <ele>126.699997</ele>
        <time>2016-12-04T09:41:03Z</time>
      </trkpt>
      <trkpt lat="49.09381" lon="1.19577">
        <ele>126.400002</ele>
        <time>2016-12-04T09:41:05Z</time>
      </trkpt>
      <trkpt lat="49.09374" lon="1.19587">
        <ele>126.199997</ele>
        <time>2016-12-04T09:41:07Z</time>
      </trkpt>
      <trkpt lat="49.09366" lon="1.19597">
        <ele>126</ele>
        <time>2016-12-04T09:41:09Z</time>
      </trkpt>
      <trkpt lat="49.09359" lon="1.19608">
        <ele>125.900002</ele>
        <time>2016-12-04T09:41:11Z</time>
      </trkpt>
      <trkpt lat="49.09351" lon="1.19619">
        <ele>125.699997</ele>
        <time>2016-12-04T09:41:13Z</time>
      </trkpt>
      <trkpt lat="49.09343" lon="1.19629">
        <ele>125.599998</ele>
        <time>2016-12-04T09:41:15Z</time>
      </trkpt>
      <trkpt lat="49.09335" lon="1.19641">
        <ele>125.400002</ele>
        <time>2016-12-04T09:41:17Z</time>
      </trkpt>
      <trkpt lat="49.09327" lon="1.19652">
        <ele>125.300003</ele>
        <time>2016-12-04T09:41:19Z</time>
      </trkpt>
      <trkpt lat="49.09319" lon="1.19663">
        <ele>125.300003</ele>
        <time>2016-12-04T09:41:21Z</time>
      </trkpt>
      <trkpt lat="49.09311" lon="1.19673">
        <ele>125.099998</ele>
        <time>2016-12-04T09:41:23Z</time>
      </trkpt>
      <trkpt lat="49.09303" lon="1.19684">
        <ele>125</ele>
        <time>2016-12-04T09:41:25Z</time>
      </trkpt>
      <trkpt lat="49.09296" lon="1.19695">
        <ele>124.900002</ele>
        <time>2016-12-04T09:41:27Z</time>
      </trkpt>
      <trkpt lat="49.09288" lon="1.19705">
        <ele>124.699997</ele>
        <time>2016-12-04T09:41:29Z</time>
      </trkpt>
      <trkpt lat="49.09281" lon="1.19715">
        <ele>124.599998</ele>
        <time>2016-12-04T09:41:31Z</time>
      </trkpt>
      <trkpt lat="49.09271" lon="1.19728">
        <ele>124.300003</ele>
        <time>2016-12-04T09:41:34Z</time>
      </trkpt>
      <trkpt lat="49.09263" lon="1.19732">
        <ele>124</ele>
        <time>2016-12-04T09:41:37Z</time>
      </trkpt>
      <trkpt lat="49.09254" lon="1.19722">
        <ele>123.800003</ele>
        <time>2016-12-04T09:41:40Z</time>
      </trkpt>
      <trkpt lat="49.09246" lon="1.19709">
        <ele>123.5</ele>
        <time>2016-12-04T09:41:43Z</time>
      </trkpt>
      <trkpt lat="49.09238" lon="1.19695">
        <ele>123.300003</ele>
        <time>2016-12-04T09:41:46Z</time>
      </trkpt>
      <trkpt lat="49.0923" lon="1.1968">
        <ele>123.099998</ele>
        <time>2016-12-04T09:41:49Z</time>
      </trkpt>
      <trkpt lat="49.09221" lon="1.19666">
        <ele>122.800003</ele>
        <time>2016-12-04T09:41:52Z</time>
      </trkpt>
      <trkpt lat="49.09215" lon="1.19655">
        <ele>122.599998</ele>
        <time>2016-12-04T09:41:54Z</time>
      </trkpt>
      <trkpt lat="49.09205" lon="1.19641">
        <ele>122.400002</ele>
        <time>2016-12-04T09:41:57Z</time>
      </trkpt>
      <trkpt lat="49.09198" lon="1.1963">
        <ele>122.199997</ele>
        <time>2016-12-04T09:41:59Z</time>
      </trkpt>
      <trkpt lat="49.09191" lon="1.1962">
        <ele>122</ele>
        <time>2016-12-04T09:42:01Z</time>
      </trkpt>
      <trkpt lat="49.0918" lon="1.19608">
        <ele>121.699997</ele>
        <time>2016-12-04T09:42:04Z</time>
      </trkpt>
      <trkpt lat="49.09172" lon="1.196">
        <ele>121.599998</ele>
        <time>2016-12-04T09:42:06Z</time>
      </trkpt>
      <trkpt lat="49.09164" lon="1.19592">
        <ele>121.400002</ele>
        <time>2016-12-04T09:42:08Z</time>
      </trkpt>
      <trkpt lat="49.09156" lon="1.19584">
        <ele>121.199997</ele>
        <time>2016-12-04T09:42:10Z</time>
      </trkpt>
      <trkpt lat="49.09149" lon="1.19576">
        <ele>121.099998</ele>
        <time>2016-12-04T09:42:12Z</time>
      </trkpt>
      <trkpt lat="49.09141" lon="1.19568">
        <ele>121</ele>
        <time>2016-12-04T09:42:14Z</time>
      </trkpt>
      <trkpt lat="49.09133" lon="1.1956">
        <ele>120.900002</ele>
        <time>2016-12-04T09:42:16Z</time>
      </trkpt>
      <trkpt lat="49.09126" lon="1.19552">
        <ele>120.800003</ele>
        <time>2016-12-04T09:42:18Z</time>
      </trkpt>
      <trkpt lat="49.09114" lon="1.19541">
        <ele>120.599998</ele>
        <time>2016-12-04T09:42:21Z</time>
      </trkpt>
      <trkpt lat="49.09107" lon="1.19533">
        <ele>120.599998</ele>
        <time>2016-12-04T09:42:23Z</time>
      </trkpt>
      <trkpt lat="49.09099" lon="1.19525">
        <ele>120.5</ele>
        <time>2016-12-04T09:42:25Z</time>
      </trkpt>
      <trkpt lat="49.09091" lon="1.19517">
        <ele>120.5</ele>
        <time>2016-12-04T09:42:27Z</time>
      </trkpt>
      <trkpt lat="49.09083" lon="1.19509">
        <ele>120.400002</ele>
        <time>2016-12-04T09:42:29Z</time>
      </trkpt>
      <trkpt lat="49.09075" lon="1.195">
        <ele>120.400002</ele>
        <time>2016-12-04T09:42:31Z</time>
      </trkpt>
      <trkpt lat="49.09067" lon="1.19492">
        <ele>120.300003</ele>
        <time>2016-12-04T09:42:33Z</time>
      </trkpt>
      <trkpt lat="49.09059" lon="1.19483">
        <ele>120.300003</ele>
        <time>2016-12-04T09:42:35Z</time>
      </trkpt>
      <trkpt lat="49.09051" lon="1.19474">
        <ele>120.300003</ele>
        <time>2016-12-04T09:42:37Z</time>
      </trkpt>
      <trkpt lat="49.09043" lon="1.19466">
        <ele>120.300003</ele>
        <time>2016-12-04T09:42:39Z</time>
      </trkpt>
      <trkpt lat="49.09035" lon="1.19458">
        <ele>120.199997</ele>
        <time>2016-12-04T09:42:41Z</time>
      </trkpt>
      <trkpt lat="49.09027" lon="1.1945">
        <ele>120.199997</ele>
        <time>2016-12-04T09:42:43Z</time>
      </trkpt>
      <trkpt lat="49.09019" lon="1.19442">
        <ele>120.199997</ele>
        <time>2016-12-04T09:42:45Z</time>
      </trkpt>
      <trkpt lat="49.09011" lon="1.19434">
        <ele>120.199997</ele>
        <time>2016-12-04T09:42:47Z</time>
      </trkpt>
      <trkpt lat="49.09003" lon="1.19426">
        <ele>120.199997</ele>
        <time>2016-12-04T09:42:49Z</time>
      </trkpt>
      <trkpt lat="49.08994" lon="1.19417">
        <ele>120.199997</ele>
        <time>2016-12-04T09:42:51Z</time>
      </trkpt>
      <trkpt lat="49.08986" lon="1.1941">
        <ele>120.099998</ele>
        <time>2016-12-04T09:42:53Z</time>
      </trkpt>
      <trkpt lat="49.08977" lon="1.19403">
        <ele>120.099998</ele>
        <time>2016-12-04T09:42:55Z</time>
      </trkpt>
      <trkpt lat="49.08968" lon="1.19396">
        <ele>120.099998</ele>
        <time>2016-12-04T09:42:57Z</time>
      </trkpt>
      <trkpt lat="49.0896" lon="1.19389">
        <ele>120.199997</ele>
        <time>2016-12-04T09:42:59Z</time>
      </trkpt>
      <trkpt lat="49.08951" lon="1.19383">
        <ele>120.300003</ele>
        <time>2016-12-04T09:43:01Z</time>
      </trkpt>
      <trkpt lat="49.08942" lon="1.19377">
        <ele>120.400002</ele>
        <time>2016-12-04T09:43:03Z</time>
      </trkpt>
      <trkpt lat="49.08933" lon="1.19371">
        <ele>120.400002</ele>
        <time>2016-12-04T09:43:05Z</time>
      </trkpt>
      <trkpt lat="49.08925" lon="1.19364">
        <ele>120.5</ele>
        <time>2016-12-04T09:43:07Z</time>
      </trkpt>
      <trkpt lat="49.08917" lon="1.19358">
        <ele>120.599998</ele>
        <time>2016-12-04T09:43:09Z</time>
      </trkpt>
      <trkpt lat="49.08905" lon="1.1935">
        <ele>120.800003</ele>
        <time>2016-12-04T09:43:12Z</time>
      </trkpt>
      <trkpt lat="49.08894" lon="1.19341">
        <ele>121</ele>
        <time>2016-12-04T09:43:15Z</time>
      </trkpt>
      <trkpt lat="49.08883" lon="1.19332">
        <ele>121.300003</ele>
        <time>2016-12-04T09:43:18Z</time>
      </trkpt>
      <trkpt lat="49.08872" lon="1.19323">
        <ele>121.800003</ele>
        <time>2016-12-04T09:43:21Z</time>
      </trkpt>
      <trkpt lat="49.08862" lon="1.19313">
        <ele>122.199997</ele>
        <time>2016-12-04T09:43:24Z</time>
      </trkpt>
      <trkpt lat="49.08851" lon="1.19303">
        <ele>122.599998</ele>
        <time>2016-12-04T09:43:27Z</time>
      </trkpt>
      <trkpt lat="49.08841" lon="1.19291">
        <ele>123</ele>
        <time>2016-12-04T09:43:30Z</time>
      </trkpt>
      <trkpt lat="49.08831" lon="1.19279">
        <ele>123.5</ele>
        <time>2016-12-04T09:43:33Z</time>
      </trkpt>
      <trkpt lat="49.08822" lon="1.19267">
        <ele>123.900002</ele>
        <time>2016-12-04T09:43:36Z</time>
      </trkpt>
      <trkpt lat="49.08812" lon="1.19254">
        <ele>124.300003</ele>
        <time>2016-12-04T09:43:39Z</time>
      </trkpt>
      <trkpt lat="49.08803" lon="1.1924">
        <ele>124.599998</ele>
        <time>2016-12-04T09:43:42Z</time>
      </trkpt>
      <trkpt lat="49.08794" lon="1.19226">
        <ele>125.099998</ele>
        <time>2016-12-04T09:43:45Z</time>
      </trkpt>
      <trkpt lat="49.08785" lon="1.19211">
        <ele>125.5</ele>
        <time>2016-12-04T09:43:48Z</time>
      </trkpt>
      <trkpt lat="49.08777" lon="1.19198">
        <ele>125.800003</ele>
        <time>2016-12-04T09:43:51Z</time>
      </trkpt>
      <trkpt lat="49.08768" lon="1.19184">
        <ele>126.199997</ele>
        <time>2016-12-04T09:43:54Z</time>
      </trkpt>
      <trkpt lat="49.08759" lon="1.1917">
        <ele>126.699997</ele>
        <time>2016-12-04T09:43:57Z</time>
      </trkpt>
      <trkpt lat="49.08749" lon="1.19159">
        <ele>127.300003</ele>
        <time>2016-12-04T09:44:00Z</time>
      </trkpt>
      <trkpt lat="49.08739" lon="1.1915">
        <ele>127.699997</ele>
        <time>2016-12-04T09:44:03Z</time>
      </trkpt>
      <trkpt lat="49.0873" lon="1.19141">
        <ele>128.100006</ele>
        <time>2016-12-04T09:44:06Z</time>
      </trkpt>
      <trkpt lat="49.08722" lon="1.19133">
        <ele>128.5</ele>
        <time>2016-12-04T09:44:09Z</time>
      </trkpt>
      <trkpt lat="49.08713" lon="1.19123">
        <ele>129</ele>
        <time>2016-12-04T09:44:13Z</time>
      </trkpt>
      <trkpt lat="49.08704" lon="1.19113">
        <ele>129.5</ele>
        <time>2016-12-04T09:44:17Z</time>
      </trkpt>
      <trkpt lat="49.08694" lon="1.19105">
        <ele>130.100006</ele>
        <time>2016-12-04T09:44:21Z</time>
      </trkpt>
      <trkpt lat="49.08682" lon="1.19105">
        <ele>130.699997</ele>
        <time>2016-12-04T09:44:25Z</time>
      </trkpt>
      <trkpt lat="49.08673" lon="1.19106">
        <ele>131</ele>
        <time>2016-12-04T09:44:28Z</time>
      </trkpt>
      <trkpt lat="49.08661" lon="1.19108">
        <ele>131.300003</ele>
        <time>2016-12-04T09:44:32Z</time>
      </trkpt>
      <trkpt lat="49.08652" lon="1.1911">
        <ele>131.5</ele>
        <time>2016-12-04T09:44:35Z</time>
      </trkpt>
      <trkpt lat="49.08643" lon="1.19111">
        <ele>131.699997</ele>
        <time>2016-12-04T09:44:38Z</time>
      </trkpt>
      <trkpt lat="49.08633" lon="1.19112">
        <ele>131.800003</ele>
        <time>2016-12-04T09:44:41Z</time>
      </trkpt>
      <trkpt lat="49.08623" lon="1.19113">
        <ele>131.899994</ele>
        <time>2016-12-04T09:44:44Z</time>
      </trkpt>
      <trkpt lat="49.08613" lon="1.19114">
        <ele>132.100006</ele>
        <time>2016-12-04T09:44:47Z</time>
      </trkpt>
      <trkpt lat="49.08603" lon="1.19116">
        <ele>132.199997</ele>
        <time>2016-12-04T09:44:50Z</time>
      </trkpt>
      <trkpt lat="49.08592" lon="1.19118">
        <ele>132.300003</ele>
        <time>2016-12-04T09:44:53Z</time>
      </trkpt>
      <trkpt lat="49.08583" lon="1.1912">
        <ele>132.399994</ele>
        <time>2016-12-04T09:44:56Z</time>
      </trkpt>
      <trkpt lat="49.08573" lon="1.19121">
        <ele>132.5</ele>
        <time>2016-12-04T09:44:59Z</time>
      </trkpt>
      <trkpt lat="49.08562" lon="1.19122">
        <ele>132.600006</ele>
        <time>2016-12-04T09:45:02Z</time>
      </trkpt>
      <trkpt lat="49.08552" lon="1.19123">
        <ele>132.699997</ele>
        <time>2016-12-04T09:45:05Z</time>
      </trkpt>
      <trkpt lat="49.08542" lon="1.19124">
        <ele>132.800003</ele>
        <time>2016-12-04T09:45:08Z</time>
      </trkpt>
      <trkpt lat="49.08531" lon="1.19126">
        <ele>133</ele>
        <time>2016-12-04T09:45:11Z</time>
      </trkpt>
      <trkpt lat="49.08521" lon="1.19128">
        <ele>133.199997</ele>
        <time>2016-12-04T09:45:14Z</time>
      </trkpt>
      <trkpt lat="49.0851" lon="1.19131">
        <ele>133.399994</ele>
        <time>2016-12-04T09:45:17Z</time>
      </trkpt>
      <trkpt lat="49.08499" lon="1.19132">
        <ele>133.5</ele>
        <time>2016-12-04T09:45:20Z</time>
      </trkpt>
      <trkpt lat="49.08487" lon="1.19135">
        <ele>133.699997</ele>
        <time>2016-12-04T09:45:23Z</time>
      </trkpt>
      <trkpt lat="49.08476" lon="1.19137">
        <ele>133.800003</ele>
        <time>2016-12-04T09:45:26Z</time>
      </trkpt>
      <trkpt lat="49.08464" lon="1.19139">
        <ele>133.899994</ele>
        <time>2016-12-04T09:45:29Z</time>
      </trkpt>
      <trkpt lat="49.08451" lon="1.19141">
        <ele>134</ele>
        <time>2016-12-04T09:45:32Z</time>
      </trkpt>
      <trkpt lat="49.08439" lon="1.19143">
        <ele>134.100006</ele>
        <time>2016-12-04T09:45:35Z</time>
      </trkpt>
      <trkpt lat="49.08426" lon="1.19145">
        <ele>134.100006</ele>
        <time>2016-12-04T09:45:38Z</time>
      </trkpt>
      <trkpt lat="49.08414" lon="1.19147">
        <ele>134.199997</ele>
        <time>2016-12-04T09:45:41Z</time>
      </trkpt>
      <trkpt lat="49.08401" lon="1.19149">
        <ele>134.199997</ele>
        <time>2016-12-04T09:45:44Z</time>
      </trkpt>
      <trkpt lat="49.08388" lon="1.19151">
        <ele>134.100006</ele>
        <time>2016-12-04T09:45:47Z</time>
      </trkpt>
      <trkpt lat="49.08375" lon="1.19153">
        <ele>134</ele>
        <time>2016-12-04T09:45:50Z</time>
      </trkpt>
      <trkpt lat="49.08362" lon="1.19155">
        <ele>133.899994</ele>
        <time>2016-12-04T09:45:53Z</time>
      </trkpt>
      <trkpt lat="49.0835" lon="1.19158">
        <ele>133.800003</ele>
        <time>2016-12-04T09:45:56Z</time>
      </trkpt>
      <trkpt lat="49.08337" lon="1.19159">
        <ele>133.699997</ele>
        <time>2016-12-04T09:45:59Z</time>
      </trkpt>
      <trkpt lat="49.08325" lon="1.19162">
        <ele>133.5</ele>
        <time>2016-12-04T09:46:02Z</time>
      </trkpt>
      <trkpt lat="49.08313" lon="1.19164">
        <ele>133.5</ele>
        <time>2016-12-04T09:46:05Z</time>
      </trkpt>
      <trkpt lat="49.08301" lon="1.19167">
        <ele>133.399994</ele>
        <time>2016-12-04T09:46:08Z</time>
      </trkpt>
      <trkpt lat="49.08288" lon="1.19169">
        <ele>133.300003</ele>
        <time>2016-12-04T09:46:11Z</time>
      </trkpt>
      <trkpt lat="49.08277" lon="1.1917">
        <ele>133.199997</ele>
        <time>2016-12-04T09:46:14Z</time>
      </trkpt>
      <trkpt lat="49.08265" lon="1.19172">
        <ele>133.199997</ele>
        <time>2016-12-04T09:46:17Z</time>
      </trkpt>
      <trkpt lat="49.08253" lon="1.19174">
        <ele>133.100006</ele>
        <time>2016-12-04T09:46:20Z</time>
      </trkpt>
      <trkpt lat="49.08241" lon="1.19175">
        <ele>133.100006</ele>
        <time>2016-12-04T09:46:23Z</time>
      </trkpt>
      <trkpt lat="49.08229" lon="1.19177">
        <ele>133</ele>
        <time>2016-12-04T09:46:26Z</time>
      </trkpt>
      <trkpt lat="49.08217" lon="1.1918">
        <ele>133.100006</ele>
        <time>2016-12-04T09:46:29Z</time>
      </trkpt>
      <trkpt lat="49.08205" lon="1.19181">
        <ele>133.100006</ele>
        <time>2016-12-04T09:46:32Z</time>
      </trkpt>
      <trkpt lat="49.08193" lon="1.19183">
        <ele>133.300003</ele>
        <time>2016-12-04T09:46:35Z</time>
      </trkpt>
      <trkpt lat="49.08181" lon="1.19185">
        <ele>133.5</ele>
        <time>2016-12-04T09:46:38Z</time>
      </trkpt>
      <trkpt lat="49.08168" lon="1.19187">
        <ele>133.699997</ele>
        <time>2016-12-04T09:46:41Z</time>
      </trkpt>
      <trkpt lat="49.08156" lon="1.19189">
        <ele>133.800003</ele>
        <time>2016-12-04T09:46:44Z</time>
      </trkpt>
      <trkpt lat="49.08143" lon="1.19191">
        <ele>134.100006</ele>
        <time>2016-12-04T09:46:47Z</time>
      </trkpt>
      <trkpt lat="49.08132" lon="1.19193">
        <ele>134.300003</ele>
        <time>2016-12-04T09:46:50Z</time>
      </trkpt>
      <trkpt lat="49.0812" lon="1.19195">
        <ele>134.5</ele>
        <time>2016-12-04T09:46:53Z</time>
      </trkpt>
      <trkpt lat="49.08108" lon="1.19196">
        <ele>134.699997</ele>
        <time>2016-12-04T09:46:56Z</time>
      </trkpt>
      <trkpt lat="49.08096" lon="1.19198">
        <ele>134.800003</ele>
        <time>2016-12-04T09:46:59Z</time>
      </trkpt>
      <trkpt lat="49.08084" lon="1.192">
        <ele>135</ele>
        <time>2016-12-04T09:47:02Z</time>
      </trkpt>
      <trkpt lat="49.08071" lon="1.19202">
        <ele>135.100006</ele>
        <time>2016-12-04T09:47:05Z</time>
      </trkpt>
      <trkpt lat="49.08059" lon="1.19203">
        <ele>135.199997</ele>
        <time>2016-12-04T09:47:08Z</time>
      </trkpt>
      <trkpt lat="49.08048" lon="1.19205">
        <ele>135.199997</ele>
        <time>2016-12-04T09:47:11Z</time>
      </trkpt>
      <trkpt lat="49.08038" lon="1.19209">
        <ele>135.300003</ele>
        <time>2016-12-04T09:47:15Z</time>
      </trkpt>
      <trkpt lat="49.08035" lon="1.19224">
        <ele>135.5</ele>
        <time>2016-12-04T09:47:19Z</time>
      </trkpt>
      <trkpt lat="49.08035" lon="1.1924">
        <ele>135.5</ele>
        <time>2016-12-04T09:47:22Z</time>
      </trkpt>
      <trkpt lat="49.08036" lon="1.19257">
        <ele>135.600006</ele>
        <time>2016-12-04T09:47:25Z</time>
      </trkpt>
      <trkpt lat="49.08038" lon="1.19273">
        <ele>135.600006</ele>
        <time>2016-12-04T09:47:28Z</time>
      </trkpt>
      <trkpt lat="49.08039" lon="1.1929">
        <ele>135.699997</ele>
        <time>2016-12-04T09:47:31Z</time>
      </trkpt>
      <trkpt lat="49.08041" lon="1.19308">
        <ele>135.699997</ele>
        <time>2016-12-04T09:47:34Z</time>
      </trkpt>
      <trkpt lat="49.08043" lon="1.19326">
        <ele>135.699997</ele>
        <time>2016-12-04T09:47:37Z</time>
      </trkpt>
      <trkpt lat="49.08045" lon="1.19346">
        <ele>135.800003</ele>
        <time>2016-12-04T09:47:40Z</time>
      </trkpt>
      <trkpt lat="49.08047" lon="1.19367">
        <ele>135.699997</ele>
        <time>2016-12-04T09:47:43Z</time>
      </trkpt>
      <trkpt lat="49.08049" lon="1.19387">
        <ele>135.600006</ele>
        <time>2016-12-04T09:47:46Z</time>
      </trkpt>
      <trkpt lat="49.08051" lon="1.19407">
        <ele>135.5</ele>
        <time>2016-12-04T09:47:49Z</time>
      </trkpt>
      <trkpt lat="49.08052" lon="1.19421">
        <ele>135.399994</ele>
        <time>2016-12-04T09:47:51Z</time>
      </trkpt>
      <trkpt lat="49.08053" lon="1.19435">
        <ele>135.399994</ele>
        <time>2016-12-04T09:47:53Z</time>
      </trkpt>
      <trkpt lat="49.08055" lon="1.19449">
        <ele>135.300003</ele>
        <time>2016-12-04T09:47:55Z</time>
      </trkpt>
      <trkpt lat="49.08056" lon="1.19463">
        <ele>135.199997</ele>
        <time>2016-12-04T09:47:57Z</time>
      </trkpt>
      <trkpt lat="49.08057" lon="1.19477">
        <ele>135.100006</ele>
        <time>2016-12-04T09:47:59Z</time>
      </trkpt>
      <trkpt lat="49.08058" lon="1.19491">
        <ele>135</ele>
        <time>2016-12-04T09:48:01Z</time>
      </trkpt>
      <trkpt lat="49.08059" lon="1.19506">
        <ele>134.899994</ele>
        <time>2016-12-04T09:48:03Z</time>
      </trkpt>
      <trkpt lat="49.08057" lon="1.19519">
        <ele>134.800003</ele>
        <time>2016-12-04T09:48:05Z</time>
      </trkpt>
      <trkpt lat="49.08051" lon="1.19531">
        <ele>134.699997</ele>
        <time>2016-12-04T09:48:07Z</time>
      </trkpt>
      <trkpt lat="49.08045" lon="1.19541">
        <ele>134.5</ele>
        <time>2016-12-04T09:48:09Z</time>
      </trkpt>
      <trkpt lat="49.08037" lon="1.1955">
        <ele>134.399994</ele>
        <time>2016-12-04T09:48:11Z</time>
      </trkpt>
      <trkpt lat="49.0803" lon="1.19559">
        <ele>134.399994</ele>
        <time>2016-12-04T09:48:13Z</time>
      </trkpt>
      <trkpt lat="49.08023" lon="1.19567">
        <ele>134.300003</ele>
        <time>2016-12-04T09:48:15Z</time>
      </trkpt>
      <trkpt lat="49.08015" lon="1.19575">
        <ele>134.199997</ele>
        <time>2016-12-04T09:48:17Z</time>
      </trkpt>
      <trkpt lat="49.08007" lon="1.19583">
        <ele>134.199997</ele>
        <time>2016-12-04T09:48:19Z</time>
      </trkpt>
      <trkpt lat="49.08" lon="1.19591">
        <ele>134.199997</ele>
        <time>2016-12-04T09:48:21Z</time>
      </trkpt>
      <trkpt lat="49.07992" lon="1.19599">
        <ele>134.199997</ele>
        <time>2016-12-04T09:48:23Z</time>
      </trkpt>
      <trkpt lat="49.07985" lon="1.19607">
        <ele>134.199997</ele>
        <time>2016-12-04T09:48:25Z</time>
      </trkpt>
      <trkpt lat="49.07977" lon="1.19616">
        <ele>134.199997</ele>
        <time>2016-12-04T09:48:27Z</time>
      </trkpt>
      <trkpt lat="49.0797" lon="1.19626">
        <ele>134.199997</ele>
        <time>2016-12-04T09:48:29Z</time>
      </trkpt>
      <trkpt lat="49.07959" lon="1.19639">
        <ele>134.300003</ele>
        <time>2016-12-04T09:48:32Z</time>
      </trkpt>
      <trkpt lat="49.07952" lon="1.19648">
        <ele>134.300003</ele>
        <time>2016-12-04T09:48:34Z</time>
      </trkpt>
      <trkpt lat="49.07945" lon="1.19657">
        <ele>134.399994</ele>
        <time>2016-12-04T09:48:36Z</time>
      </trkpt>
      <trkpt lat="49.07934" lon="1.19658">
        <ele>134.600006</ele>
        <time>2016-12-04T09:48:39Z</time>
      </trkpt>
      <trkpt lat="49.07926" lon="1.19645">
        <ele>134.699997</ele>
        <time>2016-12-04T09:48:42Z</time>
      </trkpt>
      <trkpt lat="49.07919" lon="1.1963">
        <ele>134.699997</ele>
        <time>2016-12-04T09:48:45Z</time>
      </trkpt>
      <trkpt lat="49.07911" lon="1.19617">
        <ele>134.800003</ele>
        <time>2016-12-04T09:48:48Z</time>
      </trkpt>
      <trkpt lat="49.07903" lon="1.19603">
        <ele>135</ele>
        <time>2016-12-04T09:48:51Z</time>
      </trkpt>
      <trkpt lat="49.07896" lon="1.19589">
        <ele>135.100006</ele>
        <time>2016-12-04T09:48:54Z</time>
      </trkpt>
      <trkpt lat="49.07888" lon="1.19575">
        <ele>135.199997</ele>
        <time>2016-12-04T09:48:57Z</time>
      </trkpt>
      <trkpt lat="49.0788" lon="1.1956">
        <ele>135.300003</ele>
        <time>2016-12-04T09:49:00Z</time>
      </trkpt>
      <trkpt lat="49.07872" lon="1.19546">
        <ele>135.399994</ele>
        <time>2016-12-04T09:49:03Z</time>
      </trkpt>
      <trkpt lat="49.07864" lon="1.19531">
        <ele>135.5</ele>
        <time>2016-12-04T09:49:06Z</time>
      </trkpt>
      <trkpt lat="49.07856" lon="1.19516">
        <ele>135.600006</ele>
        <time>2016-12-04T09:49:09Z</time>
      </trkpt>
      <trkpt lat="49.07848" lon="1.19501">
        <ele>135.800003</ele>
        <time>2016-12-04T09:49:12Z</time>
      </trkpt>
      <trkpt lat="49.07839" lon="1.19485">
        <ele>136</ele>
        <time>2016-12-04T09:49:15Z</time>
      </trkpt>
      <trkpt lat="49.0783" lon="1.1947">
        <ele>136.199997</ele>
        <time>2016-12-04T09:49:18Z</time>
      </trkpt>
      <trkpt lat="49.07822" lon="1.19454">
        <ele>136.300003</ele>
        <time>2016-12-04T09:49:21Z</time>
      </trkpt>
      <trkpt lat="49.07814" lon="1.19438">
        <ele>136.399994</ele>
        <time>2016-12-04T09:49:24Z</time>
      </trkpt>
      <trkpt lat="49.07808" lon="1.19427">
        <ele>136.5</ele>
        <time>2016-12-04T09:49:26Z</time>
      </trkpt>
      <trkpt lat="49.07802" lon="1.19416">
        <ele>136.600006</ele>
        <time>2016-12-04T09:49:28Z</time>
      </trkpt>
      <trkpt lat="49.07796" lon="1.19406">
        <ele>136.699997</ele>
        <time>2016-12-04T09:49:30Z</time>
      </trkpt>
      <trkpt lat="49.0779" lon="1.19395">
        <ele>136.699997</ele>
        <time>2016-12-04T09:49:32Z</time>
      </trkpt>
      <trkpt lat="49.07782" lon="1.19379">
        <ele>136.800003</ele>
        <time>2016-12-04T09:49:35Z</time>
      </trkpt>
      <trkpt lat="49.07773" lon="1.19363">
        <ele>136.899994</ele>
        <time>2016-12-04T09:49:38Z</time>
      </trkpt>
      <trkpt lat="49.07767" lon="1.19352">
        <ele>136.899994</ele>
        <time>2016-12-04T09:49:40Z</time>
      </trkpt>
      <trkpt lat="49.07761" lon="1.19341">
        <ele>137</ele>
        <time>2016-12-04T09:49:42Z</time>
      </trkpt>
      <trkpt lat="49.07753" lon="1.19326">
        <ele>137</ele>
        <time>2016-12-04T09:49:45Z</time>
      </trkpt>
      <trkpt lat="49.07746" lon="1.19315">
        <ele>137</ele>
        <time>2016-12-04T09:49:47Z</time>
      </trkpt>
      <trkpt lat="49.07741" lon="1.19304">
        <ele>137.100006</ele>
        <time>2016-12-04T09:49:49Z</time>
      </trkpt>
      <trkpt lat="49.07732" lon="1.19288">
        <ele>137.100006</ele>
        <time>2016-12-04T09:49:52Z</time>
      </trkpt>
      <trkpt lat="49.07727" lon="1.19277">
        <ele>137.100006</ele>
        <time>2016-12-04T09:49:54Z</time>
      </trkpt>
      <trkpt lat="49.07721" lon="1.19267">
        <ele>137.100006</ele>
        <time>2016-12-04T09:49:56Z</time>
      </trkpt>
      <trkpt lat="49.07715" lon="1.19255">
        <ele>137.100006</ele>
        <time>2016-12-04T09:49:58Z</time>
      </trkpt>
      <trkpt lat="49.07708" lon="1.19244">
        <ele>137.100006</ele>
        <time>2016-12-04T09:50:00Z</time>
      </trkpt>
      <trkpt lat="49.07702" lon="1.19232">
        <ele>137.199997</ele>
        <time>2016-12-04T09:50:02Z</time>
      </trkpt>
      <trkpt lat="49.07696" lon="1.19221">
        <ele>137.199997</ele>
        <time>2016-12-04T09:50:04Z</time>
      </trkpt>
      <trkpt lat="49.0769" lon="1.1921">
        <ele>137.199997</ele>
        <time>2016-12-04T09:50:06Z</time>
      </trkpt>
      <trkpt lat="49.07685" lon="1.19199">
        <ele>137.199997</ele>
        <time>2016-12-04T09:50:08Z</time>
      </trkpt>
      <trkpt lat="49.07679" lon="1.19188">
        <ele>137.199997</ele>
        <time>2016-12-04T09:50:10Z</time>
      </trkpt>
      <trkpt lat="49.0767" lon="1.19173">
        <ele>137.199997</ele>
        <time>2016-12-04T09:50:13Z</time>
      </trkpt>
      <trkpt lat="49.07661" lon="1.19157">
        <ele>137.199997</ele>
        <time>2016-12-04T09:50:16Z</time>
      </trkpt>
      <trkpt lat="49.07656" lon="1.19146">
        <ele>137.199997</ele>
        <time>2016-12-04T09:50:18Z</time>
      </trkpt>
      <trkpt lat="49.0765" lon="1.19135">
        <ele>137.199997</ele>
        <time>2016-12-04T09:50:20Z</time>
      </trkpt>
      <trkpt lat="49.07644" lon="1.19124">
        <ele>137.199997</ele>
        <time>2016-12-04T09:50:22Z</time>
      </trkpt>
      <trkpt lat="49.07638" lon="1.19113">
        <ele>137.199997</ele>
        <time>2016-12-04T09:50:24Z</time>
      </trkpt>
      <trkpt lat="49.07632" lon="1.19102">
        <ele>137.199997</ele>
        <time>2016-12-04T09:50:26Z</time>
      </trkpt>
      <trkpt lat="49.07626" lon="1.19091">
        <ele>137.199997</ele>
        <time>2016-12-04T09:50:28Z</time>
      </trkpt>
      <trkpt lat="49.0762" lon="1.1908">
        <ele>137.199997</ele>
        <time>2016-12-04T09:50:30Z</time>
      </trkpt>
      <trkpt lat="49.07614" lon="1.19069">
        <ele>137.100006</ele>
        <time>2016-12-04T09:50:32Z</time>
      </trkpt>
      <trkpt lat="49.07608" lon="1.19058">
        <ele>137.100006</ele>
        <time>2016-12-04T09:50:34Z</time>
      </trkpt>
      <trkpt lat="49.07602" lon="1.19047">
        <ele>137.100006</ele>
        <time>2016-12-04T09:50:36Z</time>
      </trkpt>
      <trkpt lat="49.07596" lon="1.19037">
        <ele>137.100006</ele>
        <time>2016-12-04T09:50:38Z</time>
      </trkpt>
      <trkpt lat="49.0759" lon="1.19026">
        <ele>137.100006</ele>
        <time>2016-12-04T09:50:40Z</time>
      </trkpt>
      <trkpt lat="49.07584" lon="1.19015">
        <ele>137.100006</ele>
        <time>2016-12-04T09:50:42Z</time>
      </trkpt>
      <trkpt lat="49.07576" lon="1.19">
        <ele>137.100006</ele>
        <time>2016-12-04T09:50:45Z</time>
      </trkpt>
      <trkpt lat="49.07567" lon="1.18985">
        <ele>137.100006</ele>
        <time>2016-12-04T09:50:48Z</time>
      </trkpt>
      <trkpt lat="49.07561" lon="1.18973">
        <ele>137.100006</ele>
        <time>2016-12-04T09:50:51Z</time>
      </trkpt>
      <trkpt lat="49.07551" lon="1.18974">
        <ele>137.100006</ele>
        <time>2016-12-04T09:50:55Z</time>
      </trkpt>
      <trkpt lat="49.07542" lon="1.18979">
        <ele>137.100006</ele>
        <time>2016-12-04T09:50:58Z</time>
      </trkpt>
      <trkpt lat="49.07532" lon="1.18987">
        <ele>137.100006</ele>
        <time>2016-12-04T09:51:01Z</time>
      </trkpt>
      <trkpt lat="49.07522" lon="1.18995">
        <ele>137</ele>
        <time>2016-12-04T09:51:04Z</time>
      </trkpt>
      <trkpt lat="49.07513" lon="1.19001">
        <ele>137</ele>
        <time>2016-12-04T09:51:06Z</time>
      </trkpt>
      <trkpt lat="49.07505" lon="1.19008">
        <ele>136.899994</ele>
        <time>2016-12-04T09:51:08Z</time>
      </trkpt>
      <trkpt lat="49.07496" lon="1.19015">
        <ele>136.899994</ele>
        <time>2016-12-04T09:51:10Z</time>
      </trkpt>
      <trkpt lat="49.07488" lon="1.19023">
        <ele>136.800003</ele>
        <time>2016-12-04T09:51:12Z</time>
      </trkpt>
      <trkpt lat="49.07479" lon="1.19032">
        <ele>136.699997</ele>
        <time>2016-12-04T09:51:14Z</time>
      </trkpt>
      <trkpt lat="49.07472" lon="1.19041">
        <ele>136.600006</ele>
        <time>2016-12-04T09:51:16Z</time>
      </trkpt>
      <trkpt lat="49.07464" lon="1.19051">
        <ele>136.5</ele>
        <time>2016-12-04T09:51:18Z</time>
      </trkpt>
      <trkpt lat="49.07456" lon="1.1906">
        <ele>136.399994</ele>
        <time>2016-12-04T09:51:20Z</time>
      </trkpt>
      <trkpt lat="49.07448" lon="1.19069">
        <ele>136.199997</ele>
        <time>2016-12-04T09:51:22Z</time>
      </trkpt>
      <trkpt lat="49.0744" lon="1.19077">
        <ele>136.100006</ele>
        <time>2016-12-04T09:51:24Z</time>
      </trkpt>
      <trkpt lat="49.07433" lon="1.19086">
        <ele>136</ele>
        <time>2016-12-04T09:51:26Z</time>
      </trkpt>
      <trkpt lat="49.07426" lon="1.19094">
        <ele>135.899994</ele>
        <time>2016-12-04T09:51:28Z</time>
      </trkpt>
      <trkpt lat="49.07419" lon="1.19103">
        <ele>135.899994</ele>
        <time>2016-12-04T09:51:30Z</time>
      </trkpt>
      <trkpt lat="49.07411" lon="1.19112">
        <ele>135.800003</ele>
        <time>2016-12-04T09:51:32Z</time>
      </trkpt>
      <trkpt lat="49.07404" lon="1.1912">
        <ele>135.699997</ele>
        <time>2016-12-04T09:51:34Z</time>
      </trkpt>
      <trkpt lat="49.07394" lon="1.19133">
        <ele>135.600006</ele>
        <time>2016-12-04T09:51:37Z</time>
      </trkpt>
      <trkpt lat="49.07384" lon="1.19144">
        <ele>135.600006</ele>
        <time>2016-12-04T09:51:40Z</time>
      </trkpt>
      <trkpt lat="49.07374" lon="1.19157">
        <ele>135.5</ele>
        <time>2016-12-04T09:51:43Z</time>
      </trkpt>
      <trkpt lat="49.07364" lon="1.19168">
        <ele>135.399994</ele>
        <time>2016-12-04T09:51:46Z</time>
      </trkpt>
      <trkpt lat="49.07354" lon="1.1918">
        <ele>135.300003</ele>
        <time>2016-12-04T09:51:49Z</time>
      </trkpt>
      <trkpt lat="49.07343" lon="1.19191">
        <ele>135.199997</ele>
        <time>2016-12-04T09:51:52Z</time>
      </trkpt>
      <trkpt lat="49.07332" lon="1.19201">
        <ele>135.100006</ele>
        <time>2016-12-04T09:51:55Z</time>
      </trkpt>
      <trkpt lat="49.07321" lon="1.19211">
        <ele>134.899994</ele>
        <time>2016-12-04T09:51:58Z</time>
      </trkpt>
      <trkpt lat="49.07309" lon="1.19219">
        <ele>134.800003</ele>
        <time>2016-12-04T09:52:01Z</time>
      </trkpt>
      <trkpt lat="49.07297" lon="1.19227">
        <ele>134.699997</ele>
        <time>2016-12-04T09:52:04Z</time>
      </trkpt>
      <trkpt lat="49.07288" lon="1.19232">
        <ele>134.600006</ele>
        <time>2016-12-04T09:52:06Z</time>
      </trkpt>
      <trkpt lat="49.0728" lon="1.19237">
        <ele>134.5</ele>
        <time>2016-12-04T09:52:08Z</time>
      </trkpt>
      <trkpt lat="49.07271" lon="1.19242">
        <ele>134.5</ele>
        <time>2016-12-04T09:52:10Z</time>
      </trkpt>
      <trkpt lat="49.07262" lon="1.19247">
        <ele>134.399994</ele>
        <time>2016-12-04T09:52:12Z</time>
      </trkpt>
      <trkpt lat="49.07253" lon="1.19252">
        <ele>134.399994</ele>
        <time>2016-12-04T09:52:14Z</time>
      </trkpt>
      <trkpt lat="49.07242" lon="1.19259">
        <ele>134.300003</ele>
        <time>2016-12-04T09:52:17Z</time>
      </trkpt>
      <trkpt lat="49.07232" lon="1.19267">
        <ele>134.199997</ele>
        <time>2016-12-04T09:52:20Z</time>
      </trkpt>
      <trkpt lat="49.07225" lon="1.19277">
        <ele>134</ele>
        <time>2016-12-04T09:52:23Z</time>
      </trkpt>
      <trkpt lat="49.07216" lon="1.19266">
        <ele>132.5</ele>
        <time>2016-12-04T09:54:00Z</time>
      </trkpt>
      <trkpt lat="49.07211" lon="1.1925">
        <ele>132.5</ele>
        <time>2016-12-04T09:54:03Z</time>
      </trkpt>
      <trkpt lat="49.07208" lon="1.19237">
        <ele>132.5</ele>
        <time>2016-12-04T09:54:05Z</time>
      </trkpt>
      <trkpt lat="49.07205" lon="1.19224">
        <ele>132.5</ele>
        <time>2016-12-04T09:54:07Z</time>
      </trkpt>
      <trkpt lat="49.07202" lon="1.19205">
        <ele>132.5</ele>
        <time>2016-12-04T09:54:10Z</time>
      </trkpt>
      <trkpt lat="49.07199" lon="1.19188">
        <ele>132.5</ele>
        <time>2016-12-04T09:54:13Z</time>
      </trkpt>
      <trkpt lat="49.07195" lon="1.19171">
        <ele>132.5</ele>
        <time>2016-12-04T09:54:15Z</time>
      </trkpt>
      <trkpt lat="49.0719" lon="1.19155">
        <ele>132.5</ele>
        <time>2016-12-04T09:54:17Z</time>
      </trkpt>
      <trkpt lat="49.07187" lon="1.19137">
        <ele>132.5</ele>
        <time>2016-12-04T09:54:19Z</time>
      </trkpt>
      <trkpt lat="49.07182" lon="1.1912">
        <ele>132.5</ele>
        <time>2016-12-04T09:54:21Z</time>
      </trkpt>
      <trkpt lat="49.07177" lon="1.19104">
        <ele>132.5</ele>
        <time>2016-12-04T09:54:23Z</time>
      </trkpt>
      <trkpt lat="49.07173" lon="1.19091">
        <ele>132.399994</ele>
        <time>2016-12-04T09:54:25Z</time>
      </trkpt>
      <trkpt lat="49.07162" lon="1.19079">
        <ele>132.300003</ele>
        <time>2016-12-04T09:54:28Z</time>
      </trkpt>
      <trkpt lat="49.07153" lon="1.19072">
        <ele>132.199997</ele>
        <time>2016-12-04T09:54:30Z</time>
      </trkpt>
      <trkpt lat="49.07145" lon="1.19066">
        <ele>132.100006</ele>
        <time>2016-12-04T09:54:32Z</time>
      </trkpt>
      <trkpt lat="49.07135" lon="1.19062">
        <ele>131.899994</ele>
        <time>2016-12-04T09:54:34Z</time>
      </trkpt>
      <trkpt lat="49.07126" lon="1.19059">
        <ele>131.699997</ele>
        <time>2016-12-04T09:54:36Z</time>
      </trkpt>
      <trkpt lat="49.07115" lon="1.19052">
        <ele>131.600006</ele>
        <time>2016-12-04T09:54:38Z</time>
      </trkpt>
      <trkpt lat="49.07108" lon="1.19043">
        <ele>131.5</ele>
        <time>2016-12-04T09:54:40Z</time>
      </trkpt>
      <trkpt lat="49.07102" lon="1.19032">
        <ele>131.199997</ele>
        <time>2016-12-04T09:54:42Z</time>
      </trkpt>
      <trkpt lat="49.07097" lon="1.19018">
        <ele>130.800003</ele>
        <time>2016-12-04T09:54:44Z</time>
      </trkpt>
      <trkpt lat="49.07088" lon="1.19009">
        <ele>130.300003</ele>
        <time>2016-12-04T09:54:46Z</time>
      </trkpt>
      <trkpt lat="49.07079" lon="1.19007">
        <ele>129.699997</ele>
        <time>2016-12-04T09:54:48Z</time>
      </trkpt>
      <trkpt lat="49.07069" lon="1.19008">
        <ele>128.899994</ele>
        <time>2016-12-04T09:54:50Z</time>
      </trkpt>
      <trkpt lat="49.07057" lon="1.19011">
        <ele>128</ele>
        <time>2016-12-04T09:54:52Z</time>
      </trkpt>
      <trkpt lat="49.07045" lon="1.19009">
        <ele>126.800003</ele>
        <time>2016-12-04T09:54:54Z</time>
      </trkpt>
      <trkpt lat="49.07035" lon="1.19011">
        <ele>125.300003</ele>
        <time>2016-12-04T09:54:56Z</time>
      </trkpt>
      <trkpt lat="49.07024" lon="1.1901">
        <ele>123.800003</ele>
        <time>2016-12-04T09:54:58Z</time>
      </trkpt>
      <trkpt lat="49.07013" lon="1.19008">
        <ele>122.199997</ele>
        <time>2016-12-04T09:55:00Z</time>
      </trkpt>
      <trkpt lat="49.07001" lon="1.19008">
        <ele>120.5</ele>
        <time>2016-12-04T09:55:02Z</time>
      </trkpt>
      <trkpt lat="49.06988" lon="1.19007">
        <ele>117.599998</ele>
        <time>2016-12-04T09:55:05Z</time>
      </trkpt>
      <trkpt lat="49.06977" lon="1.19005">
        <ele>115.699997</ele>
        <time>2016-12-04T09:55:07Z</time>
      </trkpt>
      <trkpt lat="49.06967" lon="1.19004">
        <ele>113.699997</ele>
        <time>2016-12-04T09:55:09Z</time>
      </trkpt>
      <trkpt lat="49.06954" lon="1.19001">
        <ele>111.699997</ele>
        <time>2016-12-04T09:55:11Z</time>
      </trkpt>
      <trkpt lat="49.06944" lon="1.18995">
        <ele>109.699997</ele>
        <time>2016-12-04T09:55:13Z</time>
      </trkpt>
      <trkpt lat="49.06934" lon="1.18991">
        <ele>107.800003</ele>
        <time>2016-12-04T09:55:15Z</time>
      </trkpt>
      <trkpt lat="49.0692" lon="1.18989">
        <ele>106</ele>
        <time>2016-12-04T09:55:17Z</time>
      </trkpt>
      <trkpt lat="49.06909" lon="1.18985">
        <ele>104.099998</ele>
        <time>2016-12-04T09:55:19Z</time>
      </trkpt>
      <trkpt lat="49.06896" lon="1.18983">
        <ele>102.099998</ele>
        <time>2016-12-04T09:55:21Z</time>
      </trkpt>
      <trkpt lat="49.06882" lon="1.18988">
        <ele>97</ele>
        <time>2016-12-04T09:55:25Z</time>
      </trkpt>
      <trkpt lat="49.06874" lon="1.19">
        <ele>94.699997</ele>
        <time>2016-12-04T09:55:29Z</time>
      </trkpt>
      <trkpt lat="49.0687" lon="1.19015">
        <ele>92.800003</ele>
        <time>2016-12-04T09:55:32Z</time>
      </trkpt>
      <trkpt lat="49.06863" lon="1.19028">
        <ele>91.199997</ele>
        <time>2016-12-04T09:55:35Z</time>
      </trkpt>
      <trkpt lat="49.06859" lon="1.19041">
        <ele>89.900002</ele>
        <time>2016-12-04T09:55:38Z</time>
      </trkpt>
      <trkpt lat="49.06852" lon="1.19052">
        <ele>88.5</ele>
        <time>2016-12-04T09:55:42Z</time>
      </trkpt>
      <trkpt lat="49.06841" lon="1.19057">
        <ele>87.5</ele>
        <time>2016-12-04T09:55:46Z</time>
      </trkpt>
      <trkpt lat="49.06832" lon="1.19056">
        <ele>87</ele>
        <time>2016-12-04T09:55:49Z</time>
      </trkpt>
      <trkpt lat="49.06821" lon="1.19059">
        <ele>86.5</ele>
        <time>2016-12-04T09:55:52Z</time>
      </trkpt>
      <trkpt lat="49.06814" lon="1.19068">
        <ele>86</ele>
        <time>2016-12-04T09:55:56Z</time>
      </trkpt>
      <trkpt lat="49.06808" lon="1.19081">
        <ele>85.599998</ele>
        <time>2016-12-04T09:56:02Z</time>
      </trkpt>
      <trkpt lat="49.06804" lon="1.19093">
        <ele>85.699997</ele>
        <time>2016-12-04T09:56:09Z</time>
      </trkpt>
      <trkpt lat="49.06804" lon="1.19107">
        <ele>86.099998</ele>
        <time>2016-12-04T09:56:16Z</time>
      </trkpt>
      <trkpt lat="49.06805" lon="1.19122">
        <ele>86.400002</ele>
        <time>2016-12-04T09:56:21Z</time>
      </trkpt>
      <trkpt lat="49.06806" lon="1.19139">
        <ele>86.800003</ele>
        <time>2016-12-04T09:56:26Z</time>
      </trkpt>
      <trkpt lat="49.06808" lon="1.19153">
        <ele>87</ele>
        <time>2016-12-04T09:56:30Z</time>
      </trkpt>
      <trkpt lat="49.0681" lon="1.19168">
        <ele>87.300003</ele>
        <time>2016-12-04T09:56:34Z</time>
      </trkpt>
      <trkpt lat="49.06811" lon="1.19185">
        <ele>87.800003</ele>
        <time>2016-12-04T09:56:39Z</time>
      </trkpt>
      <trkpt lat="49.06813" lon="1.192">
        <ele>88.300003</ele>
        <time>2016-12-04T09:56:44Z</time>
      </trkpt>
      <trkpt lat="49.06814" lon="1.19214">
        <ele>88.699997</ele>
        <time>2016-12-04T09:56:48Z</time>
      </trkpt>
      <trkpt lat="49.06817" lon="1.19228">
        <ele>89.300003</ele>
        <time>2016-12-04T09:56:53Z</time>
      </trkpt>
      <trkpt lat="49.06819" lon="1.19244">
        <ele>90.199997</ele>
        <time>2016-12-04T09:56:58Z</time>
      </trkpt>
      <trkpt lat="49.06819" lon="1.19258">
        <ele>90.900002</ele>
        <time>2016-12-04T09:57:02Z</time>
      </trkpt>
      <trkpt lat="49.06819" lon="1.19275">
        <ele>91.800003</ele>
        <time>2016-12-04T09:57:07Z</time>
      </trkpt>
      <trkpt lat="49.0682" lon="1.19291">
        <ele>92.800003</ele>
        <time>2016-12-04T09:57:11Z</time>
      </trkpt>
      <trkpt lat="49.06822" lon="1.19305">
        <ele>94</ele>
        <time>2016-12-04T09:57:16Z</time>
      </trkpt>
      <trkpt lat="49.06825" lon="1.1932">
        <ele>95.099998</ele>
        <time>2016-12-04T09:57:20Z</time>
      </trkpt>
      <trkpt lat="49.06827" lon="1.19333">
        <ele>96.199997</ele>
        <time>2016-12-04T09:57:24Z</time>
      </trkpt>
      <trkpt lat="49.06831" lon="1.19346">
        <ele>97.300003</ele>
        <time>2016-12-04T09:57:28Z</time>
      </trkpt>
      <trkpt lat="49.06833" lon="1.19362">
        <ele>98.800003</ele>
        <time>2016-12-04T09:57:33Z</time>
      </trkpt>
      <trkpt lat="49.06836" lon="1.19377">
        <ele>100.300003</ele>
        <time>2016-12-04T09:57:38Z</time>
      </trkpt>
      <trkpt lat="49.06838" lon="1.19393">
        <ele>102.400002</ele>
        <time>2016-12-04T09:57:44Z</time>
      </trkpt>
      <trkpt lat="49.0684" lon="1.19408">
        <ele>104.599998</ele>
        <time>2016-12-04T09:57:50Z</time>
      </trkpt>
      <trkpt lat="49.06842" lon="1.19424">
        <ele>106.900002</ele>
        <time>2016-12-04T09:57:56Z</time>
      </trkpt>
      <trkpt lat="49.06844" lon="1.1944">
        <ele>109.199997</ele>
        <time>2016-12-04T09:58:02Z</time>
      </trkpt>
      <trkpt lat="49.06846" lon="1.19455">
        <ele>111.199997</ele>
        <time>2016-12-04T09:58:08Z</time>
      </trkpt>
      <trkpt lat="49.06849" lon="1.1947">
        <ele>113</ele>
        <time>2016-12-04T09:58:14Z</time>
      </trkpt>
      <trkpt lat="49.0685" lon="1.19485">
        <ele>114.599998</ele>
        <time>2016-12-04T09:58:20Z</time>
      </trkpt>
      <trkpt lat="49.06849" lon="1.19499">
        <ele>115.599998</ele>
        <time>2016-12-04T09:58:25Z</time>
      </trkpt>
      <trkpt lat="49.06847" lon="1.19515">
        <ele>116.599998</ele>
        <time>2016-12-04T09:58:30Z</time>
      </trkpt>
      <trkpt lat="49.06846" lon="1.19531">
        <ele>117.699997</ele>
        <time>2016-12-04T09:58:35Z</time>
      </trkpt>
      <trkpt lat="49.06844" lon="1.19546">
        <ele>118.800003</ele>
        <time>2016-12-04T09:58:40Z</time>
      </trkpt>
      <trkpt lat="49.06844" lon="1.19561">
        <ele>119.5</ele>
        <time>2016-12-04T09:58:44Z</time>
      </trkpt>
      <trkpt lat="49.06844" lon="1.19576">
        <ele>120.300003</ele>
        <time>2016-12-04T09:58:48Z</time>
      </trkpt>
      <trkpt lat="49.06845" lon="1.19592">
        <ele>121</ele>
        <time>2016-12-04T09:58:52Z</time>
      </trkpt>
      <trkpt lat="49.06845" lon="1.19607">
        <ele>121.5</ele>
        <time>2016-12-04T09:58:56Z</time>
      </trkpt>
      <trkpt lat="49.06842" lon="1.19623">
        <ele>122.300003</ele>
        <time>2016-12-04T09:59:01Z</time>
      </trkpt>
      <trkpt lat="49.06838" lon="1.19637">
        <ele>123</ele>
        <time>2016-12-04T09:59:05Z</time>
      </trkpt>
      <trkpt lat="49.06831" lon="1.19663">
        <ele>125.900002</ele>
        <time>2016-12-04T10:00:52Z</time>
      </trkpt>
      <trkpt lat="49.06829" lon="1.19677">
        <ele>126</ele>
        <time>2016-12-04T10:00:56Z</time>
      </trkpt>
      <trkpt lat="49.0683" lon="1.19691">
        <ele>126.099998</ele>
        <time>2016-12-04T10:01:00Z</time>
      </trkpt>
      <trkpt lat="49.0683" lon="1.19705">
        <ele>126.300003</ele>
        <time>2016-12-04T10:01:04Z</time>
      </trkpt>
      <trkpt lat="49.06831" lon="1.19721">
        <ele>126.599998</ele>
        <time>2016-12-04T10:01:08Z</time>
      </trkpt>
      <trkpt lat="49.06833" lon="1.19738">
        <ele>126.900002</ele>
        <time>2016-12-04T10:01:12Z</time>
      </trkpt>
      <trkpt lat="49.06835" lon="1.19754">
        <ele>127.199997</ele>
        <time>2016-12-04T10:01:15Z</time>
      </trkpt>
      <trkpt lat="49.06837" lon="1.19771">
        <ele>127.400002</ele>
        <time>2016-12-04T10:01:18Z</time>
      </trkpt>
      <trkpt lat="49.0684" lon="1.19788">
        <ele>127.5</ele>
        <time>2016-12-04T10:01:21Z</time>
      </trkpt>
      <trkpt lat="49.06842" lon="1.19803">
        <ele>127.699997</ele>
        <time>2016-12-04T10:01:24Z</time>
      </trkpt>
      <trkpt lat="49.06844" lon="1.1982">
        <ele>127.900002</ele>
        <time>2016-12-04T10:01:28Z</time>
      </trkpt>
      <trkpt lat="49.06847" lon="1.19834">
        <ele>128.100006</ele>
        <time>2016-12-04T10:01:32Z</time>
      </trkpt>
      <trkpt lat="49.06845" lon="1.19848">
        <ele>128.800003</ele>
        <time>2016-12-04T10:01:55Z</time>
      </trkpt>
      <trkpt lat="49.06836" lon="1.19858">
        <ele>128.899994</ele>
        <time>2016-12-04T10:02:29Z</time>
      </trkpt>
      <trkpt lat="49.06826" lon="1.19868">
        <ele>129</ele>
        <time>2016-12-04T10:02:32Z</time>
      </trkpt>
      <trkpt lat="49.06817" lon="1.19874">
        <ele>129</ele>
        <time>2016-12-04T10:02:34Z</time>
      </trkpt>
      <trkpt lat="49.06808" lon="1.1988">
        <ele>129.100006</ele>
        <time>2016-12-04T10:02:36Z</time>
      </trkpt>
      <trkpt lat="49.068" lon="1.19886">
        <ele>129.199997</ele>
        <time>2016-12-04T10:02:38Z</time>
      </trkpt>
      <trkpt lat="49.06791" lon="1.19892">
        <ele>129.300003</ele>
        <time>2016-12-04T10:02:40Z</time>
      </trkpt>
      <trkpt lat="49.06782" lon="1.19898">
        <ele>129.399994</ele>
        <time>2016-12-04T10:02:42Z</time>
      </trkpt>
      <trkpt lat="49.06773" lon="1.19905">
        <ele>129.5</ele>
        <time>2016-12-04T10:02:44Z</time>
      </trkpt>
      <trkpt lat="49.06765" lon="1.19911">
        <ele>129.5</ele>
        <time>2016-12-04T10:02:46Z</time>
      </trkpt>
      <trkpt lat="49.06756" lon="1.19917">
        <ele>129.600006</ele>
        <time>2016-12-04T10:02:48Z</time>
      </trkpt>
      <trkpt lat="49.06747" lon="1.19922">
        <ele>129.699997</ele>
        <time>2016-12-04T10:02:50Z</time>
      </trkpt>
      <trkpt lat="49.06738" lon="1.19927">
        <ele>129.800003</ele>
        <time>2016-12-04T10:02:52Z</time>
      </trkpt>
      <trkpt lat="49.06729" lon="1.19934">
        <ele>129.899994</ele>
        <time>2016-12-04T10:02:54Z</time>
      </trkpt>
      <trkpt lat="49.06721" lon="1.19941">
        <ele>130</ele>
        <time>2016-12-04T10:02:56Z</time>
      </trkpt>
      <trkpt lat="49.06713" lon="1.19948">
        <ele>130.100006</ele>
        <time>2016-12-04T10:02:58Z</time>
      </trkpt>
      <trkpt lat="49.06704" lon="1.19955">
        <ele>130.100006</ele>
        <time>2016-12-04T10:03:00Z</time>
      </trkpt>
      <trkpt lat="49.06695" lon="1.19961">
        <ele>130.199997</ele>
        <time>2016-12-04T10:03:02Z</time>
      </trkpt>
      <trkpt lat="49.06686" lon="1.19967">
        <ele>130.300003</ele>
        <time>2016-12-04T10:03:04Z</time>
      </trkpt>
      <trkpt lat="49.06677" lon="1.19974">
        <ele>130.300003</ele>
        <time>2016-12-04T10:03:06Z</time>
      </trkpt>
      <trkpt lat="49.06667" lon="1.19979">
        <ele>130.399994</ele>
        <time>2016-12-04T10:03:08Z</time>
      </trkpt>
      <trkpt lat="49.06658" lon="1.19985">
        <ele>130.5</ele>
        <time>2016-12-04T10:03:10Z</time>
      </trkpt>
      <trkpt lat="49.06648" lon="1.1999">
        <ele>130.5</ele>
        <time>2016-12-04T10:03:12Z</time>
      </trkpt>
      <trkpt lat="49.06639" lon="1.19994">
        <ele>130.600006</ele>
        <time>2016-12-04T10:03:14Z</time>
      </trkpt>
      <trkpt lat="49.06629" lon="1.19999">
        <ele>130.600006</ele>
        <time>2016-12-04T10:03:16Z</time>
      </trkpt>
      <trkpt lat="49.0662" lon="1.20004">
        <ele>130.699997</ele>
        <time>2016-12-04T10:03:18Z</time>
      </trkpt>
      <trkpt lat="49.06611" lon="1.20011">
        <ele>130.699997</ele>
        <time>2016-12-04T10:03:20Z</time>
      </trkpt>
      <trkpt lat="49.06603" lon="1.20019">
        <ele>130.699997</ele>
        <time>2016-12-04T10:03:22Z</time>
      </trkpt>
      <trkpt lat="49.06594" lon="1.20026">
        <ele>130.800003</ele>
        <time>2016-12-04T10:03:24Z</time>
      </trkpt>
      <trkpt lat="49.06585" lon="1.20034">
        <ele>130.800003</ele>
        <time>2016-12-04T10:03:26Z</time>
      </trkpt>
      <trkpt lat="49.06576" lon="1.20041">
        <ele>130.800003</ele>
        <time>2016-12-04T10:03:28Z</time>
      </trkpt>
      <trkpt lat="49.06567" lon="1.20047">
        <ele>130.800003</ele>
        <time>2016-12-04T10:03:30Z</time>
      </trkpt>
      <trkpt lat="49.06559" lon="1.20054">
        <ele>130.800003</ele>
        <time>2016-12-04T10:03:32Z</time>
      </trkpt>
      <trkpt lat="49.06546" lon="1.20061">
        <ele>130.899994</ele>
        <time>2016-12-04T10:03:35Z</time>
      </trkpt>
      <trkpt lat="49.06537" lon="1.20065">
        <ele>130.899994</ele>
        <time>2016-12-04T10:03:37Z</time>
      </trkpt>
      <trkpt lat="49.06528" lon="1.20069">
        <ele>130.899994</ele>
        <time>2016-12-04T10:03:39Z</time>
      </trkpt>
      <trkpt lat="49.06518" lon="1.20071">
        <ele>130.800003</ele>
        <time>2016-12-04T10:03:41Z</time>
      </trkpt>
      <trkpt lat="49.06508" lon="1.20072">
        <ele>130.800003</ele>
        <time>2016-12-04T10:03:43Z</time>
      </trkpt>
      <trkpt lat="49.06496" lon="1.20068">
        <ele>130.699997</ele>
        <time>2016-12-04T10:03:46Z</time>
      </trkpt>
      <trkpt lat="49.06489" lon="1.20055">
        <ele>130.300003</ele>
        <time>2016-12-04T10:03:49Z</time>
      </trkpt>
      <trkpt lat="49.0649" lon="1.20037">
        <ele>129.899994</ele>
        <time>2016-12-04T10:03:52Z</time>
      </trkpt>
      <trkpt lat="49.06492" lon="1.20022">
        <ele>129.699997</ele>
        <time>2016-12-04T10:03:54Z</time>
      </trkpt>
      <trkpt lat="49.06495" lon="1.20008">
        <ele>129.399994</ele>
        <time>2016-12-04T10:03:56Z</time>
      </trkpt>
      <trkpt lat="49.06497" lon="1.19993">
        <ele>129.100006</ele>
        <time>2016-12-04T10:03:58Z</time>
      </trkpt>
      <trkpt lat="49.065" lon="1.19979">
        <ele>128.899994</ele>
        <time>2016-12-04T10:04:00Z</time>
      </trkpt>
      <trkpt lat="49.06503" lon="1.19964">
        <ele>128.699997</ele>
        <time>2016-12-04T10:04:02Z</time>
      </trkpt>
      <trkpt lat="49.06507" lon="1.19948">
        <ele>128.399994</ele>
        <time>2016-12-04T10:04:04Z</time>
      </trkpt>
      <trkpt lat="49.0651" lon="1.19933">
        <ele>128.199997</ele>
        <time>2016-12-04T10:04:06Z</time>
      </trkpt>
      <trkpt lat="49.06513" lon="1.19917">
        <ele>128</ele>
        <time>2016-12-04T10:04:08Z</time>
      </trkpt>
      <trkpt lat="49.06515" lon="1.19901">
        <ele>127.699997</ele>
        <time>2016-12-04T10:04:10Z</time>
      </trkpt>
      <trkpt lat="49.06516" lon="1.19886">
        <ele>127.400002</ele>
        <time>2016-12-04T10:04:12Z</time>
      </trkpt>
      <trkpt lat="49.06516" lon="1.19871">
        <ele>127.199997</ele>
        <time>2016-12-04T10:04:14Z</time>
      </trkpt>
      <trkpt lat="49.06516" lon="1.19856">
        <ele>127</ele>
        <time>2016-12-04T10:04:16Z</time>
      </trkpt>
      <trkpt lat="49.06517" lon="1.19842">
        <ele>126.699997</ele>
        <time>2016-12-04T10:04:18Z</time>
      </trkpt>
      <trkpt lat="49.06516" lon="1.19827">
        <ele>126.5</ele>
        <time>2016-12-04T10:04:20Z</time>
      </trkpt>
      <trkpt lat="49.06512" lon="1.19815">
        <ele>126.300003</ele>
        <time>2016-12-04T10:04:22Z</time>
      </trkpt>
      <trkpt lat="49.06508" lon="1.19799">
        <ele>126.099998</ele>
        <time>2016-12-04T10:04:25Z</time>
      </trkpt>
      <trkpt lat="49.06506" lon="1.19783">
        <ele>125.900002</ele>
        <time>2016-12-04T10:04:29Z</time>
      </trkpt>
      <trkpt lat="49.06502" lon="1.1977">
        <ele>125.800003</ele>
        <time>2016-12-04T10:04:32Z</time>
      </trkpt>
      <trkpt lat="49.06499" lon="1.19755">
        <ele>125.699997</ele>
        <time>2016-12-04T10:04:35Z</time>
      </trkpt>
      <trkpt lat="49.06495" lon="1.19737">
        <ele>125.900002</ele>
        <time>2016-12-04T10:04:38Z</time>
      </trkpt>
      <trkpt lat="49.06493" lon="1.19717">
        <ele>126.099998</ele>
        <time>2016-12-04T10:04:41Z</time>
      </trkpt>
      <trkpt lat="49.06493" lon="1.19698">
        <ele>126.199997</ele>
        <time>2016-12-04T10:04:44Z</time>
      </trkpt>
      <trkpt lat="49.06493" lon="1.19683">
        <ele>126.300003</ele>
        <time>2016-12-04T10:04:46Z</time>
      </trkpt>
      <trkpt lat="49.06494" lon="1.19663">
        <ele>126.400002</ele>
        <time>2016-12-04T10:04:49Z</time>
      </trkpt>
      <trkpt lat="49.06497" lon="1.19644">
        <ele>126.400002</ele>
        <time>2016-12-04T10:04:52Z</time>
      </trkpt>
      <trkpt lat="49.06499" lon="1.19626">
        <ele>126.5</ele>
        <time>2016-12-04T10:04:55Z</time>
      </trkpt>
      <trkpt lat="49.06503" lon="1.19608">
        <ele>126.5</ele>
        <time>2016-12-04T10:04:58Z</time>
      </trkpt>
      <trkpt lat="49.06508" lon="1.1959">
        <ele>126.5</ele>
        <time>2016-12-04T10:05:01Z</time>
      </trkpt>
      <trkpt lat="49.06511" lon="1.19576">
        <ele>126.400002</ele>
        <time>2016-12-04T10:05:03Z</time>
      </trkpt>
      <trkpt lat="49.06514" lon="1.19562">
        <ele>126.300003</ele>
        <time>2016-12-04T10:05:05Z</time>
      </trkpt>
      <trkpt lat="49.06516" lon="1.19545">
        <ele>126.199997</ele>
        <time>2016-12-04T10:05:07Z</time>
      </trkpt>
      <trkpt lat="49.06518" lon="1.19531">
        <ele>126</ele>
        <time>2016-12-04T10:05:09Z</time>
      </trkpt>
      <trkpt lat="49.0652" lon="1.19517">
        <ele>125.800003</ele>
        <time>2016-12-04T10:05:11Z</time>
      </trkpt>
      <trkpt lat="49.0652" lon="1.195">
        <ele>125.599998</ele>
        <time>2016-12-04T10:05:13Z</time>
      </trkpt>
      <trkpt lat="49.0652" lon="1.19483">
        <ele>125.400002</ele>
        <time>2016-12-04T10:05:15Z</time>
      </trkpt>
      <trkpt lat="49.06521" lon="1.19467">
        <ele>125.199997</ele>
        <time>2016-12-04T10:05:17Z</time>
      </trkpt>
      <trkpt lat="49.06519" lon="1.19452">
        <ele>125</ele>
        <time>2016-12-04T10:05:19Z</time>
      </trkpt>
      <trkpt lat="49.06517" lon="1.19437">
        <ele>124.699997</ele>
        <time>2016-12-04T10:05:21Z</time>
      </trkpt>
      <trkpt lat="49.06513" lon="1.19423">
        <ele>124.5</ele>
        <time>2016-12-04T10:05:23Z</time>
      </trkpt>
      <trkpt lat="49.06508" lon="1.19409">
        <ele>124.300003</ele>
        <time>2016-12-04T10:05:25Z</time>
      </trkpt>
      <trkpt lat="49.06502" lon="1.19398">
        <ele>124.099998</ele>
        <time>2016-12-04T10:05:27Z</time>
      </trkpt>
      <trkpt lat="49.06495" lon="1.19389">
        <ele>124</ele>
        <time>2016-12-04T10:05:29Z</time>
      </trkpt>
      <trkpt lat="49.06487" lon="1.19381">
        <ele>123.800003</ele>
        <time>2016-12-04T10:05:31Z</time>
      </trkpt>
      <trkpt lat="49.06475" lon="1.19371">
        <ele>123.599998</ele>
        <time>2016-12-04T10:05:34Z</time>
      </trkpt>
      <trkpt lat="49.06465" lon="1.19361">
        <ele>123.5</ele>
        <time>2016-12-04T10:05:37Z</time>
      </trkpt>
      <trkpt lat="49.06453" lon="1.19351">
        <ele>123.5</ele>
        <time>2016-12-04T10:05:40Z</time>
      </trkpt>
      <trkpt lat="49.06444" lon="1.19346">
        <ele>123.599998</ele>
        <time>2016-12-04T10:05:42Z</time>
      </trkpt>
      <trkpt lat="49.06436" lon="1.19339">
        <ele>123.599998</ele>
        <time>2016-12-04T10:05:44Z</time>
      </trkpt>
      <trkpt lat="49.06424" lon="1.1933">
        <ele>123.800003</ele>
        <time>2016-12-04T10:05:47Z</time>
      </trkpt>
      <trkpt lat="49.06415" lon="1.19324">
        <ele>123.900002</ele>
        <time>2016-12-04T10:05:49Z</time>
      </trkpt>
      <trkpt lat="49.06403" lon="1.19315">
        <ele>124.099998</ele>
        <time>2016-12-04T10:05:52Z</time>
      </trkpt>
      <trkpt lat="49.06391" lon="1.19307">
        <ele>124.400002</ele>
        <time>2016-12-04T10:05:55Z</time>
      </trkpt>
      <trkpt lat="49.06381" lon="1.19296">
        <ele>124.699997</ele>
        <time>2016-12-04T10:05:58Z</time>
      </trkpt>
      <trkpt lat="49.06372" lon="1.19281">
        <ele>124.900002</ele>
        <time>2016-12-04T10:06:01Z</time>
      </trkpt>
      <trkpt lat="49.06369" lon="1.19268">
        <ele>125.099998</ele>
        <time>2016-12-04T10:06:03Z</time>
      </trkpt>
      <trkpt lat="49.06364" lon="1.19254">
        <ele>125.199997</ele>
        <time>2016-12-04T10:06:05Z</time>
      </trkpt>
      <trkpt lat="49.06361" lon="1.1924">
        <ele>125.300003</ele>
        <time>2016-12-04T10:06:07Z</time>
      </trkpt>
      <trkpt lat="49.06359" lon="1.19226">
        <ele>125.400002</ele>
        <time>2016-12-04T10:06:09Z</time>
      </trkpt>
      <trkpt lat="49.06356" lon="1.19212">
        <ele>125.5</ele>
        <time>2016-12-04T10:06:11Z</time>
      </trkpt>
      <trkpt lat="49.06354" lon="1.19197">
        <ele>125.5</ele>
        <time>2016-12-04T10:06:13Z</time>
      </trkpt>
      <trkpt lat="49.06353" lon="1.19182">
        <ele>125.599998</ele>
        <time>2016-12-04T10:06:15Z</time>
      </trkpt>
      <trkpt lat="49.0635" lon="1.19168">
        <ele>125.599998</ele>
        <time>2016-12-04T10:06:17Z</time>
      </trkpt>
      <trkpt lat="49.06347" lon="1.19154">
        <ele>125.699997</ele>
        <time>2016-12-04T10:06:19Z</time>
      </trkpt>
      <trkpt lat="49.06345" lon="1.19134">
        <ele>125.699997</ele>
        <time>2016-12-04T10:06:22Z</time>
      </trkpt>
      <trkpt lat="49.06343" lon="1.1912">
        <ele>125.800003</ele>
        <time>2016-12-04T10:06:24Z</time>
      </trkpt>
      <trkpt lat="49.06342" lon="1.19106">
        <ele>125.800003</ele>
        <time>2016-12-04T10:06:26Z</time>
      </trkpt>
      <trkpt lat="49.06339" lon="1.19092">
        <ele>125.900002</ele>
        <time>2016-12-04T10:06:28Z</time>
      </trkpt>
      <trkpt lat="49.06337" lon="1.19078">
        <ele>125.900002</ele>
        <time>2016-12-04T10:06:30Z</time>
      </trkpt>
      <trkpt lat="49.06335" lon="1.19065">
        <ele>126</ele>
        <time>2016-12-04T10:06:32Z</time>
      </trkpt>
      <trkpt lat="49.06334" lon="1.1905">
        <ele>126.099998</ele>
        <time>2016-12-04T10:06:34Z</time>
      </trkpt>
      <trkpt lat="49.06331" lon="1.19036">
        <ele>126.099998</ele>
        <time>2016-12-04T10:06:36Z</time>
      </trkpt>
      <trkpt lat="49.06329" lon="1.19021">
        <ele>126.199997</ele>
        <time>2016-12-04T10:06:38Z</time>
      </trkpt>
      <trkpt lat="49.06327" lon="1.19007">
        <ele>126.199997</ele>
        <time>2016-12-04T10:06:40Z</time>
      </trkpt>
      <trkpt lat="49.06325" lon="1.18992">
        <ele>126.400002</ele>
        <time>2016-12-04T10:06:42Z</time>
      </trkpt>
      <trkpt lat="49.06323" lon="1.18978">
        <ele>126.5</ele>
        <time>2016-12-04T10:06:44Z</time>
      </trkpt>
      <trkpt lat="49.06321" lon="1.18963">
        <ele>126.5</ele>
        <time>2016-12-04T10:06:46Z</time>
      </trkpt>
      <trkpt lat="49.06319" lon="1.18948">
        <ele>126.599998</ele>
        <time>2016-12-04T10:06:48Z</time>
      </trkpt>
      <trkpt lat="49.06317" lon="1.18933">
        <ele>126.699997</ele>
        <time>2016-12-04T10:06:50Z</time>
      </trkpt>
      <trkpt lat="49.06315" lon="1.18919">
        <ele>126.900002</ele>
        <time>2016-12-04T10:06:52Z</time>
      </trkpt>
      <trkpt lat="49.06312" lon="1.18904">
        <ele>127</ele>
        <time>2016-12-04T10:06:54Z</time>
      </trkpt>
      <trkpt lat="49.06311" lon="1.18888">
        <ele>127.099998</ele>
        <time>2016-12-04T10:06:56Z</time>
      </trkpt>
      <trkpt lat="49.06309" lon="1.18873">
        <ele>127.199997</ele>
        <time>2016-12-04T10:06:58Z</time>
      </trkpt>
      <trkpt lat="49.06307" lon="1.18858">
        <ele>127.199997</ele>
        <time>2016-12-04T10:07:00Z</time>
      </trkpt>
      <trkpt lat="49.06304" lon="1.18843">
        <ele>127.300003</ele>
        <time>2016-12-04T10:07:02Z</time>
      </trkpt>
      <trkpt lat="49.06302" lon="1.18828">
        <ele>127.300003</ele>
        <time>2016-12-04T10:07:04Z</time>
      </trkpt>
      <trkpt lat="49.063" lon="1.18813">
        <ele>127.400002</ele>
        <time>2016-12-04T10:07:06Z</time>
      </trkpt>
      <trkpt lat="49.06298" lon="1.18797">
        <ele>127.400002</ele>
        <time>2016-12-04T10:07:08Z</time>
      </trkpt>
      <trkpt lat="49.06297" lon="1.18782">
        <ele>127.400002</ele>
        <time>2016-12-04T10:07:10Z</time>
      </trkpt>
      <trkpt lat="49.06295" lon="1.18767">
        <ele>127.400002</ele>
        <time>2016-12-04T10:07:12Z</time>
      </trkpt>
      <trkpt lat="49.06292" lon="1.18751">
        <ele>127.400002</ele>
        <time>2016-12-04T10:07:14Z</time>
      </trkpt>
      <trkpt lat="49.06289" lon="1.18735">
        <ele>127.5</ele>
        <time>2016-12-04T10:07:16Z</time>
      </trkpt>
      <trkpt lat="49.06287" lon="1.1872">
        <ele>127.5</ele>
        <time>2016-12-04T10:07:18Z</time>
      </trkpt>
      <trkpt lat="49.06283" lon="1.18704">
        <ele>127.5</ele>
        <time>2016-12-04T10:07:20Z</time>
      </trkpt>
      <trkpt lat="49.06279" lon="1.18689">
        <ele>127.5</ele>
        <time>2016-12-04T10:07:22Z</time>
      </trkpt>
      <trkpt lat="49.06276" lon="1.18675">
        <ele>127.400002</ele>
        <time>2016-12-04T10:07:24Z</time>
      </trkpt>
      <trkpt lat="49.06272" lon="1.18663">
        <ele>127.300003</ele>
        <time>2016-12-04T10:07:26Z</time>
      </trkpt>
      <trkpt lat="49.06268" lon="1.1865">
        <ele>127.199997</ele>
        <time>2016-12-04T10:07:28Z</time>
      </trkpt>
      <trkpt lat="49.06263" lon="1.18636">
        <ele>127.099998</ele>
        <time>2016-12-04T10:07:30Z</time>
      </trkpt>
      <trkpt lat="49.06258" lon="1.18623">
        <ele>127</ele>
        <time>2016-12-04T10:07:32Z</time>
      </trkpt>
      <trkpt lat="49.06252" lon="1.18611">
        <ele>126.900002</ele>
        <time>2016-12-04T10:07:34Z</time>
      </trkpt>
      <trkpt lat="49.06247" lon="1.18598">
        <ele>126.800003</ele>
        <time>2016-12-04T10:07:36Z</time>
      </trkpt>
      <trkpt lat="49.06241" lon="1.18585">
        <ele>126.699997</ele>
        <time>2016-12-04T10:07:38Z</time>
      </trkpt>
      <trkpt lat="49.06235" lon="1.18573">
        <ele>126.599998</ele>
        <time>2016-12-04T10:07:40Z</time>
      </trkpt>
      <trkpt lat="49.0623" lon="1.1856">
        <ele>126.5</ele>
        <time>2016-12-04T10:07:42Z</time>
      </trkpt>
      <trkpt lat="49.06224" lon="1.18546">
        <ele>126.5</ele>
        <time>2016-12-04T10:07:44Z</time>
      </trkpt>
      <trkpt lat="49.06217" lon="1.18533">
        <ele>126.300003</ele>
        <time>2016-12-04T10:07:46Z</time>
      </trkpt>
      <trkpt lat="49.06211" lon="1.1852">
        <ele>126.199997</ele>
        <time>2016-12-04T10:07:48Z</time>
      </trkpt>
      <trkpt lat="49.06205" lon="1.18506">
        <ele>126.099998</ele>
        <time>2016-12-04T10:07:50Z</time>
      </trkpt>
      <trkpt lat="49.06199" lon="1.18492">
        <ele>125.900002</ele>
        <time>2016-12-04T10:07:52Z</time>
      </trkpt>
      <trkpt lat="49.06192" lon="1.1848">
        <ele>125.699997</ele>
        <time>2016-12-04T10:07:54Z</time>
      </trkpt>
      <trkpt lat="49.06185" lon="1.18465">
        <ele>125.5</ele>
        <time>2016-12-04T10:07:56Z</time>
      </trkpt>
      <trkpt lat="49.0618" lon="1.18452">
        <ele>125.199997</ele>
        <time>2016-12-04T10:07:58Z</time>
      </trkpt>
      <trkpt lat="49.06173" lon="1.18437">
        <ele>124.800003</ele>
        <time>2016-12-04T10:08:00Z</time>
      </trkpt>
      <trkpt lat="49.06166" lon="1.18422">
        <ele>124.400002</ele>
        <time>2016-12-04T10:08:02Z</time>
      </trkpt>
      <trkpt lat="49.0616" lon="1.18406">
        <ele>124</ele>
        <time>2016-12-04T10:08:04Z</time>
      </trkpt>
      <trkpt lat="49.06154" lon="1.1839">
        <ele>123.5</ele>
        <time>2016-12-04T10:08:06Z</time>
      </trkpt>
      <trkpt lat="49.06147" lon="1.18374">
        <ele>122.900002</ele>
        <time>2016-12-04T10:08:08Z</time>
      </trkpt>
      <trkpt lat="49.06139" lon="1.1836">
        <ele>122.199997</ele>
        <time>2016-12-04T10:08:10Z</time>
      </trkpt>
      <trkpt lat="49.06131" lon="1.18343">
        <ele>121.5</ele>
        <time>2016-12-04T10:08:12Z</time>
      </trkpt>
      <trkpt lat="49.06122" lon="1.18323">
        <ele>120.800003</ele>
        <time>2016-12-04T10:08:14Z</time>
      </trkpt>
      <trkpt lat="49.06112" lon="1.18305">
        <ele>120</ele>
        <time>2016-12-04T10:08:16Z</time>
      </trkpt>
      <trkpt lat="49.06103" lon="1.18285">
        <ele>119.300003</ele>
        <time>2016-12-04T10:08:18Z</time>
      </trkpt>
      <trkpt lat="49.06094" lon="1.18266">
        <ele>118.5</ele>
        <time>2016-12-04T10:08:20Z</time>
      </trkpt>
      <trkpt lat="49.06085" lon="1.18248">
        <ele>117.699997</ele>
        <time>2016-12-04T10:08:22Z</time>
      </trkpt>
      <trkpt lat="49.06076" lon="1.18228">
        <ele>116.800003</ele>
        <time>2016-12-04T10:08:24Z</time>
      </trkpt>
      <trkpt lat="49.06068" lon="1.18209">
        <ele>116</ele>
        <time>2016-12-04T10:08:26Z</time>
      </trkpt>
      <trkpt lat="49.0606" lon="1.18191">
        <ele>115</ele>
        <time>2016-12-04T10:08:28Z</time>
      </trkpt>
      <trkpt lat="49.06051" lon="1.18172">
        <ele>113.900002</ele>
        <time>2016-12-04T10:08:30Z</time>
      </trkpt>
      <trkpt lat="49.06041" lon="1.18154">
        <ele>112.900002</ele>
        <time>2016-12-04T10:08:32Z</time>
      </trkpt>
      <trkpt lat="49.06034" lon="1.1814">
        <ele>111.699997</ele>
        <time>2016-12-04T10:08:34Z</time>
      </trkpt>
      <trkpt lat="49.0603" lon="1.18128">
        <ele>110.599998</ele>
        <time>2016-12-04T10:08:36Z</time>
      </trkpt>
      <trkpt lat="49.06023" lon="1.18113">
        <ele>109.199997</ele>
        <time>2016-12-04T10:08:39Z</time>
      </trkpt>
      <trkpt lat="49.06017" lon="1.18103">
        <ele>108.300003</ele>
        <time>2016-12-04T10:08:41Z</time>
      </trkpt>
      <trkpt lat="49.06012" lon="1.18089">
        <ele>107.400002</ele>
        <time>2016-12-04T10:08:43Z</time>
      </trkpt>
      <trkpt lat="49.06004" lon="1.18073">
        <ele>106.400002</ele>
        <time>2016-12-04T10:08:45Z</time>
      </trkpt>
      <trkpt lat="49.05996" lon="1.18055">
        <ele>105.400002</ele>
        <time>2016-12-04T10:08:47Z</time>
      </trkpt>
      <trkpt lat="49.05988" lon="1.18036">
        <ele>104.400002</ele>
        <time>2016-12-04T10:08:49Z</time>
      </trkpt>
      <trkpt lat="49.05979" lon="1.18015">
        <ele>103.300003</ele>
        <time>2016-12-04T10:08:51Z</time>
      </trkpt>
      <trkpt lat="49.05969" lon="1.17994">
        <ele>102.199997</ele>
        <time>2016-12-04T10:08:53Z</time>
      </trkpt>
      <trkpt lat="49.05959" lon="1.17974">
        <ele>100.900002</ele>
        <time>2016-12-04T10:08:55Z</time>
      </trkpt>
      <trkpt lat="49.0595" lon="1.17952">
        <ele>99.699997</ele>
        <time>2016-12-04T10:08:57Z</time>
      </trkpt>
      <trkpt lat="49.05939" lon="1.1793">
        <ele>98.199997</ele>
        <time>2016-12-04T10:08:59Z</time>
      </trkpt>
      <trkpt lat="49.0593" lon="1.1791">
        <ele>96.699997</ele>
        <time>2016-12-04T10:09:01Z</time>
      </trkpt>
      <trkpt lat="49.05921" lon="1.17892">
        <ele>95.300003</ele>
        <time>2016-12-04T10:09:03Z</time>
      </trkpt>
      <trkpt lat="49.05911" lon="1.17872">
        <ele>93.900002</ele>
        <time>2016-12-04T10:09:05Z</time>
      </trkpt>
      <trkpt lat="49.05904" lon="1.17855">
        <ele>92.400002</ele>
        <time>2016-12-04T10:09:07Z</time>
      </trkpt>
      <trkpt lat="49.05896" lon="1.1784">
        <ele>90.900002</ele>
        <time>2016-12-04T10:09:09Z</time>
      </trkpt>
      <trkpt lat="49.05889" lon="1.17823">
        <ele>89.400002</ele>
        <time>2016-12-04T10:09:11Z</time>
      </trkpt>
      <trkpt lat="49.0588" lon="1.17806">
        <ele>87.900002</ele>
        <time>2016-12-04T10:09:13Z</time>
      </trkpt>
      <trkpt lat="49.05872" lon="1.17787">
        <ele>86.400002</ele>
        <time>2016-12-04T10:09:15Z</time>
      </trkpt>
      <trkpt lat="49.05862" lon="1.1777">
        <ele>84.900002</ele>
        <time>2016-12-04T10:09:17Z</time>
      </trkpt>
      <trkpt lat="49.05852" lon="1.17751">
        <ele>83.5</ele>
        <time>2016-12-04T10:09:19Z</time>
      </trkpt>
      <trkpt lat="49.05843" lon="1.17729">
        <ele>82</ele>
        <time>2016-12-04T10:09:21Z</time>
      </trkpt>
      <trkpt lat="49.05834" lon="1.17709">
        <ele>80.599998</ele>
        <time>2016-12-04T10:09:23Z</time>
      </trkpt>
      <trkpt lat="49.05824" lon="1.17688">
        <ele>79.199997</ele>
        <time>2016-12-04T10:09:25Z</time>
      </trkpt>
      <trkpt lat="49.05814" lon="1.17668">
        <ele>77.699997</ele>
        <time>2016-12-04T10:09:27Z</time>
      </trkpt>
      <trkpt lat="49.05805" lon="1.1765">
        <ele>76.300003</ele>
        <time>2016-12-04T10:09:29Z</time>
      </trkpt>
      <trkpt lat="49.05799" lon="1.17638">
        <ele>74.599998</ele>
        <time>2016-12-04T10:09:31Z</time>
      </trkpt>
      <trkpt lat="49.0579" lon="1.17634">
        <ele>72.5</ele>
        <time>2016-12-04T10:09:34Z</time>
      </trkpt>
      <trkpt lat="49.05781" lon="1.17637">
        <ele>69.900002</ele>
        <time>2016-12-04T10:09:38Z</time>
      </trkpt>
      <trkpt lat="49.05772" lon="1.17642">
        <ele>63.299999</ele>
        <time>2016-12-04T10:09:58Z</time>
      </trkpt>
      <trkpt lat="49.05762" lon="1.17644">
        <ele>61.900002</ele>
        <time>2016-12-04T10:10:11Z</time>
      </trkpt>
      <trkpt lat="49.05752" lon="1.17646">
        <ele>61.5</ele>
        <time>2016-12-04T10:10:19Z</time>
      </trkpt>
      <trkpt lat="49.05741" lon="1.17649">
        <ele>61.299999</ele>
        <time>2016-12-04T10:10:24Z</time>
      </trkpt>
      <trkpt lat="49.0573" lon="1.17651">
        <ele>61.200001</ele>
        <time>2016-12-04T10:10:28Z</time>
      </trkpt>
      <trkpt lat="49.05721" lon="1.17652">
        <ele>61.200001</ele>
        <time>2016-12-04T10:10:31Z</time>
      </trkpt>
      <trkpt lat="49.05712" lon="1.17656">
        <ele>61.299999</ele>
        <time>2016-12-04T10:10:34Z</time>
      </trkpt>
      <trkpt lat="49.05704" lon="1.17664">
        <ele>61.299999</ele>
        <time>2016-12-04T10:10:37Z</time>
      </trkpt>
      <trkpt lat="49.05696" lon="1.17676">
        <ele>61.599998</ele>
        <time>2016-12-04T10:10:41Z</time>
      </trkpt>
      <trkpt lat="49.05688" lon="1.17688">
        <ele>62.200001</ele>
        <time>2016-12-04T10:10:45Z</time>
      </trkpt>
      <trkpt lat="49.0568" lon="1.17699">
        <ele>62.900002</ele>
        <time>2016-12-04T10:10:49Z</time>
      </trkpt>
      <trkpt lat="49.05672" lon="1.1771">
        <ele>63.599998</ele>
        <time>2016-12-04T10:10:53Z</time>
      </trkpt>
      <trkpt lat="49.05663" lon="1.17719">
        <ele>64.599998</ele>
        <time>2016-12-04T10:10:57Z</time>
      </trkpt>
      <trkpt lat="49.05654" lon="1.17727">
        <ele>65.599998</ele>
        <time>2016-12-04T10:11:01Z</time>
      </trkpt>
      <trkpt lat="49.05644" lon="1.17733">
        <ele>66.699997</ele>
        <time>2016-12-04T10:11:05Z</time>
      </trkpt>
      <trkpt lat="49.05634" lon="1.17742">
        <ele>67.900002</ele>
        <time>2016-12-04T10:11:10Z</time>
      </trkpt>
      <trkpt lat="49.05626" lon="1.17747">
        <ele>69</ele>
        <time>2016-12-04T10:11:14Z</time>
      </trkpt>
      <trkpt lat="49.05614" lon="1.17752">
        <ele>69.900002</ele>
        <time>2016-12-04T10:11:18Z</time>
      </trkpt>
      <trkpt lat="49.05605" lon="1.17759">
        <ele>70.599998</ele>
        <time>2016-12-04T10:11:21Z</time>
      </trkpt>
      <trkpt lat="49.05597" lon="1.17766">
        <ele>71.199997</ele>
        <time>2016-12-04T10:11:24Z</time>
      </trkpt>
      <trkpt lat="49.05586" lon="1.17774">
        <ele>72</ele>
        <time>2016-12-04T10:11:28Z</time>
      </trkpt>
      <trkpt lat="49.05578" lon="1.17783">
        <ele>72.699997</ele>
        <time>2016-12-04T10:11:31Z</time>
      </trkpt>
      <trkpt lat="49.05568" lon="1.17793">
        <ele>73.599998</ele>
        <time>2016-12-04T10:11:35Z</time>
      </trkpt>
      <trkpt lat="49.0556" lon="1.17801">
        <ele>74.300003</ele>
        <time>2016-12-04T10:11:38Z</time>
      </trkpt>
      <trkpt lat="49.05552" lon="1.17809">
        <ele>75</ele>
        <time>2016-12-04T10:11:41Z</time>
      </trkpt>
      <trkpt lat="49.05545" lon="1.17816">
        <ele>75.699997</ele>
        <time>2016-12-04T10:11:44Z</time>
      </trkpt>
      <trkpt lat="49.05536" lon="1.17824">
        <ele>76.199997</ele>
        <time>2016-12-04T10:11:47Z</time>
      </trkpt>
      <trkpt lat="49.05526" lon="1.17834">
        <ele>76.699997</ele>
        <time>2016-12-04T10:11:50Z</time>
      </trkpt>
      <trkpt lat="49.05516" lon="1.17846">
        <ele>77.099998</ele>
        <time>2016-12-04T10:11:53Z</time>
      </trkpt>
      <trkpt lat="49.05509" lon="1.17855">
        <ele>77.5</ele>
        <time>2016-12-04T10:11:56Z</time>
      </trkpt>
      <trkpt lat="49.05501" lon="1.17864">
        <ele>77.800003</ele>
        <time>2016-12-04T10:12:00Z</time>
      </trkpt>
      <trkpt lat="49.05492" lon="1.17873">
        <ele>78.199997</ele>
        <time>2016-12-04T10:12:04Z</time>
      </trkpt>
      <trkpt lat="49.05484" lon="1.17884">
        <ele>78.599998</ele>
        <time>2016-12-04T10:12:08Z</time>
      </trkpt>
      <trkpt lat="49.05476" lon="1.17894">
        <ele>78.900002</ele>
        <time>2016-12-04T10:12:12Z</time>
      </trkpt>
      <trkpt lat="49.0547" lon="1.17904">
        <ele>79.199997</ele>
        <time>2016-12-04T10:12:15Z</time>
      </trkpt>
      <trkpt lat="49.05463" lon="1.17916">
        <ele>79.400002</ele>
        <time>2016-12-04T10:12:18Z</time>
      </trkpt>
      <trkpt lat="49.05458" lon="1.17928">
        <ele>79.699997</ele>
        <time>2016-12-04T10:12:21Z</time>
      </trkpt>
      <trkpt lat="49.05455" lon="1.17941">
        <ele>79.900002</ele>
        <time>2016-12-04T10:12:24Z</time>
      </trkpt>
      <trkpt lat="49.0545" lon="1.17956">
        <ele>80.199997</ele>
        <time>2016-12-04T10:12:27Z</time>
      </trkpt>
      <trkpt lat="49.05446" lon="1.17971">
        <ele>80.300003</ele>
        <time>2016-12-04T10:12:30Z</time>
      </trkpt>
      <trkpt lat="49.05439" lon="1.17984">
        <ele>80.5</ele>
        <time>2016-12-04T10:12:33Z</time>
      </trkpt>
      <trkpt lat="49.05432" lon="1.18">
        <ele>80.599998</ele>
        <time>2016-12-04T10:12:36Z</time>
      </trkpt>
      <trkpt lat="49.05427" lon="1.18015">
        <ele>80.699997</ele>
        <time>2016-12-04T10:12:39Z</time>
      </trkpt>
      <trkpt lat="49.05421" lon="1.18032">
        <ele>80.599998</ele>
        <time>2016-12-04T10:12:42Z</time>
      </trkpt>
      <trkpt lat="49.05415" lon="1.18049">
        <ele>80.599998</ele>
        <time>2016-12-04T10:12:45Z</time>
      </trkpt>
      <trkpt lat="49.0541" lon="1.18066">
        <ele>80.5</ele>
        <time>2016-12-04T10:12:48Z</time>
      </trkpt>
      <trkpt lat="49.05403" lon="1.18079">
        <ele>80.300003</ele>
        <time>2016-12-04T10:12:51Z</time>
      </trkpt>
      <trkpt lat="49.05399" lon="1.18092">
        <ele>80.300003</ele>
        <time>2016-12-04T10:12:53Z</time>
      </trkpt>
      <trkpt lat="49.05392" lon="1.18107">
        <ele>80.099998</ele>
        <time>2016-12-04T10:12:56Z</time>
      </trkpt>
      <trkpt lat="49.05386" lon="1.18119">
        <ele>80.099998</ele>
        <time>2016-12-04T10:12:58Z</time>
      </trkpt>
      <trkpt lat="49.05377" lon="1.18134">
        <ele>80</ele>
        <time>2016-12-04T10:13:01Z</time>
      </trkpt>
      <trkpt lat="49.05368" lon="1.18149">
        <ele>79.900002</ele>
        <time>2016-12-04T10:13:04Z</time>
      </trkpt>
      <trkpt lat="49.05361" lon="1.18158">
        <ele>79.900002</ele>
        <time>2016-12-04T10:13:06Z</time>
      </trkpt>
      <trkpt lat="49.05351" lon="1.18172">
        <ele>79.800003</ele>
        <time>2016-12-04T10:13:09Z</time>
      </trkpt>
      <trkpt lat="49.05344" lon="1.18182">
        <ele>79.699997</ele>
        <time>2016-12-04T10:13:11Z</time>
      </trkpt>
      <trkpt lat="49.05337" lon="1.18194">
        <ele>79.599998</ele>
        <time>2016-12-04T10:13:13Z</time>
      </trkpt>
      <trkpt lat="49.05329" lon="1.18204">
        <ele>79.599998</ele>
        <time>2016-12-04T10:13:15Z</time>
      </trkpt>
      <trkpt lat="49.05322" lon="1.18215">
        <ele>79.5</ele>
        <time>2016-12-04T10:13:17Z</time>
      </trkpt>
      <trkpt lat="49.05313" lon="1.18228">
        <ele>79.5</ele>
        <time>2016-12-04T10:13:20Z</time>
      </trkpt>
      <trkpt lat="49.05306" lon="1.18241">
        <ele>79.400002</ele>
        <time>2016-12-04T10:13:23Z</time>
      </trkpt>
      <trkpt lat="49.05298" lon="1.18255">
        <ele>79.400002</ele>
        <time>2016-12-04T10:13:26Z</time>
      </trkpt>
      <trkpt lat="49.05288" lon="1.1827">
        <ele>79.400002</ele>
        <time>2016-12-04T10:13:29Z</time>
      </trkpt>
      <trkpt lat="49.05281" lon="1.1828">
        <ele>79.300003</ele>
        <time>2016-12-04T10:13:31Z</time>
      </trkpt>
      <trkpt lat="49.05275" lon="1.18291">
        <ele>79.300003</ele>
        <time>2016-12-04T10:13:33Z</time>
      </trkpt>
      <trkpt lat="49.05268" lon="1.18301">
        <ele>79.300003</ele>
        <time>2016-12-04T10:13:35Z</time>
      </trkpt>
      <trkpt lat="49.05262" lon="1.18311">
        <ele>79.300003</ele>
        <time>2016-12-04T10:13:37Z</time>
      </trkpt>
      <trkpt lat="49.05255" lon="1.18322">
        <ele>79.300003</ele>
        <time>2016-12-04T10:13:39Z</time>
      </trkpt>
      <trkpt lat="49.05249" lon="1.18333">
        <ele>79.300003</ele>
        <time>2016-12-04T10:13:41Z</time>
      </trkpt>
      <trkpt lat="49.05242" lon="1.18343">
        <ele>79.199997</ele>
        <time>2016-12-04T10:13:43Z</time>
      </trkpt>
      <trkpt lat="49.05234" lon="1.18354">
        <ele>79.099998</ele>
        <time>2016-12-04T10:13:45Z</time>
      </trkpt>
      <trkpt lat="49.05223" lon="1.18365">
        <ele>78.900002</ele>
        <time>2016-12-04T10:13:48Z</time>
      </trkpt>
      <trkpt lat="49.05212" lon="1.18371">
        <ele>78.699997</ele>
        <time>2016-12-04T10:13:50Z</time>
      </trkpt>
      <trkpt lat="49.05201" lon="1.18377">
        <ele>78.400002</ele>
        <time>2016-12-04T10:13:52Z</time>
      </trkpt>
      <trkpt lat="49.0519" lon="1.18381">
        <ele>78.099998</ele>
        <time>2016-12-04T10:13:54Z</time>
      </trkpt>
      <trkpt lat="49.05179" lon="1.18388">
        <ele>77.699997</ele>
        <time>2016-12-04T10:13:56Z</time>
      </trkpt>
      <trkpt lat="49.0517" lon="1.18395">
        <ele>77.199997</ele>
        <time>2016-12-04T10:13:59Z</time>
      </trkpt>
      <trkpt lat="49.0516" lon="1.184">
        <ele>76.699997</ele>
        <time>2016-12-04T10:14:02Z</time>
      </trkpt>
      <trkpt lat="49.0515" lon="1.18405">
        <ele>76.199997</ele>
        <time>2016-12-04T10:14:06Z</time>
      </trkpt>
      <trkpt lat="49.05141" lon="1.18397">
        <ele>75.599998</ele>
        <time>2016-12-04T10:14:12Z</time>
      </trkpt>
      <trkpt lat="49.05136" lon="1.18384">
        <ele>75.300003</ele>
        <time>2016-12-04T10:14:16Z</time>
      </trkpt>
      <trkpt lat="49.05132" lon="1.1837">
        <ele>75.099998</ele>
        <time>2016-12-04T10:14:19Z</time>
      </trkpt>
      <trkpt lat="49.05129" lon="1.18353">
        <ele>74.800003</ele>
        <time>2016-12-04T10:14:22Z</time>
      </trkpt>
      <trkpt lat="49.05128" lon="1.18333">
        <ele>74.400002</ele>
        <time>2016-12-04T10:14:25Z</time>
      </trkpt>
      <trkpt lat="49.05127" lon="1.18318">
        <ele>74.099998</ele>
        <time>2016-12-04T10:14:27Z</time>
      </trkpt>
      <trkpt lat="49.05126" lon="1.183">
        <ele>73.699997</ele>
        <time>2016-12-04T10:14:29Z</time>
      </trkpt>
      <trkpt lat="49.05125" lon="1.18283">
        <ele>73.400002</ele>
        <time>2016-12-04T10:14:31Z</time>
      </trkpt>
      <trkpt lat="49.05123" lon="1.18265">
        <ele>73</ele>
        <time>2016-12-04T10:14:33Z</time>
      </trkpt>
      <trkpt lat="49.05122" lon="1.18246">
        <ele>72.5</ele>
        <time>2016-12-04T10:14:35Z</time>
      </trkpt>
      <trkpt lat="49.05119" lon="1.18228">
        <ele>72.099998</ele>
        <time>2016-12-04T10:14:37Z</time>
      </trkpt>
      <trkpt lat="49.05117" lon="1.18211">
        <ele>71.800003</ele>
        <time>2016-12-04T10:14:39Z</time>
      </trkpt>
      <trkpt lat="49.05114" lon="1.18193">
        <ele>71.400002</ele>
        <time>2016-12-04T10:14:41Z</time>
      </trkpt>
      <trkpt lat="49.05112" lon="1.18176">
        <ele>71.099998</ele>
        <time>2016-12-04T10:14:43Z</time>
      </trkpt>
      <trkpt lat="49.05109" lon="1.1816">
        <ele>70.800003</ele>
        <time>2016-12-04T10:14:45Z</time>
      </trkpt>
      <trkpt lat="49.05106" lon="1.18143">
        <ele>70.599998</ele>
        <time>2016-12-04T10:14:47Z</time>
      </trkpt>
      <trkpt lat="49.05103" lon="1.18128">
        <ele>70.400002</ele>
        <time>2016-12-04T10:14:49Z</time>
      </trkpt>
      <trkpt lat="49.05101" lon="1.18114">
        <ele>70.199997</ele>
        <time>2016-12-04T10:14:51Z</time>
      </trkpt>
      <trkpt lat="49.05098" lon="1.181">
        <ele>70.099998</ele>
        <time>2016-12-04T10:14:53Z</time>
      </trkpt>
      <trkpt lat="49.05092" lon="1.18081">
        <ele>70.099998</ele>
        <time>2016-12-04T10:14:56Z</time>
      </trkpt>
      <trkpt lat="49.05087" lon="1.1807">
        <ele>70.099998</ele>
        <time>2016-12-04T10:14:58Z</time>
      </trkpt>
      <trkpt lat="49.05081" lon="1.18061">
        <ele>70.199997</ele>
        <time>2016-12-04T10:15:00Z</time>
      </trkpt>
      <trkpt lat="49.05073" lon="1.18053">
        <ele>70.300003</ele>
        <time>2016-12-04T10:15:02Z</time>
      </trkpt>
      <trkpt lat="49.05062" lon="1.18043">
        <ele>70.400002</ele>
        <time>2016-12-04T10:15:05Z</time>
      </trkpt>
      <trkpt lat="49.05049" lon="1.1804">
        <ele>70.599998</ele>
        <time>2016-12-04T10:15:08Z</time>
      </trkpt>
      <trkpt lat="49.05036" lon="1.18042">
        <ele>71</ele>
        <time>2016-12-04T10:15:11Z</time>
      </trkpt>
      <trkpt lat="49.05024" lon="1.18047">
        <ele>71.400002</ele>
        <time>2016-12-04T10:15:14Z</time>
      </trkpt>
      <trkpt lat="49.05012" lon="1.18056">
        <ele>71.699997</ele>
        <time>2016-12-04T10:15:17Z</time>
      </trkpt>
      <trkpt lat="49.05001" lon="1.18066">
        <ele>72</ele>
        <time>2016-12-04T10:15:20Z</time>
      </trkpt>
      <trkpt lat="49.04991" lon="1.18078">
        <ele>72.300003</ele>
        <time>2016-12-04T10:15:23Z</time>
      </trkpt>
      <trkpt lat="49.0498" lon="1.1809">
        <ele>72.599998</ele>
        <time>2016-12-04T10:15:26Z</time>
      </trkpt>
      <trkpt lat="49.0497" lon="1.18103">
        <ele>72.900002</ele>
        <time>2016-12-04T10:15:29Z</time>
      </trkpt>
      <trkpt lat="49.04959" lon="1.18115">
        <ele>73.099998</ele>
        <time>2016-12-04T10:15:32Z</time>
      </trkpt>
      <trkpt lat="49.04948" lon="1.18124">
        <ele>73.400002</ele>
        <time>2016-12-04T10:15:35Z</time>
      </trkpt>
      <trkpt lat="49.04935" lon="1.18128">
        <ele>73.599998</ele>
        <time>2016-12-04T10:15:38Z</time>
      </trkpt>
      <trkpt lat="49.04926" lon="1.18126">
        <ele>73.800003</ele>
        <time>2016-12-04T10:15:40Z</time>
      </trkpt>
      <trkpt lat="49.04918" lon="1.1812">
        <ele>73.900002</ele>
        <time>2016-12-04T10:15:42Z</time>
      </trkpt>
      <trkpt lat="49.04909" lon="1.18104">
        <ele>74</ele>
        <time>2016-12-04T10:15:45Z</time>
      </trkpt>
      <trkpt lat="49.04904" lon="1.18087">
        <ele>74.199997</ele>
        <time>2016-12-04T10:15:48Z</time>
      </trkpt>
      <trkpt lat="49.04901" lon="1.18067">
        <ele>74.400002</ele>
        <time>2016-12-04T10:15:51Z</time>
      </trkpt>
      <trkpt lat="49.049" lon="1.18048">
        <ele>74.599998</ele>
        <time>2016-12-04T10:15:54Z</time>
      </trkpt>
      <trkpt lat="49.04894" lon="1.1803">
        <ele>74.699997</ele>
        <time>2016-12-04T10:15:57Z</time>
      </trkpt>
      <trkpt lat="49.0489" lon="1.18011">
        <ele>74.900002</ele>
        <time>2016-12-04T10:16:00Z</time>
      </trkpt>
      <trkpt lat="49.04888" lon="1.17996">
        <ele>74.900002</ele>
        <time>2016-12-04T10:16:02Z</time>
      </trkpt>
      <trkpt lat="49.04887" lon="1.17982">
        <ele>75</ele>
        <time>2016-12-04T10:16:04Z</time>
      </trkpt>
      <trkpt lat="49.04885" lon="1.17968">
        <ele>75</ele>
        <time>2016-12-04T10:16:06Z</time>
      </trkpt>
      <trkpt lat="49.04884" lon="1.17954">
        <ele>75.099998</ele>
        <time>2016-12-04T10:16:08Z</time>
      </trkpt>
      <trkpt lat="49.04884" lon="1.17934">
        <ele>75.099998</ele>
        <time>2016-12-04T10:16:11Z</time>
      </trkpt>
      <trkpt lat="49.04885" lon="1.17915">
        <ele>75.199997</ele>
        <time>2016-12-04T10:16:14Z</time>
      </trkpt>
      <trkpt lat="49.04886" lon="1.17897">
        <ele>75.199997</ele>
        <time>2016-12-04T10:16:17Z</time>
      </trkpt>
      <trkpt lat="49.04889" lon="1.17879">
        <ele>75.199997</ele>
        <time>2016-12-04T10:16:20Z</time>
      </trkpt>
      <trkpt lat="49.04892" lon="1.17861">
        <ele>75.300003</ele>
        <time>2016-12-04T10:16:23Z</time>
      </trkpt>
      <trkpt lat="49.04896" lon="1.17846">
        <ele>75.300003</ele>
        <time>2016-12-04T10:16:26Z</time>
      </trkpt>
      <trkpt lat="49.049" lon="1.17831">
        <ele>75.300003</ele>
        <time>2016-12-04T10:16:29Z</time>
      </trkpt>
      <trkpt lat="49.04906" lon="1.17816">
        <ele>75.300003</ele>
        <time>2016-12-04T10:16:32Z</time>
      </trkpt>
      <trkpt lat="49.04904" lon="1.178">
        <ele>75.300003</ele>
        <time>2016-12-04T10:16:35Z</time>
      </trkpt>
      <trkpt lat="49.04897" lon="1.17788">
        <ele>75.300003</ele>
        <time>2016-12-04T10:16:38Z</time>
      </trkpt>
      <trkpt lat="49.04888" lon="1.17776">
        <ele>75.400002</ele>
        <time>2016-12-04T10:16:41Z</time>
      </trkpt>
      <trkpt lat="49.04879" lon="1.17768">
        <ele>75.400002</ele>
        <time>2016-12-04T10:16:44Z</time>
      </trkpt>
      <trkpt lat="49.04868" lon="1.17762">
        <ele>75.5</ele>
        <time>2016-12-04T10:16:47Z</time>
      </trkpt>
      <trkpt lat="49.04855" lon="1.17756">
        <ele>75.599998</ele>
        <time>2016-12-04T10:16:50Z</time>
      </trkpt>
      <trkpt lat="49.04844" lon="1.17749">
        <ele>75.599998</ele>
        <time>2016-12-04T10:16:53Z</time>
      </trkpt>
      <trkpt lat="49.04834" lon="1.17746">
        <ele>75.699997</ele>
        <time>2016-12-04T10:16:56Z</time>
      </trkpt>
      <trkpt lat="49.04822" lon="1.1775">
        <ele>75.699997</ele>
        <time>2016-12-04T10:16:59Z</time>
      </trkpt>
      <trkpt lat="49.04817" lon="1.17764">
        <ele>75.800003</ele>
        <time>2016-12-04T10:17:02Z</time>
      </trkpt>
      <trkpt lat="49.04816" lon="1.17778">
        <ele>75.800003</ele>
        <time>2016-12-04T10:17:05Z</time>
      </trkpt>
      <trkpt lat="49.04815" lon="1.17792">
        <ele>76</ele>
        <time>2016-12-04T10:17:08Z</time>
      </trkpt>
      <trkpt lat="49.04814" lon="1.17809">
        <ele>76.300003</ele>
        <time>2016-12-04T10:17:12Z</time>
      </trkpt>
      <trkpt lat="49.04812" lon="1.17824">
        <ele>76.800003</ele>
        <time>2016-12-04T10:17:16Z</time>
      </trkpt>
      <trkpt lat="49.04809" lon="1.1784">
        <ele>77.300003</ele>
        <time>2016-12-04T10:17:20Z</time>
      </trkpt>
      <trkpt lat="49.04806" lon="1.17858">
        <ele>77.699997</ele>
        <time>2016-12-04T10:17:24Z</time>
      </trkpt>
      <trkpt lat="49.04803" lon="1.17872">
        <ele>78</ele>
        <time>2016-12-04T10:17:27Z</time>
      </trkpt>
      <trkpt lat="49.048" lon="1.17886">
        <ele>78.400002</ele>
        <time>2016-12-04T10:17:30Z</time>
      </trkpt>
      <trkpt lat="49.04796" lon="1.17901">
        <ele>78.599998</ele>
        <time>2016-12-04T10:17:33Z</time>
      </trkpt>
      <trkpt lat="49.04793" lon="1.17916">
        <ele>78.900002</ele>
        <time>2016-12-04T10:17:36Z</time>
      </trkpt>
      <trkpt lat="49.04788" lon="1.17931">
        <ele>79.199997</ele>
        <time>2016-12-04T10:17:39Z</time>
      </trkpt>
      <trkpt lat="49.04784" lon="1.17945">
        <ele>79.5</ele>
        <time>2016-12-04T10:17:42Z</time>
      </trkpt>
      <trkpt lat="49.0478" lon="1.1796">
        <ele>79.699997</ele>
        <time>2016-12-04T10:17:45Z</time>
      </trkpt>
      <trkpt lat="49.04776" lon="1.17973">
        <ele>80</ele>
        <time>2016-12-04T10:17:48Z</time>
      </trkpt>
      <trkpt lat="49.04772" lon="1.17987">
        <ele>80.199997</ele>
        <time>2016-12-04T10:17:51Z</time>
      </trkpt>
      <trkpt lat="49.04769" lon="1.18001">
        <ele>80.400002</ele>
        <time>2016-12-04T10:17:54Z</time>
      </trkpt>
      <trkpt lat="49.04765" lon="1.18014">
        <ele>80.699997</ele>
        <time>2016-12-04T10:17:57Z</time>
      </trkpt>
      <trkpt lat="49.04761" lon="1.18027">
        <ele>80.900002</ele>
        <time>2016-12-04T10:18:00Z</time>
      </trkpt>
      <trkpt lat="49.04757" lon="1.18041">
        <ele>81</ele>
        <time>2016-12-04T10:18:03Z</time>
      </trkpt>
      <trkpt lat="49.04753" lon="1.18054">
        <ele>81.199997</ele>
        <time>2016-12-04T10:18:06Z</time>
      </trkpt>
      <trkpt lat="49.04747" lon="1.18068">
        <ele>81.400002</ele>
        <time>2016-12-04T10:18:09Z</time>
      </trkpt>
      <trkpt lat="49.04748" lon="1.18073">
        <ele>83.5</ele>
        <time>2016-12-04T10:18:53Z</time>
      </trkpt>
      <trkpt lat="49.04742" lon="1.18085">
        <ele>83.5</ele>
        <time>2016-12-04T10:18:56Z</time>
      </trkpt>
      <trkpt lat="49.04733" lon="1.18094">
        <ele>83.5</ele>
        <time>2016-12-04T10:19:00Z</time>
      </trkpt>
      <trkpt lat="49.04725" lon="1.181">
        <ele>83.699997</ele>
        <time>2016-12-04T10:19:04Z</time>
      </trkpt>
      <trkpt lat="49.04715" lon="1.18103">
        <ele>84</ele>
        <time>2016-12-04T10:19:09Z</time>
      </trkpt>
      <trkpt lat="49.04705" lon="1.18103">
        <ele>84.400002</ele>
        <time>2016-12-04T10:19:14Z</time>
      </trkpt>
      <trkpt lat="49.04695" lon="1.18099">
        <ele>84.800003</ele>
        <time>2016-12-04T10:19:19Z</time>
      </trkpt>
      <trkpt lat="49.04687" lon="1.18092">
        <ele>85.300003</ele>
        <time>2016-12-04T10:19:24Z</time>
      </trkpt>
      <trkpt lat="49.04679" lon="1.18085">
        <ele>85.900002</ele>
        <time>2016-12-04T10:19:29Z</time>
      </trkpt>
      <trkpt lat="49.04671" lon="1.18077">
        <ele>86.699997</ele>
        <time>2016-12-04T10:19:35Z</time>
      </trkpt>
      <trkpt lat="49.04662" lon="1.18071">
        <ele>87.599998</ele>
        <time>2016-12-04T10:19:41Z</time>
      </trkpt>
      <trkpt lat="49.04653" lon="1.18064">
        <ele>88.699997</ele>
        <time>2016-12-04T10:19:48Z</time>
      </trkpt>
      <trkpt lat="49.04643" lon="1.18059">
        <ele>89.800003</ele>
        <time>2016-12-04T10:19:55Z</time>
      </trkpt>
      <trkpt lat="49.04635" lon="1.18052">
        <ele>90.699997</ele>
        <time>2016-12-04T10:20:01Z</time>
      </trkpt>
      <trkpt lat="49.04626" lon="1.18047">
        <ele>91.599998</ele>
        <time>2016-12-04T10:20:07Z</time>
      </trkpt>
      <trkpt lat="49.04617" lon="1.1804">
        <ele>92.699997</ele>
        <time>2016-12-04T10:20:14Z</time>
      </trkpt>
      <trkpt lat="49.04608" lon="1.18034">
        <ele>93.599998</ele>
        <time>2016-12-04T10:20:20Z</time>
      </trkpt>
      <trkpt lat="49.04599" lon="1.18028">
        <ele>94.599998</ele>
        <time>2016-12-04T10:20:26Z</time>
      </trkpt>
      <trkpt lat="49.0459" lon="1.18021">
        <ele>95.599998</ele>
        <time>2016-12-04T10:20:32Z</time>
      </trkpt>
      <trkpt lat="49.04581" lon="1.18018">
        <ele>96.599998</ele>
        <time>2016-12-04T10:20:38Z</time>
      </trkpt>
      <trkpt lat="49.04572" lon="1.18017">
        <ele>97.599998</ele>
        <time>2016-12-04T10:20:44Z</time>
      </trkpt>
      <trkpt lat="49.04563" lon="1.18017">
        <ele>98.599998</ele>
        <time>2016-12-04T10:20:51Z</time>
      </trkpt>
      <trkpt lat="49.04553" lon="1.18017">
        <ele>99.800003</ele>
        <time>2016-12-04T10:20:59Z</time>
      </trkpt>
      <trkpt lat="49.04543" lon="1.18014">
        <ele>100.699997</ele>
        <time>2016-12-04T10:21:05Z</time>
      </trkpt>
      <trkpt lat="49.04533" lon="1.18011">
        <ele>101.5</ele>
        <time>2016-12-04T10:21:11Z</time>
      </trkpt>
      <trkpt lat="49.04523" lon="1.18008">
        <ele>102.300003</ele>
        <time>2016-12-04T10:21:17Z</time>
      </trkpt>
      <trkpt lat="49.04515" lon="1.18005">
        <ele>103</ele>
        <time>2016-12-04T10:21:23Z</time>
      </trkpt>
      <trkpt lat="49.04505" lon="1.18001">
        <ele>103.5</ele>
        <time>2016-12-04T10:21:29Z</time>
      </trkpt>
      <trkpt lat="49.04496" lon="1.17997">
        <ele>104.5</ele>
        <time>2016-12-04T10:21:37Z</time>
      </trkpt>
      <trkpt lat="49.04487" lon="1.17999">
        <ele>105.099998</ele>
        <time>2016-12-04T10:21:43Z</time>
      </trkpt>
      <trkpt lat="49.04476" lon="1.17994">
        <ele>105.5</ele>
        <time>2016-12-04T10:21:48Z</time>
      </trkpt>
      <trkpt lat="49.04468" lon="1.17989">
        <ele>105.900002</ele>
        <time>2016-12-04T10:21:52Z</time>
      </trkpt>
      <trkpt lat="49.0446" lon="1.17983">
        <ele>106.300003</ele>
        <time>2016-12-04T10:21:56Z</time>
      </trkpt>
      <trkpt lat="49.0445" lon="1.17975">
        <ele>106.900002</ele>
        <time>2016-12-04T10:22:01Z</time>
      </trkpt>
      <trkpt lat="49.04442" lon="1.17968">
        <ele>107.5</ele>
        <time>2016-12-04T10:22:05Z</time>
      </trkpt>
      <trkpt lat="49.04434" lon="1.1796">
        <ele>108.099998</ele>
        <time>2016-12-04T10:22:10Z</time>
      </trkpt>
      <trkpt lat="49.04425" lon="1.17952">
        <ele>108.800003</ele>
        <time>2016-12-04T10:22:15Z</time>
      </trkpt>
      <trkpt lat="49.04417" lon="1.17943">
        <ele>109.199997</ele>
        <time>2016-12-04T10:22:19Z</time>
      </trkpt>
      <trkpt lat="49.04408" lon="1.17937">
        <ele>109.699997</ele>
        <time>2016-12-04T10:22:23Z</time>
      </trkpt>
      <trkpt lat="49.044" lon="1.17929">
        <ele>110.199997</ele>
        <time>2016-12-04T10:22:27Z</time>
      </trkpt>
      <trkpt lat="49.04392" lon="1.17921">
        <ele>110.800003</ele>
        <time>2016-12-04T10:22:31Z</time>
      </trkpt>
      <trkpt lat="49.04384" lon="1.17912">
        <ele>111.300003</ele>
        <time>2016-12-04T10:22:35Z</time>
      </trkpt>
      <trkpt lat="49.04376" lon="1.17903">
        <ele>111.800003</ele>
        <time>2016-12-04T10:22:39Z</time>
      </trkpt>
      <trkpt lat="49.04369" lon="1.17894">
        <ele>112.199997</ele>
        <time>2016-12-04T10:22:43Z</time>
      </trkpt>
      <trkpt lat="49.04361" lon="1.17882">
        <ele>112.599998</ele>
        <time>2016-12-04T10:22:48Z</time>
      </trkpt>
      <trkpt lat="49.04354" lon="1.1787">
        <ele>113.099998</ele>
        <time>2016-12-04T10:22:53Z</time>
      </trkpt>
      <trkpt lat="49.04346" lon="1.17858">
        <ele>113.599998</ele>
        <time>2016-12-04T10:22:58Z</time>
      </trkpt>
      <trkpt lat="49.0434" lon="1.17847">
        <ele>114.099998</ele>
        <time>2016-12-04T10:23:02Z</time>
      </trkpt>
      <trkpt lat="49.04335" lon="1.17835">
        <ele>114.599998</ele>
        <time>2016-12-04T10:23:06Z</time>
      </trkpt>
      <trkpt lat="49.04332" lon="1.17821">
        <ele>115.099998</ele>
        <time>2016-12-04T10:23:10Z</time>
      </trkpt>
      <trkpt lat="49.04329" lon="1.17807">
        <ele>115.5</ele>
        <time>2016-12-04T10:23:14Z</time>
      </trkpt>
      <trkpt lat="49.04327" lon="1.17791">
        <ele>115.900002</ele>
        <time>2016-12-04T10:23:18Z</time>
      </trkpt>
      <trkpt lat="49.04326" lon="1.17773">
        <ele>116.199997</ele>
        <time>2016-12-04T10:23:22Z</time>
      </trkpt>
      <trkpt lat="49.04323" lon="1.17758">
        <ele>116.5</ele>
        <time>2016-12-04T10:23:25Z</time>
      </trkpt>
      <trkpt lat="49.04316" lon="1.17745">
        <ele>116.800003</ele>
        <time>2016-12-04T10:23:28Z</time>
      </trkpt>
      <trkpt lat="49.04309" lon="1.17732">
        <ele>117</ele>
        <time>2016-12-04T10:23:31Z</time>
      </trkpt>
      <trkpt lat="49.04301" lon="1.1772">
        <ele>117.300003</ele>
        <time>2016-12-04T10:23:34Z</time>
      </trkpt>
      <trkpt lat="49.04294" lon="1.17707">
        <ele>117.5</ele>
        <time>2016-12-04T10:23:37Z</time>
      </trkpt>
      <trkpt lat="49.04285" lon="1.17695">
        <ele>117.699997</ele>
        <time>2016-12-04T10:23:40Z</time>
      </trkpt>
      <trkpt lat="49.04277" lon="1.17682">
        <ele>118</ele>
        <time>2016-12-04T10:23:43Z</time>
      </trkpt>
      <trkpt lat="49.04269" lon="1.17669">
        <ele>118.300003</ele>
        <time>2016-12-04T10:23:46Z</time>
      </trkpt>
      <trkpt lat="49.0426" lon="1.17657">
        <ele>118.599998</ele>
        <time>2016-12-04T10:23:49Z</time>
      </trkpt>
      <trkpt lat="49.04253" lon="1.17644">
        <ele>118.800003</ele>
        <time>2016-12-04T10:23:52Z</time>
      </trkpt>
      <trkpt lat="49.04245" lon="1.17631">
        <ele>119.099998</ele>
        <time>2016-12-04T10:23:55Z</time>
      </trkpt>
      <trkpt lat="49.04237" lon="1.17618">
        <ele>119.400002</ele>
        <time>2016-12-04T10:23:58Z</time>
      </trkpt>
      <trkpt lat="49.04228" lon="1.17606">
        <ele>119.800003</ele>
        <time>2016-12-04T10:24:01Z</time>
      </trkpt>
      <trkpt lat="49.0422" lon="1.17593">
        <ele>120.199997</ele>
        <time>2016-12-04T10:24:04Z</time>
      </trkpt>
      <trkpt lat="49.04212" lon="1.1758">
        <ele>120.5</ele>
        <time>2016-12-04T10:24:07Z</time>
      </trkpt>
      <trkpt lat="49.04204" lon="1.17568">
        <ele>120.900002</ele>
        <time>2016-12-04T10:24:10Z</time>
      </trkpt>
      <trkpt lat="49.04196" lon="1.17555">
        <ele>121.199997</ele>
        <time>2016-12-04T10:24:13Z</time>
      </trkpt>
      <trkpt lat="49.04188" lon="1.17542">
        <ele>121.400002</ele>
        <time>2016-12-04T10:24:16Z</time>
      </trkpt>
      <trkpt lat="49.0418" lon="1.17529">
        <ele>121.599998</ele>
        <time>2016-12-04T10:24:19Z</time>
      </trkpt>
      <trkpt lat="49.04171" lon="1.17516">
        <ele>121.699997</ele>
        <time>2016-12-04T10:24:22Z</time>
      </trkpt>
      <trkpt lat="49.04162" lon="1.17501">
        <ele>121.900002</ele>
        <time>2016-12-04T10:24:25Z</time>
      </trkpt>
      <trkpt lat="49.04155" lon="1.17491">
        <ele>121.900002</ele>
        <time>2016-12-04T10:24:27Z</time>
      </trkpt>
      <trkpt lat="49.04148" lon="1.1748">
        <ele>122</ele>
        <time>2016-12-04T10:24:29Z</time>
      </trkpt>
      <trkpt lat="49.04142" lon="1.1747">
        <ele>122</ele>
        <time>2016-12-04T10:24:31Z</time>
      </trkpt>
      <trkpt lat="49.04133" lon="1.17456">
        <ele>122</ele>
        <time>2016-12-04T10:24:34Z</time>
      </trkpt>
      <trkpt lat="49.04124" lon="1.17442">
        <ele>122.099998</ele>
        <time>2016-12-04T10:24:37Z</time>
      </trkpt>
      <trkpt lat="49.04115" lon="1.17429">
        <ele>122.099998</ele>
        <time>2016-12-04T10:24:40Z</time>
      </trkpt>
      <trkpt lat="49.04106" lon="1.17416">
        <ele>122.099998</ele>
        <time>2016-12-04T10:24:43Z</time>
      </trkpt>
      <trkpt lat="49.04099" lon="1.17406">
        <ele>122</ele>
        <time>2016-12-04T10:24:46Z</time>
      </trkpt>
      <trkpt lat="49.04092" lon="1.17395">
        <ele>121.800003</ele>
        <time>2016-12-04T10:24:51Z</time>
      </trkpt>
      <trkpt lat="49.04084" lon="1.1739">
        <ele>121.699997</ele>
        <time>2016-12-04T10:24:57Z</time>
      </trkpt>
      <trkpt lat="49.04075" lon="1.17393">
        <ele>121.599998</ele>
        <time>2016-12-04T10:25:00Z</time>
      </trkpt>
      <trkpt lat="49.04065" lon="1.17396">
        <ele>121.599998</ele>
        <time>2016-12-04T10:25:03Z</time>
      </trkpt>
      <trkpt lat="49.04054" lon="1.17398">
        <ele>121.599998</ele>
        <time>2016-12-04T10:25:06Z</time>
      </trkpt>
      <trkpt lat="49.04043" lon="1.17401">
        <ele>121.5</ele>
        <time>2016-12-04T10:25:09Z</time>
      </trkpt>
      <trkpt lat="49.04031" lon="1.17404">
        <ele>121.599998</ele>
        <time>2016-12-04T10:25:12Z</time>
      </trkpt>
      <trkpt lat="49.04018" lon="1.17406">
        <ele>121.599998</ele>
        <time>2016-12-04T10:25:15Z</time>
      </trkpt>
      <trkpt lat="49.04006" lon="1.17408">
        <ele>121.699997</ele>
        <time>2016-12-04T10:25:18Z</time>
      </trkpt>
      <trkpt lat="49.03997" lon="1.17409">
        <ele>121.800003</ele>
        <time>2016-12-04T10:25:20Z</time>
      </trkpt>
      <trkpt lat="49.03987" lon="1.1741">
        <ele>121.900002</ele>
        <time>2016-12-04T10:25:22Z</time>
      </trkpt>
      <trkpt lat="49.03978" lon="1.1741">
        <ele>122</ele>
        <time>2016-12-04T10:25:24Z</time>
      </trkpt>
      <trkpt lat="49.03969" lon="1.17409">
        <ele>122.099998</ele>
        <time>2016-12-04T10:25:26Z</time>
      </trkpt>
      <trkpt lat="49.0396" lon="1.17408">
        <ele>122.099998</ele>
        <time>2016-12-04T10:25:28Z</time>
      </trkpt>
      <trkpt lat="49.03951" lon="1.17406">
        <ele>122.199997</ele>
        <time>2016-12-04T10:25:30Z</time>
      </trkpt>
      <trkpt lat="49.03942" lon="1.17404">
        <ele>122.300003</ele>
        <time>2016-12-04T10:25:32Z</time>
      </trkpt>
      <trkpt lat="49.03932" lon="1.17401">
        <ele>122.300003</ele>
        <time>2016-12-04T10:25:34Z</time>
      </trkpt>
      <trkpt lat="49.03923" lon="1.17399">
        <ele>122.300003</ele>
        <time>2016-12-04T10:25:36Z</time>
      </trkpt>
      <trkpt lat="49.0391" lon="1.17395">
        <ele>122.400002</ele>
        <time>2016-12-04T10:25:39Z</time>
      </trkpt>
      <trkpt lat="49.03897" lon="1.17392">
        <ele>122.5</ele>
        <time>2016-12-04T10:25:42Z</time>
      </trkpt>
      <trkpt lat="49.03884" lon="1.17388">
        <ele>122.5</ele>
        <time>2016-12-04T10:25:45Z</time>
      </trkpt>
      <trkpt lat="49.03875" lon="1.17386">
        <ele>122.5</ele>
        <time>2016-12-04T10:25:47Z</time>
      </trkpt>
      <trkpt lat="49.03862" lon="1.17384">
        <ele>122.5</ele>
        <time>2016-12-04T10:25:50Z</time>
      </trkpt>
      <trkpt lat="49.0385" lon="1.17382">
        <ele>122.599998</ele>
        <time>2016-12-04T10:25:53Z</time>
      </trkpt>
      <trkpt lat="49.03838" lon="1.17382">
        <ele>122.699997</ele>
        <time>2016-12-04T10:25:56Z</time>
      </trkpt>
      <trkpt lat="49.03827" lon="1.17383">
        <ele>123</ele>
        <time>2016-12-04T10:25:59Z</time>
      </trkpt>
      <trkpt lat="49.03815" lon="1.17384">
        <ele>123.300003</ele>
        <time>2016-12-04T10:26:02Z</time>
      </trkpt>
      <trkpt lat="49.03804" lon="1.17385">
        <ele>123.599998</ele>
        <time>2016-12-04T10:26:05Z</time>
      </trkpt>
      <trkpt lat="49.03792" lon="1.17383">
        <ele>123.900002</ele>
        <time>2016-12-04T10:26:08Z</time>
      </trkpt>
      <trkpt lat="49.0378" lon="1.1738">
        <ele>124.199997</ele>
        <time>2016-12-04T10:26:11Z</time>
      </trkpt>
      <trkpt lat="49.03769" lon="1.17374">
        <ele>124.5</ele>
        <time>2016-12-04T10:26:14Z</time>
      </trkpt>
      <trkpt lat="49.03758" lon="1.17368">
        <ele>124.699997</ele>
        <time>2016-12-04T10:26:17Z</time>
      </trkpt>
      <trkpt lat="49.03749" lon="1.17361">
        <ele>124.900002</ele>
        <time>2016-12-04T10:26:20Z</time>
      </trkpt>
      <trkpt lat="49.03738" lon="1.17354">
        <ele>125.099998</ele>
        <time>2016-12-04T10:26:23Z</time>
      </trkpt>
      <trkpt lat="49.03728" lon="1.17346">
        <ele>125.199997</ele>
        <time>2016-12-04T10:26:26Z</time>
      </trkpt>
      <trkpt lat="49.03722" lon="1.17331">
        <ele>125.300003</ele>
        <time>2016-12-04T10:26:29Z</time>
      </trkpt>
      <trkpt lat="49.0372" lon="1.17312">
        <ele>125.400002</ele>
        <time>2016-12-04T10:26:32Z</time>
      </trkpt>
      <trkpt lat="49.0372" lon="1.17298">
        <ele>125.400002</ele>
        <time>2016-12-04T10:26:34Z</time>
      </trkpt>
      <trkpt lat="49.03719" lon="1.17278">
        <ele>125.400002</ele>
        <time>2016-12-04T10:26:37Z</time>
      </trkpt>
      <trkpt lat="49.03717" lon="1.17259">
        <ele>125.300003</ele>
        <time>2016-12-04T10:26:40Z</time>
      </trkpt>
      <trkpt lat="49.03715" lon="1.17241">
        <ele>125.099998</ele>
        <time>2016-12-04T10:26:43Z</time>
      </trkpt>
      <trkpt lat="49.03717" lon="1.17223">
        <ele>125</ele>
        <time>2016-12-04T10:26:46Z</time>
      </trkpt>
      <trkpt lat="49.03723" lon="1.17207">
        <ele>124.900002</ele>
        <time>2016-12-04T10:26:49Z</time>
      </trkpt>
      <trkpt lat="49.03728" lon="1.1719">
        <ele>124.900002</ele>
        <time>2016-12-04T10:26:52Z</time>
      </trkpt>
      <trkpt lat="49.03729" lon="1.17172">
        <ele>124.800003</ele>
        <time>2016-12-04T10:26:55Z</time>
      </trkpt>
      <trkpt lat="49.03727" lon="1.17153">
        <ele>124.699997</ele>
        <time>2016-12-04T10:26:58Z</time>
      </trkpt>
      <trkpt lat="49.03724" lon="1.17134">
        <ele>124.699997</ele>
        <time>2016-12-04T10:27:01Z</time>
      </trkpt>
      <trkpt lat="49.03719" lon="1.17115">
        <ele>124.699997</ele>
        <time>2016-12-04T10:27:04Z</time>
      </trkpt>
      <trkpt lat="49.03712" lon="1.17098">
        <ele>124.5</ele>
        <time>2016-12-04T10:27:07Z</time>
      </trkpt>
      <trkpt lat="49.03707" lon="1.17085">
        <ele>124.400002</ele>
        <time>2016-12-04T10:27:09Z</time>
      </trkpt>
      <trkpt lat="49.03702" lon="1.17071">
        <ele>124.300003</ele>
        <time>2016-12-04T10:27:11Z</time>
      </trkpt>
      <trkpt lat="49.03695" lon="1.17057">
        <ele>124.199997</ele>
        <time>2016-12-04T10:27:13Z</time>
      </trkpt>
      <trkpt lat="49.0369" lon="1.17044">
        <ele>124</ele>
        <time>2016-12-04T10:27:15Z</time>
      </trkpt>
      <trkpt lat="49.03684" lon="1.1703">
        <ele>123.900002</ele>
        <time>2016-12-04T10:27:17Z</time>
      </trkpt>
      <trkpt lat="49.03679" lon="1.17017">
        <ele>123.900002</ele>
        <time>2016-12-04T10:27:19Z</time>
      </trkpt>
      <trkpt lat="49.03673" lon="1.17005">
        <ele>123.800003</ele>
        <time>2016-12-04T10:27:21Z</time>
      </trkpt>
      <trkpt lat="49.03666" lon="1.16989">
        <ele>123.699997</ele>
        <time>2016-12-04T10:27:24Z</time>
      </trkpt>
      <trkpt lat="49.0366" lon="1.16973">
        <ele>123.599998</ele>
        <time>2016-12-04T10:27:27Z</time>
      </trkpt>
      <trkpt lat="49.03651" lon="1.16959">
        <ele>123.599998</ele>
        <time>2016-12-04T10:27:30Z</time>
      </trkpt>
      <trkpt lat="49.03645" lon="1.16948">
        <ele>123.5</ele>
        <time>2016-12-04T10:27:33Z</time>
      </trkpt>
      <trkpt lat="49.03636" lon="1.16938">
        <ele>123.5</ele>
        <time>2016-12-04T10:27:36Z</time>
      </trkpt>
      <trkpt lat="49.03626" lon="1.16925">
        <ele>123.400002</ele>
        <time>2016-12-04T10:27:39Z</time>
      </trkpt>
      <trkpt lat="49.03618" lon="1.16915">
        <ele>123.400002</ele>
        <time>2016-12-04T10:27:41Z</time>
      </trkpt>
      <trkpt lat="49.0361" lon="1.16906">
        <ele>123.400002</ele>
        <time>2016-12-04T10:27:43Z</time>
      </trkpt>
      <trkpt lat="49.03603" lon="1.16896">
        <ele>123.300003</ele>
        <time>2016-12-04T10:27:45Z</time>
      </trkpt>
      <trkpt lat="49.03595" lon="1.16886">
        <ele>123.199997</ele>
        <time>2016-12-04T10:27:47Z</time>
      </trkpt>
      <trkpt lat="49.03589" lon="1.16874">
        <ele>123.099998</ele>
        <time>2016-12-04T10:27:49Z</time>
      </trkpt>
      <trkpt lat="49.03585" lon="1.16862">
        <ele>123</ele>
        <time>2016-12-04T10:27:51Z</time>
      </trkpt>
      <trkpt lat="49.0358" lon="1.16849">
        <ele>122.900002</ele>
        <time>2016-12-04T10:27:53Z</time>
      </trkpt>
      <trkpt lat="49.03574" lon="1.16837">
        <ele>122.900002</ele>
        <time>2016-12-04T10:27:55Z</time>
      </trkpt>
      <trkpt lat="49.03567" lon="1.16821">
        <ele>122.699997</ele>
        <time>2016-12-04T10:27:58Z</time>
      </trkpt>
      <trkpt lat="49.03562" lon="1.16808">
        <ele>122.099998</ele>
        <time>2016-12-04T10:28:02Z</time>
      </trkpt>
      <trkpt lat="49.03553" lon="1.16798">
        <ele>121.400002</ele>
        <time>2016-12-04T10:28:06Z</time>
      </trkpt>
      <trkpt lat="49.03545" lon="1.16785">
        <ele>120.599998</ele>
        <time>2016-12-04T10:28:10Z</time>
      </trkpt>
      <trkpt lat="49.03538" lon="1.16775">
        <ele>119.900002</ele>
        <time>2016-12-04T10:28:12Z</time>
      </trkpt>
      <trkpt lat="49.0353" lon="1.16764">
        <ele>119.099998</ele>
        <time>2016-12-04T10:28:14Z</time>
      </trkpt>
      <trkpt lat="49.0352" lon="1.16751">
        <ele>118</ele>
        <time>2016-12-04T10:28:16Z</time>
      </trkpt>
      <trkpt lat="49.0351" lon="1.16739">
        <ele>116.699997</ele>
        <time>2016-12-04T10:28:18Z</time>
      </trkpt>
      <trkpt lat="49.035" lon="1.16726">
        <ele>114.900002</ele>
        <time>2016-12-04T10:28:20Z</time>
      </trkpt>
      <trkpt lat="49.0349" lon="1.16712">
        <ele>112.900002</ele>
        <time>2016-12-04T10:28:22Z</time>
      </trkpt>
      <trkpt lat="49.03481" lon="1.16699">
        <ele>110.599998</ele>
        <time>2016-12-04T10:28:24Z</time>
      </trkpt>
      <trkpt lat="49.03473" lon="1.16689">
        <ele>108.099998</ele>
        <time>2016-12-04T10:28:26Z</time>
      </trkpt>
      <trkpt lat="49.03467" lon="1.1668">
        <ele>92.5</ele>
        <time>2016-12-04T10:28:44Z</time>
      </trkpt>
      <trkpt lat="49.03458" lon="1.16672">
        <ele>84.5</ele>
        <time>2016-12-04T10:30:20Z</time>
      </trkpt>
      <trkpt lat="49.03449" lon="1.16663">
        <ele>83.400002</ele>
        <time>2016-12-04T10:30:26Z</time>
      </trkpt>
      <trkpt lat="49.03441" lon="1.16653">
        <ele>82.300003</ele>
        <time>2016-12-04T10:30:30Z</time>
      </trkpt>
      <trkpt lat="49.03433" lon="1.16643">
        <ele>81.699997</ele>
        <time>2016-12-04T10:30:32Z</time>
      </trkpt>
      <trkpt lat="49.03426" lon="1.16633">
        <ele>81.099998</ele>
        <time>2016-12-04T10:30:34Z</time>
      </trkpt>
      <trkpt lat="49.03418" lon="1.16621">
        <ele>80</ele>
        <time>2016-12-04T10:30:37Z</time>
      </trkpt>
      <trkpt lat="49.03412" lon="1.16608">
        <ele>78.300003</ele>
        <time>2016-12-04T10:30:43Z</time>
      </trkpt>
      <trkpt lat="49.03415" lon="1.16592">
        <ele>77.699997</ele>
        <time>2016-12-04T10:30:46Z</time>
      </trkpt>
      <trkpt lat="49.03418" lon="1.16573">
        <ele>77</ele>
        <time>2016-12-04T10:30:49Z</time>
      </trkpt>
      <trkpt lat="49.03421" lon="1.16554">
        <ele>76.199997</ele>
        <time>2016-12-04T10:30:52Z</time>
      </trkpt>
      <trkpt lat="49.03423" lon="1.16539">
        <ele>75.5</ele>
        <time>2016-12-04T10:30:55Z</time>
      </trkpt>
      <trkpt lat="49.03431" lon="1.16525">
        <ele>74.800003</ele>
        <time>2016-12-04T10:30:58Z</time>
      </trkpt>
      <trkpt lat="49.0344" lon="1.16512">
        <ele>74.099998</ele>
        <time>2016-12-04T10:31:01Z</time>
      </trkpt>
      <trkpt lat="49.03448" lon="1.16502">
        <ele>73.599998</ele>
        <time>2016-12-04T10:31:03Z</time>
      </trkpt>
      <trkpt lat="49.03457" lon="1.16491">
        <ele>73.099998</ele>
        <time>2016-12-04T10:31:05Z</time>
      </trkpt>
      <trkpt lat="49.03464" lon="1.16476">
        <ele>72.599998</ele>
        <time>2016-12-04T10:31:07Z</time>
      </trkpt>
      <trkpt lat="49.03468" lon="1.16459">
        <ele>72.199997</ele>
        <time>2016-12-04T10:31:09Z</time>
      </trkpt>
      <trkpt lat="49.03471" lon="1.16442">
        <ele>71.800003</ele>
        <time>2016-12-04T10:31:11Z</time>
      </trkpt>
      <trkpt lat="49.03473" lon="1.16424">
        <ele>71.400002</ele>
        <time>2016-12-04T10:31:13Z</time>
      </trkpt>
      <trkpt lat="49.03475" lon="1.16408">
        <ele>71</ele>
        <time>2016-12-04T10:31:15Z</time>
      </trkpt>
      <trkpt lat="49.03475" lon="1.1639">
        <ele>70.300003</ele>
        <time>2016-12-04T10:31:18Z</time>
      </trkpt>
      <trkpt lat="49.03467" lon="1.1638">
        <ele>69.900002</ele>
        <time>2016-12-04T10:31:20Z</time>
      </trkpt>
      <trkpt lat="49.03457" lon="1.16374">
        <ele>69.400002</ele>
        <time>2016-12-04T10:31:22Z</time>
      </trkpt>
      <trkpt lat="49.03446" lon="1.16368">
        <ele>69</ele>
        <time>2016-12-04T10:31:24Z</time>
      </trkpt>
      <trkpt lat="49.03435" lon="1.16363">
        <ele>68.599998</ele>
        <time>2016-12-04T10:31:26Z</time>
      </trkpt>
      <trkpt lat="49.03423" lon="1.16359">
        <ele>68.199997</ele>
        <time>2016-12-04T10:31:28Z</time>
      </trkpt>
      <trkpt lat="49.03411" lon="1.16355">
        <ele>67.800003</ele>
        <time>2016-12-04T10:31:30Z</time>
      </trkpt>
      <trkpt lat="49.03399" lon="1.16352">
        <ele>67.5</ele>
        <time>2016-12-04T10:31:32Z</time>
      </trkpt>
      <trkpt lat="49.03388" lon="1.1635">
        <ele>67.199997</ele>
        <time>2016-12-04T10:31:34Z</time>
      </trkpt>
      <trkpt lat="49.03376" lon="1.16348">
        <ele>66.800003</ele>
        <time>2016-12-04T10:31:36Z</time>
      </trkpt>
      <trkpt lat="49.03365" lon="1.16343">
        <ele>66.400002</ele>
        <time>2016-12-04T10:31:38Z</time>
      </trkpt>
      <trkpt lat="49.03355" lon="1.16334">
        <ele>66</ele>
        <time>2016-12-04T10:31:40Z</time>
      </trkpt>
      <trkpt lat="49.03345" lon="1.16322">
        <ele>65.699997</ele>
        <time>2016-12-04T10:31:42Z</time>
      </trkpt>
      <trkpt lat="49.03335" lon="1.16309">
        <ele>65.199997</ele>
        <time>2016-12-04T10:31:44Z</time>
      </trkpt>
      <trkpt lat="49.03327" lon="1.16295">
        <ele>64.699997</ele>
        <time>2016-12-04T10:31:46Z</time>
      </trkpt>
      <trkpt lat="49.0332" lon="1.16279">
        <ele>64.199997</ele>
        <time>2016-12-04T10:31:48Z</time>
      </trkpt>
      <trkpt lat="49.03313" lon="1.16263">
        <ele>63.799999</ele>
        <time>2016-12-04T10:31:50Z</time>
      </trkpt>
      <trkpt lat="49.03309" lon="1.16246">
        <ele>63.299999</ele>
        <time>2016-12-04T10:31:52Z</time>
      </trkpt>
      <trkpt lat="49.03305" lon="1.16228">
        <ele>62.700001</ele>
        <time>2016-12-04T10:31:54Z</time>
      </trkpt>
      <trkpt lat="49.033" lon="1.16209">
        <ele>62.200001</ele>
        <time>2016-12-04T10:31:56Z</time>
      </trkpt>
      <trkpt lat="49.03296" lon="1.16189">
        <ele>61.700001</ele>
        <time>2016-12-04T10:31:58Z</time>
      </trkpt>
      <trkpt lat="49.03292" lon="1.16169">
        <ele>61.200001</ele>
        <time>2016-12-04T10:32:00Z</time>
      </trkpt>
      <trkpt lat="49.03289" lon="1.16148">
        <ele>60.599998</ele>
        <time>2016-12-04T10:32:02Z</time>
      </trkpt>
      <trkpt lat="49.03288" lon="1.16125">
        <ele>60</ele>
        <time>2016-12-04T10:32:04Z</time>
      </trkpt>
      <trkpt lat="49.03286" lon="1.16104">
        <ele>59.599998</ele>
        <time>2016-12-04T10:32:06Z</time>
      </trkpt>
      <trkpt lat="49.03285" lon="1.16082">
        <ele>59.200001</ele>
        <time>2016-12-04T10:32:08Z</time>
      </trkpt>
      <trkpt lat="49.03283" lon="1.1606">
        <ele>58.799999</ele>
        <time>2016-12-04T10:32:10Z</time>
      </trkpt>
      <trkpt lat="49.0328" lon="1.16039">
        <ele>58.299999</ele>
        <time>2016-12-04T10:32:12Z</time>
      </trkpt>
      <trkpt lat="49.03273" lon="1.1602">
        <ele>57.900002</ele>
        <time>2016-12-04T10:32:14Z</time>
      </trkpt>
      <trkpt lat="49.03266" lon="1.16002">
        <ele>57.5</ele>
        <time>2016-12-04T10:32:16Z</time>
      </trkpt>
      <trkpt lat="49.03258" lon="1.15985">
        <ele>57.099998</ele>
        <time>2016-12-04T10:32:18Z</time>
      </trkpt>
      <trkpt lat="49.0325" lon="1.15969">
        <ele>56.700001</ele>
        <time>2016-12-04T10:32:20Z</time>
      </trkpt>
      <trkpt lat="49.03241" lon="1.15953">
        <ele>56.400002</ele>
        <time>2016-12-04T10:32:22Z</time>
      </trkpt>
      <trkpt lat="49.03233" lon="1.15938">
        <ele>56.200001</ele>
        <time>2016-12-04T10:32:24Z</time>
      </trkpt>
      <trkpt lat="49.03223" lon="1.15922">
        <ele>55.900002</ele>
        <time>2016-12-04T10:32:26Z</time>
      </trkpt>
      <trkpt lat="49.03215" lon="1.15907">
        <ele>55.700001</ele>
        <time>2016-12-04T10:32:28Z</time>
      </trkpt>
      <trkpt lat="49.03206" lon="1.15894">
        <ele>55.400002</ele>
        <time>2016-12-04T10:32:30Z</time>
      </trkpt>
      <trkpt lat="49.03199" lon="1.15881">
        <ele>55.200001</ele>
        <time>2016-12-04T10:32:32Z</time>
      </trkpt>
      <trkpt lat="49.03195" lon="1.15867">
        <ele>54.799999</ele>
        <time>2016-12-04T10:32:36Z</time>
      </trkpt>
      <trkpt lat="49.03198" lon="1.15851">
        <ele>54.200001</ele>
        <time>2016-12-04T10:32:46Z</time>
      </trkpt>
      <trkpt lat="49.03203" lon="1.15834">
        <ele>54</ele>
        <time>2016-12-04T10:32:49Z</time>
      </trkpt>
      <trkpt lat="49.03207" lon="1.1582">
        <ele>54</ele>
        <time>2016-12-04T10:32:51Z</time>
      </trkpt>
      <trkpt lat="49.03211" lon="1.15805">
        <ele>53.900002</ele>
        <time>2016-12-04T10:32:53Z</time>
      </trkpt>
      <trkpt lat="49.03215" lon="1.15789">
        <ele>53.799999</ele>
        <time>2016-12-04T10:32:55Z</time>
      </trkpt>
      <trkpt lat="49.03218" lon="1.15772">
        <ele>53.799999</ele>
        <time>2016-12-04T10:32:57Z</time>
      </trkpt>
      <trkpt lat="49.0322" lon="1.15754">
        <ele>53.799999</ele>
        <time>2016-12-04T10:32:59Z</time>
      </trkpt>
      <trkpt lat="49.03222" lon="1.15736">
        <ele>53.700001</ele>
        <time>2016-12-04T10:33:01Z</time>
      </trkpt>
      <trkpt lat="49.03225" lon="1.15719">
        <ele>53.700001</ele>
        <time>2016-12-04T10:33:03Z</time>
      </trkpt>
      <trkpt lat="49.03227" lon="1.15704">
        <ele>53.700001</ele>
        <time>2016-12-04T10:33:05Z</time>
      </trkpt>
      <trkpt lat="49.03229" lon="1.15689">
        <ele>53.599998</ele>
        <time>2016-12-04T10:33:07Z</time>
      </trkpt>
      <trkpt lat="49.0323" lon="1.15673">
        <ele>53.599998</ele>
        <time>2016-12-04T10:33:10Z</time>
      </trkpt>
      <trkpt lat="49.03223" lon="1.15665">
        <ele>53.599998</ele>
        <time>2016-12-04T10:33:13Z</time>
      </trkpt>
      <trkpt lat="49.03211" lon="1.15667">
        <ele>53.5</ele>
        <time>2016-12-04T10:33:16Z</time>
      </trkpt>
      <trkpt lat="49.03201" lon="1.15665">
        <ele>53.5</ele>
        <time>2016-12-04T10:33:18Z</time>
      </trkpt>
      <trkpt lat="49.03191" lon="1.15661">
        <ele>53.5</ele>
        <time>2016-12-04T10:33:20Z</time>
      </trkpt>
      <trkpt lat="49.03181" lon="1.15657">
        <ele>53.5</ele>
        <time>2016-12-04T10:33:22Z</time>
      </trkpt>
      <trkpt lat="49.03171" lon="1.15653">
        <ele>53.5</ele>
        <time>2016-12-04T10:33:24Z</time>
      </trkpt>
      <trkpt lat="49.0316" lon="1.15649">
        <ele>53.5</ele>
        <time>2016-12-04T10:33:26Z</time>
      </trkpt>
      <trkpt lat="49.0315" lon="1.15646">
        <ele>53.5</ele>
        <time>2016-12-04T10:33:28Z</time>
      </trkpt>
      <trkpt lat="49.0314" lon="1.15642">
        <ele>53.5</ele>
        <time>2016-12-04T10:33:30Z</time>
      </trkpt>
      <trkpt lat="49.0313" lon="1.15638">
        <ele>53.5</ele>
        <time>2016-12-04T10:33:32Z</time>
      </trkpt>
      <trkpt lat="49.03119" lon="1.15634">
        <ele>53.400002</ele>
        <time>2016-12-04T10:33:34Z</time>
      </trkpt>
      <trkpt lat="49.03108" lon="1.15631">
        <ele>53.400002</ele>
        <time>2016-12-04T10:33:36Z</time>
      </trkpt>
      <trkpt lat="49.03097" lon="1.15627">
        <ele>53.400002</ele>
        <time>2016-12-04T10:33:38Z</time>
      </trkpt>
      <trkpt lat="49.03087" lon="1.15623">
        <ele>53.299999</ele>
        <time>2016-12-04T10:33:40Z</time>
      </trkpt>
      <trkpt lat="49.03076" lon="1.15619">
        <ele>53.200001</ele>
        <time>2016-12-04T10:33:42Z</time>
      </trkpt>
      <trkpt lat="49.03065" lon="1.15614">
        <ele>53.200001</ele>
        <time>2016-12-04T10:33:44Z</time>
      </trkpt>
      <trkpt lat="49.03054" lon="1.15609">
        <ele>53.099998</ele>
        <time>2016-12-04T10:33:46Z</time>
      </trkpt>
      <trkpt lat="49.03043" lon="1.15603">
        <ele>53</ele>
        <time>2016-12-04T10:33:48Z</time>
      </trkpt>
      <trkpt lat="49.03033" lon="1.15598">
        <ele>53</ele>
        <time>2016-12-04T10:33:50Z</time>
      </trkpt>
      <trkpt lat="49.03023" lon="1.15593">
        <ele>53</ele>
        <time>2016-12-04T10:33:52Z</time>
      </trkpt>
      <trkpt lat="49.03013" lon="1.15587">
        <ele>52.900002</ele>
        <time>2016-12-04T10:33:54Z</time>
      </trkpt>
      <trkpt lat="49.03004" lon="1.15582">
        <ele>52.900002</ele>
        <time>2016-12-04T10:33:56Z</time>
      </trkpt>
      <trkpt lat="49.02994" lon="1.15578">
        <ele>52.900002</ele>
        <time>2016-12-04T10:33:58Z</time>
      </trkpt>
      <trkpt lat="49.02984" lon="1.15574">
        <ele>52.900002</ele>
        <time>2016-12-04T10:34:00Z</time>
      </trkpt>
      <trkpt lat="49.02974" lon="1.1557">
        <ele>53</ele>
        <time>2016-12-04T10:34:02Z</time>
      </trkpt>
      <trkpt lat="49.02964" lon="1.15567">
        <ele>53</ele>
        <time>2016-12-04T10:34:04Z</time>
      </trkpt>
      <trkpt lat="49.02954" lon="1.15564">
        <ele>53</ele>
        <time>2016-12-04T10:34:06Z</time>
      </trkpt>
      <trkpt lat="49.02944" lon="1.1556">
        <ele>53</ele>
        <time>2016-12-04T10:34:08Z</time>
      </trkpt>
      <trkpt lat="49.02933" lon="1.15556">
        <ele>53</ele>
        <time>2016-12-04T10:34:10Z</time>
      </trkpt>
      <trkpt lat="49.02922" lon="1.15553">
        <ele>53</ele>
        <time>2016-12-04T10:34:12Z</time>
      </trkpt>
      <trkpt lat="49.02912" lon="1.1555">
        <ele>53.099998</ele>
        <time>2016-12-04T10:34:14Z</time>
      </trkpt>
      <trkpt lat="49.02901" lon="1.15546">
        <ele>53.099998</ele>
        <time>2016-12-04T10:34:16Z</time>
      </trkpt>
      <trkpt lat="49.02891" lon="1.15543">
        <ele>53.099998</ele>
        <time>2016-12-04T10:34:18Z</time>
      </trkpt>
      <trkpt lat="49.0288" lon="1.1554">
        <ele>53.099998</ele>
        <time>2016-12-04T10:34:20Z</time>
      </trkpt>
      <trkpt lat="49.02869" lon="1.15537">
        <ele>53.099998</ele>
        <time>2016-12-04T10:34:22Z</time>
      </trkpt>
      <trkpt lat="49.02858" lon="1.15535">
        <ele>53.099998</ele>
        <time>2016-12-04T10:34:24Z</time>
      </trkpt>
      <trkpt lat="49.02846" lon="1.15535">
        <ele>53.099998</ele>
        <time>2016-12-04T10:34:26Z</time>
      </trkpt>
      <trkpt lat="49.02836" lon="1.15536">
        <ele>53.099998</ele>
        <time>2016-12-04T10:34:28Z</time>
      </trkpt>
      <trkpt lat="49.02824" lon="1.15537">
        <ele>53.099998</ele>
        <time>2016-12-04T10:34:30Z</time>
      </trkpt>
      <trkpt lat="49.02814" lon="1.15538">
        <ele>53.200001</ele>
        <time>2016-12-04T10:34:32Z</time>
      </trkpt>
      <trkpt lat="49.02803" lon="1.15539">
        <ele>53.299999</ele>
        <time>2016-12-04T10:34:34Z</time>
      </trkpt>
      <trkpt lat="49.02793" lon="1.15541">
        <ele>53.400002</ele>
        <time>2016-12-04T10:34:36Z</time>
      </trkpt>
      <trkpt lat="49.02782" lon="1.15541">
        <ele>53.599998</ele>
        <time>2016-12-04T10:34:38Z</time>
      </trkpt>
      <trkpt lat="49.02772" lon="1.15542">
        <ele>53.700001</ele>
        <time>2016-12-04T10:34:40Z</time>
      </trkpt>
      <trkpt lat="49.02762" lon="1.15543">
        <ele>53.900002</ele>
        <time>2016-12-04T10:34:42Z</time>
      </trkpt>
      <trkpt lat="49.0275" lon="1.15543">
        <ele>54</ele>
        <time>2016-12-04T10:34:44Z</time>
      </trkpt>
      <trkpt lat="49.0274" lon="1.15544">
        <ele>54.200001</ele>
        <time>2016-12-04T10:34:46Z</time>
      </trkpt>
      <trkpt lat="49.02729" lon="1.15545">
        <ele>54.400002</ele>
        <time>2016-12-04T10:34:48Z</time>
      </trkpt>
      <trkpt lat="49.02719" lon="1.15546">
        <ele>54.599998</ele>
        <time>2016-12-04T10:34:50Z</time>
      </trkpt>
      <trkpt lat="49.02708" lon="1.15547">
        <ele>54.799999</ele>
        <time>2016-12-04T10:34:52Z</time>
      </trkpt>
      <trkpt lat="49.02697" lon="1.15548">
        <ele>55</ele>
        <time>2016-12-04T10:34:54Z</time>
      </trkpt>
      <trkpt lat="49.02686" lon="1.1555">
        <ele>55.299999</ele>
        <time>2016-12-04T10:34:56Z</time>
      </trkpt>
      <trkpt lat="49.02676" lon="1.15553">
        <ele>55.5</ele>
        <time>2016-12-04T10:34:58Z</time>
      </trkpt>
      <trkpt lat="49.02666" lon="1.15557">
        <ele>55.700001</ele>
        <time>2016-12-04T10:35:00Z</time>
      </trkpt>
      <trkpt lat="49.02656" lon="1.1556">
        <ele>56</ele>
        <time>2016-12-04T10:35:02Z</time>
      </trkpt>
      <trkpt lat="49.02646" lon="1.15562">
        <ele>56.200001</ele>
        <time>2016-12-04T10:35:04Z</time>
      </trkpt>
      <trkpt lat="49.02636" lon="1.15564">
        <ele>56.5</ele>
        <time>2016-12-04T10:35:06Z</time>
      </trkpt>
      <trkpt lat="49.02627" lon="1.15565">
        <ele>56.799999</ele>
        <time>2016-12-04T10:35:08Z</time>
      </trkpt>
      <trkpt lat="49.02615" lon="1.15567">
        <ele>57.299999</ele>
        <time>2016-12-04T10:35:11Z</time>
      </trkpt>
      <trkpt lat="49.02603" lon="1.15567">
        <ele>57.799999</ele>
        <time>2016-12-04T10:35:14Z</time>
      </trkpt>
      <trkpt lat="49.02594" lon="1.15567">
        <ele>58.299999</ele>
        <time>2016-12-04T10:35:17Z</time>
      </trkpt>
      <trkpt lat="49.02584" lon="1.15567">
        <ele>59.200001</ele>
        <time>2016-12-04T10:35:22Z</time>
      </trkpt>
      <trkpt lat="49.02575" lon="1.15563">
        <ele>60.900002</ele>
        <time>2016-12-04T10:35:40Z</time>
      </trkpt>
      <trkpt lat="49.02567" lon="1.15553">
        <ele>61.200001</ele>
        <time>2016-12-04T10:35:44Z</time>
      </trkpt>
      <trkpt lat="49.02561" lon="1.15538">
        <ele>61.299999</ele>
        <time>2016-12-04T10:35:48Z</time>
      </trkpt>
      <trkpt lat="49.02557" lon="1.15523">
        <ele>61.5</ele>
        <time>2016-12-04T10:35:51Z</time>
      </trkpt>
      <trkpt lat="49.02554" lon="1.15508">
        <ele>61.5</ele>
        <time>2016-12-04T10:35:54Z</time>
      </trkpt>
      <trkpt lat="49.02549" lon="1.15489">
        <ele>61.5</ele>
        <time>2016-12-04T10:35:57Z</time>
      </trkpt>
      <trkpt lat="49.02545" lon="1.15475">
        <ele>61.5</ele>
        <time>2016-12-04T10:35:59Z</time>
      </trkpt>
      <trkpt lat="49.02542" lon="1.15461">
        <ele>61.5</ele>
        <time>2016-12-04T10:36:01Z</time>
      </trkpt>
      <trkpt lat="49.02538" lon="1.15447">
        <ele>61.5</ele>
        <time>2016-12-04T10:36:03Z</time>
      </trkpt>
      <trkpt lat="49.02534" lon="1.15431">
        <ele>61.400002</ele>
        <time>2016-12-04T10:36:05Z</time>
      </trkpt>
      <trkpt lat="49.0253" lon="1.15417">
        <ele>61.400002</ele>
        <time>2016-12-04T10:36:07Z</time>
      </trkpt>
      <trkpt lat="49.02526" lon="1.15401">
        <ele>61.200001</ele>
        <time>2016-12-04T10:36:10Z</time>
      </trkpt>
      <trkpt lat="49.02524" lon="1.15386">
        <ele>60.400002</ele>
        <time>2016-12-04T10:36:27Z</time>
      </trkpt>
      <trkpt lat="49.02519" lon="1.15369">
        <ele>60.299999</ele>
        <time>2016-12-04T10:36:30Z</time>
      </trkpt>
      <trkpt lat="49.02514" lon="1.15351">
        <ele>60.299999</ele>
        <time>2016-12-04T10:36:33Z</time>
      </trkpt>
      <trkpt lat="49.0251" lon="1.15338">
        <ele>60.200001</ele>
        <time>2016-12-04T10:36:35Z</time>
      </trkpt>
      <trkpt lat="49.02507" lon="1.15325">
        <ele>60.099998</ele>
        <time>2016-12-04T10:36:37Z</time>
      </trkpt>
      <trkpt lat="49.02504" lon="1.15311">
        <ele>60</ele>
        <time>2016-12-04T10:36:39Z</time>
      </trkpt>
      <trkpt lat="49.02496" lon="1.153">
        <ele>59.900002</ele>
        <time>2016-12-04T10:36:41Z</time>
      </trkpt>
      <trkpt lat="49.02487" lon="1.15298">
        <ele>59.799999</ele>
        <time>2016-12-04T10:36:43Z</time>
      </trkpt>
      <trkpt lat="49.02478" lon="1.153">
        <ele>59.700001</ele>
        <time>2016-12-04T10:36:45Z</time>
      </trkpt>
      <trkpt lat="49.02469" lon="1.15305">
        <ele>59.599998</ele>
        <time>2016-12-04T10:36:47Z</time>
      </trkpt>
      <trkpt lat="49.02456" lon="1.15312">
        <ele>59.400002</ele>
        <time>2016-12-04T10:36:50Z</time>
      </trkpt>
      <trkpt lat="49.02448" lon="1.15317">
        <ele>59.400002</ele>
        <time>2016-12-04T10:36:52Z</time>
      </trkpt>
      <trkpt lat="49.02437" lon="1.15321">
        <ele>59.299999</ele>
        <time>2016-12-04T10:36:55Z</time>
      </trkpt>
      <trkpt lat="49.02425" lon="1.15326">
        <ele>59.200001</ele>
        <time>2016-12-04T10:36:58Z</time>
      </trkpt>
      <trkpt lat="49.02416" lon="1.15332">
        <ele>59.200001</ele>
        <time>2016-12-04T10:37:00Z</time>
      </trkpt>
      <trkpt lat="49.02408" lon="1.15338">
        <ele>59.099998</ele>
        <time>2016-12-04T10:37:02Z</time>
      </trkpt>
      <trkpt lat="49.02397" lon="1.15348">
        <ele>59.299999</ele>
        <time>2016-12-04T10:37:05Z</time>
      </trkpt>
      <trkpt lat="49.02389" lon="1.15354">
        <ele>60</ele>
        <time>2016-12-04T10:37:10Z</time>
      </trkpt>
      <trkpt lat="49.02383" lon="1.15337">
        <ele>62.5</ele>
        <time>2016-12-04T10:37:53Z</time>
      </trkpt>
      <trkpt lat="49.02379" lon="1.15324">
        <ele>62.599998</ele>
        <time>2016-12-04T10:37:56Z</time>
      </trkpt>
      <trkpt lat="49.02374" lon="1.15308">
        <ele>62.599998</ele>
        <time>2016-12-04T10:37:59Z</time>
      </trkpt>
      <trkpt lat="49.02368" lon="1.15291">
        <ele>62.599998</ele>
        <time>2016-12-04T10:38:02Z</time>
      </trkpt>
      <trkpt lat="49.02362" lon="1.15273">
        <ele>62.599998</ele>
        <time>2016-12-04T10:38:05Z</time>
      </trkpt>
      <trkpt lat="49.02356" lon="1.15256">
        <ele>62.599998</ele>
        <time>2016-12-04T10:38:08Z</time>
      </trkpt>
      <trkpt lat="49.02351" lon="1.15237">
        <ele>62.5</ele>
        <time>2016-12-04T10:38:11Z</time>
      </trkpt>
      <trkpt lat="49.02347" lon="1.15224">
        <ele>62.400002</ele>
        <time>2016-12-04T10:38:14Z</time>
      </trkpt>
      <trkpt lat="49.02355" lon="1.15212">
        <ele>62.099998</ele>
        <time>2016-12-04T10:38:20Z</time>
      </trkpt>
      <trkpt lat="49.02364" lon="1.15205">
        <ele>61.900002</ele>
        <time>2016-12-04T10:38:23Z</time>
      </trkpt>
      <trkpt lat="49.0237" lon="1.15193">
        <ele>61.599998</ele>
        <time>2016-12-04T10:38:27Z</time>
      </trkpt>
      <trkpt lat="49.02366" lon="1.15176">
        <ele>61.400002</ele>
        <time>2016-12-04T10:38:30Z</time>
      </trkpt>
      <trkpt lat="49.02362" lon="1.15162">
        <ele>61.200001</ele>
        <time>2016-12-04T10:38:32Z</time>
      </trkpt>
      <trkpt lat="49.02358" lon="1.1515">
        <ele>61.099998</ele>
        <time>2016-12-04T10:38:34Z</time>
      </trkpt>
      <trkpt lat="49.02354" lon="1.15137">
        <ele>60.900002</ele>
        <time>2016-12-04T10:38:36Z</time>
      </trkpt>
      <trkpt lat="49.02351" lon="1.15121">
        <ele>60.799999</ele>
        <time>2016-12-04T10:38:38Z</time>
      </trkpt>
      <trkpt lat="49.02347" lon="1.15106">
        <ele>60.700001</ele>
        <time>2016-12-04T10:38:40Z</time>
      </trkpt>
      <trkpt lat="49.02344" lon="1.15093">
        <ele>60.599998</ele>
        <time>2016-12-04T10:38:42Z</time>
      </trkpt>
      <trkpt lat="49.0234" lon="1.15075">
        <ele>60.400002</ele>
        <time>2016-12-04T10:38:45Z</time>
      </trkpt>
      <trkpt lat="49.02339" lon="1.15058">
        <ele>60.200001</ele>
        <time>2016-12-04T10:38:48Z</time>
      </trkpt>
      <trkpt lat="49.0233" lon="1.15029">
        <ele>59.400002</ele>
        <time>2016-12-04T10:39:16Z</time>
      </trkpt>
      <trkpt lat="49.02321" lon="1.15022">
        <ele>59.299999</ele>
        <time>2016-12-04T10:39:21Z</time>
      </trkpt>
      <trkpt lat="49.02317" lon="1.15005">
        <ele>59.299999</ele>
        <time>2016-12-04T10:39:24Z</time>
      </trkpt>
      <trkpt lat="49.02312" lon="1.14991">
        <ele>59.200001</ele>
        <time>2016-12-04T10:39:27Z</time>
      </trkpt>
      <trkpt lat="49.02303" lon="1.14977">
        <ele>59.200001</ele>
        <time>2016-12-04T10:39:30Z</time>
      </trkpt>
      <trkpt lat="49.02296" lon="1.14966">
        <ele>59.200001</ele>
        <time>2016-12-04T10:39:32Z</time>
      </trkpt>
      <trkpt lat="49.02288" lon="1.14956">
        <ele>59.099998</ele>
        <time>2016-12-04T10:39:34Z</time>
      </trkpt>
      <trkpt lat="49.02279" lon="1.14946">
        <ele>59.099998</ele>
        <time>2016-12-04T10:39:36Z</time>
      </trkpt>
      <trkpt lat="49.02271" lon="1.14936">
        <ele>59</ele>
        <time>2016-12-04T10:39:38Z</time>
      </trkpt>
      <trkpt lat="49.02265" lon="1.14925">
        <ele>59</ele>
        <time>2016-12-04T10:39:40Z</time>
      </trkpt>
      <trkpt lat="49.02258" lon="1.14915">
        <ele>58.5</ele>
        <time>2016-12-04T10:39:49Z</time>
      </trkpt>
      <trkpt lat="49.02251" lon="1.14905">
        <ele>57.900002</ele>
        <time>2016-12-04T10:40:37Z</time>
      </trkpt>
      <trkpt lat="49.02243" lon="1.14893">
        <ele>57.900002</ele>
        <time>2016-12-04T10:40:41Z</time>
      </trkpt>
      <trkpt lat="49.02236" lon="1.14879">
        <ele>57.900002</ele>
        <time>2016-12-04T10:40:45Z</time>
      </trkpt>
      <trkpt lat="49.02233" lon="1.14863">
        <ele>57.900002</ele>
        <time>2016-12-04T10:40:49Z</time>
      </trkpt>
      <trkpt lat="49.02233" lon="1.14849">
        <ele>57.900002</ele>
        <time>2016-12-04T10:40:53Z</time>
      </trkpt>
      <trkpt lat="49.02231" lon="1.14835">
        <ele>57.799999</ele>
        <time>2016-12-04T10:41:11Z</time>
      </trkpt>
      <trkpt lat="49.02231" lon="1.14818">
        <ele>57.799999</ele>
        <time>2016-12-04T10:41:14Z</time>
      </trkpt>
      <trkpt lat="49.0223" lon="1.14803">
        <ele>57.799999</ele>
        <time>2016-12-04T10:41:16Z</time>
      </trkpt>
      <trkpt lat="49.0223" lon="1.14788">
        <ele>57.799999</ele>
        <time>2016-12-04T10:41:18Z</time>
      </trkpt>
      <trkpt lat="49.02229" lon="1.14771">
        <ele>57.799999</ele>
        <time>2016-12-04T10:41:20Z</time>
      </trkpt>
      <trkpt lat="49.02229" lon="1.14755">
        <ele>57.799999</ele>
        <time>2016-12-04T10:41:22Z</time>
      </trkpt>
      <trkpt lat="49.02228" lon="1.14738">
        <ele>57.799999</ele>
        <time>2016-12-04T10:41:24Z</time>
      </trkpt>
      <trkpt lat="49.02227" lon="1.14722">
        <ele>57.700001</ele>
        <time>2016-12-04T10:41:26Z</time>
      </trkpt>
      <trkpt lat="49.02226" lon="1.14706">
        <ele>57.700001</ele>
        <time>2016-12-04T10:41:28Z</time>
      </trkpt>
      <trkpt lat="49.02224" lon="1.1469">
        <ele>57.700001</ele>
        <time>2016-12-04T10:41:30Z</time>
      </trkpt>
      <trkpt lat="49.02223" lon="1.14671">
        <ele>57.700001</ele>
        <time>2016-12-04T10:41:32Z</time>
      </trkpt>
      <trkpt lat="49.02222" lon="1.14653">
        <ele>57.599998</ele>
        <time>2016-12-04T10:41:34Z</time>
      </trkpt>
      <trkpt lat="49.02223" lon="1.14635">
        <ele>57.599998</ele>
        <time>2016-12-04T10:41:36Z</time>
      </trkpt>
      <trkpt lat="49.02222" lon="1.14616">
        <ele>57.5</ele>
        <time>2016-12-04T10:41:38Z</time>
      </trkpt>
      <trkpt lat="49.02221" lon="1.14597">
        <ele>57.5</ele>
        <time>2016-12-04T10:41:40Z</time>
      </trkpt>
      <trkpt lat="49.0222" lon="1.14579">
        <ele>57.5</ele>
        <time>2016-12-04T10:41:42Z</time>
      </trkpt>
      <trkpt lat="49.02219" lon="1.1456">
        <ele>57.400002</ele>
        <time>2016-12-04T10:41:44Z</time>
      </trkpt>
      <trkpt lat="49.02218" lon="1.14542">
        <ele>57.400002</ele>
        <time>2016-12-04T10:41:46Z</time>
      </trkpt>
      <trkpt lat="49.02217" lon="1.14524">
        <ele>57.299999</ele>
        <time>2016-12-04T10:41:48Z</time>
      </trkpt>
      <trkpt lat="49.02216" lon="1.14506">
        <ele>57.200001</ele>
        <time>2016-12-04T10:41:50Z</time>
      </trkpt>
      <trkpt lat="49.02215" lon="1.14489">
        <ele>57.099998</ele>
        <time>2016-12-04T10:41:52Z</time>
      </trkpt>
      <trkpt lat="49.02215" lon="1.14472">
        <ele>57.099998</ele>
        <time>2016-12-04T10:41:54Z</time>
      </trkpt>
      <trkpt lat="49.02214" lon="1.14454">
        <ele>57</ele>
        <time>2016-12-04T10:41:56Z</time>
      </trkpt>
      <trkpt lat="49.02214" lon="1.14437">
        <ele>57</ele>
        <time>2016-12-04T10:41:58Z</time>
      </trkpt>
      <trkpt lat="49.02213" lon="1.1442">
        <ele>56.900002</ele>
        <time>2016-12-04T10:42:00Z</time>
      </trkpt>
      <trkpt lat="49.02212" lon="1.14401">
        <ele>56.900002</ele>
        <time>2016-12-04T10:42:02Z</time>
      </trkpt>
      <trkpt lat="49.0221" lon="1.14383">
        <ele>56.900002</ele>
        <time>2016-12-04T10:42:04Z</time>
      </trkpt>
      <trkpt lat="49.0221" lon="1.14365">
        <ele>56.900002</ele>
        <time>2016-12-04T10:42:06Z</time>
      </trkpt>
      <trkpt lat="49.02208" lon="1.14346">
        <ele>56.799999</ele>
        <time>2016-12-04T10:42:08Z</time>
      </trkpt>
      <trkpt lat="49.02207" lon="1.14328">
        <ele>56.799999</ele>
        <time>2016-12-04T10:42:10Z</time>
      </trkpt>
      <trkpt lat="49.02206" lon="1.1431">
        <ele>56.799999</ele>
        <time>2016-12-04T10:42:12Z</time>
      </trkpt>
      <trkpt lat="49.02205" lon="1.14293">
        <ele>56.799999</ele>
        <time>2016-12-04T10:42:14Z</time>
      </trkpt>
      <trkpt lat="49.02204" lon="1.14276">
        <ele>56.799999</ele>
        <time>2016-12-04T10:42:16Z</time>
      </trkpt>
      <trkpt lat="49.02203" lon="1.14259">
        <ele>56.799999</ele>
        <time>2016-12-04T10:42:18Z</time>
      </trkpt>
      <trkpt lat="49.02203" lon="1.14241">
        <ele>56.799999</ele>
        <time>2016-12-04T10:42:20Z</time>
      </trkpt>
      <trkpt lat="49.02202" lon="1.14223">
        <ele>56.799999</ele>
        <time>2016-12-04T10:42:22Z</time>
      </trkpt>
      <trkpt lat="49.02201" lon="1.14205">
        <ele>57</ele>
        <time>2016-12-04T10:42:24Z</time>
      </trkpt>
      <trkpt lat="49.022" lon="1.14189">
        <ele>57</ele>
        <time>2016-12-04T10:42:26Z</time>
      </trkpt>
      <trkpt lat="49.022" lon="1.14175">
        <ele>57.099998</ele>
        <time>2016-12-04T10:42:28Z</time>
      </trkpt>
      <trkpt lat="49.02198" lon="1.14161">
        <ele>57.200001</ele>
        <time>2016-12-04T10:42:30Z</time>
      </trkpt>
      <trkpt lat="49.02197" lon="1.14147">
        <ele>57.200001</ele>
        <time>2016-12-04T10:42:32Z</time>
      </trkpt>
      <trkpt lat="49.02197" lon="1.14133">
        <ele>57.299999</ele>
        <time>2016-12-04T10:42:34Z</time>
      </trkpt>
      <trkpt lat="49.02198" lon="1.14115">
        <ele>57.400002</ele>
        <time>2016-12-04T10:42:37Z</time>
      </trkpt>
      <trkpt lat="49.02205" lon="1.14106">
        <ele>57.5</ele>
        <time>2016-12-04T10:42:40Z</time>
      </trkpt>
      <trkpt lat="49.02214" lon="1.141">
        <ele>57.700001</ele>
        <time>2016-12-04T10:42:43Z</time>
      </trkpt>
      <trkpt lat="49.02223" lon="1.14091">
        <ele>57.799999</ele>
        <time>2016-12-04T10:42:46Z</time>
      </trkpt>
      <trkpt lat="49.02232" lon="1.14081">
        <ele>57.900002</ele>
        <time>2016-12-04T10:42:49Z</time>
      </trkpt>
      <trkpt lat="49.02239" lon="1.14074">
        <ele>58.200001</ele>
        <time>2016-12-04T10:42:59Z</time>
      </trkpt>
    </trkseg>
  </trk>
</gpx>